GFSGBSN_prec_pwat_000.txt.gz
Precipitable_Water
0.85 0.84 0.87 0.83 0.76 0.69 0.66 0.73 0.79 0.90 0.93 0.93 0.89 0.90 0.93 0.89 0.87 0.85 0.82 0.80 0.81 0.86 0.86 0.83 0.84 0.90 0.91 0.66 0.55 0.81 0.96 0.95 0.98 0.88 0.92 0.93 0.81 0.78 0.64 0.66 0.67 0.58 0.58 0.62 0.67 0.71 0.73
0.83 0.81 0.88 0.85 0.78 0.76 0.71 0.74 0.79 0.93 0.98 0.98 0.95 0.96 0.98 0.93 0.88 0.83 0.83 0.79 0.77 0.83 0.85 0.85 0.84 0.90 0.78 0.48 0.75 0.78 0.87 0.92 0.93 0.83 0.90 0.97 0.85 0.83 0.77 0.70 0.64 0.67 0.63 0.62 0.67 0.68 0.71
0.81 0.81 0.82 0.82 0.79 0.76 0.72 0.73 0.77 0.90 1.00 1.00 1.03 1.06 1.05 1.00 0.94 0.86 0.82 0.80 0.80 0.83 0.83 0.86 0.88 0.84 0.64 0.48 0.76 0.77 0.81 0.86 0.86 0.88 0.79 1.01 1.01 0.81 0.81 0.70 0.76 0.71 0.58 0.62 0.59 0.63 0.65
0.82 0.81 0.81 0.80 0.78 0.75 0.73 0.72 0.75 0.88 0.99 1.05 1.05 1.08 1.08 1.05 1.01 0.94 0.87 0.87 0.86 0.81 0.80 0.84 0.88 0.80 0.48 0.78 0.79 0.70 0.80 0.84 0.88 0.94 0.91 1.11 1.09 0.85 0.84 0.85 0.71 0.61 0.60 0.45 0.53 0.59 0.64
0.80 0.82 0.83 0.81 0.80 0.76 0.78 0.77 0.73 0.83 0.93 1.02 1.01 1.05 1.08 1.09 1.08 1.08 1.00 0.92 0.93 0.87 0.82 0.84 0.77 0.70 0.48 0.79 0.63 0.68 0.74 0.76 0.93 0.88 0.99 1.15 1.08 0.83 0.83 0.67 0.53 0.54 0.41 0.43 0.45 0.58 0.52
0.78 0.81 0.85 0.86 0.82 0.82 0.73 0.77 0.72 0.77 0.89 0.97 1.04 1.07 1.06 1.08 1.09 1.10 1.08 1.01 0.93 0.89 0.82 0.81 0.75 0.60 0.58 0.55 0.65 0.65 0.69 0.83 0.89 0.77 0.82 0.98 0.91 0.71 0.67 0.60 0.42 0.41 0.41 0.44 0.42 0.55 0.48
0.76 0.81 0.81 0.87 0.84 0.86 0.69 0.73 0.72 0.73 0.91 0.98 1.03 1.09 1.10 1.11 1.09 1.12 1.08 0.94 0.70 0.59 0.64 0.49 0.48 0.48 0.58 0.67 0.74 0.60 0.65 0.76 0.88 0.66 0.60 0.79 0.66 0.56 0.58 0.56 0.56 0.54 0.49 0.44 0.52 0.55 0.46
0.74 0.80 0.80 0.83 0.89 0.83 0.79 0.67 0.69 0.69 0.89 0.99 1.04 1.13 1.14 1.14 1.15 1.15 1.05 0.75 0.65 0.66 0.48 0.58 0.57 0.60 0.60 0.74 0.56 0.56 0.66 0.63 0.69 0.47 0.67 0.72 0.55 0.68 0.74 0.65 0.64 0.54 0.51 0.48 0.53 0.55 0.47
0.75 0.79 0.81 0.82 0.89 0.90 0.83 0.69 0.67 0.66 0.84 0.98 1.03 1.09 1.15 1.16 1.16 1.10 0.93 0.81 0.89 0.80 0.51 0.53 0.53 0.54 0.59 0.69 0.55 0.49 0.58 0.66 0.63 0.49 0.57 0.56 0.65 0.75 0.70 0.63 0.58 0.58 0.49 0.53 0.49 0.56 0.52
0.78 0.80 0.83 0.82 0.89 0.95 0.91 0.82 0.67 0.67 0.80 0.91 0.95 1.06 1.16 1.17 1.01 1.00 0.86 0.98 0.96 0.83 0.40 0.44 0.46 0.51 0.60 0.67 0.51 0.61 0.62 0.66 0.63 0.47 0.60 0.67 0.77 0.74 0.68 0.61 0.59 0.53 0.60 0.61 0.54 0.50 0.35
0.81 0.83 0.86 0.84 0.89 0.94 0.98 0.93 0.77 0.68 0.67 0.87 0.95 1.03 1.16 1.17 0.96 0.88 0.96 1.03 0.97 0.80 0.23 0.46 0.49 0.67 0.58 0.56 0.52 0.54 0.62 0.71 0.56 0.49 0.61 0.57 0.64 0.70 0.64 0.61 0.64 0.52 0.65 0.63 0.57 0.45 0.38
0.83 0.85 0.86 0.86 0.90 0.96 0.98 1.01 0.93 0.78 0.66 0.70 0.88 0.94 1.12 1.11 1.05 1.05 1.11 1.03 0.85 0.40 0.23 0.36 0.47 0.45 0.48 0.50 0.52 0.55 0.55 0.76 0.79 0.52 0.62 0.67 0.81 0.78 0.71 0.77 0.71 0.71 0.63 0.58 0.52 0.43 0.29
0.82 0.85 0.87 0.85 0.93 0.97 0.98 1.03 1.03 0.94 0.71 0.73 0.78 0.93 1.01 1.12 0.93 1.12 1.07 0.82 0.42 0.29 0.47 0.33 0.34 0.43 0.44 0.40 0.48 0.50 0.45 0.53 0.54 0.39 0.42 0.56 0.61 0.70 0.71 0.66 0.68 0.67 0.56 0.40 0.33 0.30 0.24
0.84 0.87 0.87 0.85 0.91 0.97 1.00 1.03 1.05 1.00 0.76 0.74 0.78 0.87 0.97 1.06 1.21 1.08 0.92 0.59 0.33 0.44 0.40 0.45 0.38 0.38 0.39 0.41 0.50 0.52 0.55 0.53 0.67 0.46 0.42 0.40 0.39 0.63 0.72 0.62 0.55 0.59 0.55 0.36 0.25 0.23 0.24
0.85 0.87 0.85 0.85 0.91 0.97 1.01 1.03 1.04 1.04 0.80 0.75 0.78 0.80 0.87 1.06 1.22 1.08 0.72 0.43 0.42 0.45 0.54 0.45 0.39 0.32 0.37 0.47 0.53 0.53 0.52 0.55 0.63 0.56 0.39 0.42 0.44 0.62 0.61 0.61 0.67 0.58 0.48 0.51 0.38 0.36 0.28
0.88 0.87 0.85 0.85 0.90 0.95 1.02 1.05 1.05 1.08 0.82 0.71 0.68 0.71 0.81 1.18 1.22 0.96 0.64 0.51 0.58 0.65 0.58 0.52 0.34 0.39 0.39 0.45 0.51 0.52 0.52 0.64 0.63 0.63 0.56 0.50 0.39 0.51 0.57 0.62 0.62 0.56 0.58 0.40 0.39 0.25 0.20
0.90 0.86 0.85 0.84 0.90 0.94 1.01 1.04 1.04 1.09 0.79 0.73 0.73 0.63 0.95 1.25 1.14 0.80 0.55 0.57 0.67 0.69 0.61 0.51 0.44 0.42 0.46 0.44 0.53 0.50 0.52 0.63 0.68 0.63 0.60 0.53 0.47 0.49 0.53 0.49 0.49 0.49 0.42 0.43 0.41 0.36 0.24
0.90 0.86 0.85 0.84 0.89 0.92 1.00 1.03 1.03 1.10 0.79 0.68 0.67 0.55 1.06 1.19 0.74 0.74 0.62 0.72 0.75 0.66 0.69 0.62 0.54 0.55 0.49 0.51 0.52 0.54 0.53 0.59 0.71 0.66 0.51 0.54 0.46 0.40 0.42 0.51 0.57 0.52 0.46 0.43 0.34 0.29 0.30
0.89 0.87 0.85 0.84 0.88 0.90 0.96 1.02 1.02 1.08 0.81 0.58 0.61 0.73 1.08 1.07 0.65 0.67 0.76 0.72 0.73 0.68 0.66 0.64 0.55 0.57 0.57 0.49 0.48 0.58 0.64 0.73 0.73 0.65 0.55 0.55 0.44 0.38 0.42 0.47 0.51 0.44 0.47 0.46 0.42 0.36 0.24
0.86 0.87 0.86 0.84 0.87 0.89 0.93 1.01 1.00 1.06 0.85 0.66 0.64 0.57 0.80 0.90 0.90 0.75 0.69 0.67 0.67 0.81 0.76 0.73 0.61 0.61 0.52 0.51 0.58 0.56 0.62 0.69 0.72 0.66 0.69 0.61 0.47 0.39 0.34 0.39 0.46 0.42 0.44 0.45 0.39 0.26 0.25
0.87 0.85 0.86 0.84 0.87 0.89 0.91 0.98 0.99 1.06 0.85 0.66 0.60 0.58 0.71 0.64 0.72 0.76 0.75 0.72 0.67 0.66 0.78 0.73 0.60 0.56 0.50 0.46 0.50 0.52 0.59 0.61 0.70 0.69 0.66 0.62 0.44 0.47 0.44 0.46 0.45 0.47 0.42 0.33 0.26 0.24 0.24
0.85 0.84 0.85 0.84 0.86 0.88 0.89 0.96 0.99 1.05 0.87 0.49 0.44 0.55 0.70 0.69 0.73 0.71 0.70 0.70 0.68 0.69 0.71 0.62 0.58 0.61 0.59 0.50 0.51 0.49 0.57 0.57 0.54 0.63 0.60 0.66 0.46 0.49 0.45 0.46 0.42 0.37 0.39 0.33 0.32 0.32 0.34
0.88 0.84 0.85 0.85 0.85 0.86 0.86 0.92 0.99 1.01 0.91 0.46 0.54 0.74 0.68 0.68 0.68 0.63 0.67 0.71 0.70 0.72 0.74 0.73 0.64 0.63 0.56 0.63 0.65 0.66 0.68 0.65 0.63 0.57 0.56 0.57 0.51 0.42 0.38 0.43 0.39 0.30 0.31 0.39 0.39 0.41 0.40
0.97 0.86 0.84 0.84 0.84 0.84 0.84 0.89 0.98 0.99 0.97 0.55 0.54 0.69 0.63 0.58 0.64 0.61 0.63 0.72 0.71 0.70 0.68 0.73 0.71 0.66 0.69 0.77 0.74 0.72 0.70 0.64 0.63 0.60 0.59 0.49 0.50 0.45 0.36 0.38 0.25 0.32 0.42 0.38 0.38 0.40 0.42
1.00 0.88 0.84 0.83 0.84 0.82 0.82 0.87 0.95 1.00 1.01 0.62 0.54 0.67 0.61 0.52 0.60 0.59 0.59 0.67 0.70 0.73 0.72 0.72 0.74 0.80 0.79 0.70 0.62 0.55 0.54 0.55 0.56 0.60 0.58 0.58 0.52 0.40 0.33 0.31 0.35 0.38 0.39 0.39 0.36 0.37 0.44
1.01 0.91 0.86 0.82 0.83 0.81 0.81 0.85 0.89 1.00 1.02 0.77 0.55 0.77 0.66 0.51 0.50 0.56 0.56 0.63 0.60 0.61 0.65 0.69 0.75 0.80 0.75 0.66 0.58 0.47 0.43 0.49 0.45 0.50 0.58 0.54 0.50 0.41 0.39 0.33 0.28 0.39 0.50 0.53 0.50 0.35 0.53
1.05 0.97 0.88 0.83 0.82 0.81 0.82 0.84 0.87 0.98 1.02 0.90 0.56 0.79 0.71 0.50 0.55 0.54 0.51 0.55 0.60 0.59 0.57 0.60 0.64 0.65 0.72 0.61 0.53 0.48 0.46 0.52 0.43 0.42 0.43 0.45 0.45 0.39 0.38 0.33 0.36 0.47 0.50 0.52 0.34 0.35 0.54
1.07 1.01 0.86 0.83 0.82 0.81 0.84 0.83 0.86 0.95 1.02 0.99 0.64 0.78 0.74 0.54 0.54 0.61 0.59 0.53 0.53 0.55 0.48 0.51 0.51 0.53 0.52 0.46 0.47 0.46 0.45 0.46 0.46 0.47 0.44 0.41 0.38 0.35 0.36 0.31 0.27 0.50 0.48 0.38 0.47 0.54 0.52
1.06 1.03 0.84 0.82 0.82 0.83 0.83 0.82 0.86 0.89 1.01 1.04 0.75 0.77 0.81 0.62 0.56 0.69 0.70 0.70 0.64 0.65 0.53 0.47 0.46 0.44 0.47 0.44 0.43 0.44 0.38 0.40 0.39 0.32 0.45 0.30 0.34 0.34 0.38 0.35 0.48 0.55 0.56 0.58 0.54 0.48 0.48

GFSGBSN_prec_pwat_003.txt.gz
Precipitable_Water
0.83 0.83 0.83 0.85 0.84 0.80 0.76 0.69 0.69 0.74 0.81 0.94 0.94 0.91 0.91 0.93 0.93 0.92 0.90 0.85 0.84 0.86 0.87 0.85 0.81 0.86 0.85 0.61 0.54 0.86 0.89 0.84 0.85 0.97 0.78 0.79 0.84 0.79 0.68 0.69 0.72 0.60 0.62 0.63 0.64 0.66 0.68
0.82 0.82 0.81 0.81 0.84 0.80 0.82 0.76 0.70 0.72 0.78 0.93 0.97 0.98 1.01 0.99 0.97 0.95 0.90 0.88 0.84 0.82 0.85 0.88 0.89 0.90 0.68 0.43 0.77 0.83 0.84 0.78 0.77 0.88 0.79 0.83 0.87 0.89 0.78 0.72 0.68 0.69 0.66 0.63 0.64 0.64 0.67
0.79 0.81 0.81 0.79 0.80 0.77 0.81 0.75 0.69 0.69 0.75 0.92 0.96 1.05 1.06 1.06 1.06 1.01 0.93 0.88 0.85 0.82 0.84 0.87 0.90 0.82 0.62 0.53 0.77 0.78 0.78 0.74 0.81 0.84 0.76 0.89 1.00 0.88 0.83 0.74 0.78 0.73 0.60 0.63 0.60 0.62 0.59
0.78 0.79 0.84 0.81 0.79 0.81 0.76 0.76 0.73 0.68 0.74 0.88 0.95 1.03 1.07 1.08 1.09 1.07 1.03 0.96 0.89 0.85 0.85 0.88 0.89 0.81 0.54 0.80 0.81 0.74 0.77 0.74 0.84 0.82 0.87 0.96 1.11 1.00 0.84 0.83 0.73 0.64 0.63 0.46 0.56 0.58 0.57
0.77 0.79 0.82 0.83 0.83 0.82 0.83 0.75 0.79 0.71 0.70 0.80 0.92 1.00 1.03 1.04 1.06 1.08 1.09 1.05 0.95 0.98 0.94 0.89 0.78 0.69 0.51 0.79 0.66 0.70 0.74 0.69 0.81 0.86 0.89 1.01 1.07 0.93 0.87 0.66 0.57 0.61 0.43 0.43 0.48 0.57 0.54
0.74 0.77 0.80 0.82 0.82 0.84 0.84 0.77 0.75 0.69 0.68 0.77 0.92 1.03 1.07 1.07 1.09 1.08 1.12 1.13 1.02 1.00 0.96 0.89 0.79 0.57 0.61 0.56 0.66 0.69 0.74 0.71 0.77 0.83 0.76 0.82 0.88 0.76 0.73 0.59 0.39 0.46 0.45 0.45 0.41 0.51 0.50
0.72 0.76 0.78 0.80 0.82 0.84 0.83 0.82 0.73 0.69 0.64 0.73 0.90 1.01 1.02 1.08 1.11 1.12 1.08 1.03 0.78 0.71 0.74 0.57 0.53 0.48 0.55 0.66 0.76 0.64 0.70 0.64 0.76 0.78 0.53 0.72 0.66 0.58 0.64 0.63 0.59 0.57 0.48 0.41 0.50 0.56 0.51
0.72 0.76 0.78 0.78 0.82 0.84 0.87 0.83 0.76 0.66 0.62 0.66 0.83 0.92 1.02 1.07 1.13 1.15 1.09 0.85 0.78 0.76 0.56 0.67 0.62 0.58 0.58 0.67 0.55 0.60 0.70 0.52 0.62 0.54 0.59 0.62 0.57 0.72 0.76 0.69 0.61 0.57 0.51 0.46 0.53 0.57 0.53
0.74 0.76 0.79 0.80 0.84 0.84 0.88 0.92 0.83 0.70 0.64 0.62 0.78 0.88 1.04 1.05 1.15 1.11 0.97 0.90 0.96 0.88 0.55 0.58 0.58 0.54 0.53 0.58 0.50 0.56 0.61 0.54 0.57 0.54 0.51 0.51 0.64 0.75 0.72 0.64 0.57 0.53 0.46 0.48 0.50 0.57 0.58
0.75 0.77 0.81 0.83 0.86 0.85 0.88 0.95 0.94 0.82 0.69 0.65 0.71 0.84 0.99 1.05 1.02 1.05 0.90 1.04 0.99 0.90 0.42 0.44 0.50 0.51 0.54 0.57 0.43 0.67 0.64 0.54 0.58 0.52 0.52 0.60 0.78 0.67 0.69 0.61 0.60 0.45 0.61 0.56 0.55 0.51 0.38
0.76 0.79 0.82 0.86 0.88 0.86 0.88 0.95 1.00 0.98 0.85 0.72 0.64 0.76 0.89 1.02 0.99 0.89 0.96 1.04 0.98 0.76 0.23 0.47 0.51 0.69 0.53 0.42 0.50 0.54 0.64 0.57 0.51 0.52 0.53 0.57 0.64 0.63 0.60 0.64 0.65 0.55 0.66 0.61 0.58 0.50 0.43
0.75 0.77 0.82 0.85 0.90 0.86 0.92 0.95 1.00 1.05 1.01 0.87 0.71 0.71 0.81 0.88 1.02 1.03 1.10 1.04 0.83 0.40 0.24 0.41 0.53 0.48 0.42 0.46 0.49 0.57 0.50 0.65 0.72 0.54 0.56 0.69 0.80 0.78 0.66 0.73 0.72 0.66 0.61 0.59 0.53 0.48 0.31
0.80 0.77 0.81 0.85 0.91 0.89 0.91 0.97 0.99 1.06 1.07 0.96 0.76 0.77 0.79 0.88 0.82 1.13 1.07 0.80 0.42 0.30 0.46 0.38 0.41 0.46 0.39 0.38 0.45 0.48 0.37 0.47 0.50 0.41 0.42 0.61 0.65 0.78 0.81 0.66 0.72 0.65 0.54 0.38 0.35 0.34 0.28
0.83 0.82 0.86 0.90 0.91 0.89 0.91 0.97 1.01 1.05 1.07 1.01 0.81 0.79 0.82 0.87 1.03 1.11 0.89 0.57 0.33 0.41 0.38 0.47 0.37 0.44 0.34 0.39 0.47 0.44 0.38 0.41 0.59 0.51 0.44 0.45 0.43 0.62 0.74 0.72 0.58 0.59 0.54 0.39 0.29 0.27 0.28
0.87 0.88 0.87 0.90 0.90 0.89 0.91 0.96 1.03 1.04 1.08 1.05 0.81 0.68 0.71 0.85 1.08 1.07 0.71 0.42 0.40 0.45 0.47 0.37 0.35 0.32 0.34 0.38 0.45 0.40 0.39 0.43 0.55 0.58 0.40 0.43 0.44 0.65 0.71 0.73 0.65 0.60 0.49 0.59 0.40 0.38 0.30
0.85 0.90 0.93 0.89 0.90 0.88 0.91 0.94 1.03 1.03 1.08 1.00 0.64 0.62 0.66 0.95 1.13 0.92 0.61 0.49 0.52 0.61 0.55 0.33 0.25 0.33 0.29 0.34 0.42 0.38 0.36 0.47 0.54 0.60 0.60 0.50 0.40 0.59 0.59 0.70 0.67 0.61 0.63 0.48 0.41 0.28 0.24
0.83 0.89 0.94 0.89 0.90 0.87 0.91 0.92 1.01 1.03 1.07 0.92 0.68 0.53 0.81 1.08 1.05 0.76 0.53 0.54 0.61 0.70 0.55 0.33 0.32 0.32 0.33 0.36 0.45 0.40 0.36 0.56 0.66 0.61 0.63 0.53 0.45 0.45 0.54 0.51 0.53 0.52 0.51 0.52 0.48 0.39 0.27
0.90 0.88 0.93 0.89 0.89 0.87 0.90 0.92 0.99 1.02 1.04 0.80 0.62 0.41 0.92 1.04 0.68 0.69 0.59 0.64 0.74 0.63 0.58 0.50 0.49 0.46 0.40 0.42 0.41 0.44 0.43 0.58 0.72 0.67 0.49 0.52 0.42 0.37 0.43 0.55 0.60 0.53 0.51 0.57 0.38 0.33 0.36
0.99 0.87 0.91 0.89 0.89 0.87 0.89 0.91 0.97 1.02 1.02 0.70 0.57 0.60 0.93 0.94 0.56 0.61 0.70 0.70 0.73 0.60 0.58 0.53 0.49 0.55 0.52 0.49 0.45 0.48 0.54 0.64 0.74 0.68 0.53 0.54 0.44 0.34 0.39 0.48 0.50 0.49 0.50 0.51 0.48 0.42 0.32
1.01 0.94 0.88 0.89 0.88 0.88 0.89 0.90 0.95 1.01 1.02 0.71 0.61 0.47 0.68 0.78 0.83 0.71 0.67 0.66 0.64 0.76 0.69 0.67 0.55 0.59 0.54 0.49 0.56 0.52 0.57 0.66 0.73 0.70 0.67 0.61 0.48 0.39 0.32 0.37 0.44 0.39 0.46 0.49 0.46 0.36 0.35
1.02 1.01 0.92 0.88 0.88 0.88 0.89 0.89 0.93 1.00 1.02 0.69 0.57 0.50 0.66 0.56 0.67 0.73 0.75 0.70 0.64 0.62 0.76 0.77 0.62 0.55 0.51 0.45 0.49 0.52 0.63 0.62 0.69 0.73 0.66 0.59 0.44 0.45 0.46 0.45 0.46 0.42 0.43 0.48 0.42 0.43 0.37
0.99 1.04 0.98 0.87 0.86 0.86 0.89 0.89 0.92 1.00 1.01 0.68 0.46 0.47 0.56 0.61 0.66 0.70 0.74 0.68 0.65 0.69 0.71 0.65 0.58 0.56 0.54 0.46 0.50 0.48 0.58 0.60 0.57 0.66 0.62 0.62 0.48 0.47 0.42 0.46 0.47 0.44 0.46 0.46 0.46 0.44 0.34
0.95 1.03 1.02 0.88 0.86 0.86 0.88 0.87 0.89 0.98 0.97 0.73 0.50 0.55 0.53 0.57 0.62 0.64 0.66 0.71 0.70 0.74 0.77 0.72 0.62 0.55 0.52 0.58 0.64 0.67 0.67 0.69 0.67 0.62 0.57 0.58 0.50 0.45 0.41 0.45 0.43 0.36 0.38 0.41 0.44 0.43 0.33
0.94 1.00 1.01 0.90 0.88 0.86 0.86 0.86 0.87 0.95 0.97 0.84 0.54 0.54 0.51 0.50 0.62 0.62 0.64 0.74 0.73 0.71 0.69 0.67 0.67 0.58 0.62 0.70 0.68 0.68 0.66 0.65 0.66 0.64 0.64 0.58 0.57 0.49 0.39 0.41 0.29 0.41 0.48 0.44 0.39 0.40 0.43
0.92 0.99 1.00 0.94 0.87 0.85 0.85 0.84 0.86 0.94 1.00 0.90 0.64 0.52 0.54 0.50 0.61 0.62 0.63 0.71 0.75 0.74 0.71 0.65 0.70 0.72 0.73 0.68 0.57 0.51 0.51 0.55 0.56 0.63 0.60 0.67 0.56 0.48 0.37 0.34 0.37 0.38 0.42 0.37 0.34 0.35 0.43
0.92 0.97 0.99 0.97 0.87 0.84 0.84 0.82 0.84 0.91 1.00 0.93 0.72 0.63 0.62 0.53 0.50 0.61 0.58 0.66 0.68 0.69 0.68 0.69 0.75 0.80 0.80 0.66 0.59 0.46 0.42 0.46 0.47 0.50 0.60 0.55 0.53 0.47 0.42 0.32 0.28 0.37 0.48 0.53 0.47 0.30 0.45
0.90 0.96 0.98 0.99 0.88 0.83 0.83 0.81 0.82 0.88 0.98 0.94 0.78 0.71 0.67 0.55 0.58 0.57 0.56 0.61 0.69 0.70 0.67 0.69 0.71 0.73 0.78 0.62 0.52 0.49 0.47 0.53 0.43 0.44 0.44 0.46 0.46 0.47 0.42 0.35 0.38 0.49 0.50 0.51 0.31 0.33 0.51
0.86 0.91 0.98 1.01 0.87 0.82 0.83 0.80 0.81 0.86 0.95 0.96 0.84 0.79 0.70 0.60 0.59 0.60 0.62 0.61 0.63 0.62 0.61 0.68 0.65 0.66 0.70 0.58 0.54 0.51 0.48 0.49 0.46 0.48 0.47 0.46 0.42 0.40 0.41 0.36 0.34 0.56 0.51 0.39 0.46 0.52 0.54
0.85 0.90 0.96 0.99 0.88 0.85 0.84 0.81 0.81 0.86 0.93 0.99 0.83 0.86 0.84 0.66 0.63 0.72 0.70 0.72 0.72 0.68 0.61 0.62 0.62 0.61 0.62 0.55 0.57 0.53 0.48 0.52 0.47 0.41 0.54 0.44 0.50 0.44 0.45 0.40 0.51 0.54 0.51 0.54 0.55 0.52 0.55

GFSGBSN_prec_pwat_006.txt.gz
Precipitable_Water
0.83 0.85 0.82 0.80 0.80 0.86 0.83 0.79 0.74 0.67 0.70 0.74 0.88 0.91 0.89 0.92 0.95 0.94 0.91 0.87 0.86 0.89 0.92 0.93 0.84 0.85 0.83 0.62 0.63 0.93 0.90 0.84 0.82 0.91 0.81 0.67 0.69 0.70 0.64 0.75 0.77 0.63 0.62 0.65 0.65 0.64 0.62
0.81 0.81 0.84 0.80 0.78 0.80 0.78 0.85 0.81 0.71 0.67 0.70 0.86 0.91 0.95 0.99 1.01 0.97 0.94 0.88 0.91 0.87 0.88 0.89 0.88 0.88 0.67 0.46 0.79 0.82 0.84 0.78 0.70 0.77 0.81 0.72 0.71 0.82 0.70 0.73 0.73 0.72 0.68 0.64 0.65 0.64 0.65
0.75 0.78 0.81 0.83 0.81 0.79 0.78 0.78 0.82 0.71 0.65 0.67 0.80 0.88 0.93 1.01 1.05 1.06 1.00 0.95 0.89 0.90 0.85 0.90 0.95 0.89 0.67 0.54 0.74 0.73 0.71 0.68 0.70 0.68 0.67 0.77 0.80 0.87 0.78 0.72 0.85 0.77 0.63 0.66 0.63 0.64 0.61
0.74 0.75 0.80 0.84 0.82 0.82 0.81 0.79 0.77 0.76 0.71 0.64 0.73 0.87 0.93 1.00 1.06 1.08 1.05 1.04 0.98 0.91 0.88 0.90 0.96 0.85 0.56 0.77 0.78 0.72 0.70 0.66 0.71 0.70 0.71 0.82 0.88 0.90 0.92 0.84 0.81 0.68 0.66 0.49 0.58 0.64 0.63
0.70 0.81 0.80 0.81 0.83 0.84 0.83 0.81 0.83 0.80 0.78 0.66 0.68 0.83 0.90 1.04 1.01 1.03 1.03 1.06 1.08 0.95 0.94 0.95 0.83 0.74 0.52 0.78 0.62 0.69 0.69 0.58 0.65 0.68 0.70 0.82 0.83 0.80 0.85 0.68 0.62 0.66 0.47 0.46 0.52 0.65 0.58
0.68 0.76 0.78 0.79 0.82 0.83 0.83 0.84 0.83 0.77 0.80 0.66 0.65 0.76 0.93 1.03 1.03 1.06 1.07 1.04 1.11 1.06 1.01 0.97 0.86 0.63 0.62 0.52 0.62 0.66 0.73 0.67 0.60 0.67 0.66 0.68 0.64 0.65 0.71 0.63 0.41 0.49 0.48 0.49 0.48 0.55 0.51
0.72 0.66 0.74 0.80 0.81 0.81 0.82 0.83 0.81 0.79 0.79 0.68 0.62 0.70 0.86 0.96 1.05 1.05 1.06 0.98 0.82 0.75 0.82 0.63 0.62 0.58 0.60 0.65 0.71 0.63 0.69 0.62 0.62 0.62 0.49 0.60 0.48 0.47 0.57 0.68 0.65 0.57 0.52 0.49 0.53 0.56 0.51
0.79 0.70 0.70 0.80 0.82 0.82 0.84 0.84 0.85 0.81 0.77 0.68 0.61 0.65 0.78 0.89 1.02 1.05 1.08 0.85 0.83 0.85 0.62 0.75 0.71 0.66 0.71 0.70 0.51 0.57 0.71 0.50 0.49 0.42 0.60 0.54 0.43 0.60 0.79 0.74 0.68 0.61 0.51 0.48 0.56 0.55 0.52
0.78 0.80 0.73 0.79 0.84 0.84 0.86 0.86 0.85 0.90 0.82 0.73 0.66 0.65 0.75 0.88 0.96 0.97 0.95 0.94 1.05 0.97 0.61 0.64 0.71 0.66 0.64 0.63 0.47 0.52 0.60 0.51 0.45 0.46 0.54 0.46 0.49 0.71 0.73 0.66 0.63 0.58 0.53 0.50 0.49 0.55 0.58
0.80 0.82 0.83 0.76 0.86 0.88 0.88 0.87 0.87 0.93 0.92 0.82 0.75 0.71 0.73 0.82 0.77 0.94 0.89 1.07 1.07 0.96 0.46 0.47 0.56 0.62 0.66 0.62 0.42 0.54 0.64 0.52 0.50 0.46 0.55 0.50 0.65 0.68 0.66 0.64 0.67 0.51 0.63 0.60 0.55 0.53 0.41
0.80 0.82 0.86 0.79 0.84 0.91 0.91 0.90 0.89 0.95 0.99 0.97 0.86 0.77 0.77 0.74 0.77 0.77 0.93 1.07 1.01 0.83 0.26 0.48 0.54 0.73 0.64 0.49 0.45 0.46 0.66 0.54 0.44 0.50 0.54 0.46 0.59 0.63 0.61 0.63 0.69 0.59 0.67 0.58 0.57 0.54 0.48
0.88 0.82 0.86 0.81 0.82 0.89 0.93 0.92 0.94 0.96 1.02 1.05 1.02 0.84 0.74 0.72 0.78 0.89 1.06 1.01 0.84 0.43 0.26 0.43 0.55 0.50 0.49 0.48 0.45 0.52 0.56 0.59 0.63 0.55 0.57 0.53 0.76 0.72 0.67 0.75 0.74 0.73 0.61 0.59 0.54 0.50 0.35
0.96 0.86 0.88 0.82 0.80 0.87 0.93 0.93 0.94 0.99 1.01 1.08 1.09 0.94 0.78 0.74 0.62 0.97 1.05 0.82 0.43 0.32 0.49 0.41 0.43 0.49 0.45 0.37 0.36 0.47 0.45 0.41 0.42 0.38 0.40 0.52 0.59 0.74 0.79 0.68 0.72 0.67 0.55 0.40 0.36 0.34 0.30
1.01 0.94 0.87 0.86 0.84 0.91 0.93 0.92 0.94 1.01 1.03 1.06 1.10 0.99 0.85 0.75 0.85 0.99 0.90 0.58 0.34 0.43 0.42 0.50 0.47 0.46 0.38 0.38 0.38 0.44 0.42 0.37 0.51 0.49 0.42 0.41 0.42 0.65 0.73 0.68 0.59 0.58 0.54 0.38 0.27 0.28 0.30
1.04 1.04 0.90 0.93 0.89 0.92 0.92 0.93 0.96 1.02 1.04 1.06 1.08 0.91 0.75 0.75 0.89 0.94 0.72 0.43 0.41 0.47 0.49 0.43 0.43 0.34 0.34 0.36 0.38 0.45 0.38 0.37 0.48 0.54 0.42 0.42 0.45 0.73 0.73 0.70 0.69 0.60 0.48 0.55 0.39 0.38 0.32
0.97 1.04 0.88 0.95 0.94 0.91 0.91 0.93 0.96 1.01 1.03 1.06 0.89 0.71 0.64 0.82 0.93 0.87 0.61 0.48 0.51 0.61 0.56 0.42 0.25 0.33 0.27 0.32 0.36 0.41 0.34 0.41 0.46 0.59 0.66 0.52 0.45 0.64 0.69 0.76 0.71 0.67 0.66 0.44 0.41 0.29 0.26
0.92 0.99 0.97 0.95 0.97 0.93 0.92 0.93 0.96 1.01 1.02 1.04 0.83 0.58 0.78 0.93 0.91 0.70 0.51 0.52 0.58 0.67 0.57 0.33 0.28 0.28 0.30 0.30 0.37 0.35 0.33 0.46 0.49 0.55 0.66 0.59 0.52 0.50 0.64 0.58 0.56 0.56 0.55 0.55 0.47 0.38 0.29
0.90 0.98 1.00 0.96 0.99 0.95 0.93 0.93 0.96 1.00 1.01 0.94 0.68 0.50 0.86 0.90 0.54 0.63 0.57 0.61 0.69 0.65 0.55 0.36 0.36 0.31 0.29 0.35 0.37 0.37 0.33 0.48 0.52 0.60 0.53 0.60 0.49 0.45 0.47 0.59 0.68 0.63 0.53 0.56 0.41 0.35 0.36
0.86 0.93 0.98 0.98 1.02 0.96 0.92 0.92 0.95 0.99 1.00 0.82 0.56 0.65 0.89 0.81 0.47 0.56 0.66 0.65 0.67 0.62 0.50 0.44 0.40 0.41 0.39 0.36 0.35 0.39 0.42 0.51 0.58 0.58 0.54 0.55 0.45 0.38 0.44 0.52 0.57 0.55 0.56 0.57 0.50 0.43 0.35
0.86 0.89 0.94 0.99 1.00 0.96 0.92 0.92 0.95 0.98 1.02 0.87 0.60 0.50 0.64 0.67 0.74 0.68 0.63 0.61 0.61 0.69 0.57 0.61 0.52 0.53 0.43 0.39 0.42 0.36 0.45 0.58 0.70 0.62 0.66 0.61 0.48 0.38 0.32 0.36 0.45 0.41 0.48 0.53 0.48 0.41 0.40
0.86 0.90 0.91 0.96 0.98 0.95 0.92 0.91 0.94 0.97 1.02 0.87 0.56 0.54 0.60 0.45 0.59 0.69 0.70 0.66 0.61 0.59 0.66 0.72 0.54 0.52 0.43 0.40 0.45 0.43 0.49 0.58 0.63 0.71 0.66 0.62 0.43 0.45 0.43 0.44 0.44 0.43 0.45 0.45 0.42 0.45 0.38
0.80 0.89 0.93 0.93 1.00 0.95 0.92 0.91 0.94 0.96 1.01 0.81 0.49 0.47 0.59 0.55 0.63 0.68 0.70 0.64 0.61 0.66 0.66 0.63 0.59 0.56 0.55 0.45 0.44 0.46 0.49 0.56 0.55 0.66 0.60 0.63 0.47 0.46 0.41 0.45 0.44 0.40 0.44 0.46 0.45 0.47 0.45
0.75 0.86 0.92 0.94 0.96 0.94 0.91 0.91 0.93 0.95 0.96 0.78 0.76 0.60 0.52 0.48 0.50 0.61 0.66 0.68 0.67 0.70 0.73 0.74 0.71 0.60 0.54 0.56 0.61 0.65 0.73 0.71 0.67 0.62 0.59 0.57 0.51 0.46 0.37 0.43 0.42 0.35 0.40 0.43 0.43 0.45 0.45
0.74 0.86 0.90 0.94 0.95 0.95 0.92 0.92 0.91 0.94 0.94 0.87 0.78 0.59 0.40 0.34 0.48 0.61 0.68 0.73 0.71 0.72 0.68 0.75 0.71 0.62 0.63 0.72 0.70 0.73 0.72 0.71 0.70 0.67 0.68 0.57 0.53 0.49 0.40 0.42 0.28 0.40 0.48 0.47 0.42 0.43 0.47
0.70 0.82 0.89 0.95 0.97 0.99 0.92 0.91 0.90 0.92 0.94 0.90 0.90 0.63 0.46 0.41 0.52 0.62 0.65 0.73 0.75 0.75 0.71 0.67 0.66 0.68 0.72 0.68 0.59 0.53 0.55 0.59 0.60 0.63 0.65 0.66 0.58 0.46 0.39 0.41 0.40 0.39 0.44 0.43 0.41 0.38 0.42
0.68 0.81 0.85 0.91 0.93 1.02 0.91 0.88 0.90 0.90 0.94 0.93 0.91 0.82 0.52 0.45 0.49 0.60 0.62 0.75 0.68 0.66 0.64 0.67 0.71 0.72 0.67 0.59 0.56 0.43 0.40 0.47 0.46 0.53 0.64 0.67 0.68 0.55 0.46 0.33 0.29 0.38 0.46 0.48 0.45 0.29 0.39
0.66 0.78 0.84 0.90 0.94 0.98 0.89 0.89 0.90 0.89 0.92 0.92 0.89 0.87 0.57 0.48 0.60 0.59 0.56 0.67 0.79 0.75 0.63 0.66 0.68 0.70 0.80 0.58 0.49 0.44 0.42 0.50 0.41 0.43 0.47 0.48 0.51 0.47 0.44 0.40 0.37 0.46 0.50 0.53 0.33 0.35 0.47
0.64 0.76 0.83 0.88 0.94 0.91 0.91 0.88 0.89 0.88 0.91 0.91 0.90 0.90 0.66 0.54 0.64 0.64 0.64 0.68 0.76 0.78 0.65 0.66 0.68 0.71 0.70 0.59 0.55 0.53 0.49 0.46 0.45 0.49 0.48 0.47 0.43 0.40 0.45 0.43 0.39 0.54 0.52 0.42 0.49 0.55 0.53
0.65 0.74 0.82 0.88 0.91 0.89 0.91 0.88 0.89 0.87 0.89 0.93 0.85 0.91 0.89 0.66 0.67 0.76 0.72 0.81 0.80 0.78 0.81 0.76 0.72 0.72 0.75 0.65 0.60 0.60 0.52 0.55 0.49 0.43 0.55 0.45 0.50 0.47 0.47 0.45 0.56 0.61 0.57 0.59 0.58 0.52 0.53

GFSGBSN_prec_pwat_009.txt.gz
Precipitable_Water
0.81 0.80 0.83 0.87 0.83 0.79 0.82 0.84 0.80 0.75 0.70 0.64 0.69 0.82 0.88 0.87 0.91 0.93 0.92 0.92 0.90 0.87 0.90 0.95 0.95 0.91 0.82 0.62 0.61 0.92 0.88 0.83 0.85 0.92 0.81 0.71 0.55 0.59 0.57 0.65 0.74 0.68 0.65 0.70 0.71 0.68 0.65
0.76 0.74 0.80 0.83 0.84 0.82 0.77 0.78 0.79 0.83 0.76 0.67 0.66 0.75 0.87 0.90 0.94 0.95 0.95 0.94 0.93 0.90 0.86 0.91 0.95 0.93 0.73 0.49 0.79 0.90 0.88 0.83 0.77 0.80 0.80 0.78 0.63 0.62 0.61 0.65 0.66 0.75 0.71 0.70 0.72 0.68 0.64
0.73 0.69 0.71 0.79 0.82 0.84 0.83 0.80 0.75 0.81 0.79 0.69 0.63 0.67 0.82 0.85 0.94 1.00 1.02 0.98 0.98 0.90 0.87 0.87 0.96 0.93 0.70 0.58 0.77 0.80 0.77 0.71 0.74 0.72 0.66 0.77 0.79 0.66 0.64 0.62 0.69 0.77 0.66 0.69 0.68 0.68 0.61
0.73 0.69 0.68 0.73 0.80 0.84 0.85 0.85 0.81 0.77 0.76 0.75 0.68 0.64 0.75 0.84 0.96 0.99 1.01 1.03 1.03 0.96 0.89 0.87 0.91 0.87 0.63 0.82 0.85 0.77 0.74 0.66 0.66 0.65 0.63 0.74 0.83 0.67 0.70 0.80 0.70 0.60 0.66 0.52 0.65 0.67 0.65
0.71 0.73 0.71 0.76 0.78 0.78 0.85 0.87 0.87 0.82 0.80 0.79 0.77 0.65 0.67 0.81 0.93 1.02 0.99 1.00 1.04 1.04 0.94 0.90 0.79 0.74 0.57 0.84 0.68 0.73 0.74 0.60 0.63 0.66 0.65 0.68 0.73 0.62 0.63 0.60 0.55 0.63 0.45 0.48 0.58 0.68 0.63
0.76 0.72 0.79 0.79 0.77 0.75 0.80 0.85 0.88 0.88 0.82 0.80 0.82 0.68 0.62 0.73 0.89 1.00 1.02 1.04 1.05 1.06 1.01 0.97 0.86 0.66 0.66 0.58 0.66 0.68 0.73 0.68 0.59 0.59 0.56 0.54 0.57 0.48 0.51 0.51 0.37 0.44 0.46 0.50 0.51 0.60 0.61
0.83 0.73 0.78 0.79 0.77 0.75 0.77 0.82 0.86 0.89 0.84 0.79 0.80 0.71 0.63 0.66 0.80 0.97 0.95 0.91 0.78 0.73 0.83 0.68 0.66 0.60 0.64 0.69 0.76 0.66 0.67 0.64 0.60 0.52 0.41 0.48 0.39 0.34 0.37 0.46 0.57 0.56 0.55 0.50 0.57 0.62 0.59
0.93 0.80 0.74 0.77 0.79 0.82 0.78 0.80 0.86 0.89 0.88 0.79 0.81 0.72 0.65 0.65 0.74 0.89 0.95 0.73 0.79 0.83 0.62 0.80 0.75 0.72 0.74 0.75 0.59 0.63 0.71 0.52 0.49 0.39 0.44 0.44 0.38 0.40 0.40 0.50 0.58 0.57 0.53 0.52 0.58 0.65 0.58
1.02 0.89 0.78 0.76 0.79 0.84 0.85 0.82 0.86 0.88 0.90 0.88 0.81 0.74 0.70 0.68 0.75 0.84 0.84 0.77 1.00 0.94 0.62 0.64 0.74 0.70 0.69 0.72 0.59 0.59 0.63 0.53 0.43 0.39 0.40 0.39 0.43 0.45 0.44 0.48 0.55 0.56 0.54 0.53 0.54 0.63 0.57
1.05 0.97 0.88 0.79 0.79 0.84 0.90 0.87 0.88 0.89 0.91 0.94 0.86 0.80 0.78 0.76 0.62 0.66 0.67 0.94 1.03 1.01 0.48 0.48 0.57 0.65 0.72 0.71 0.55 0.68 0.68 0.54 0.45 0.37 0.41 0.43 0.49 0.53 0.44 0.47 0.59 0.47 0.65 0.60 0.58 0.56 0.40
1.07 1.09 0.96 0.87 0.83 0.84 0.89 0.95 0.91 0.91 0.93 0.97 0.99 0.88 0.85 0.80 0.67 0.64 0.76 0.95 1.00 0.86 0.28 0.52 0.57 0.79 0.72 0.59 0.55 0.51 0.60 0.54 0.41 0.41 0.45 0.34 0.41 0.48 0.43 0.50 0.64 0.61 0.74 0.62 0.62 0.53 0.54
0.96 1.00 1.05 0.93 0.85 0.83 0.87 0.98 0.94 0.93 0.98 0.99 1.04 1.01 0.94 0.82 0.76 0.80 0.83 0.91 0.84 0.45 0.29 0.46 0.58 0.54 0.52 0.56 0.52 0.53 0.45 0.51 0.54 0.45 0.52 0.44 0.58 0.60 0.47 0.65 0.70 0.73 0.67 0.62 0.64 0.55 0.36
0.87 0.94 1.01 1.05 0.87 0.85 0.86 0.96 0.93 0.95 0.98 1.00 1.07 1.08 0.98 0.87 0.61 0.88 0.84 0.71 0.44 0.34 0.52 0.43 0.46 0.51 0.48 0.45 0.46 0.46 0.40 0.39 0.36 0.31 0.34 0.46 0.49 0.61 0.67 0.61 0.74 0.73 0.59 0.42 0.38 0.36 0.31
0.75 0.89 0.94 1.02 0.96 0.87 0.85 0.97 0.94 0.95 0.97 1.02 1.08 1.10 1.02 0.93 0.91 0.87 0.73 0.52 0.35 0.44 0.44 0.55 0.50 0.48 0.39 0.44 0.41 0.40 0.40 0.36 0.44 0.41 0.41 0.34 0.33 0.51 0.65 0.63 0.58 0.63 0.57 0.40 0.28 0.28 0.31
0.70 0.89 0.92 0.94 0.92 0.91 0.94 1.01 0.96 0.96 0.98 1.05 1.08 1.01 0.92 0.96 0.93 0.83 0.55 0.39 0.43 0.48 0.53 0.48 0.47 0.36 0.37 0.41 0.35 0.32 0.37 0.38 0.41 0.45 0.40 0.36 0.36 0.62 0.67 0.73 0.72 0.59 0.54 0.57 0.43 0.40 0.34
0.65 0.82 0.92 0.94 0.97 0.97 1.03 1.00 0.95 0.96 1.00 1.05 0.92 0.85 0.82 1.00 0.91 0.72 0.46 0.45 0.52 0.61 0.59 0.52 0.32 0.33 0.30 0.33 0.31 0.33 0.35 0.43 0.41 0.51 0.57 0.50 0.37 0.58 0.69 0.76 0.74 0.67 0.66 0.46 0.42 0.29 0.26
0.73 0.80 0.89 0.92 0.93 0.99 1.06 1.00 0.94 0.95 1.01 1.05 0.86 0.67 0.86 0.96 0.90 0.55 0.36 0.51 0.59 0.66 0.63 0.49 0.33 0.29 0.32 0.30 0.32 0.34 0.37 0.38 0.44 0.48 0.59 0.58 0.50 0.52 0.65 0.58 0.58 0.60 0.55 0.53 0.47 0.40 0.31
0.72 0.76 0.85 0.89 0.94 1.00 1.07 0.99 0.96 0.95 1.01 0.97 0.78 0.52 0.88 0.94 0.52 0.47 0.49 0.60 0.67 0.63 0.67 0.49 0.36 0.34 0.31 0.32 0.32 0.36 0.37 0.39 0.45 0.54 0.52 0.62 0.54 0.47 0.47 0.62 0.70 0.68 0.57 0.52 0.39 0.35 0.37
0.68 0.76 0.85 0.86 0.90 0.96 1.09 0.98 0.95 0.97 1.00 0.86 0.65 0.64 0.87 0.83 0.41 0.42 0.62 0.62 0.64 0.61 0.59 0.41 0.35 0.35 0.35 0.33 0.30 0.38 0.41 0.46 0.54 0.49 0.59 0.60 0.52 0.42 0.46 0.52 0.64 0.56 0.59 0.59 0.55 0.48 0.36
0.67 0.73 0.84 0.85 0.90 0.96 1.09 0.99 0.94 0.97 1.01 0.87 0.65 0.48 0.63 0.68 0.62 0.55 0.57 0.59 0.57 0.69 0.60 0.46 0.42 0.39 0.37 0.35 0.38 0.34 0.39 0.50 0.58 0.52 0.69 0.67 0.52 0.48 0.37 0.40 0.51 0.49 0.55 0.55 0.50 0.40 0.39
0.67 0.74 0.78 0.86 0.91 0.97 1.07 0.99 0.94 0.97 1.03 0.90 0.67 0.54 0.62 0.44 0.51 0.58 0.65 0.64 0.58 0.57 0.62 0.55 0.56 0.44 0.38 0.31 0.33 0.35 0.40 0.51 0.55 0.56 0.61 0.62 0.45 0.46 0.45 0.46 0.49 0.49 0.50 0.53 0.47 0.49 0.40
0.66 0.70 0.77 0.85 0.87 0.90 1.03 0.98 0.95 0.97 1.03 0.81 0.60 0.51 0.65 0.57 0.57 0.53 0.63 0.61 0.59 0.62 0.61 0.55 0.56 0.51 0.48 0.40 0.35 0.31 0.43 0.49 0.51 0.59 0.52 0.60 0.46 0.46 0.43 0.46 0.46 0.43 0.47 0.48 0.47 0.48 0.48
0.61 0.68 0.77 0.80 0.89 0.91 0.96 1.01 0.94 0.97 0.98 0.75 0.81 0.75 0.58 0.52 0.50 0.48 0.55 0.64 0.65 0.69 0.71 0.67 0.68 0.57 0.51 0.49 0.53 0.58 0.57 0.62 0.65 0.56 0.56 0.55 0.51 0.44 0.37 0.43 0.43 0.35 0.39 0.41 0.43 0.46 0.46
0.58 0.65 0.73 0.80 0.85 0.89 0.93 0.99 0.93 0.96 0.96 0.85 0.81 0.76 0.56 0.36 0.39 0.43 0.56 0.69 0.69 0.69 0.64 0.72 0.74 0.67 0.67 0.73 0.69 0.67 0.67 0.64 0.65 0.65 0.64 0.56 0.53 0.49 0.40 0.40 0.28 0.39 0.46 0.46 0.43 0.46 0.49
0.57 0.65 0.72 0.80 0.83 0.86 0.96 0.97 0.93 0.95 0.97 0.88 0.88 0.74 0.64 0.38 0.38 0.49 0.58 0.68 0.72 0.76 0.70 0.71 0.75 0.79 0.79 0.69 0.58 0.53 0.53 0.53 0.56 0.64 0.64 0.66 0.58 0.47 0.41 0.39 0.43 0.43 0.43 0.43 0.41 0.40 0.47
0.56 0.64 0.71 0.79 0.83 0.86 0.94 0.94 0.94 0.93 0.97 0.91 0.89 0.92 0.74 0.44 0.39 0.54 0.58 0.69 0.66 0.65 0.66 0.70 0.77 0.79 0.72 0.61 0.55 0.44 0.40 0.47 0.47 0.54 0.67 0.65 0.65 0.53 0.45 0.34 0.32 0.42 0.46 0.49 0.52 0.35 0.47
0.57 0.64 0.71 0.78 0.82 0.86 0.90 0.92 0.93 0.93 0.96 0.91 0.87 0.96 0.79 0.48 0.50 0.57 0.53 0.64 0.79 0.69 0.63 0.66 0.66 0.66 0.71 0.58 0.51 0.46 0.45 0.57 0.45 0.45 0.47 0.52 0.53 0.46 0.45 0.41 0.42 0.49 0.49 0.50 0.33 0.37 0.47
0.56 0.63 0.68 0.77 0.81 0.85 0.90 0.92 0.91 0.92 0.95 0.91 0.85 0.97 0.82 0.55 0.56 0.66 0.64 0.65 0.79 0.76 0.61 0.66 0.64 0.66 0.65 0.53 0.51 0.48 0.46 0.49 0.49 0.52 0.49 0.47 0.47 0.44 0.48 0.43 0.36 0.59 0.51 0.41 0.51 0.54 0.53
0.55 0.64 0.67 0.75 0.80 0.82 0.92 0.93 0.94 0.92 0.93 0.94 0.77 0.97 0.96 0.64 0.64 0.78 0.74 0.79 0.91 0.90 0.77 0.74 0.71 0.68 0.72 0.62 0.57 0.55 0.49 0.47 0.44 0.39 0.54 0.47 0.49 0.45 0.47 0.47 0.59 0.61 0.59 0.60 0.61 0.57 0.55

GFSGBSN_prec_pwat_012.txt.gz
Precipitable_Water
0.69 0.67 0.78 0.79 0.83 0.87 0.84 0.81 0.82 0.81 0.80 0.77 0.71 0.67 0.73 0.83 0.83 0.87 0.88 0.88 0.88 0.89 0.89 0.91 0.95 0.93 0.80 0.58 0.57 0.90 0.86 0.83 0.87 0.88 0.82 0.73 0.65 0.56 0.50 0.59 0.66 0.59 0.64 0.66 0.67 0.66 0.69
0.73 0.69 0.71 0.73 0.75 0.85 0.84 0.79 0.82 0.80 0.79 0.83 0.78 0.68 0.67 0.78 0.84 0.88 0.91 0.93 0.93 0.91 0.91 0.91 0.96 0.99 0.75 0.50 0.77 0.80 0.90 0.83 0.79 0.82 0.79 0.80 0.73 0.68 0.55 0.57 0.60 0.69 0.66 0.66 0.70 0.66 0.67
0.86 0.76 0.70 0.72 0.68 0.77 0.84 0.82 0.82 0.81 0.79 0.83 0.81 0.72 0.65 0.70 0.78 0.86 0.93 0.97 0.94 0.95 0.92 0.93 0.94 0.90 0.70 0.59 0.79 0.81 0.84 0.83 0.82 0.75 0.70 0.82 0.81 0.73 0.63 0.53 0.67 0.67 0.58 0.64 0.63 0.68 0.64
0.95 0.88 0.78 0.73 0.69 0.73 0.80 0.82 0.84 0.83 0.83 0.81 0.77 0.78 0.69 0.67 0.73 0.81 0.90 0.98 0.98 1.00 0.95 0.93 0.89 0.84 0.60 0.85 0.86 0.77 0.76 0.70 0.72 0.72 0.69 0.75 0.84 0.72 0.67 0.71 0.63 0.57 0.60 0.42 0.54 0.65 0.64
1.01 0.95 0.87 0.76 0.74 0.77 0.83 0.79 0.82 0.85 0.86 0.86 0.82 0.80 0.79 0.68 0.73 0.77 0.88 0.94 0.97 0.97 1.04 0.96 0.77 0.72 0.53 0.80 0.69 0.75 0.78 0.66 0.68 0.66 0.67 0.66 0.68 0.59 0.66 0.51 0.47 0.51 0.36 0.38 0.45 0.64 0.62
1.09 1.03 0.95 0.86 0.76 0.78 0.84 0.83 0.81 0.83 0.86 0.89 0.86 0.83 0.85 0.69 0.73 0.76 0.81 0.91 0.94 0.94 0.97 0.97 0.82 0.62 0.63 0.58 0.70 0.74 0.78 0.75 0.64 0.61 0.57 0.56 0.53 0.44 0.46 0.42 0.24 0.32 0.38 0.39 0.41 0.54 0.60
0.99 1.05 1.05 0.96 0.83 0.77 0.79 0.81 0.83 0.84 0.84 0.90 0.89 0.79 0.84 0.73 0.71 0.76 0.80 0.77 0.64 0.64 0.76 0.62 0.62 0.57 0.62 0.72 0.78 0.70 0.73 0.68 0.65 0.56 0.42 0.50 0.40 0.30 0.32 0.37 0.37 0.43 0.45 0.45 0.45 0.57 0.56
0.81 0.95 1.07 1.03 0.93 0.82 0.76 0.77 0.84 0.86 0.87 0.87 0.89 0.81 0.82 0.73 0.73 0.76 0.75 0.59 0.68 0.75 0.52 0.73 0.71 0.69 0.72 0.79 0.62 0.66 0.75 0.58 0.54 0.42 0.46 0.45 0.33 0.33 0.42 0.43 0.41 0.39 0.44 0.44 0.54 0.59 0.57
0.58 0.79 1.00 1.10 1.04 0.91 0.79 0.78 0.82 0.85 0.89 0.90 0.89 0.84 0.80 0.75 0.78 0.73 0.63 0.65 0.88 0.83 0.53 0.57 0.67 0.65 0.72 0.75 0.63 0.62 0.69 0.61 0.50 0.43 0.42 0.36 0.32 0.47 0.42 0.40 0.39 0.37 0.39 0.44 0.51 0.57 0.63
0.54 0.60 0.84 1.01 1.07 0.98 0.87 0.81 0.85 0.85 0.90 0.96 0.91 0.89 0.81 0.80 0.69 0.67 0.60 0.74 0.86 0.88 0.39 0.41 0.52 0.66 0.74 0.74 0.58 0.73 0.75 0.63 0.53 0.41 0.42 0.40 0.43 0.40 0.40 0.35 0.38 0.30 0.40 0.50 0.54 0.55 0.41
0.58 0.55 0.64 0.84 0.91 1.01 0.96 0.87 0.87 0.89 0.92 0.99 0.95 0.94 0.87 0.81 0.77 0.69 0.73 0.87 0.89 0.79 0.20 0.45 0.55 0.82 0.74 0.61 0.62 0.61 0.77 0.67 0.48 0.43 0.44 0.35 0.38 0.35 0.34 0.36 0.41 0.32 0.46 0.52 0.58 0.59 0.56
0.58 0.62 0.57 0.75 0.90 0.93 1.01 0.93 0.89 0.92 0.95 1.00 1.02 0.98 0.93 0.85 0.84 0.88 0.86 0.82 0.74 0.37 0.20 0.42 0.59 0.56 0.54 0.58 0.58 0.64 0.60 0.69 0.61 0.48 0.46 0.40 0.50 0.44 0.37 0.44 0.47 0.48 0.43 0.56 0.62 0.58 0.40
0.60 0.62 0.63 0.58 0.85 0.94 0.99 0.99 0.90 0.93 0.98 1.01 1.05 1.02 0.96 0.95 0.75 0.98 0.83 0.64 0.35 0.24 0.42 0.46 0.49 0.54 0.50 0.47 0.48 0.51 0.47 0.44 0.38 0.32 0.30 0.40 0.40 0.45 0.50 0.44 0.47 0.49 0.43 0.35 0.38 0.39 0.36
0.59 0.63 0.65 0.60 0.83 0.93 1.00 0.99 0.91 0.93 0.98 1.04 1.04 1.05 1.02 0.94 1.02 0.98 0.76 0.43 0.24 0.29 0.40 0.58 0.53 0.51 0.42 0.45 0.43 0.46 0.44 0.35 0.40 0.36 0.31 0.27 0.23 0.37 0.47 0.44 0.37 0.45 0.49 0.42 0.28 0.32 0.33
0.61 0.65 0.68 0.65 0.77 0.89 0.96 1.01 0.92 0.94 1.00 1.04 1.04 0.99 0.92 0.93 1.03 0.94 0.60 0.30 0.26 0.35 0.55 0.51 0.51 0.42 0.36 0.40 0.43 0.42 0.39 0.37 0.36 0.39 0.31 0.30 0.31 0.51 0.48 0.49 0.58 0.45 0.44 0.58 0.49 0.42 0.34
0.63 0.66 0.69 0.70 0.87 0.87 0.92 1.02 0.96 0.98 1.04 1.04 0.88 0.84 0.81 1.04 1.03 0.81 0.51 0.34 0.34 0.54 0.60 0.56 0.41 0.41 0.27 0.33 0.35 0.36 0.36 0.39 0.38 0.44 0.49 0.40 0.34 0.52 0.57 0.64 0.62 0.53 0.63 0.50 0.50 0.30 0.30
0.61 0.64 0.67 0.71 0.85 0.85 0.91 0.97 1.00 1.10 1.06 1.04 0.84 0.65 0.85 1.06 0.95 0.63 0.40 0.35 0.44 0.64 0.64 0.53 0.44 0.35 0.31 0.32 0.32 0.30 0.28 0.34 0.44 0.43 0.53 0.48 0.40 0.44 0.53 0.47 0.48 0.55 0.54 0.58 0.53 0.48 0.33
0.56 0.63 0.68 0.75 0.84 0.85 0.91 0.95 1.03 1.07 1.09 0.95 0.76 0.52 0.88 0.99 0.56 0.53 0.43 0.44 0.64 0.62 0.67 0.60 0.50 0.39 0.30 0.36 0.31 0.33 0.32 0.44 0.51 0.50 0.46 0.52 0.46 0.37 0.43 0.57 0.64 0.65 0.59 0.56 0.41 0.39 0.42
0.54 0.62 0.72 0.78 0.84 0.88 0.90 0.95 1.05 1.07 1.03 0.84 0.63 0.63 0.89 0.84 0.43 0.45 0.49 0.53 0.62 0.60 0.62 0.57 0.42 0.35 0.33 0.34 0.30 0.33 0.40 0.50 0.53 0.53 0.47 0.57 0.46 0.37 0.42 0.55 0.67 0.60 0.64 0.59 0.54 0.52 0.40
0.50 0.60 0.71 0.78 0.82 0.85 0.87 0.96 1.10 1.05 0.99 0.84 0.64 0.49 0.63 0.69 0.64 0.53 0.47 0.50 0.55 0.68 0.64 0.60 0.42 0.37 0.33 0.31 0.35 0.41 0.39 0.50 0.53 0.53 0.60 0.70 0.53 0.48 0.41 0.45 0.51 0.51 0.55 0.55 0.53 0.42 0.41
0.47 0.56 0.68 0.75 0.79 0.84 0.91 0.95 1.08 1.05 0.96 0.83 0.65 0.53 0.61 0.46 0.51 0.53 0.56 0.56 0.56 0.54 0.68 0.60 0.40 0.35 0.31 0.31 0.35 0.35 0.44 0.46 0.52 0.54 0.58 0.61 0.50 0.55 0.55 0.54 0.54 0.52 0.51 0.52 0.47 0.47 0.40
0.45 0.55 0.65 0.74 0.78 0.82 0.86 0.90 0.99 1.05 0.96 0.78 0.59 0.55 0.66 0.59 0.59 0.53 0.50 0.47 0.56 0.59 0.62 0.54 0.44 0.48 0.40 0.34 0.35 0.34 0.42 0.48 0.47 0.57 0.54 0.60 0.49 0.52 0.46 0.50 0.51 0.48 0.53 0.52 0.50 0.51 0.48
0.39 0.50 0.63 0.72 0.77 0.80 0.86 0.91 0.98 1.02 0.94 0.73 0.77 0.75 0.65 0.58 0.57 0.51 0.47 0.51 0.60 0.65 0.67 0.68 0.59 0.51 0.46 0.44 0.48 0.45 0.52 0.50 0.61 0.55 0.53 0.52 0.50 0.46 0.36 0.43 0.42 0.37 0.44 0.47 0.49 0.52 0.50
0.36 0.47 0.60 0.70 0.74 0.77 0.83 0.89 0.97 1.00 0.95 0.84 0.80 0.75 0.60 0.48 0.49 0.46 0.48 0.55 0.62 0.66 0.62 0.70 0.69 0.60 0.65 0.70 0.63 0.64 0.60 0.57 0.60 0.62 0.61 0.49 0.47 0.48 0.37 0.39 0.27 0.40 0.48 0.46 0.44 0.46 0.49
0.39 0.49 0.59 0.67 0.72 0.78 0.82 0.89 0.93 0.96 0.96 0.85 0.84 0.76 0.65 0.51 0.56 0.43 0.42 0.55 0.64 0.72 0.69 0.69 0.75 0.77 0.81 0.66 0.55 0.47 0.48 0.51 0.54 0.59 0.58 0.61 0.53 0.44 0.37 0.36 0.42 0.43 0.45 0.43 0.40 0.40 0.48
0.40 0.49 0.57 0.64 0.70 0.78 0.82 0.87 0.94 0.97 0.95 0.91 0.87 0.89 0.74 0.57 0.53 0.49 0.43 0.60 0.61 0.63 0.65 0.70 0.80 0.86 0.82 0.62 0.53 0.39 0.34 0.44 0.42 0.50 0.63 0.63 0.60 0.49 0.43 0.33 0.30 0.41 0.45 0.49 0.50 0.35 0.50
0.38 0.48 0.56 0.64 0.71 0.77 0.80 0.87 0.90 0.94 0.94 0.91 0.86 0.93 0.79 0.60 0.68 0.54 0.47 0.55 0.73 0.69 0.64 0.68 0.70 0.72 0.79 0.59 0.48 0.42 0.41 0.50 0.39 0.38 0.44 0.50 0.51 0.45 0.44 0.40 0.43 0.52 0.52 0.51 0.34 0.38 0.47
0.36 0.47 0.56 0.64 0.71 0.77 0.81 0.87 0.91 0.97 0.93 0.90 0.84 0.94 0.80 0.66 0.69 0.62 0.63 0.61 0.70 0.73 0.61 0.69 0.66 0.69 0.65 0.53 0.51 0.48 0.46 0.51 0.49 0.53 0.51 0.48 0.45 0.43 0.47 0.40 0.35 0.58 0.55 0.42 0.50 0.53 0.51
0.37 0.46 0.56 0.65 0.71 0.77 0.80 0.89 0.92 0.93 0.94 0.94 0.77 0.92 0.96 0.76 0.72 0.76 0.75 0.81 0.77 0.89 0.76 0.74 0.71 0.70 0.69 0.58 0.56 0.58 0.48 0.51 0.52 0.44 0.61 0.48 0.53 0.49 0.49 0.46 0.61 0.63 0.60 0.61 0.60 0.57 0.58

GFSGBSN_prec_pwat_015.txt.gz
Precipitable_Water
0.98 0.89 0.77 0.68 0.73 0.78 0.78 0.85 0.88 0.85 0.83 0.79 0.78 0.74 0.68 0.70 0.80 0.78 0.82 0.84 0.87 0.87 0.85 0.87 0.92 0.94 0.82 0.59 0.59 0.91 0.86 0.86 0.87 0.87 0.79 0.76 0.64 0.60 0.47 0.54 0.58 0.52 0.56 0.63 0.60 0.60 0.59
1.10 1.04 0.93 0.82 0.73 0.76 0.72 0.77 0.86 0.86 0.84 0.84 0.80 0.81 0.73 0.67 0.75 0.79 0.81 0.85 0.89 0.87 0.85 0.84 0.87 0.95 0.75 0.50 0.74 0.78 0.82 0.82 0.79 0.79 0.75 0.75 0.68 0.72 0.59 0.52 0.52 0.59 0.60 0.60 0.64 0.61 0.62
1.03 1.13 1.07 0.96 0.87 0.76 0.73 0.72 0.79 0.85 0.84 0.86 0.85 0.84 0.76 0.67 0.68 0.72 0.79 0.86 0.91 0.91 0.89 0.86 0.86 0.83 0.69 0.59 0.80 0.84 0.84 0.79 0.80 0.77 0.66 0.83 0.80 0.74 0.69 0.52 0.59 0.58 0.48 0.55 0.56 0.59 0.57
0.92 0.93 1.10 1.06 0.97 0.87 0.80 0.74 0.80 0.82 0.84 0.84 0.88 0.86 0.77 0.74 0.66 0.70 0.75 0.81 0.90 0.92 0.96 0.91 0.88 0.76 0.54 0.79 0.80 0.79 0.81 0.77 0.81 0.80 0.76 0.77 0.79 0.69 0.70 0.70 0.56 0.48 0.50 0.37 0.53 0.58 0.58
0.72 0.81 0.92 1.11 1.08 0.96 0.87 0.79 0.78 0.86 0.86 0.84 0.87 0.88 0.82 0.80 0.68 0.74 0.75 0.79 0.81 0.89 0.92 0.97 0.77 0.65 0.48 0.75 0.65 0.75 0.78 0.67 0.67 0.68 0.70 0.68 0.67 0.61 0.62 0.50 0.43 0.47 0.34 0.40 0.44 0.57 0.59
0.57 0.59 0.79 0.90 1.04 1.07 0.97 0.86 0.80 0.86 0.86 0.90 0.88 0.88 0.85 0.85 0.77 0.73 0.80 0.80 0.78 0.82 0.87 0.89 0.78 0.56 0.61 0.55 0.67 0.71 0.77 0.74 0.64 0.61 0.57 0.55 0.49 0.44 0.48 0.45 0.29 0.34 0.34 0.38 0.38 0.46 0.56
0.53 0.54 0.57 0.71 0.91 1.05 1.08 0.97 0.89 0.81 0.82 0.88 0.92 0.95 0.86 0.85 0.79 0.72 0.77 0.68 0.53 0.52 0.64 0.53 0.55 0.50 0.52 0.66 0.74 0.66 0.71 0.70 0.68 0.60 0.44 0.50 0.38 0.33 0.37 0.41 0.43 0.39 0.37 0.37 0.44 0.53 0.52
0.54 0.54 0.52 0.56 0.76 0.92 1.05 1.04 0.94 0.85 0.80 0.83 0.88 0.93 0.90 0.84 0.76 0.73 0.75 0.53 0.53 0.62 0.45 0.64 0.62 0.60 0.63 0.68 0.56 0.62 0.75 0.58 0.56 0.45 0.50 0.43 0.35 0.42 0.44 0.41 0.40 0.38 0.35 0.31 0.42 0.55 0.52
0.52 0.54 0.55 0.54 0.61 0.76 0.92 1.06 0.99 0.89 0.85 0.85 0.87 0.92 0.91 0.86 0.75 0.73 0.64 0.60 0.76 0.76 0.45 0.49 0.55 0.57 0.60 0.66 0.57 0.62 0.72 0.64 0.54 0.48 0.46 0.37 0.41 0.45 0.42 0.39 0.36 0.35 0.31 0.30 0.33 0.46 0.59
0.48 0.51 0.56 0.56 0.56 0.63 0.81 0.97 1.07 0.97 0.89 0.89 0.92 0.93 0.91 0.82 0.68 0.67 0.61 0.69 0.79 0.79 0.33 0.37 0.46 0.57 0.63 0.69 0.57 0.76 0.77 0.65 0.57 0.47 0.48 0.43 0.47 0.42 0.42 0.36 0.39 0.29 0.35 0.36 0.34 0.40 0.32
0.50 0.54 0.54 0.58 0.60 0.57 0.78 0.96 1.01 1.03 0.95 0.92 0.95 0.97 0.90 0.73 0.67 0.62 0.71 0.82 0.86 0.71 0.16 0.41 0.47 0.70 0.69 0.60 0.62 0.64 0.78 0.68 0.51 0.50 0.50 0.40 0.42 0.39 0.36 0.33 0.45 0.32 0.41 0.37 0.38 0.35 0.43
0.52 0.56 0.57 0.59 0.62 0.60 0.64 0.86 0.98 1.04 1.01 0.96 0.97 0.99 0.93 0.72 0.82 0.84 0.89 0.84 0.72 0.31 0.17 0.35 0.46 0.47 0.52 0.59 0.60 0.65 0.63 0.71 0.69 0.54 0.52 0.46 0.55 0.48 0.40 0.41 0.40 0.42 0.39 0.37 0.40 0.37 0.31
0.47 0.56 0.61 0.63 0.64 0.63 0.61 0.75 0.92 0.99 1.04 0.98 1.03 1.03 0.93 0.83 0.70 0.95 0.86 0.66 0.32 0.22 0.37 0.32 0.36 0.49 0.49 0.50 0.52 0.53 0.49 0.46 0.41 0.35 0.35 0.43 0.42 0.49 0.49 0.39 0.42 0.41 0.36 0.23 0.21 0.24 0.20
0.44 0.56 0.63 0.64 0.70 0.71 0.73 0.67 0.80 0.93 1.01 0.99 1.03 1.04 1.00 0.93 0.98 0.92 0.74 0.47 0.24 0.28 0.31 0.42 0.43 0.49 0.46 0.50 0.47 0.43 0.40 0.36 0.47 0.43 0.35 0.30 0.26 0.38 0.42 0.36 0.31 0.33 0.32 0.25 0.16 0.16 0.20
0.48 0.56 0.64 0.65 0.68 0.69 0.71 0.70 0.84 0.97 1.04 1.07 1.08 0.98 0.92 0.95 1.01 0.88 0.59 0.32 0.30 0.35 0.41 0.37 0.48 0.44 0.43 0.46 0.39 0.39 0.38 0.38 0.40 0.46 0.30 0.27 0.25 0.39 0.40 0.41 0.41 0.31 0.31 0.30 0.32 0.30 0.37
0.45 0.55 0.60 0.65 0.67 0.71 0.71 0.75 0.82 0.94 1.03 1.09 0.98 0.84 0.84 0.96 0.99 0.77 0.49 0.35 0.39 0.47 0.48 0.50 0.42 0.46 0.35 0.33 0.32 0.34 0.33 0.39 0.38 0.40 0.40 0.32 0.25 0.39 0.45 0.50 0.46 0.40 0.42 0.29 0.36 0.24 0.26
0.44 0.50 0.55 0.64 0.69 0.74 0.75 0.82 0.88 0.99 1.05 1.04 0.90 0.64 0.90 0.99 0.92 0.62 0.36 0.39 0.46 0.53 0.56 0.52 0.48 0.42 0.39 0.31 0.34 0.30 0.29 0.34 0.39 0.41 0.43 0.41 0.37 0.35 0.44 0.43 0.33 0.38 0.38 0.39 0.43 0.41 0.34
0.42 0.48 0.53 0.62 0.66 0.77 0.83 0.87 0.89 0.95 1.03 0.99 0.77 0.51 0.91 0.97 0.54 0.51 0.41 0.49 0.55 0.53 0.64 0.60 0.57 0.48 0.37 0.34 0.31 0.29 0.26 0.30 0.49 0.47 0.40 0.47 0.41 0.33 0.37 0.47 0.54 0.46 0.46 0.46 0.36 0.40 0.46
0.43 0.47 0.51 0.61 0.70 0.78 0.80 0.86 0.92 0.94 1.02 0.91 0.67 0.62 0.90 0.84 0.42 0.41 0.51 0.52 0.53 0.56 0.60 0.58 0.51 0.49 0.40 0.35 0.31 0.32 0.33 0.44 0.50 0.52 0.48 0.51 0.40 0.29 0.36 0.47 0.54 0.46 0.49 0.44 0.50 0.56 0.43
0.43 0.45 0.49 0.57 0.69 0.78 0.79 0.84 0.86 0.95 1.06 0.93 0.64 0.48 0.65 0.68 0.62 0.49 0.47 0.48 0.47 0.64 0.62 0.63 0.56 0.51 0.36 0.33 0.36 0.34 0.35 0.46 0.56 0.57 0.62 0.59 0.48 0.42 0.33 0.41 0.46 0.39 0.43 0.54 0.54 0.48 0.42
0.43 0.40 0.47 0.56 0.68 0.78 0.76 0.82 0.85 0.94 1.04 0.88 0.67 0.57 0.59 0.44 0.47 0.51 0.54 0.51 0.47 0.52 0.64 0.65 0.55 0.43 0.33 0.29 0.31 0.34 0.39 0.44 0.54 0.58 0.61 0.57 0.45 0.51 0.51 0.52 0.54 0.48 0.46 0.53 0.54 0.56 0.41
0.42 0.38 0.45 0.56 0.68 0.75 0.78 0.82 0.87 0.95 1.04 0.78 0.56 0.57 0.60 0.52 0.56 0.54 0.54 0.48 0.46 0.56 0.59 0.56 0.53 0.39 0.36 0.32 0.34 0.35 0.41 0.43 0.46 0.56 0.53 0.60 0.47 0.55 0.50 0.57 0.56 0.50 0.56 0.60 0.59 0.55 0.52
0.42 0.36 0.45 0.58 0.67 0.73 0.78 0.80 0.88 0.97 1.01 0.77 0.74 0.74 0.65 0.53 0.52 0.52 0.52 0.49 0.44 0.62 0.64 0.66 0.62 0.49 0.42 0.39 0.48 0.51 0.51 0.51 0.55 0.53 0.51 0.53 0.50 0.50 0.40 0.56 0.54 0.45 0.52 0.54 0.54 0.55 0.51
0.40 0.37 0.44 0.54 0.63 0.72 0.77 0.81 0.89 0.93 0.96 0.89 0.73 0.72 0.61 0.44 0.53 0.54 0.57 0.54 0.48 0.61 0.60 0.67 0.68 0.57 0.57 0.64 0.63 0.56 0.56 0.54 0.53 0.61 0.63 0.50 0.49 0.51 0.41 0.43 0.30 0.45 0.54 0.57 0.52 0.53 0.56
0.40 0.36 0.43 0.55 0.62 0.72 0.77 0.81 0.88 0.92 0.97 0.90 0.82 0.70 0.63 0.48 0.56 0.57 0.57 0.44 0.51 0.66 0.65 0.67 0.73 0.71 0.75 0.69 0.51 0.44 0.48 0.46 0.47 0.58 0.60 0.60 0.50 0.42 0.37 0.36 0.42 0.44 0.47 0.44 0.43 0.42 0.53
0.41 0.36 0.40 0.53 0.63 0.70 0.76 0.80 0.87 0.92 0.97 0.93 0.81 0.87 0.73 0.55 0.53 0.62 0.55 0.49 0.50 0.57 0.62 0.69 0.79 0.84 0.81 0.61 0.50 0.36 0.33 0.40 0.39 0.47 0.59 0.58 0.60 0.47 0.42 0.33 0.29 0.40 0.46 0.49 0.51 0.35 0.50
0.43 0.38 0.37 0.49 0.63 0.69 0.76 0.80 0.87 0.93 0.96 0.91 0.83 0.89 0.75 0.57 0.65 0.67 0.55 0.44 0.65 0.64 0.60 0.66 0.70 0.70 0.79 0.58 0.45 0.41 0.37 0.47 0.39 0.40 0.43 0.48 0.50 0.41 0.40 0.37 0.40 0.52 0.51 0.52 0.35 0.37 0.49
0.43 0.43 0.38 0.50 0.61 0.66 0.74 0.80 0.86 0.93 0.95 0.91 0.81 0.93 0.78 0.62 0.67 0.73 0.69 0.56 0.66 0.68 0.58 0.67 0.65 0.68 0.65 0.53 0.49 0.50 0.44 0.45 0.43 0.48 0.45 0.42 0.42 0.43 0.45 0.39 0.32 0.57 0.54 0.42 0.48 0.51 0.51
0.45 0.36 0.38 0.49 0.57 0.64 0.72 0.79 0.85 0.90 0.94 0.95 0.74 0.92 0.93 0.70 0.69 0.87 0.81 0.78 0.78 0.79 0.72 0.73 0.69 0.69 0.69 0.59 0.57 0.58 0.48 0.51 0.48 0.39 0.59 0.44 0.52 0.47 0.47 0.45 0.59 0.62 0.59 0.62 0.59 0.54 0.56

GFSGBSN_prec_pwat_018.txt.gz
Precipitable_Water
1.06 1.12 1.12 1.10 1.04 0.90 0.78 0.79 0.76 0.83 0.92 0.90 0.85 0.81 0.78 0.70 0.71 0.77 0.76 0.78 0.79 0.83 0.84 0.83 0.86 0.88 0.76 0.54 0.53 0.86 0.89 0.89 0.95 0.97 0.85 0.75 0.62 0.57 0.42 0.47 0.50 0.46 0.47 0.52 0.58 0.59 0.59
0.85 0.88 0.96 1.05 1.17 1.09 0.93 0.83 0.79 0.75 0.84 0.90 0.88 0.85 0.82 0.77 0.69 0.75 0.75 0.78 0.78 0.83 0.83 0.82 0.83 0.87 0.68 0.44 0.73 0.76 0.87 0.85 0.81 0.84 0.79 0.77 0.66 0.68 0.56 0.50 0.46 0.51 0.51 0.52 0.56 0.54 0.57
0.57 0.75 0.76 0.85 0.99 1.17 1.13 0.94 0.85 0.78 0.79 0.86 0.89 0.89 0.85 0.81 0.71 0.69 0.73 0.77 0.78 0.84 0.85 0.86 0.85 0.78 0.62 0.52 0.76 0.77 0.75 0.77 0.83 0.81 0.66 0.81 0.78 0.69 0.67 0.53 0.60 0.54 0.43 0.49 0.50 0.54 0.56
0.54 0.54 0.57 0.71 0.78 0.93 1.14 1.11 0.93 0.85 0.81 0.85 0.85 0.89 0.91 0.86 0.75 0.68 0.71 0.77 0.79 0.83 0.85 0.86 0.88 0.77 0.48 0.68 0.76 0.73 0.75 0.71 0.78 0.83 0.78 0.80 0.80 0.74 0.66 0.69 0.60 0.48 0.46 0.33 0.45 0.53 0.57
0.50 0.53 0.54 0.52 0.60 0.76 0.99 1.11 1.08 0.94 0.84 0.87 0.87 0.88 0.91 0.88 0.80 0.70 0.74 0.77 0.77 0.73 0.80 0.88 0.75 0.66 0.44 0.68 0.58 0.65 0.74 0.64 0.68 0.72 0.75 0.80 0.72 0.61 0.62 0.52 0.43 0.46 0.31 0.33 0.39 0.51 0.54
0.46 0.48 0.52 0.53 0.53 0.52 0.76 0.88 1.14 1.07 0.93 0.87 0.91 0.91 0.91 0.89 0.85 0.77 0.79 0.84 0.81 0.74 0.73 0.82 0.74 0.51 0.54 0.46 0.60 0.65 0.73 0.71 0.62 0.60 0.55 0.60 0.57 0.48 0.49 0.44 0.27 0.33 0.31 0.34 0.34 0.49 0.51
0.49 0.48 0.49 0.53 0.51 0.55 0.56 0.72 0.91 1.07 1.04 0.94 0.85 0.92 0.97 0.94 0.90 0.82 0.77 0.75 0.55 0.49 0.57 0.44 0.48 0.47 0.48 0.61 0.66 0.59 0.68 0.63 0.63 0.56 0.42 0.49 0.41 0.33 0.36 0.41 0.43 0.41 0.36 0.33 0.41 0.53 0.47
0.47 0.51 0.49 0.51 0.54 0.55 0.52 0.66 0.82 0.96 1.06 1.02 0.90 0.88 0.95 0.97 0.94 0.88 0.72 0.54 0.52 0.55 0.36 0.55 0.58 0.57 0.63 0.65 0.49 0.56 0.67 0.51 0.49 0.41 0.49 0.44 0.35 0.43 0.42 0.40 0.39 0.40 0.36 0.33 0.41 0.47 0.48
0.42 0.40 0.52 0.52 0.53 0.54 0.57 0.52 0.72 0.87 1.05 1.02 0.95 0.88 0.93 0.93 0.92 0.83 0.66 0.61 0.72 0.68 0.38 0.44 0.52 0.53 0.55 0.62 0.52 0.53 0.62 0.56 0.49 0.46 0.46 0.40 0.42 0.46 0.44 0.40 0.36 0.34 0.32 0.34 0.32 0.38 0.42
0.45 0.44 0.44 0.54 0.54 0.56 0.56 0.58 0.58 0.79 0.98 1.06 0.99 0.91 0.96 0.97 0.77 0.71 0.60 0.75 0.78 0.73 0.29 0.32 0.42 0.54 0.60 0.63 0.49 0.68 0.70 0.61 0.55 0.47 0.50 0.47 0.52 0.45 0.43 0.40 0.40 0.29 0.39 0.37 0.35 0.33 0.23
0.45 0.44 0.48 0.51 0.54 0.62 0.63 0.60 0.58 0.70 0.87 1.02 1.01 0.99 0.98 0.91 0.66 0.56 0.63 0.78 0.79 0.70 0.15 0.38 0.45 0.70 0.64 0.52 0.55 0.57 0.74 0.63 0.50 0.50 0.51 0.42 0.44 0.43 0.39 0.40 0.45 0.36 0.43 0.38 0.38 0.34 0.33
0.46 0.48 0.46 0.51 0.56 0.67 0.63 0.63 0.65 0.68 0.76 0.97 1.06 1.07 1.00 0.84 0.73 0.71 0.80 0.81 0.73 0.33 0.16 0.32 0.46 0.44 0.44 0.50 0.53 0.61 0.61 0.70 0.70 0.54 0.52 0.47 0.56 0.50 0.44 0.45 0.46 0.51 0.43 0.41 0.40 0.37 0.24
0.47 0.49 0.46 0.54 0.61 0.65 0.66 0.64 0.71 0.64 0.84 0.97 1.07 1.09 0.98 0.87 0.60 0.82 0.88 0.68 0.32 0.21 0.35 0.31 0.35 0.44 0.41 0.41 0.47 0.52 0.50 0.49 0.43 0.36 0.35 0.44 0.43 0.52 0.53 0.42 0.46 0.43 0.37 0.26 0.23 0.22 0.16
0.50 0.47 0.45 0.53 0.58 0.65 0.67 0.66 0.66 0.65 0.86 0.95 1.03 1.10 1.00 0.84 0.91 0.90 0.74 0.45 0.22 0.27 0.30 0.42 0.43 0.42 0.34 0.44 0.48 0.49 0.44 0.35 0.44 0.42 0.35 0.30 0.27 0.42 0.48 0.42 0.38 0.38 0.36 0.25 0.17 0.17 0.18
0.50 0.47 0.46 0.51 0.55 0.67 0.68 0.67 0.67 0.71 0.84 0.94 1.02 1.04 0.90 0.91 0.89 0.86 0.56 0.30 0.29 0.30 0.38 0.40 0.43 0.34 0.38 0.47 0.45 0.40 0.35 0.34 0.36 0.42 0.31 0.29 0.30 0.46 0.48 0.46 0.43 0.35 0.32 0.33 0.29 0.30 0.26
0.48 0.48 0.51 0.51 0.55 0.65 0.70 0.73 0.70 0.69 0.80 0.93 0.90 0.88 0.82 0.96 0.94 0.75 0.49 0.34 0.38 0.46 0.50 0.47 0.33 0.41 0.37 0.39 0.33 0.32 0.30 0.35 0.35 0.44 0.47 0.38 0.27 0.37 0.41 0.45 0.43 0.36 0.38 0.28 0.29 0.18 0.15
0.47 0.49 0.50 0.51 0.54 0.61 0.68 0.75 0.77 0.75 0.76 0.88 0.81 0.64 0.89 1.00 0.88 0.60 0.37 0.39 0.42 0.52 0.53 0.45 0.42 0.44 0.44 0.34 0.32 0.28 0.27 0.32 0.39 0.39 0.44 0.39 0.32 0.29 0.36 0.32 0.29 0.34 0.32 0.34 0.29 0.23 0.24
0.47 0.49 0.49 0.48 0.52 0.60 0.70 0.73 0.75 0.76 0.80 0.86 0.80 0.52 0.87 0.93 0.51 0.49 0.40 0.46 0.50 0.51 0.58 0.52 0.55 0.53 0.43 0.37 0.31 0.30 0.28 0.31 0.42 0.42 0.35 0.41 0.38 0.30 0.33 0.41 0.45 0.44 0.32 0.32 0.23 0.21 0.26
0.50 0.45 0.47 0.46 0.50 0.60 0.71 0.75 0.77 0.81 0.85 0.84 0.65 0.64 0.89 0.83 0.41 0.41 0.50 0.49 0.52 0.52 0.53 0.54 0.53 0.56 0.48 0.35 0.27 0.33 0.35 0.41 0.48 0.46 0.44 0.48 0.39 0.29 0.32 0.39 0.45 0.38 0.38 0.35 0.35 0.32 0.29
0.51 0.43 0.44 0.43 0.49 0.64 0.72 0.77 0.77 0.84 0.91 0.89 0.64 0.49 0.61 0.66 0.62 0.52 0.46 0.43 0.45 0.60 0.55 0.61 0.59 0.57 0.43 0.33 0.36 0.32 0.37 0.41 0.49 0.52 0.60 0.59 0.44 0.37 0.30 0.40 0.43 0.34 0.34 0.37 0.38 0.25 0.33
0.51 0.45 0.40 0.44 0.50 0.63 0.71 0.76 0.80 0.85 0.93 0.87 0.68 0.53 0.52 0.40 0.48 0.52 0.52 0.47 0.45 0.47 0.59 0.64 0.56 0.51 0.42 0.32 0.30 0.32 0.39 0.43 0.52 0.59 0.60 0.54 0.40 0.45 0.46 0.49 0.50 0.44 0.35 0.39 0.40 0.38 0.40
0.50 0.45 0.41 0.44 0.48 0.62 0.70 0.76 0.80 0.85 0.93 0.78 0.60 0.58 0.55 0.52 0.56 0.52 0.48 0.45 0.48 0.52 0.55 0.54 0.52 0.54 0.46 0.33 0.31 0.32 0.39 0.42 0.43 0.56 0.56 0.58 0.42 0.49 0.46 0.51 0.51 0.46 0.47 0.47 0.48 0.48 0.48
0.49 0.44 0.39 0.41 0.51 0.61 0.69 0.77 0.80 0.85 0.88 0.77 0.80 0.73 0.59 0.55 0.51 0.48 0.46 0.51 0.52 0.55 0.58 0.65 0.61 0.55 0.45 0.40 0.44 0.47 0.53 0.53 0.51 0.52 0.54 0.52 0.48 0.46 0.41 0.53 0.51 0.42 0.49 0.50 0.50 0.56 0.54
0.49 0.43 0.41 0.38 0.51 0.62 0.68 0.74 0.79 0.85 0.90 0.85 0.80 0.71 0.56 0.47 0.49 0.45 0.53 0.58 0.56 0.52 0.48 0.63 0.67 0.59 0.59 0.62 0.59 0.57 0.58 0.54 0.52 0.56 0.63 0.54 0.49 0.49 0.43 0.49 0.32 0.48 0.65 0.65 0.59 0.63 0.67
0.47 0.46 0.44 0.39 0.47 0.60 0.68 0.76 0.80 0.87 0.93 0.91 0.84 0.68 0.58 0.46 0.53 0.53 0.57 0.58 0.57 0.54 0.54 0.62 0.71 0.74 0.75 0.61 0.44 0.42 0.39 0.44 0.48 0.54 0.56 0.60 0.52 0.43 0.38 0.38 0.43 0.47 0.51 0.57 0.56 0.53 0.62
0.45 0.48 0.44 0.42 0.43 0.56 0.67 0.75 0.81 0.85 0.92 0.94 0.89 0.83 0.66 0.53 0.49 0.57 0.55 0.57 0.52 0.48 0.56 0.64 0.77 0.84 0.74 0.55 0.48 0.33 0.31 0.38 0.36 0.42 0.56 0.58 0.58 0.46 0.41 0.33 0.30 0.40 0.48 0.53 0.54 0.38 0.54
0.45 0.48 0.43 0.39 0.42 0.56 0.65 0.73 0.79 0.86 0.92 0.92 0.86 0.94 0.70 0.55 0.61 0.63 0.56 0.55 0.61 0.52 0.54 0.63 0.67 0.69 0.76 0.54 0.45 0.36 0.33 0.46 0.35 0.36 0.40 0.43 0.47 0.39 0.39 0.36 0.38 0.51 0.52 0.53 0.35 0.36 0.51
0.44 0.47 0.45 0.37 0.41 0.55 0.62 0.74 0.80 0.86 0.90 0.92 0.89 0.90 0.72 0.58 0.63 0.69 0.69 0.63 0.60 0.62 0.55 0.64 0.62 0.66 0.62 0.51 0.47 0.44 0.41 0.43 0.39 0.45 0.45 0.40 0.39 0.39 0.42 0.36 0.31 0.57 0.52 0.41 0.46 0.50 0.52
0.43 0.46 0.46 0.37 0.40 0.54 0.60 0.72 0.78 0.85 0.89 0.93 0.76 0.90 0.91 0.68 0.66 0.81 0.82 0.83 0.73 0.77 0.71 0.70 0.65 0.66 0.68 0.57 0.56 0.57 0.50 0.50 0.43 0.33 0.53 0.39 0.45 0.44 0.46 0.43 0.56 0.61 0.58 0.61 0.58 0.52 0.54

GFSGBSN_prec_pwat_021.txt.gz
Precipitable_Water
0.55 0.63 0.75 0.83 0.91 1.03 1.11 1.11 0.94 0.89 0.80 0.82 0.93 0.94 0.86 0.81 0.75 0.74 0.77 0.79 0.79 0.82 0.83 0.84 0.85 0.86 0.72 0.52 0.54 0.81 0.86 0.88 0.99 0.98 0.83 0.76 0.63 0.58 0.45 0.48 0.48 0.45 0.46 0.51 0.54 0.56 0.59
0.55 0.54 0.58 0.66 0.70 0.82 0.97 1.12 1.16 1.01 0.93 0.79 0.82 0.94 0.91 0.85 0.82 0.73 0.77 0.77 0.79 0.80 0.81 0.83 0.84 0.87 0.65 0.40 0.65 0.73 0.80 0.81 0.84 0.89 0.83 0.82 0.69 0.69 0.58 0.52 0.47 0.50 0.48 0.47 0.52 0.51 0.53
0.50 0.51 0.51 0.52 0.53 0.63 0.68 0.95 1.13 1.16 1.02 0.90 0.81 0.83 0.89 0.88 0.85 0.78 0.73 0.77 0.81 0.80 0.82 0.81 0.83 0.78 0.60 0.49 0.72 0.72 0.75 0.76 0.79 0.82 0.70 0.80 0.80 0.68 0.68 0.54 0.62 0.54 0.40 0.44 0.47 0.48 0.47
0.49 0.48 0.52 0.51 0.51 0.51 0.55 0.64 0.91 1.09 1.13 1.00 0.89 0.84 0.89 0.93 0.89 0.83 0.72 0.75 0.82 0.83 0.82 0.82 0.84 0.72 0.50 0.67 0.73 0.70 0.70 0.67 0.74 0.80 0.72 0.72 0.84 0.73 0.69 0.70 0.60 0.49 0.47 0.32 0.40 0.43 0.50
0.44 0.45 0.47 0.49 0.51 0.53 0.52 0.52 0.64 0.91 1.10 1.11 0.95 0.87 0.88 0.89 0.93 0.86 0.74 0.73 0.84 0.81 0.76 0.82 0.72 0.60 0.41 0.70 0.58 0.62 0.68 0.58 0.64 0.69 0.72 0.74 0.70 0.57 0.59 0.50 0.43 0.44 0.31 0.34 0.38 0.48 0.49
0.42 0.41 0.41 0.46 0.48 0.50 0.52 0.53 0.50 0.70 0.93 1.06 1.07 0.93 0.93 0.95 0.97 0.87 0.76 0.81 0.86 0.80 0.73 0.79 0.72 0.47 0.49 0.42 0.56 0.61 0.66 0.64 0.57 0.59 0.58 0.57 0.55 0.47 0.47 0.42 0.27 0.34 0.35 0.37 0.34 0.44 0.49
0.45 0.43 0.46 0.40 0.48 0.49 0.51 0.51 0.55 0.50 0.73 0.90 1.13 1.01 0.96 0.95 0.93 0.93 0.79 0.78 0.59 0.53 0.57 0.43 0.47 0.45 0.47 0.59 0.64 0.57 0.61 0.58 0.57 0.50 0.37 0.47 0.39 0.32 0.39 0.44 0.44 0.42 0.39 0.37 0.42 0.49 0.42
0.44 0.45 0.48 0.45 0.44 0.50 0.51 0.53 0.52 0.55 0.57 0.78 1.02 1.07 1.04 0.98 1.00 0.96 0.85 0.59 0.57 0.59 0.38 0.52 0.54 0.53 0.57 0.61 0.46 0.54 0.64 0.48 0.46 0.36 0.44 0.39 0.29 0.40 0.45 0.44 0.41 0.39 0.35 0.34 0.42 0.46 0.42
0.46 0.45 0.47 0.50 0.46 0.46 0.53 0.54 0.55 0.53 0.55 0.65 0.91 1.03 1.08 1.03 1.05 0.94 0.77 0.68 0.77 0.72 0.37 0.39 0.50 0.50 0.55 0.61 0.49 0.50 0.58 0.53 0.44 0.38 0.38 0.32 0.34 0.42 0.40 0.39 0.36 0.36 0.33 0.32 0.32 0.38 0.39
0.46 0.47 0.49 0.46 0.46 0.49 0.55 0.57 0.63 0.59 0.59 0.70 0.81 0.97 1.09 1.06 0.88 0.88 0.70 0.82 0.77 0.76 0.31 0.32 0.40 0.49 0.54 0.56 0.42 0.60 0.63 0.54 0.47 0.39 0.44 0.41 0.48 0.43 0.42 0.39 0.42 0.33 0.43 0.39 0.35 0.32 0.23
0.50 0.50 0.49 0.49 0.47 0.50 0.57 0.68 0.67 0.63 0.64 0.62 0.76 0.95 1.08 1.06 0.82 0.73 0.73 0.83 0.77 0.63 0.17 0.38 0.45 0.69 0.63 0.49 0.50 0.53 0.69 0.58 0.43 0.43 0.45 0.37 0.40 0.40 0.38 0.41 0.46 0.39 0.46 0.42 0.39 0.34 0.31
0.51 0.51 0.52 0.52 0.48 0.49 0.58 0.65 0.67 0.66 0.62 0.56 0.72 0.90 1.03 0.98 0.88 0.81 0.84 0.76 0.68 0.30 0.16 0.32 0.45 0.43 0.43 0.48 0.48 0.53 0.55 0.63 0.62 0.50 0.49 0.44 0.54 0.49 0.45 0.48 0.50 0.52 0.45 0.44 0.42 0.37 0.23
0.50 0.50 0.51 0.50 0.51 0.55 0.59 0.64 0.66 0.64 0.61 0.58 0.71 0.93 0.97 0.98 0.74 0.87 0.75 0.62 0.32 0.21 0.35 0.30 0.33 0.41 0.40 0.40 0.41 0.45 0.45 0.45 0.41 0.36 0.35 0.43 0.44 0.51 0.53 0.43 0.48 0.46 0.40 0.27 0.25 0.24 0.20
0.53 0.54 0.52 0.48 0.53 0.59 0.59 0.63 0.66 0.67 0.68 0.61 0.65 0.89 0.93 0.98 0.97 0.86 0.64 0.42 0.20 0.26 0.29 0.41 0.38 0.40 0.36 0.38 0.39 0.44 0.44 0.39 0.46 0.42 0.33 0.28 0.23 0.37 0.47 0.41 0.37 0.38 0.38 0.27 0.18 0.18 0.21
0.54 0.55 0.53 0.50 0.55 0.56 0.61 0.66 0.69 0.72 0.69 0.66 0.72 0.81 0.84 0.98 0.96 0.82 0.51 0.28 0.23 0.26 0.35 0.35 0.38 0.35 0.35 0.40 0.42 0.43 0.37 0.30 0.34 0.37 0.26 0.25 0.25 0.41 0.44 0.46 0.44 0.38 0.32 0.37 0.30 0.32 0.26
0.53 0.54 0.54 0.50 0.52 0.54 0.59 0.67 0.73 0.75 0.73 0.73 0.65 0.71 0.79 1.00 0.94 0.74 0.44 0.27 0.31 0.38 0.40 0.40 0.31 0.38 0.31 0.37 0.39 0.34 0.26 0.30 0.31 0.35 0.40 0.32 0.22 0.34 0.40 0.47 0.48 0.42 0.44 0.29 0.31 0.18 0.16
0.53 0.53 0.53 0.51 0.49 0.52 0.58 0.68 0.74 0.74 0.74 0.79 0.69 0.57 0.81 0.98 0.87 0.61 0.36 0.34 0.37 0.49 0.47 0.40 0.38 0.37 0.38 0.40 0.40 0.30 0.26 0.30 0.34 0.34 0.38 0.37 0.32 0.28 0.37 0.31 0.28 0.35 0.33 0.34 0.32 0.27 0.17
0.52 0.52 0.53 0.51 0.43 0.49 0.58 0.68 0.72 0.76 0.81 0.74 0.62 0.46 0.86 0.92 0.52 0.49 0.36 0.43 0.49 0.50 0.53 0.48 0.49 0.45 0.44 0.46 0.39 0.29 0.26 0.29 0.39 0.42 0.34 0.41 0.38 0.29 0.31 0.43 0.43 0.36 0.30 0.32 0.23 0.20 0.23
0.52 0.51 0.51 0.50 0.42 0.47 0.56 0.65 0.73 0.76 0.81 0.71 0.57 0.59 0.85 0.81 0.38 0.38 0.45 0.43 0.51 0.50 0.47 0.49 0.47 0.51 0.55 0.48 0.34 0.31 0.31 0.38 0.42 0.41 0.40 0.46 0.37 0.28 0.30 0.38 0.44 0.37 0.38 0.37 0.33 0.32 0.21
0.51 0.51 0.51 0.48 0.41 0.47 0.59 0.65 0.71 0.77 0.80 0.76 0.59 0.45 0.61 0.65 0.59 0.46 0.40 0.41 0.43 0.55 0.52 0.55 0.52 0.57 0.53 0.45 0.40 0.30 0.32 0.39 0.43 0.45 0.53 0.54 0.43 0.36 0.29 0.35 0.41 0.35 0.37 0.39 0.34 0.23 0.20
0.51 0.49 0.50 0.47 0.40 0.50 0.58 0.63 0.73 0.74 0.81 0.76 0.60 0.50 0.57 0.41 0.47 0.46 0.48 0.47 0.44 0.42 0.53 0.57 0.52 0.54 0.50 0.39 0.34 0.30 0.37 0.40 0.48 0.54 0.56 0.53 0.38 0.43 0.44 0.46 0.45 0.42 0.36 0.35 0.31 0.26 0.23
0.48 0.46 0.51 0.47 0.40 0.50 0.58 0.64 0.75 0.77 0.86 0.73 0.58 0.55 0.61 0.53 0.49 0.50 0.50 0.46 0.45 0.44 0.50 0.49 0.50 0.56 0.53 0.43 0.34 0.28 0.33 0.39 0.42 0.56 0.54 0.56 0.40 0.45 0.42 0.51 0.46 0.37 0.38 0.36 0.34 0.32 0.29
0.47 0.46 0.51 0.46 0.43 0.46 0.59 0.66 0.75 0.80 0.85 0.71 0.79 0.74 0.61 0.51 0.48 0.46 0.46 0.48 0.46 0.52 0.57 0.59 0.59 0.54 0.51 0.52 0.49 0.45 0.49 0.53 0.56 0.53 0.53 0.50 0.45 0.43 0.38 0.50 0.45 0.35 0.41 0.37 0.35 0.40 0.42
0.46 0.46 0.51 0.46 0.44 0.45 0.57 0.65 0.76 0.81 0.85 0.80 0.79 0.76 0.56 0.42 0.46 0.47 0.51 0.52 0.52 0.56 0.53 0.58 0.62 0.57 0.62 0.73 0.59 0.54 0.52 0.52 0.53 0.56 0.60 0.52 0.49 0.47 0.41 0.47 0.31 0.51 0.63 0.56 0.46 0.48 0.52
0.47 0.47 0.49 0.49 0.40 0.42 0.55 0.66 0.76 0.82 0.87 0.84 0.87 0.76 0.62 0.45 0.52 0.52 0.52 0.53 0.60 0.61 0.58 0.53 0.62 0.70 0.77 0.66 0.43 0.36 0.38 0.41 0.45 0.52 0.55 0.60 0.54 0.45 0.39 0.39 0.46 0.47 0.58 0.59 0.53 0.52 0.66
0.48 0.47 0.47 0.49 0.38 0.43 0.55 0.65 0.75 0.81 0.85 0.86 0.89 0.90 0.71 0.54 0.50 0.60 0.52 0.56 0.54 0.54 0.57 0.54 0.74 0.80 0.74 0.59 0.42 0.29 0.27 0.31 0.36 0.43 0.55 0.57 0.57 0.47 0.41 0.34 0.30 0.44 0.53 0.70 0.68 0.46 0.66
0.47 0.48 0.45 0.50 0.40 0.43 0.54 0.62 0.74 0.79 0.84 0.86 0.88 0.91 0.71 0.54 0.61 0.61 0.52 0.50 0.61 0.59 0.50 0.53 0.64 0.66 0.73 0.52 0.39 0.34 0.31 0.43 0.35 0.35 0.37 0.41 0.45 0.40 0.38 0.35 0.39 0.53 0.52 0.60 0.40 0.38 0.54
0.46 0.47 0.44 0.48 0.43 0.41 0.50 0.60 0.74 0.80 0.85 0.87 0.84 0.96 0.78 0.57 0.63 0.69 0.66 0.61 0.63 0.62 0.47 0.61 0.60 0.63 0.61 0.48 0.44 0.42 0.38 0.39 0.40 0.43 0.41 0.38 0.36 0.38 0.40 0.34 0.30 0.56 0.52 0.41 0.46 0.52 0.53
0.44 0.46 0.45 0.46 0.45 0.41 0.45 0.57 0.71 0.80 0.85 0.90 0.80 0.93 0.93 0.67 0.63 0.76 0.76 0.78 0.77 0.74 0.63 0.69 0.62 0.63 0.67 0.55 0.51 0.52 0.41 0.45 0.41 0.31 0.50 0.38 0.45 0.40 0.41 0.42 0.55 0.61 0.57 0.58 0.56 0.54 0.54

GFSGBSN_prec_pwat_024.txt.gz
Precipitable_Water
0.51 0.50 0.48 0.49 0.53 0.61 0.71 0.81 0.83 1.10 1.13 0.98 0.94 0.86 1.01 0.96 0.87 0.80 0.72 0.74 0.78 0.80 0.82 0.82 0.87 0.88 0.74 0.55 0.56 0.83 0.87 0.86 0.95 1.00 0.88 0.79 0.66 0.59 0.45 0.48 0.49 0.44 0.43 0.47 0.49 0.48 0.47
0.48 0.51 0.53 0.52 0.51 0.52 0.53 0.57 0.68 0.85 1.09 1.13 1.06 0.94 0.90 1.00 0.93 0.84 0.80 0.74 0.75 0.79 0.81 0.82 0.83 0.89 0.65 0.39 0.64 0.71 0.80 0.79 0.89 0.87 0.84 0.82 0.70 0.69 0.56 0.53 0.48 0.52 0.50 0.47 0.48 0.46 0.47
0.47 0.46 0.45 0.45 0.50 0.50 0.50 0.53 0.52 0.60 0.86 1.10 1.11 1.08 0.88 0.98 0.94 0.88 0.83 0.76 0.76 0.78 0.81 0.80 0.82 0.78 0.60 0.50 0.73 0.76 0.75 0.74 0.81 0.88 0.76 0.86 0.86 0.67 0.64 0.52 0.62 0.56 0.43 0.46 0.44 0.44 0.42
0.45 0.45 0.44 0.46 0.46 0.46 0.53 0.49 0.50 0.52 0.61 0.87 1.10 1.11 1.03 0.93 1.01 0.92 0.86 0.82 0.74 0.80 0.80 0.80 0.84 0.71 0.45 0.69 0.73 0.69 0.72 0.70 0.76 0.82 0.71 0.74 0.81 0.67 0.63 0.66 0.57 0.48 0.47 0.33 0.44 0.45 0.44
0.47 0.44 0.45 0.45 0.45 0.44 0.45 0.52 0.52 0.50 0.51 0.64 0.93 1.10 1.06 1.00 0.99 0.99 0.91 0.84 0.76 0.86 0.83 0.80 0.71 0.59 0.39 0.68 0.59 0.65 0.69 0.58 0.65 0.67 0.70 0.69 0.64 0.53 0.55 0.44 0.38 0.42 0.30 0.34 0.39 0.51 0.47
0.44 0.43 0.43 0.43 0.45 0.48 0.48 0.49 0.52 0.55 0.50 0.52 0.69 0.98 1.09 1.03 1.02 1.02 0.95 0.86 0.81 0.86 0.78 0.75 0.71 0.46 0.48 0.43 0.53 0.58 0.63 0.61 0.54 0.55 0.52 0.53 0.50 0.42 0.42 0.37 0.22 0.28 0.30 0.34 0.35 0.46 0.46
0.48 0.46 0.47 0.49 0.44 0.43 0.43 0.46 0.51 0.53 0.57 0.50 0.51 0.84 1.05 1.08 1.06 1.05 0.95 0.81 0.60 0.53 0.59 0.41 0.43 0.43 0.46 0.57 0.62 0.55 0.61 0.56 0.55 0.48 0.36 0.45 0.34 0.28 0.35 0.40 0.39 0.37 0.35 0.33 0.40 0.46 0.43
0.50 0.51 0.54 0.54 0.55 0.51 0.46 0.46 0.51 0.54 0.55 0.56 0.52 0.65 0.98 1.05 1.08 1.08 0.93 0.66 0.62 0.58 0.38 0.52 0.52 0.52 0.56 0.60 0.43 0.51 0.60 0.43 0.43 0.32 0.40 0.35 0.25 0.37 0.42 0.42 0.40 0.37 0.33 0.31 0.36 0.40 0.37
0.51 0.50 0.52 0.51 0.51 0.49 0.49 0.48 0.52 0.59 0.60 0.60 0.57 0.57 0.80 1.00 1.12 1.04 0.82 0.69 0.79 0.74 0.40 0.38 0.46 0.44 0.50 0.56 0.44 0.46 0.55 0.48 0.40 0.35 0.36 0.30 0.32 0.39 0.37 0.36 0.33 0.33 0.31 0.32 0.30 0.34 0.36
0.48 0.48 0.50 0.55 0.51 0.50 0.50 0.51 0.57 0.60 0.62 0.62 0.63 0.56 0.73 0.99 0.95 0.97 0.82 0.85 0.82 0.72 0.30 0.29 0.37 0.45 0.50 0.54 0.42 0.59 0.61 0.51 0.44 0.36 0.40 0.36 0.41 0.38 0.36 0.34 0.37 0.28 0.39 0.38 0.36 0.33 0.24
0.50 0.53 0.54 0.56 0.53 0.52 0.52 0.56 0.62 0.63 0.63 0.66 0.64 0.56 0.63 0.94 0.86 0.82 0.88 0.97 0.85 0.54 0.16 0.36 0.43 0.69 0.62 0.45 0.47 0.50 0.65 0.54 0.40 0.39 0.41 0.33 0.36 0.36 0.35 0.36 0.42 0.34 0.42 0.40 0.39 0.35 0.33
0.54 0.55 0.56 0.57 0.56 0.53 0.54 0.62 0.59 0.59 0.61 0.64 0.62 0.54 0.62 0.77 0.92 0.95 0.97 0.94 0.68 0.27 0.15 0.32 0.46 0.44 0.45 0.48 0.48 0.54 0.54 0.59 0.58 0.44 0.43 0.39 0.49 0.45 0.42 0.46 0.47 0.49 0.43 0.43 0.43 0.38 0.24
0.54 0.54 0.55 0.56 0.55 0.56 0.60 0.60 0.60 0.66 0.67 0.63 0.63 0.57 0.63 0.84 0.76 1.01 0.91 0.69 0.32 0.21 0.33 0.28 0.32 0.40 0.39 0.38 0.41 0.43 0.40 0.41 0.35 0.30 0.30 0.39 0.40 0.49 0.50 0.41 0.47 0.46 0.39 0.27 0.25 0.25 0.20
0.52 0.56 0.55 0.54 0.57 0.57 0.57 0.57 0.65 0.68 0.71 0.72 0.67 0.58 0.60 0.78 0.93 0.97 0.77 0.44 0.22 0.26 0.29 0.40 0.37 0.37 0.31 0.38 0.39 0.40 0.37 0.34 0.45 0.41 0.31 0.24 0.19 0.34 0.43 0.36 0.33 0.36 0.37 0.26 0.18 0.19 0.21
0.53 0.55 0.55 0.55 0.57 0.56 0.52 0.56 0.68 0.75 0.73 0.74 0.69 0.56 0.58 0.78 0.93 0.90 0.57 0.31 0.24 0.26 0.33 0.34 0.37 0.30 0.32 0.38 0.37 0.37 0.37 0.35 0.33 0.36 0.24 0.22 0.22 0.38 0.39 0.42 0.40 0.33 0.28 0.36 0.29 0.31 0.24
0.54 0.54 0.54 0.54 0.55 0.54 0.48 0.57 0.67 0.75 0.76 0.74 0.59 0.49 0.54 0.82 0.95 0.76 0.47 0.33 0.33 0.36 0.38 0.36 0.26 0.33 0.28 0.33 0.33 0.36 0.35 0.30 0.29 0.35 0.40 0.30 0.20 0.29 0.34 0.42 0.42 0.38 0.41 0.26 0.29 0.19 0.17
0.50 0.55 0.53 0.53 0.54 0.50 0.47 0.58 0.64 0.73 0.76 0.74 0.58 0.44 0.72 0.91 0.85 0.60 0.36 0.36 0.37 0.42 0.41 0.34 0.32 0.32 0.33 0.33 0.36 0.36 0.35 0.29 0.33 0.32 0.40 0.37 0.30 0.27 0.36 0.31 0.28 0.34 0.31 0.33 0.33 0.28 0.18
0.50 0.54 0.53 0.53 0.51 0.48 0.49 0.59 0.63 0.73 0.75 0.70 0.56 0.39 0.77 0.87 0.49 0.51 0.42 0.43 0.45 0.41 0.47 0.42 0.41 0.39 0.37 0.39 0.37 0.39 0.34 0.31 0.36 0.38 0.31 0.39 0.35 0.26 0.30 0.41 0.46 0.43 0.36 0.34 0.24 0.22 0.26
0.52 0.54 0.50 0.52 0.48 0.46 0.50 0.57 0.62 0.72 0.75 0.63 0.49 0.49 0.81 0.71 0.39 0.39 0.46 0.44 0.44 0.42 0.45 0.44 0.42 0.46 0.48 0.42 0.37 0.43 0.36 0.36 0.40 0.38 0.34 0.40 0.36 0.28 0.31 0.38 0.44 0.39 0.41 0.39 0.36 0.32 0.21
0.51 0.53 0.51 0.52 0.49 0.43 0.49 0.57 0.63 0.73 0.77 0.68 0.50 0.42 0.58 0.62 0.57 0.46 0.41 0.41 0.40 0.49 0.50 0.52 0.49 0.52 0.46 0.43 0.51 0.41 0.32 0.38 0.43 0.43 0.49 0.51 0.42 0.36 0.29 0.34 0.41 0.36 0.38 0.41 0.36 0.26 0.22
0.50 0.52 0.50 0.52 0.48 0.42 0.48 0.57 0.65 0.76 0.79 0.71 0.55 0.48 0.53 0.41 0.47 0.48 0.45 0.41 0.38 0.40 0.51 0.53 0.47 0.47 0.47 0.43 0.44 0.38 0.37 0.38 0.45 0.50 0.52 0.51 0.39 0.43 0.44 0.46 0.43 0.39 0.38 0.37 0.32 0.29 0.24
0.52 0.51 0.48 0.53 0.50 0.42 0.47 0.58 0.69 0.78 0.80 0.64 0.53 0.51 0.58 0.50 0.54 0.47 0.47 0.41 0.40 0.44 0.48 0.44 0.45 0.50 0.53 0.46 0.45 0.34 0.34 0.35 0.36 0.51 0.52 0.56 0.40 0.45 0.41 0.48 0.49 0.40 0.38 0.36 0.34 0.33 0.29
0.52 0.50 0.52 0.50 0.51 0.40 0.45 0.57 0.71 0.79 0.80 0.66 0.71 0.74 0.59 0.53 0.49 0.45 0.43 0.45 0.46 0.50 0.52 0.51 0.53 0.53 0.51 0.54 0.59 0.58 0.49 0.44 0.48 0.48 0.51 0.51 0.46 0.41 0.35 0.47 0.47 0.38 0.42 0.39 0.37 0.39 0.35
0.51 0.50 0.51 0.48 0.51 0.39 0.44 0.59 0.69 0.78 0.82 0.75 0.74 0.75 0.56 0.45 0.49 0.47 0.50 0.53 0.51 0.52 0.47 0.57 0.61 0.56 0.63 0.73 0.70 0.63 0.50 0.48 0.49 0.49 0.59 0.51 0.48 0.46 0.39 0.45 0.31 0.49 0.61 0.52 0.43 0.43 0.44
0.49 0.49 0.51 0.47 0.49 0.42 0.44 0.59 0.67 0.77 0.84 0.81 0.84 0.75 0.61 0.47 0.49 0.49 0.52 0.52 0.54 0.57 0.56 0.59 0.60 0.63 0.74 0.67 0.51 0.42 0.33 0.35 0.36 0.45 0.50 0.57 0.51 0.42 0.38 0.38 0.45 0.47 0.55 0.55 0.49 0.48 0.52
0.49 0.47 0.49 0.47 0.48 0.45 0.43 0.56 0.64 0.75 0.82 0.85 0.86 0.90 0.73 0.51 0.47 0.54 0.51 0.56 0.50 0.51 0.56 0.61 0.71 0.73 0.72 0.58 0.48 0.35 0.24 0.32 0.31 0.41 0.55 0.56 0.55 0.45 0.41 0.33 0.30 0.44 0.55 0.72 0.68 0.46 0.65
0.47 0.44 0.45 0.47 0.46 0.47 0.44 0.51 0.64 0.75 0.81 0.84 0.84 0.94 0.76 0.56 0.61 0.62 0.52 0.51 0.59 0.58 0.53 0.59 0.58 0.59 0.71 0.52 0.42 0.37 0.30 0.40 0.32 0.34 0.38 0.40 0.44 0.38 0.39 0.35 0.41 0.52 0.53 0.68 0.39 0.41 0.60
0.48 0.42 0.43 0.47 0.45 0.47 0.47 0.48 0.61 0.73 0.80 0.82 0.83 0.95 0.79 0.61 0.65 0.68 0.66 0.60 0.60 0.58 0.51 0.60 0.54 0.60 0.57 0.48 0.45 0.41 0.36 0.38 0.39 0.44 0.41 0.38 0.36 0.37 0.39 0.34 0.30 0.56 0.55 0.42 0.47 0.53 0.55
0.44 0.43 0.42 0.44 0.44 0.46 0.45 0.47 0.63 0.73 0.79 0.82 0.74 0.92 0.93 0.67 0.63 0.78 0.78 0.77 0.74 0.73 0.66 0.64 0.58 0.61 0.62 0.55 0.51 0.51 0.44 0.44 0.41 0.34 0.51 0.37 0.43 0.40 0.41 0.42 0.56 0.62 0.57 0.58 0.56 0.52 0.54

GFSGBSN_prec_pwat_027.txt.gz
Precipitable_Water
0.48 0.48 0.49 0.47 0.47 0.46 0.49 0.49 0.51 0.58 0.68 0.79 1.02 1.09 1.07 0.94 1.09 0.97 0.89 0.81 0.72 0.76 0.79 0.81 0.84 0.87 0.73 0.55 0.58 0.85 0.89 0.87 0.97 0.99 0.85 0.75 0.66 0.57 0.43 0.44 0.45 0.41 0.41 0.45 0.47 0.45 0.44
0.49 0.49 0.48 0.48 0.47 0.50 0.46 0.47 0.51 0.49 0.51 0.58 0.84 1.00 1.08 1.06 0.97 1.06 0.92 0.87 0.74 0.75 0.79 0.80 0.80 0.85 0.65 0.41 0.65 0.74 0.79 0.84 0.90 0.91 0.86 0.81 0.71 0.71 0.57 0.52 0.48 0.52 0.50 0.48 0.48 0.44 0.44
0.49 0.47 0.46 0.46 0.48 0.46 0.48 0.51 0.51 0.51 0.52 0.52 0.57 0.89 1.01 1.12 1.03 1.06 0.97 0.90 0.83 0.74 0.79 0.78 0.81 0.74 0.58 0.52 0.74 0.76 0.73 0.75 0.88 0.86 0.74 0.86 0.85 0.67 0.64 0.52 0.62 0.56 0.44 0.46 0.45 0.45 0.43
0.48 0.46 0.45 0.45 0.46 0.48 0.45 0.47 0.46 0.49 0.51 0.52 0.52 0.66 0.88 1.07 1.07 1.07 1.05 0.93 0.86 0.76 0.80 0.80 0.83 0.69 0.43 0.68 0.76 0.69 0.73 0.72 0.81 0.89 0.82 0.86 0.92 0.76 0.65 0.65 0.55 0.46 0.45 0.31 0.43 0.46 0.47
0.45 0.48 0.48 0.47 0.50 0.50 0.50 0.48 0.46 0.44 0.49 0.54 0.55 0.50 0.77 1.01 1.09 1.06 1.09 1.07 0.87 0.81 0.86 0.83 0.70 0.58 0.38 0.66 0.58 0.68 0.71 0.63 0.69 0.76 0.73 0.75 0.70 0.54 0.55 0.42 0.35 0.39 0.26 0.30 0.35 0.47 0.45
0.53 0.54 0.51 0.52 0.54 0.51 0.50 0.47 0.46 0.47 0.49 0.55 0.53 0.55 0.58 0.88 1.07 1.08 1.13 1.05 0.94 0.86 0.85 0.79 0.71 0.45 0.48 0.43 0.53 0.60 0.66 0.67 0.61 0.60 0.56 0.55 0.49 0.39 0.39 0.35 0.19 0.24 0.26 0.30 0.30 0.38 0.42
0.58 0.56 0.52 0.51 0.56 0.56 0.55 0.46 0.45 0.50 0.47 0.57 0.56 0.55 0.51 0.75 0.99 1.10 1.08 0.91 0.69 0.58 0.61 0.44 0.42 0.43 0.45 0.56 0.62 0.54 0.58 0.55 0.53 0.48 0.34 0.43 0.32 0.25 0.32 0.36 0.35 0.33 0.31 0.28 0.35 0.42 0.36
0.54 0.52 0.55 0.54 0.55 0.53 0.54 0.52 0.52 0.51 0.52 0.57 0.63 0.60 0.60 0.59 0.95 1.07 1.04 0.73 0.66 0.64 0.40 0.53 0.53 0.53 0.59 0.61 0.43 0.52 0.60 0.43 0.42 0.32 0.40 0.35 0.25 0.34 0.38 0.37 0.34 0.32 0.29 0.28 0.33 0.38 0.36
0.51 0.54 0.53 0.53 0.54 0.54 0.53 0.52 0.53 0.57 0.55 0.60 0.61 0.63 0.60 0.55 0.83 0.96 0.89 0.82 0.87 0.76 0.46 0.42 0.48 0.46 0.51 0.55 0.43 0.44 0.52 0.45 0.37 0.32 0.33 0.26 0.29 0.37 0.36 0.34 0.31 0.31 0.29 0.29 0.28 0.34 0.36
0.55 0.56 0.54 0.52 0.54 0.53 0.53 0.54 0.57 0.61 0.62 0.63 0.59 0.61 0.64 0.56 0.59 0.90 0.82 0.95 0.90 0.77 0.34 0.31 0.36 0.43 0.48 0.53 0.38 0.54 0.56 0.46 0.40 0.31 0.34 0.32 0.38 0.35 0.34 0.32 0.35 0.26 0.37 0.35 0.33 0.30 0.20
0.56 0.50 0.54 0.54 0.55 0.53 0.55 0.58 0.60 0.62 0.62 0.62 0.62 0.61 0.65 0.59 0.60 0.70 0.87 0.97 0.87 0.66 0.16 0.34 0.42 0.67 0.55 0.39 0.40 0.45 0.61 0.50 0.36 0.35 0.36 0.30 0.34 0.34 0.32 0.34 0.40 0.32 0.39 0.36 0.35 0.31 0.29
0.51 0.53 0.55 0.53 0.55 0.54 0.57 0.60 0.56 0.56 0.66 0.68 0.66 0.61 0.62 0.55 0.56 0.75 0.96 0.94 0.75 0.37 0.16 0.31 0.44 0.44 0.42 0.44 0.44 0.52 0.52 0.58 0.55 0.42 0.41 0.37 0.47 0.42 0.39 0.43 0.44 0.45 0.40 0.39 0.39 0.35 0.22
0.52 0.52 0.54 0.53 0.54 0.55 0.57 0.60 0.52 0.60 0.69 0.74 0.74 0.69 0.57 0.57 0.47 0.87 0.95 0.75 0.37 0.25 0.36 0.29 0.32 0.42 0.41 0.38 0.41 0.44 0.42 0.39 0.33 0.27 0.27 0.36 0.37 0.44 0.44 0.34 0.40 0.39 0.34 0.23 0.21 0.22 0.19
0.50 0.49 0.51 0.55 0.54 0.54 0.57 0.56 0.51 0.63 0.73 0.70 0.72 0.71 0.63 0.53 0.61 0.88 0.80 0.51 0.27 0.30 0.32 0.38 0.35 0.37 0.32 0.39 0.38 0.40 0.37 0.33 0.41 0.37 0.31 0.23 0.18 0.30 0.39 0.31 0.27 0.30 0.29 0.21 0.13 0.15 0.18
0.51 0.52 0.51 0.55 0.54 0.53 0.54 0.49 0.55 0.65 0.77 0.74 0.72 0.63 0.53 0.51 0.73 0.79 0.58 0.35 0.30 0.31 0.37 0.34 0.37 0.30 0.29 0.35 0.36 0.36 0.34 0.32 0.36 0.42 0.26 0.22 0.21 0.36 0.38 0.40 0.37 0.30 0.25 0.32 0.24 0.24 0.20
0.51 0.52 0.54 0.55 0.52 0.52 0.50 0.49 0.57 0.66 0.76 0.78 0.62 0.56 0.47 0.64 0.77 0.69 0.48 0.36 0.37 0.40 0.40 0.37 0.28 0.33 0.27 0.31 0.31 0.33 0.32 0.37 0.35 0.36 0.39 0.31 0.19 0.29 0.34 0.40 0.40 0.36 0.40 0.25 0.28 0.16 0.15
0.54 0.52 0.54 0.53 0.53 0.51 0.49 0.50 0.59 0.65 0.76 0.76 0.59 0.41 0.54 0.71 0.76 0.56 0.38 0.39 0.42 0.48 0.43 0.34 0.31 0.31 0.33 0.32 0.34 0.33 0.32 0.35 0.38 0.35 0.37 0.33 0.27 0.23 0.34 0.31 0.28 0.35 0.34 0.36 0.34 0.28 0.19
0.54 0.51 0.54 0.52 0.55 0.49 0.48 0.50 0.56 0.64 0.74 0.72 0.52 0.31 0.66 0.78 0.45 0.48 0.42 0.45 0.51 0.45 0.47 0.40 0.40 0.38 0.35 0.36 0.34 0.33 0.33 0.38 0.46 0.37 0.27 0.35 0.30 0.22 0.26 0.38 0.44 0.44 0.39 0.38 0.28 0.24 0.29
0.51 0.50 0.53 0.50 0.54 0.48 0.47 0.48 0.55 0.65 0.73 0.64 0.45 0.42 0.72 0.68 0.38 0.41 0.49 0.47 0.49 0.45 0.40 0.37 0.37 0.41 0.43 0.36 0.32 0.36 0.40 0.49 0.48 0.36 0.31 0.37 0.31 0.25 0.28 0.38 0.45 0.40 0.42 0.42 0.40 0.37 0.26
0.48 0.52 0.52 0.54 0.52 0.50 0.43 0.48 0.58 0.70 0.75 0.71 0.49 0.39 0.52 0.56 0.56 0.46 0.42 0.42 0.42 0.50 0.43 0.44 0.44 0.46 0.42 0.39 0.43 0.38 0.42 0.46 0.43 0.40 0.44 0.46 0.39 0.34 0.30 0.36 0.43 0.38 0.37 0.39 0.37 0.28 0.26
0.51 0.52 0.50 0.52 0.52 0.52 0.41 0.50 0.61 0.71 0.77 0.72 0.54 0.44 0.52 0.38 0.42 0.47 0.46 0.45 0.40 0.38 0.45 0.50 0.46 0.44 0.42 0.36 0.39 0.40 0.46 0.44 0.42 0.45 0.48 0.49 0.37 0.42 0.44 0.45 0.46 0.43 0.41 0.35 0.31 0.32 0.27
0.51 0.50 0.49 0.52 0.49 0.51 0.42 0.49 0.61 0.72 0.78 0.67 0.52 0.48 0.56 0.48 0.52 0.46 0.45 0.40 0.40 0.41 0.41 0.42 0.42 0.45 0.46 0.40 0.43 0.41 0.42 0.38 0.34 0.42 0.46 0.51 0.39 0.45 0.41 0.47 0.47 0.43 0.46 0.37 0.32 0.33 0.32
0.51 0.49 0.47 0.51 0.50 0.50 0.43 0.49 0.64 0.72 0.78 0.61 0.65 0.71 0.57 0.50 0.49 0.44 0.42 0.41 0.41 0.45 0.51 0.51 0.48 0.46 0.45 0.49 0.59 0.58 0.59 0.51 0.44 0.43 0.43 0.47 0.44 0.42 0.35 0.44 0.47 0.39 0.45 0.45 0.40 0.38 0.36
0.48 0.46 0.45 0.48 0.49 0.50 0.46 0.50 0.62 0.70 0.77 0.73 0.72 0.69 0.54 0.43 0.47 0.45 0.47 0.48 0.46 0.49 0.48 0.54 0.54 0.48 0.59 0.72 0.68 0.64 0.60 0.54 0.50 0.46 0.52 0.46 0.45 0.45 0.37 0.43 0.31 0.50 0.61 0.57 0.47 0.48 0.48
0.49 0.46 0.42 0.45 0.49 0.49 0.48 0.49 0.57 0.68 0.79 0.76 0.80 0.72 0.59 0.44 0.50 0.48 0.48 0.49 0.54 0.57 0.54 0.55 0.58 0.65 0.71 0.63 0.48 0.42 0.40 0.39 0.36 0.43 0.45 0.50 0.46 0.40 0.36 0.36 0.43 0.49 0.56 0.57 0.51 0.51 0.60
0.46 0.46 0.39 0.40 0.47 0.47 0.48 0.49 0.51 0.67 0.80 0.82 0.83 0.89 0.72 0.52 0.47 0.54 0.51 0.53 0.48 0.49 0.52 0.57 0.71 0.74 0.69 0.56 0.47 0.35 0.29 0.32 0.31 0.41 0.55 0.54 0.54 0.44 0.38 0.32 0.29 0.45 0.57 0.71 0.66 0.42 0.60
0.44 0.44 0.40 0.41 0.45 0.47 0.49 0.47 0.50 0.66 0.79 0.83 0.81 0.92 0.75 0.54 0.59 0.57 0.47 0.51 0.60 0.55 0.52 0.59 0.62 0.61 0.67 0.51 0.42 0.38 0.34 0.42 0.28 0.34 0.37 0.39 0.42 0.36 0.37 0.34 0.38 0.52 0.56 0.68 0.39 0.43 0.60
0.39 0.40 0.39 0.39 0.40 0.45 0.49 0.43 0.52 0.67 0.75 0.80 0.79 0.93 0.79 0.62 0.61 0.65 0.63 0.58 0.58 0.58 0.50 0.58 0.56 0.55 0.55 0.45 0.44 0.42 0.38 0.39 0.35 0.41 0.39 0.37 0.36 0.36 0.39 0.34 0.29 0.56 0.55 0.44 0.49 0.55 0.59
0.36 0.35 0.36 0.39 0.40 0.44 0.43 0.42 0.52 0.68 0.74 0.80 0.72 0.88 0.93 0.70 0.64 0.78 0.76 0.75 0.73 0.71 0.63 0.65 0.60 0.57 0.59 0.52 0.52 0.51 0.43 0.43 0.38 0.31 0.50 0.36 0.42 0.39 0.41 0.39 0.53 0.58 0.58 0.61 0.59 0.53 0.58

GFSGBSN_prec_pwat_030.txt.gz
Precipitable_Water
0.48 0.50 0.48 0.49 0.48 0.47 0.48 0.48 0.50 0.49 0.49 0.49 0.51 0.61 0.79 0.99 1.04 1.04 1.13 0.97 0.91 0.75 0.76 0.81 0.82 0.87 0.73 0.56 0.57 0.84 0.86 0.86 0.93 1.06 0.91 0.74 0.61 0.55 0.43 0.45 0.47 0.40 0.41 0.44 0.46 0.47 0.44
0.49 0.49 0.46 0.48 0.49 0.49 0.51 0.48 0.48 0.46 0.47 0.49 0.51 0.51 0.60 0.91 0.97 1.06 1.09 1.05 0.95 0.84 0.75 0.81 0.82 0.86 0.64 0.40 0.67 0.79 0.81 0.85 0.89 0.92 0.87 0.83 0.70 0.71 0.58 0.51 0.46 0.47 0.45 0.43 0.45 0.42 0.44
0.45 0.48 0.49 0.48 0.48 0.51 0.51 0.50 0.51 0.47 0.45 0.43 0.47 0.55 0.52 0.70 0.86 1.04 1.09 1.12 0.98 0.90 0.75 0.78 0.81 0.76 0.58 0.52 0.73 0.75 0.74 0.81 0.91 0.96 0.81 0.88 0.82 0.71 0.67 0.55 0.62 0.55 0.42 0.46 0.45 0.45 0.43
0.51 0.54 0.53 0.52 0.52 0.52 0.54 0.53 0.52 0.50 0.48 0.48 0.47 0.50 0.55 0.55 0.77 0.99 1.07 1.16 1.04 0.93 0.82 0.78 0.82 0.70 0.45 0.68 0.79 0.71 0.74 0.76 0.88 0.92 0.92 0.95 0.88 0.75 0.64 0.65 0.54 0.43 0.43 0.31 0.41 0.44 0.46
0.53 0.61 0.55 0.54 0.53 0.58 0.56 0.55 0.54 0.51 0.48 0.50 0.47 0.53 0.54 0.53 0.66 0.86 1.05 1.14 1.10 0.98 0.86 0.82 0.69 0.59 0.41 0.69 0.60 0.66 0.73 0.70 0.79 0.83 0.82 0.87 0.81 0.65 0.64 0.47 0.39 0.40 0.27 0.30 0.34 0.44 0.44
0.58 0.55 0.54 0.55 0.57 0.58 0.60 0.58 0.57 0.53 0.51 0.49 0.52 0.54 0.57 0.54 0.55 0.84 1.02 1.11 1.11 1.01 0.92 0.86 0.72 0.48 0.50 0.45 0.57 0.62 0.72 0.77 0.70 0.67 0.62 0.59 0.53 0.42 0.42 0.37 0.21 0.25 0.28 0.30 0.28 0.36 0.39
0.54 0.53 0.56 0.56 0.56 0.56 0.54 0.54 0.55 0.57 0.53 0.56 0.55 0.57 0.62 0.58 0.54 0.81 0.96 1.02 0.78 0.69 0.76 0.46 0.46 0.43 0.47 0.58 0.64 0.54 0.63 0.63 0.66 0.59 0.43 0.50 0.36 0.26 0.31 0.34 0.35 0.33 0.30 0.27 0.32 0.37 0.32
0.54 0.57 0.55 0.55 0.52 0.57 0.55 0.56 0.53 0.57 0.59 0.61 0.60 0.60 0.62 0.60 0.58 0.76 0.91 0.77 0.76 0.76 0.56 0.61 0.55 0.53 0.60 0.60 0.44 0.50 0.62 0.45 0.45 0.35 0.42 0.35 0.26 0.33 0.36 0.36 0.33 0.31 0.27 0.25 0.30 0.34 0.31
0.57 0.57 0.53 0.53 0.56 0.57 0.56 0.56 0.56 0.61 0.61 0.62 0.63 0.63 0.62 0.60 0.59 0.60 0.75 0.82 0.93 0.82 0.51 0.55 0.53 0.50 0.52 0.57 0.45 0.46 0.52 0.47 0.39 0.35 0.34 0.27 0.30 0.35 0.34 0.31 0.29 0.29 0.26 0.27 0.26 0.32 0.32
0.54 0.50 0.54 0.55 0.55 0.56 0.57 0.57 0.58 0.61 0.58 0.57 0.66 0.65 0.62 0.62 0.49 0.50 0.68 0.90 0.97 0.85 0.45 0.43 0.44 0.45 0.51 0.54 0.39 0.57 0.58 0.49 0.40 0.31 0.34 0.32 0.38 0.32 0.31 0.29 0.32 0.24 0.33 0.32 0.30 0.27 0.20
0.50 0.50 0.53 0.53 0.57 0.57 0.58 0.57 0.60 0.62 0.54 0.60 0.69 0.70 0.63 0.61 0.54 0.41 0.66 0.93 0.96 0.78 0.25 0.41 0.46 0.65 0.52 0.40 0.42 0.46 0.59 0.48 0.34 0.33 0.34 0.28 0.31 0.32 0.30 0.31 0.36 0.29 0.37 0.33 0.33 0.29 0.28
0.52 0.52 0.54 0.56 0.56 0.58 0.58 0.58 0.59 0.55 0.53 0.65 0.72 0.75 0.73 0.55 0.55 0.52 0.77 0.94 0.81 0.40 0.23 0.34 0.45 0.42 0.38 0.39 0.40 0.48 0.47 0.54 0.49 0.37 0.37 0.34 0.44 0.40 0.36 0.39 0.41 0.42 0.37 0.35 0.34 0.31 0.20
0.54 0.55 0.56 0.56 0.58 0.58 0.56 0.56 0.54 0.54 0.62 0.68 0.73 0.74 0.70 0.62 0.42 0.64 0.79 0.70 0.38 0.29 0.40 0.33 0.32 0.42 0.38 0.34 0.37 0.38 0.37 0.36 0.32 0.26 0.26 0.34 0.34 0.42 0.44 0.35 0.38 0.36 0.28 0.18 0.17 0.17 0.13
0.56 0.56 0.57 0.56 0.58 0.54 0.54 0.54 0.53 0.57 0.61 0.76 0.76 0.70 0.70 0.62 0.62 0.68 0.68 0.46 0.28 0.34 0.35 0.42 0.38 0.40 0.35 0.37 0.38 0.39 0.37 0.33 0.40 0.36 0.29 0.24 0.21 0.33 0.40 0.30 0.26 0.28 0.27 0.17 0.11 0.13 0.15
0.56 0.57 0.57 0.57 0.56 0.54 0.54 0.52 0.51 0.58 0.66 0.76 0.76 0.65 0.63 0.60 0.61 0.74 0.53 0.31 0.33 0.35 0.41 0.36 0.38 0.30 0.32 0.38 0.38 0.38 0.36 0.34 0.38 0.40 0.27 0.26 0.23 0.33 0.35 0.37 0.35 0.30 0.24 0.31 0.24 0.24 0.20
0.55 0.55 0.55 0.56 0.52 0.56 0.54 0.51 0.52 0.56 0.65 0.74 0.63 0.58 0.50 0.65 0.62 0.63 0.45 0.36 0.38 0.45 0.44 0.40 0.29 0.32 0.25 0.31 0.32 0.33 0.33 0.37 0.35 0.40 0.43 0.34 0.20 0.28 0.32 0.38 0.39 0.36 0.39 0.27 0.30 0.19 0.18
0.53 0.54 0.55 0.53 0.54 0.55 0.52 0.51 0.48 0.57 0.66 0.75 0.61 0.43 0.56 0.67 0.62 0.51 0.36 0.40 0.44 0.50 0.47 0.39 0.34 0.32 0.31 0.30 0.33 0.31 0.32 0.35 0.38 0.37 0.43 0.36 0.26 0.23 0.30 0.26 0.26 0.34 0.34 0.37 0.36 0.32 0.22
0.51 0.53 0.53 0.52 0.56 0.52 0.53 0.44 0.50 0.58 0.69 0.68 0.53 0.37 0.58 0.60 0.38 0.43 0.39 0.47 0.52 0.49 0.50 0.43 0.42 0.39 0.36 0.36 0.33 0.33 0.31 0.35 0.42 0.42 0.35 0.35 0.28 0.19 0.23 0.34 0.41 0.40 0.38 0.39 0.30 0.26 0.29
0.53 0.53 0.51 0.52 0.55 0.50 0.51 0.40 0.51 0.66 0.73 0.68 0.45 0.42 0.65 0.64 0.34 0.38 0.47 0.49 0.51 0.46 0.43 0.40 0.38 0.43 0.43 0.37 0.31 0.36 0.37 0.45 0.45 0.43 0.38 0.36 0.27 0.22 0.27 0.37 0.45 0.41 0.43 0.43 0.41 0.35 0.25
0.53 0.53 0.49 0.51 0.56 0.50 0.47 0.40 0.56 0.69 0.75 0.69 0.50 0.36 0.50 0.56 0.54 0.45 0.44 0.45 0.43 0.51 0.45 0.45 0.43 0.46 0.40 0.36 0.40 0.36 0.37 0.44 0.47 0.47 0.45 0.41 0.33 0.30 0.26 0.32 0.39 0.38 0.43 0.46 0.39 0.27 0.25
0.51 0.51 0.47 0.49 0.54 0.51 0.48 0.44 0.62 0.68 0.76 0.70 0.57 0.42 0.46 0.38 0.44 0.48 0.49 0.47 0.42 0.39 0.48 0.46 0.39 0.41 0.38 0.33 0.37 0.37 0.40 0.44 0.50 0.49 0.44 0.39 0.31 0.37 0.39 0.44 0.44 0.44 0.44 0.45 0.35 0.33 0.27
0.48 0.47 0.42 0.47 0.52 0.49 0.50 0.48 0.60 0.68 0.74 0.63 0.51 0.49 0.55 0.46 0.50 0.47 0.47 0.43 0.40 0.42 0.39 0.36 0.41 0.44 0.44 0.39 0.40 0.36 0.43 0.44 0.39 0.43 0.40 0.45 0.35 0.40 0.39 0.45 0.46 0.42 0.47 0.48 0.45 0.38 0.35
0.46 0.48 0.45 0.43 0.49 0.49 0.51 0.51 0.57 0.65 0.73 0.57 0.61 0.66 0.56 0.46 0.46 0.43 0.42 0.44 0.41 0.42 0.42 0.47 0.45 0.44 0.43 0.46 0.53 0.56 0.57 0.54 0.50 0.41 0.39 0.42 0.39 0.38 0.34 0.43 0.44 0.39 0.47 0.46 0.46 0.48 0.43
0.46 0.45 0.43 0.39 0.45 0.50 0.50 0.52 0.54 0.66 0.76 0.70 0.66 0.64 0.52 0.40 0.46 0.42 0.44 0.45 0.41 0.43 0.40 0.51 0.52 0.47 0.54 0.66 0.64 0.64 0.61 0.56 0.54 0.50 0.49 0.41 0.42 0.42 0.36 0.41 0.30 0.49 0.61 0.59 0.55 0.55 0.55
0.44 0.43 0.41 0.41 0.44 0.48 0.48 0.53 0.49 0.67 0.78 0.75 0.76 0.67 0.57 0.42 0.46 0.45 0.45 0.45 0.48 0.52 0.51 0.51 0.56 0.62 0.68 0.61 0.48 0.42 0.40 0.40 0.40 0.44 0.46 0.49 0.45 0.39 0.34 0.35 0.41 0.49 0.57 0.56 0.52 0.50 0.60
0.40 0.39 0.39 0.36 0.39 0.42 0.49 0.49 0.47 0.65 0.78 0.79 0.80 0.85 0.70 0.49 0.44 0.50 0.47 0.49 0.45 0.47 0.50 0.55 0.67 0.73 0.66 0.52 0.46 0.34 0.29 0.33 0.31 0.40 0.53 0.52 0.51 0.41 0.36 0.31 0.29 0.46 0.59 0.68 0.66 0.43 0.59
0.39 0.36 0.35 0.35 0.38 0.43 0.47 0.45 0.47 0.64 0.77 0.80 0.78 0.87 0.72 0.54 0.58 0.55 0.48 0.49 0.55 0.53 0.50 0.58 0.61 0.61 0.68 0.49 0.40 0.36 0.34 0.41 0.32 0.31 0.37 0.40 0.42 0.35 0.36 0.33 0.39 0.51 0.59 0.66 0.39 0.43 0.61
0.39 0.36 0.35 0.34 0.36 0.39 0.40 0.41 0.45 0.60 0.72 0.79 0.76 0.87 0.74 0.61 0.60 0.63 0.62 0.55 0.57 0.57 0.49 0.58 0.56 0.57 0.53 0.44 0.43 0.42 0.39 0.41 0.38 0.38 0.39 0.37 0.36 0.36 0.37 0.34 0.30 0.55 0.56 0.45 0.52 0.60 0.65
0.39 0.36 0.34 0.31 0.30 0.29 0.33 0.38 0.45 0.53 0.66 0.77 0.68 0.82 0.85 0.70 0.63 0.76 0.73 0.74 0.70 0.68 0.61 0.61 0.57 0.59 0.57 0.49 0.50 0.51 0.42 0.44 0.39 0.31 0.49 0.38 0.42 0.39 0.41 0.38 0.54 0.59 0.58 0.62 0.62 0.57 0.60

GFSGBSN_prec_pwat_033.txt.gz
Precipitable_Water
0.49 0.48 0.50 0.48 0.50 0.49 0.51 0.52 0.51 0.50 0.47 0.45 0.45 0.44 0.50 0.53 0.66 0.89 0.99 1.03 1.17 0.99 0.88 0.74 0.77 0.84 0.71 0.60 0.61 0.88 0.88 0.89 0.97 1.06 0.94 0.73 0.57 0.50 0.39 0.40 0.43 0.41 0.42 0.45 0.48 0.51 0.49
0.50 0.53 0.52 0.51 0.50 0.51 0.51 0.53 0.53 0.52 0.51 0.50 0.46 0.44 0.47 0.53 0.53 0.73 0.89 1.01 1.10 1.08 0.93 0.77 0.76 0.83 0.68 0.45 0.73 0.84 0.82 0.83 0.85 0.92 0.93 0.84 0.71 0.67 0.55 0.50 0.44 0.49 0.46 0.45 0.46 0.44 0.45
0.54 0.54 0.60 0.56 0.54 0.51 0.57 0.56 0.55 0.54 0.52 0.51 0.49 0.48 0.45 0.49 0.52 0.57 0.81 0.95 1.06 1.13 1.00 0.82 0.78 0.78 0.63 0.55 0.74 0.76 0.78 0.84 0.93 0.88 0.83 0.96 0.89 0.71 0.64 0.50 0.56 0.51 0.40 0.43 0.41 0.41 0.41
0.61 0.62 0.59 0.56 0.56 0.58 0.61 0.57 0.59 0.57 0.56 0.53 0.52 0.50 0.50 0.50 0.53 0.54 0.71 0.87 1.05 1.11 1.05 0.86 0.78 0.71 0.50 0.74 0.80 0.73 0.73 0.78 0.89 1.00 0.94 0.96 0.92 0.75 0.66 0.68 0.56 0.45 0.45 0.32 0.42 0.45 0.47
0.58 0.56 0.56 0.57 0.60 0.60 0.58 0.62 0.60 0.57 0.58 0.57 0.54 0.51 0.50 0.53 0.54 0.55 0.64 0.81 1.04 1.14 1.05 0.92 0.72 0.62 0.46 0.71 0.60 0.69 0.75 0.73 0.79 0.82 0.94 1.01 0.89 0.68 0.65 0.50 0.41 0.42 0.30 0.34 0.38 0.48 0.45
0.56 0.56 0.57 0.62 0.58 0.58 0.57 0.60 0.62 0.58 0.60 0.59 0.56 0.57 0.56 0.54 0.57 0.56 0.58 0.84 1.02 1.13 1.02 0.96 0.76 0.51 0.52 0.46 0.59 0.65 0.75 0.82 0.71 0.73 0.71 0.72 0.67 0.54 0.51 0.46 0.27 0.32 0.33 0.35 0.33 0.40 0.41
0.57 0.61 0.60 0.60 0.58 0.58 0.60 0.64 0.62 0.60 0.59 0.59 0.62 0.61 0.59 0.58 0.64 0.60 0.57 0.72 0.73 0.73 0.81 0.65 0.53 0.44 0.51 0.59 0.63 0.57 0.69 0.74 0.70 0.63 0.47 0.53 0.42 0.35 0.40 0.44 0.42 0.37 0.32 0.29 0.34 0.39 0.33
0.62 0.60 0.56 0.55 0.57 0.59 0.61 0.61 0.60 0.61 0.59 0.64 0.65 0.63 0.63 0.63 0.65 0.61 0.62 0.60 0.72 0.81 0.59 0.76 0.63 0.56 0.58 0.60 0.45 0.52 0.65 0.52 0.54 0.45 0.52 0.45 0.35 0.43 0.43 0.39 0.35 0.32 0.28 0.26 0.30 0.32 0.28
0.57 0.53 0.55 0.55 0.58 0.59 0.58 0.60 0.61 0.60 0.64 0.67 0.61 0.59 0.66 0.64 0.65 0.55 0.49 0.60 0.87 0.93 0.60 0.63 0.66 0.54 0.53 0.56 0.45 0.45 0.55 0.50 0.45 0.40 0.40 0.34 0.35 0.39 0.36 0.33 0.29 0.28 0.25 0.24 0.24 0.29 0.30
0.52 0.56 0.57 0.59 0.59 0.60 0.59 0.61 0.60 0.61 0.64 0.60 0.55 0.65 0.74 0.69 0.50 0.49 0.43 0.78 0.87 0.93 0.44 0.49 0.56 0.57 0.54 0.54 0.42 0.59 0.57 0.49 0.42 0.36 0.38 0.34 0.40 0.34 0.31 0.29 0.31 0.23 0.33 0.31 0.28 0.25 0.19
0.52 0.58 0.60 0.60 0.60 0.58 0.59 0.60 0.58 0.61 0.56 0.55 0.63 0.70 0.74 0.74 0.55 0.43 0.54 0.82 0.91 0.77 0.25 0.52 0.55 0.71 0.55 0.42 0.47 0.49 0.60 0.52 0.38 0.37 0.36 0.30 0.32 0.33 0.29 0.30 0.35 0.29 0.35 0.31 0.30 0.26 0.25
0.53 0.60 0.60 0.61 0.58 0.59 0.60 0.58 0.56 0.58 0.55 0.63 0.69 0.73 0.78 0.71 0.63 0.54 0.66 0.83 0.75 0.38 0.26 0.43 0.54 0.47 0.42 0.42 0.43 0.50 0.49 0.55 0.50 0.38 0.37 0.35 0.43 0.39 0.36 0.38 0.38 0.39 0.33 0.33 0.31 0.27 0.15
0.54 0.59 0.57 0.56 0.57 0.58 0.56 0.58 0.53 0.54 0.60 0.65 0.71 0.73 0.72 0.70 0.47 0.58 0.65 0.65 0.35 0.28 0.44 0.36 0.38 0.45 0.42 0.33 0.36 0.40 0.37 0.35 0.29 0.24 0.24 0.32 0.32 0.39 0.41 0.34 0.38 0.36 0.28 0.16 0.16 0.16 0.12
0.55 0.58 0.56 0.56 0.56 0.57 0.57 0.55 0.52 0.54 0.59 0.65 0.72 0.73 0.75 0.66 0.62 0.61 0.61 0.44 0.26 0.37 0.36 0.41 0.42 0.41 0.36 0.36 0.35 0.36 0.33 0.29 0.36 0.33 0.27 0.23 0.22 0.34 0.42 0.35 0.29 0.28 0.26 0.16 0.12 0.14 0.16
0.55 0.54 0.56 0.55 0.56 0.57 0.52 0.52 0.51 0.50 0.58 0.66 0.74 0.67 0.65 0.70 0.65 0.55 0.44 0.29 0.34 0.38 0.41 0.38 0.40 0.33 0.35 0.36 0.35 0.35 0.32 0.30 0.35 0.38 0.27 0.26 0.25 0.38 0.40 0.37 0.33 0.28 0.23 0.30 0.23 0.24 0.19
0.55 0.55 0.54 0.54 0.56 0.53 0.53 0.47 0.48 0.51 0.59 0.72 0.65 0.58 0.56 0.66 0.63 0.53 0.35 0.31 0.40 0.46 0.45 0.42 0.32 0.34 0.28 0.33 0.32 0.32 0.32 0.37 0.36 0.41 0.43 0.36 0.24 0.33 0.36 0.37 0.37 0.31 0.36 0.23 0.28 0.18 0.16
0.56 0.56 0.54 0.53 0.56 0.52 0.51 0.44 0.47 0.57 0.65 0.72 0.60 0.45 0.60 0.67 0.62 0.48 0.30 0.35 0.44 0.51 0.50 0.42 0.35 0.31 0.31 0.32 0.36 0.33 0.34 0.38 0.41 0.39 0.43 0.37 0.29 0.28 0.31 0.25 0.24 0.27 0.27 0.33 0.35 0.32 0.22
0.55 0.54 0.52 0.50 0.54 0.53 0.50 0.44 0.53 0.66 0.73 0.74 0.54 0.36 0.63 0.57 0.39 0.46 0.39 0.47 0.51 0.50 0.53 0.47 0.44 0.39 0.33 0.35 0.36 0.35 0.34 0.36 0.42 0.41 0.35 0.39 0.32 0.22 0.20 0.29 0.36 0.38 0.38 0.39 0.30 0.27 0.32
0.51 0.50 0.49 0.52 0.53 0.51 0.49 0.47 0.61 0.70 0.78 0.62 0.41 0.42 0.61 0.62 0.34 0.38 0.48 0.49 0.51 0.49 0.49 0.46 0.43 0.44 0.43 0.37 0.32 0.36 0.36 0.43 0.42 0.40 0.36 0.41 0.32 0.18 0.23 0.35 0.42 0.37 0.40 0.41 0.42 0.40 0.31
0.49 0.50 0.46 0.44 0.51 0.50 0.50 0.50 0.61 0.71 0.79 0.66 0.47 0.30 0.42 0.53 0.53 0.44 0.44 0.45 0.44 0.56 0.50 0.49 0.46 0.46 0.42 0.37 0.40 0.35 0.35 0.42 0.44 0.43 0.47 0.47 0.32 0.23 0.21 0.30 0.38 0.36 0.41 0.45 0.43 0.33 0.33
0.49 0.48 0.47 0.43 0.49 0.50 0.51 0.54 0.60 0.71 0.75 0.68 0.52 0.41 0.49 0.36 0.41 0.45 0.50 0.49 0.44 0.42 0.50 0.51 0.44 0.43 0.40 0.35 0.36 0.35 0.39 0.42 0.46 0.47 0.48 0.44 0.26 0.29 0.35 0.39 0.42 0.42 0.43 0.46 0.43 0.43 0.35
0.50 0.48 0.44 0.41 0.45 0.51 0.50 0.54 0.54 0.68 0.73 0.63 0.49 0.48 0.52 0.44 0.45 0.47 0.47 0.44 0.43 0.44 0.45 0.40 0.39 0.41 0.42 0.38 0.39 0.37 0.40 0.40 0.39 0.47 0.43 0.43 0.28 0.35 0.33 0.40 0.45 0.42 0.46 0.49 0.49 0.47 0.45
0.47 0.46 0.42 0.39 0.45 0.50 0.51 0.54 0.51 0.66 0.71 0.57 0.63 0.67 0.58 0.47 0.45 0.42 0.43 0.45 0.45 0.46 0.46 0.46 0.43 0.43 0.41 0.45 0.51 0.52 0.52 0.50 0.49 0.47 0.40 0.38 0.37 0.35 0.31 0.40 0.43 0.39 0.47 0.49 0.51 0.54 0.50
0.44 0.42 0.42 0.38 0.38 0.42 0.50 0.53 0.50 0.64 0.72 0.68 0.65 0.63 0.50 0.39 0.43 0.41 0.43 0.46 0.42 0.42 0.39 0.44 0.48 0.45 0.55 0.63 0.61 0.58 0.56 0.54 0.55 0.51 0.51 0.41 0.40 0.39 0.33 0.40 0.30 0.46 0.58 0.58 0.53 0.56 0.58
0.44 0.40 0.38 0.38 0.37 0.39 0.47 0.50 0.46 0.60 0.70 0.69 0.71 0.63 0.55 0.40 0.44 0.43 0.45 0.45 0.45 0.46 0.46 0.48 0.53 0.61 0.65 0.57 0.45 0.38 0.39 0.41 0.42 0.46 0.48 0.49 0.43 0.36 0.33 0.34 0.39 0.46 0.53 0.53 0.51 0.50 0.61
0.44 0.40 0.37 0.36 0.35 0.38 0.41 0.45 0.45 0.56 0.69 0.74 0.75 0.78 0.64 0.48 0.43 0.48 0.44 0.46 0.43 0.44 0.47 0.52 0.63 0.69 0.62 0.51 0.42 0.30 0.28 0.34 0.34 0.39 0.53 0.50 0.49 0.41 0.36 0.29 0.26 0.43 0.54 0.61 0.62 0.43 0.61
0.45 0.41 0.37 0.34 0.31 0.28 0.30 0.39 0.44 0.53 0.65 0.74 0.74 0.81 0.68 0.53 0.57 0.52 0.45 0.46 0.53 0.51 0.47 0.53 0.57 0.58 0.64 0.47 0.36 0.34 0.34 0.40 0.32 0.32 0.37 0.41 0.42 0.36 0.35 0.32 0.35 0.48 0.54 0.61 0.38 0.41 0.65
0.46 0.42 0.38 0.34 0.32 0.30 0.30 0.34 0.45 0.53 0.61 0.73 0.73 0.83 0.70 0.59 0.60 0.60 0.60 0.54 0.56 0.55 0.47 0.57 0.54 0.56 0.53 0.42 0.39 0.40 0.39 0.41 0.38 0.41 0.39 0.38 0.36 0.36 0.37 0.32 0.29 0.55 0.54 0.44 0.52 0.59 0.62
0.46 0.43 0.39 0.35 0.32 0.32 0.32 0.33 0.44 0.51 0.60 0.73 0.68 0.79 0.83 0.66 0.65 0.75 0.73 0.73 0.71 0.70 0.62 0.62 0.59 0.55 0.57 0.46 0.47 0.48 0.43 0.44 0.41 0.33 0.47 0.36 0.42 0.40 0.41 0.40 0.55 0.61 0.59 0.63 0.64 0.59 0.58

GFSGBSN_prec_pwat_036.txt.gz
Precipitable_Water
0.54 0.55 0.55 0.59 0.59 0.56 0.53 0.57 0.53 0.54 0.56 0.56 0.56 0.55 0.51 0.49 0.49 0.52 0.57 0.77 0.96 1.06 1.14 0.98 0.77 0.77 0.66 0.58 0.60 0.95 0.91 1.02 1.08 1.07 0.89 0.76 0.51 0.45 0.37 0.40 0.47 0.43 0.44 0.46 0.46 0.47 0.51
0.59 0.61 0.65 0.63 0.59 0.56 0.56 0.61 0.60 0.58 0.59 0.58 0.58 0.56 0.55 0.52 0.50 0.52 0.53 0.64 0.87 1.01 1.15 1.10 0.85 0.78 0.62 0.42 0.76 0.85 0.82 0.80 0.83 0.89 0.91 0.87 0.67 0.59 0.52 0.45 0.43 0.48 0.46 0.46 0.46 0.41 0.45
0.68 0.60 0.60 0.58 0.63 0.63 0.64 0.64 0.61 0.63 0.63 0.59 0.58 0.56 0.55 0.54 0.51 0.52 0.54 0.58 0.76 0.98 1.09 1.09 0.94 0.74 0.59 0.53 0.73 0.76 0.80 0.79 0.91 0.86 0.89 0.99 0.89 0.69 0.60 0.49 0.60 0.52 0.41 0.45 0.42 0.40 0.39
0.63 0.61 0.58 0.61 0.63 0.65 0.62 0.60 0.62 0.65 0.66 0.64 0.62 0.60 0.57 0.53 0.52 0.53 0.54 0.56 0.66 0.90 1.09 1.08 1.03 0.74 0.50 0.73 0.82 0.75 0.72 0.74 0.89 0.99 0.93 1.08 0.97 0.77 0.65 0.66 0.53 0.43 0.43 0.30 0.36 0.39 0.40
0.61 0.58 0.61 0.66 0.66 0.61 0.61 0.66 0.66 0.66 0.64 0.64 0.63 0.62 0.60 0.59 0.55 0.54 0.59 0.55 0.62 0.80 1.03 1.10 0.91 0.76 0.45 0.70 0.61 0.72 0.71 0.66 0.77 0.94 0.95 1.02 0.92 0.71 0.66 0.50 0.40 0.42 0.30 0.32 0.37 0.46 0.42
0.62 0.67 0.65 0.57 0.58 0.60 0.62 0.64 0.62 0.63 0.64 0.63 0.63 0.65 0.64 0.61 0.58 0.57 0.61 0.60 0.56 0.77 0.95 1.01 0.86 0.66 0.56 0.47 0.58 0.65 0.72 0.80 0.71 0.72 0.77 0.81 0.72 0.56 0.53 0.44 0.26 0.32 0.34 0.37 0.35 0.45 0.43
0.64 0.59 0.55 0.61 0.63 0.63 0.61 0.60 0.62 0.63 0.63 0.63 0.65 0.68 0.67 0.63 0.61 0.65 0.62 0.53 0.41 0.57 0.83 0.63 0.60 0.58 0.50 0.57 0.63 0.57 0.68 0.73 0.71 0.66 0.52 0.66 0.52 0.42 0.44 0.47 0.44 0.45 0.38 0.34 0.39 0.44 0.38
0.60 0.56 0.59 0.64 0.63 0.62 0.61 0.61 0.63 0.63 0.63 0.62 0.66 0.67 0.62 0.63 0.67 0.65 0.64 0.43 0.51 0.68 0.56 0.75 0.74 0.66 0.66 0.58 0.44 0.53 0.68 0.57 0.58 0.50 0.55 0.48 0.40 0.48 0.50 0.49 0.45 0.39 0.34 0.33 0.36 0.37 0.33
0.58 0.60 0.63 0.64 0.62 0.62 0.61 0.62 0.62 0.60 0.59 0.62 0.62 0.58 0.61 0.70 0.70 0.58 0.51 0.44 0.66 0.76 0.54 0.63 0.70 0.65 0.61 0.55 0.44 0.46 0.59 0.55 0.51 0.48 0.47 0.40 0.43 0.49 0.46 0.41 0.35 0.33 0.29 0.29 0.26 0.30 0.30
0.61 0.59 0.63 0.61 0.59 0.59 0.60 0.60 0.59 0.58 0.57 0.59 0.56 0.63 0.68 0.70 0.63 0.58 0.46 0.56 0.75 0.78 0.40 0.46 0.57 0.63 0.62 0.56 0.43 0.58 0.62 0.53 0.47 0.44 0.47 0.44 0.49 0.42 0.36 0.33 0.34 0.26 0.35 0.32 0.29 0.25 0.17
0.60 0.61 0.62 0.59 0.57 0.58 0.57 0.57 0.59 0.55 0.55 0.55 0.61 0.67 0.72 0.76 0.64 0.53 0.59 0.64 0.79 0.69 0.21 0.50 0.55 0.78 0.62 0.46 0.47 0.48 0.62 0.52 0.39 0.39 0.41 0.34 0.37 0.36 0.31 0.29 0.35 0.28 0.35 0.31 0.30 0.26 0.23
0.60 0.59 0.59 0.57 0.56 0.57 0.59 0.57 0.55 0.52 0.54 0.60 0.65 0.67 0.70 0.68 0.69 0.64 0.61 0.66 0.65 0.35 0.23 0.43 0.58 0.52 0.48 0.50 0.47 0.48 0.50 0.55 0.52 0.40 0.41 0.39 0.44 0.37 0.34 0.36 0.36 0.38 0.32 0.30 0.30 0.26 0.15
0.57 0.59 0.58 0.57 0.56 0.56 0.55 0.56 0.53 0.53 0.54 0.59 0.61 0.69 0.69 0.73 0.53 0.66 0.65 0.57 0.31 0.25 0.47 0.38 0.42 0.48 0.45 0.41 0.40 0.41 0.38 0.35 0.31 0.27 0.26 0.32 0.33 0.37 0.39 0.32 0.36 0.35 0.28 0.19 0.17 0.15 0.10
0.59 0.60 0.58 0.56 0.56 0.56 0.52 0.56 0.49 0.49 0.54 0.60 0.67 0.73 0.72 0.69 0.67 0.60 0.52 0.39 0.25 0.36 0.38 0.46 0.47 0.49 0.38 0.43 0.39 0.38 0.35 0.30 0.37 0.33 0.28 0.21 0.19 0.31 0.38 0.33 0.30 0.31 0.30 0.17 0.11 0.12 0.14
0.60 0.60 0.58 0.54 0.54 0.54 0.51 0.51 0.46 0.50 0.61 0.64 0.72 0.65 0.64 0.69 0.67 0.56 0.41 0.27 0.32 0.39 0.45 0.42 0.44 0.39 0.37 0.41 0.36 0.34 0.33 0.30 0.34 0.35 0.25 0.24 0.25 0.39 0.41 0.41 0.39 0.31 0.22 0.29 0.21 0.19 0.15
0.57 0.59 0.55 0.53 0.54 0.54 0.50 0.50 0.52 0.61 0.68 0.77 0.66 0.57 0.59 0.74 0.59 0.53 0.37 0.29 0.39 0.51 0.47 0.43 0.33 0.38 0.31 0.36 0.31 0.30 0.30 0.34 0.32 0.36 0.40 0.36 0.25 0.36 0.40 0.41 0.37 0.32 0.34 0.22 0.24 0.12 0.11
0.56 0.56 0.53 0.47 0.51 0.54 0.51 0.50 0.61 0.70 0.76 0.75 0.57 0.43 0.59 0.71 0.56 0.39 0.28 0.32 0.44 0.55 0.49 0.45 0.34 0.33 0.34 0.35 0.34 0.30 0.29 0.36 0.37 0.38 0.41 0.38 0.32 0.30 0.36 0.29 0.25 0.27 0.25 0.27 0.28 0.27 0.20
0.55 0.53 0.54 0.48 0.50 0.52 0.52 0.57 0.66 0.74 0.75 0.63 0.52 0.29 0.56 0.65 0.38 0.43 0.34 0.38 0.52 0.52 0.54 0.45 0.41 0.36 0.34 0.35 0.34 0.32 0.32 0.37 0.45 0.44 0.36 0.40 0.32 0.24 0.25 0.32 0.34 0.34 0.30 0.32 0.27 0.25 0.29
0.55 0.54 0.54 0.44 0.47 0.50 0.53 0.59 0.66 0.73 0.71 0.59 0.43 0.36 0.65 0.67 0.35 0.37 0.43 0.47 0.53 0.51 0.49 0.45 0.43 0.41 0.41 0.40 0.34 0.39 0.39 0.45 0.46 0.42 0.38 0.40 0.30 0.22 0.25 0.31 0.34 0.32 0.38 0.40 0.39 0.37 0.29
0.56 0.54 0.52 0.43 0.45 0.50 0.52 0.57 0.65 0.72 0.77 0.62 0.41 0.28 0.49 0.56 0.57 0.47 0.45 0.45 0.46 0.58 0.51 0.50 0.46 0.47 0.41 0.39 0.42 0.38 0.39 0.43 0.45 0.44 0.46 0.44 0.35 0.28 0.20 0.26 0.33 0.33 0.38 0.41 0.40 0.32 0.31
0.54 0.51 0.49 0.46 0.45 0.49 0.52 0.53 0.60 0.72 0.76 0.71 0.49 0.40 0.48 0.38 0.46 0.49 0.51 0.48 0.44 0.43 0.52 0.52 0.46 0.46 0.40 0.34 0.36 0.35 0.39 0.41 0.43 0.45 0.44 0.41 0.30 0.33 0.27 0.28 0.33 0.35 0.40 0.45 0.42 0.43 0.35
0.52 0.49 0.46 0.45 0.40 0.40 0.50 0.53 0.53 0.68 0.71 0.60 0.48 0.45 0.50 0.43 0.49 0.48 0.50 0.48 0.44 0.45 0.47 0.43 0.41 0.44 0.44 0.36 0.37 0.33 0.37 0.38 0.38 0.45 0.41 0.43 0.31 0.30 0.24 0.35 0.40 0.40 0.45 0.46 0.48 0.50 0.48
0.51 0.49 0.44 0.42 0.43 0.42 0.48 0.51 0.49 0.63 0.70 0.58 0.63 0.64 0.52 0.42 0.42 0.44 0.45 0.45 0.45 0.47 0.49 0.49 0.46 0.43 0.42 0.45 0.50 0.51 0.51 0.49 0.48 0.42 0.40 0.41 0.31 0.28 0.28 0.36 0.40 0.38 0.45 0.49 0.51 0.55 0.53
0.52 0.49 0.46 0.41 0.40 0.40 0.41 0.47 0.48 0.54 0.68 0.66 0.64 0.62 0.49 0.37 0.40 0.43 0.45 0.48 0.45 0.45 0.40 0.46 0.46 0.44 0.52 0.62 0.60 0.57 0.54 0.52 0.49 0.47 0.52 0.38 0.35 0.39 0.31 0.38 0.30 0.46 0.55 0.57 0.53 0.55 0.58
0.52 0.50 0.47 0.43 0.37 0.34 0.32 0.38 0.44 0.49 0.62 0.67 0.69 0.62 0.53 0.40 0.42 0.43 0.43 0.45 0.46 0.47 0.44 0.43 0.50 0.59 0.64 0.55 0.44 0.37 0.38 0.39 0.41 0.48 0.47 0.47 0.44 0.35 0.31 0.32 0.38 0.47 0.51 0.51 0.48 0.50 0.61
0.54 0.51 0.48 0.44 0.39 0.34 0.34 0.32 0.40 0.48 0.57 0.70 0.71 0.75 0.63 0.48 0.40 0.45 0.43 0.47 0.41 0.41 0.44 0.50 0.61 0.67 0.61 0.49 0.39 0.29 0.27 0.32 0.34 0.40 0.50 0.49 0.49 0.38 0.36 0.29 0.26 0.41 0.51 0.58 0.61 0.42 0.61
0.57 0.51 0.47 0.45 0.40 0.35 0.35 0.34 0.37 0.46 0.55 0.69 0.70 0.78 0.66 0.54 0.58 0.52 0.43 0.42 0.50 0.48 0.45 0.51 0.54 0.55 0.61 0.43 0.34 0.32 0.30 0.38 0.31 0.35 0.34 0.39 0.42 0.35 0.35 0.31 0.34 0.46 0.54 0.61 0.37 0.40 0.61
0.54 0.51 0.47 0.46 0.40 0.35 0.36 0.35 0.34 0.44 0.54 0.70 0.69 0.79 0.67 0.56 0.59 0.59 0.57 0.50 0.50 0.52 0.45 0.55 0.52 0.54 0.50 0.41 0.37 0.38 0.36 0.39 0.38 0.43 0.39 0.36 0.35 0.35 0.37 0.30 0.28 0.56 0.56 0.46 0.55 0.62 0.62
0.54 0.49 0.47 0.46 0.39 0.35 0.36 0.37 0.34 0.43 0.54 0.69 0.66 0.76 0.78 0.64 0.63 0.72 0.70 0.72 0.69 0.69 0.61 0.60 0.57 0.55 0.55 0.46 0.45 0.46 0.40 0.44 0.40 0.33 0.49 0.35 0.40 0.40 0.40 0.36 0.50 0.59 0.60 0.65 0.66 0.60 0.60

GFSGBSN_prec_pwat_039.txt.gz
Precipitable_Water
0.67 0.72 0.67 0.62 0.63 0.62 0.64 0.69 0.67 0.67 0.65 0.64 0.64 0.62 0.59 0.60 0.58 0.56 0.52 0.52 0.68 0.85 0.92 1.09 1.14 0.87 0.70 0.52 0.50 0.90 0.95 1.06 1.08 1.00 0.79 0.64 0.53 0.50 0.40 0.41 0.42 0.39 0.39 0.44 0.46 0.42 0.47
0.76 0.69 0.67 0.64 0.64 0.66 0.71 0.69 0.61 0.65 0.67 0.68 0.67 0.66 0.65 0.62 0.57 0.55 0.52 0.53 0.54 0.69 0.85 1.06 1.09 1.01 0.63 0.38 0.71 0.82 0.87 0.92 1.00 0.99 0.88 0.85 0.65 0.55 0.46 0.42 0.41 0.46 0.45 0.45 0.46 0.43 0.47
0.66 0.65 0.63 0.68 0.70 0.68 0.61 0.61 0.65 0.68 0.69 0.69 0.70 0.66 0.65 0.63 0.62 0.56 0.54 0.53 0.55 0.60 0.82 1.03 1.07 0.94 0.65 0.45 0.70 0.77 0.78 0.76 0.83 0.88 0.84 0.94 0.91 0.66 0.56 0.45 0.56 0.50 0.39 0.40 0.40 0.40 0.38
0.64 0.67 0.76 0.71 0.58 0.59 0.66 0.65 0.64 0.65 0.66 0.65 0.66 0.68 0.66 0.64 0.63 0.60 0.58 0.54 0.57 0.52 0.75 1.01 1.08 0.89 0.60 0.72 0.77 0.72 0.73 0.75 0.88 0.93 0.90 1.02 1.01 0.77 0.64 0.61 0.51 0.40 0.41 0.28 0.32 0.36 0.37
0.65 0.71 0.65 0.58 0.63 0.68 0.66 0.62 0.63 0.63 0.64 0.65 0.66 0.66 0.66 0.65 0.66 0.64 0.59 0.56 0.56 0.51 0.72 0.96 0.94 0.74 0.56 0.75 0.61 0.72 0.70 0.65 0.81 0.90 0.92 1.05 1.01 0.75 0.67 0.48 0.39 0.41 0.27 0.28 0.33 0.42 0.41
0.71 0.66 0.63 0.64 0.68 0.68 0.65 0.64 0.65 0.64 0.64 0.65 0.66 0.65 0.66 0.67 0.65 0.64 0.65 0.59 0.57 0.53 0.63 0.95 0.91 0.63 0.66 0.60 0.58 0.66 0.71 0.70 0.70 0.82 0.76 0.82 0.79 0.68 0.63 0.50 0.28 0.29 0.30 0.35 0.32 0.41 0.45
0.67 0.66 0.63 0.66 0.67 0.65 0.61 0.62 0.62 0.63 0.61 0.61 0.62 0.63 0.66 0.62 0.65 0.66 0.61 0.55 0.41 0.32 0.48 0.58 0.62 0.60 0.60 0.72 0.66 0.59 0.69 0.71 0.70 0.67 0.56 0.67 0.54 0.45 0.49 0.50 0.45 0.43 0.40 0.35 0.39 0.42 0.35
0.66 0.66 0.63 0.67 0.64 0.59 0.60 0.59 0.58 0.60 0.60 0.57 0.60 0.62 0.60 0.62 0.67 0.70 0.64 0.43 0.46 0.51 0.36 0.68 0.72 0.69 0.71 0.68 0.46 0.54 0.72 0.58 0.56 0.46 0.53 0.53 0.45 0.55 0.58 0.53 0.47 0.45 0.39 0.34 0.38 0.41 0.36
0.64 0.63 0.65 0.64 0.60 0.57 0.58 0.60 0.59 0.58 0.58 0.55 0.56 0.59 0.63 0.70 0.72 0.63 0.55 0.46 0.60 0.59 0.38 0.55 0.70 0.65 0.64 0.64 0.45 0.49 0.63 0.59 0.52 0.49 0.47 0.41 0.44 0.54 0.51 0.46 0.41 0.39 0.35 0.35 0.32 0.37 0.35
0.67 0.60 0.62 0.62 0.58 0.59 0.58 0.58 0.57 0.55 0.54 0.55 0.57 0.62 0.66 0.71 0.61 0.64 0.53 0.58 0.59 0.65 0.35 0.44 0.56 0.64 0.66 0.64 0.43 0.61 0.69 0.57 0.52 0.46 0.48 0.45 0.50 0.45 0.46 0.42 0.42 0.32 0.40 0.35 0.31 0.25 0.16
0.61 0.60 0.63 0.61 0.58 0.59 0.59 0.56 0.58 0.57 0.54 0.55 0.59 0.64 0.63 0.70 0.61 0.54 0.61 0.67 0.72 0.59 0.20 0.49 0.56 0.79 0.66 0.54 0.47 0.53 0.69 0.55 0.41 0.42 0.46 0.40 0.43 0.43 0.39 0.39 0.46 0.34 0.39 0.33 0.31 0.25 0.22
0.60 0.64 0.63 0.60 0.59 0.58 0.57 0.55 0.59 0.55 0.49 0.53 0.57 0.61 0.72 0.71 0.68 0.66 0.68 0.64 0.61 0.31 0.22 0.42 0.56 0.51 0.51 0.53 0.47 0.52 0.56 0.56 0.52 0.42 0.44 0.43 0.50 0.46 0.43 0.43 0.40 0.39 0.33 0.30 0.29 0.25 0.13
0.59 0.62 0.62 0.57 0.56 0.58 0.59 0.54 0.54 0.50 0.53 0.57 0.62 0.68 0.71 0.75 0.54 0.71 0.62 0.48 0.29 0.22 0.45 0.39 0.43 0.49 0.45 0.43 0.41 0.43 0.41 0.36 0.32 0.28 0.28 0.36 0.37 0.42 0.43 0.33 0.38 0.35 0.27 0.16 0.14 0.15 0.10
0.58 0.57 0.60 0.55 0.55 0.57 0.58 0.52 0.52 0.59 0.63 0.67 0.73 0.77 0.68 0.72 0.71 0.62 0.54 0.33 0.22 0.34 0.37 0.50 0.47 0.46 0.40 0.43 0.41 0.43 0.37 0.31 0.37 0.34 0.28 0.24 0.20 0.33 0.37 0.33 0.29 0.30 0.27 0.17 0.09 0.11 0.14
0.59 0.55 0.58 0.56 0.47 0.55 0.56 0.56 0.64 0.71 0.74 0.76 0.78 0.64 0.66 0.67 0.63 0.58 0.43 0.24 0.29 0.37 0.45 0.41 0.44 0.37 0.39 0.42 0.41 0.39 0.34 0.31 0.34 0.36 0.24 0.22 0.24 0.39 0.39 0.39 0.36 0.31 0.24 0.32 0.21 0.20 0.15
0.57 0.55 0.55 0.56 0.44 0.56 0.56 0.61 0.66 0.68 0.74 0.71 0.57 0.57 0.55 0.66 0.66 0.55 0.41 0.33 0.37 0.49 0.50 0.47 0.36 0.41 0.32 0.37 0.35 0.33 0.30 0.35 0.32 0.37 0.40 0.33 0.22 0.36 0.39 0.41 0.40 0.34 0.34 0.21 0.22 0.10 0.09
0.56 0.58 0.56 0.53 0.42 0.53 0.57 0.62 0.66 0.72 0.70 0.65 0.51 0.40 0.58 0.69 0.64 0.49 0.32 0.37 0.43 0.55 0.54 0.45 0.39 0.35 0.37 0.37 0.36 0.31 0.28 0.34 0.35 0.34 0.41 0.36 0.29 0.30 0.39 0.31 0.28 0.30 0.26 0.26 0.25 0.22 0.14
0.59 0.57 0.54 0.51 0.42 0.55 0.55 0.61 0.68 0.71 0.69 0.57 0.41 0.25 0.56 0.65 0.36 0.42 0.35 0.44 0.51 0.52 0.56 0.48 0.43 0.40 0.39 0.39 0.35 0.30 0.28 0.33 0.42 0.39 0.31 0.36 0.31 0.25 0.28 0.35 0.37 0.33 0.27 0.28 0.20 0.21 0.28
0.60 0.53 0.50 0.52 0.43 0.50 0.53 0.60 0.64 0.70 0.66 0.55 0.39 0.44 0.66 0.64 0.33 0.37 0.45 0.46 0.52 0.51 0.48 0.45 0.37 0.39 0.41 0.39 0.31 0.35 0.35 0.42 0.44 0.41 0.36 0.38 0.30 0.21 0.25 0.29 0.34 0.29 0.33 0.35 0.36 0.35 0.30
0.58 0.53 0.50 0.47 0.38 0.38 0.53 0.56 0.57 0.68 0.68 0.62 0.45 0.35 0.51 0.57 0.55 0.45 0.42 0.46 0.46 0.57 0.49 0.45 0.41 0.41 0.40 0.40 0.43 0.38 0.36 0.42 0.47 0.45 0.46 0.43 0.34 0.26 0.21 0.26 0.31 0.26 0.30 0.36 0.37 0.32 0.32
0.57 0.52 0.49 0.48 0.46 0.43 0.51 0.53 0.52 0.67 0.72 0.66 0.50 0.39 0.48 0.41 0.46 0.49 0.50 0.49 0.45 0.43 0.50 0.52 0.43 0.43 0.41 0.38 0.38 0.38 0.40 0.41 0.44 0.46 0.44 0.40 0.29 0.33 0.32 0.32 0.30 0.27 0.32 0.37 0.38 0.40 0.34
0.57 0.55 0.50 0.48 0.44 0.37 0.40 0.49 0.51 0.60 0.70 0.58 0.44 0.41 0.50 0.48 0.54 0.49 0.48 0.46 0.45 0.45 0.46 0.43 0.42 0.44 0.43 0.37 0.38 0.34 0.39 0.39 0.36 0.43 0.41 0.44 0.30 0.33 0.28 0.28 0.30 0.35 0.41 0.45 0.46 0.46 0.45
0.55 0.56 0.51 0.51 0.45 0.38 0.32 0.37 0.48 0.53 0.65 0.55 0.58 0.60 0.51 0.44 0.47 0.45 0.43 0.44 0.44 0.47 0.48 0.49 0.47 0.45 0.41 0.43 0.48 0.48 0.48 0.47 0.47 0.41 0.39 0.38 0.34 0.27 0.20 0.30 0.37 0.37 0.45 0.48 0.50 0.54 0.52
0.56 0.59 0.52 0.52 0.47 0.42 0.34 0.32 0.40 0.50 0.62 0.62 0.61 0.58 0.45 0.33 0.43 0.43 0.47 0.47 0.44 0.44 0.41 0.48 0.49 0.43 0.53 0.63 0.58 0.54 0.52 0.50 0.48 0.47 0.47 0.40 0.36 0.30 0.27 0.36 0.29 0.47 0.54 0.54 0.50 0.54 0.57
0.56 0.59 0.53 0.53 0.49 0.44 0.37 0.34 0.33 0.45 0.56 0.63 0.67 0.61 0.51 0.37 0.42 0.44 0.45 0.45 0.46 0.47 0.43 0.42 0.48 0.57 0.62 0.55 0.43 0.38 0.38 0.40 0.44 0.46 0.45 0.49 0.37 0.31 0.30 0.32 0.38 0.46 0.50 0.50 0.48 0.46 0.58
0.57 0.60 0.53 0.53 0.50 0.44 0.39 0.36 0.33 0.38 0.52 0.65 0.69 0.71 0.60 0.46 0.39 0.49 0.41 0.46 0.39 0.39 0.41 0.47 0.59 0.65 0.59 0.48 0.38 0.29 0.27 0.33 0.30 0.36 0.51 0.45 0.47 0.39 0.36 0.30 0.27 0.42 0.50 0.57 0.58 0.37 0.57
0.59 0.60 0.52 0.53 0.51 0.45 0.40 0.37 0.34 0.34 0.49 0.64 0.66 0.74 0.62 0.51 0.56 0.54 0.43 0.44 0.50 0.46 0.43 0.48 0.51 0.52 0.59 0.42 0.32 0.30 0.28 0.37 0.27 0.31 0.34 0.36 0.40 0.34 0.35 0.32 0.35 0.47 0.55 0.63 0.37 0.40 0.58
0.58 0.59 0.52 0.53 0.50 0.45 0.40 0.37 0.37 0.33 0.45 0.63 0.66 0.76 0.66 0.57 0.60 0.64 0.61 0.49 0.48 0.50 0.44 0.52 0.50 0.51 0.47 0.38 0.34 0.35 0.33 0.38 0.35 0.41 0.40 0.36 0.35 0.35 0.38 0.31 0.28 0.55 0.56 0.47 0.54 0.61 0.60
0.57 0.58 0.51 0.52 0.48 0.42 0.39 0.39 0.39 0.36 0.42 0.63 0.62 0.76 0.77 0.64 0.62 0.72 0.71 0.71 0.66 0.65 0.58 0.58 0.55 0.52 0.53 0.44 0.42 0.43 0.38 0.42 0.39 0.32 0.49 0.37 0.40 0.39 0.40 0.38 0.49 0.57 0.59 0.65 0.65 0.61 0.58

GFSGBSN_prec_pwat_042.txt.gz
Precipitable_Water
0.73 0.68 0.68 0.68 0.72 0.75 0.67 0.63 0.63 0.66 0.66 0.68 0.71 0.71 0.72 0.70 0.68 0.65 0.61 0.56 0.51 0.52 0.75 0.94 0.99 1.13 0.93 0.53 0.48 0.86 0.92 0.94 0.96 0.95 0.68 0.57 0.53 0.50 0.37 0.40 0.41 0.38 0.40 0.43 0.43 0.42 0.44
0.70 0.70 0.71 0.81 0.71 0.61 0.63 0.68 0.65 0.62 0.62 0.65 0.67 0.69 0.71 0.69 0.68 0.67 0.65 0.60 0.55 0.53 0.60 0.87 0.97 1.08 0.84 0.44 0.66 0.82 0.92 1.02 0.95 0.94 0.80 0.67 0.59 0.58 0.43 0.40 0.39 0.44 0.41 0.40 0.43 0.42 0.43
0.71 0.71 0.73 0.64 0.61 0.67 0.69 0.68 0.65 0.65 0.66 0.65 0.64 0.66 0.67 0.66 0.69 0.66 0.65 0.61 0.59 0.56 0.54 0.79 0.89 0.97 0.72 0.68 0.70 0.80 0.89 0.92 1.06 1.02 0.83 0.83 0.80 0.60 0.50 0.41 0.51 0.47 0.39 0.43 0.41 0.39 0.39
0.71 0.76 0.66 0.66 0.66 0.69 0.67 0.66 0.65 0.65 0.64 0.64 0.66 0.66 0.66 0.65 0.67 0.68 0.65 0.62 0.56 0.55 0.53 0.61 0.86 0.96 0.59 0.92 0.82 0.73 0.77 0.77 0.88 0.99 1.00 0.97 0.97 0.72 0.58 0.58 0.49 0.40 0.40 0.28 0.35 0.38 0.38
0.79 0.69 0.69 0.63 0.68 0.67 0.64 0.62 0.61 0.61 0.61 0.64 0.62 0.63 0.63 0.65 0.68 0.67 0.66 0.62 0.57 0.52 0.55 0.59 0.73 0.78 0.56 0.83 0.68 0.68 0.74 0.69 0.80 0.86 0.94 1.04 0.95 0.73 0.66 0.46 0.35 0.37 0.26 0.27 0.28 0.38 0.36
0.71 0.68 0.70 0.67 0.68 0.63 0.59 0.58 0.60 0.58 0.58 0.61 0.58 0.59 0.63 0.67 0.63 0.66 0.65 0.60 0.55 0.57 0.52 0.57 0.80 0.63 0.70 0.60 0.72 0.70 0.75 0.74 0.75 0.79 0.75 0.81 0.77 0.64 0.58 0.45 0.25 0.28 0.27 0.29 0.28 0.36 0.40
0.70 0.69 0.63 0.67 0.65 0.59 0.60 0.59 0.60 0.59 0.59 0.60 0.58 0.60 0.63 0.60 0.62 0.67 0.65 0.58 0.39 0.37 0.37 0.38 0.56 0.63 0.62 0.75 0.78 0.63 0.73 0.68 0.76 0.76 0.51 0.69 0.53 0.51 0.58 0.57 0.51 0.45 0.39 0.33 0.38 0.41 0.34
0.70 0.68 0.63 0.65 0.63 0.61 0.62 0.61 0.59 0.58 0.59 0.56 0.55 0.58 0.59 0.63 0.69 0.72 0.65 0.50 0.42 0.50 0.22 0.51 0.64 0.70 0.77 0.70 0.56 0.58 0.71 0.57 0.58 0.54 0.61 0.54 0.47 0.61 0.66 0.64 0.54 0.47 0.39 0.35 0.38 0.42 0.37
0.67 0.62 0.65 0.66 0.63 0.62 0.61 0.61 0.59 0.62 0.61 0.58 0.57 0.59 0.62 0.67 0.70 0.64 0.57 0.51 0.59 0.58 0.28 0.43 0.66 0.70 0.66 0.64 0.49 0.51 0.67 0.61 0.50 0.46 0.50 0.46 0.47 0.60 0.55 0.53 0.46 0.44 0.37 0.36 0.34 0.40 0.38
0.67 0.61 0.68 0.67 0.59 0.59 0.59 0.60 0.61 0.61 0.62 0.53 0.56 0.59 0.63 0.65 0.59 0.65 0.52 0.66 0.60 0.60 0.21 0.33 0.52 0.65 0.67 0.67 0.48 0.64 0.74 0.62 0.55 0.46 0.48 0.46 0.52 0.51 0.51 0.47 0.46 0.34 0.43 0.40 0.36 0.32 0.20
0.65 0.61 0.65 0.65 0.57 0.58 0.60 0.62 0.57 0.55 0.51 0.53 0.56 0.58 0.63 0.71 0.65 0.57 0.61 0.69 0.63 0.51 0.10 0.36 0.53 0.79 0.67 0.54 0.50 0.58 0.72 0.59 0.47 0.48 0.47 0.41 0.43 0.42 0.40 0.43 0.47 0.38 0.43 0.38 0.34 0.28 0.24
0.61 0.62 0.62 0.65 0.60 0.50 0.60 0.61 0.54 0.58 0.61 0.64 0.64 0.65 0.72 0.73 0.66 0.67 0.72 0.66 0.57 0.26 0.15 0.35 0.52 0.51 0.51 0.53 0.49 0.57 0.57 0.60 0.59 0.51 0.49 0.46 0.55 0.50 0.45 0.47 0.46 0.47 0.40 0.34 0.31 0.25 0.14
0.61 0.61 0.60 0.63 0.55 0.51 0.60 0.59 0.63 0.67 0.68 0.76 0.79 0.75 0.76 0.72 0.57 0.72 0.66 0.54 0.26 0.20 0.41 0.36 0.43 0.47 0.47 0.44 0.44 0.47 0.44 0.40 0.37 0.31 0.34 0.40 0.42 0.49 0.50 0.41 0.44 0.39 0.29 0.17 0.15 0.14 0.11
0.61 0.61 0.61 0.62 0.51 0.52 0.57 0.61 0.67 0.66 0.75 0.72 0.73 0.73 0.70 0.70 0.69 0.69 0.54 0.36 0.22 0.33 0.36 0.47 0.46 0.47 0.40 0.43 0.44 0.43 0.39 0.34 0.41 0.36 0.32 0.27 0.24 0.36 0.43 0.37 0.31 0.31 0.27 0.16 0.10 0.11 0.13
0.61 0.63 0.61 0.59 0.44 0.56 0.59 0.63 0.64 0.71 0.73 0.66 0.69 0.64 0.59 0.64 0.64 0.62 0.44 0.26 0.29 0.35 0.46 0.40 0.45 0.38 0.39 0.42 0.41 0.40 0.38 0.35 0.38 0.38 0.26 0.25 0.25 0.41 0.40 0.39 0.34 0.29 0.24 0.31 0.22 0.22 0.16
0.64 0.63 0.57 0.55 0.43 0.57 0.56 0.62 0.60 0.66 0.68 0.64 0.53 0.50 0.50 0.66 0.67 0.58 0.41 0.32 0.38 0.47 0.52 0.46 0.34 0.41 0.33 0.35 0.33 0.35 0.34 0.39 0.35 0.39 0.41 0.30 0.23 0.36 0.38 0.39 0.39 0.32 0.36 0.23 0.23 0.10 0.08
0.64 0.60 0.55 0.51 0.44 0.47 0.55 0.57 0.57 0.60 0.61 0.59 0.44 0.33 0.54 0.69 0.66 0.48 0.33 0.36 0.44 0.55 0.55 0.44 0.38 0.36 0.37 0.33 0.35 0.34 0.32 0.36 0.38 0.37 0.41 0.35 0.26 0.29 0.35 0.30 0.29 0.31 0.28 0.27 0.24 0.20 0.11
0.63 0.59 0.55 0.47 0.43 0.50 0.57 0.57 0.54 0.61 0.64 0.62 0.46 0.33 0.61 0.68 0.40 0.44 0.38 0.45 0.52 0.50 0.55 0.48 0.41 0.40 0.38 0.39 0.36 0.33 0.29 0.34 0.40 0.38 0.30 0.34 0.28 0.22 0.28 0.38 0.39 0.36 0.30 0.27 0.18 0.16 0.23
0.64 0.59 0.55 0.49 0.44 0.44 0.55 0.56 0.55 0.60 0.66 0.59 0.41 0.42 0.63 0.63 0.35 0.40 0.47 0.46 0.50 0.49 0.47 0.45 0.40 0.42 0.44 0.40 0.33 0.36 0.32 0.38 0.40 0.37 0.33 0.33 0.25 0.20 0.23 0.30 0.34 0.29 0.30 0.30 0.31 0.29 0.25
0.66 0.60 0.55 0.52 0.43 0.36 0.44 0.50 0.54 0.60 0.67 0.63 0.44 0.33 0.49 0.59 0.57 0.48 0.44 0.45 0.44 0.53 0.47 0.45 0.41 0.42 0.41 0.39 0.41 0.34 0.31 0.39 0.43 0.42 0.42 0.41 0.31 0.25 0.19 0.24 0.29 0.25 0.28 0.32 0.31 0.28 0.29
0.67 0.61 0.56 0.54 0.46 0.39 0.34 0.44 0.51 0.58 0.67 0.63 0.45 0.38 0.49 0.37 0.44 0.49 0.51 0.48 0.42 0.39 0.45 0.42 0.38 0.40 0.40 0.37 0.38 0.34 0.37 0.39 0.43 0.46 0.44 0.40 0.29 0.32 0.32 0.33 0.34 0.29 0.27 0.31 0.34 0.36 0.32
0.67 0.63 0.57 0.57 0.49 0.42 0.34 0.36 0.48 0.56 0.64 0.54 0.40 0.40 0.50 0.45 0.47 0.45 0.47 0.43 0.42 0.45 0.44 0.41 0.41 0.44 0.44 0.39 0.39 0.34 0.37 0.38 0.37 0.43 0.40 0.43 0.30 0.33 0.28 0.31 0.31 0.23 0.31 0.36 0.39 0.42 0.42
0.65 0.68 0.59 0.58 0.56 0.45 0.39 0.33 0.39 0.53 0.62 0.52 0.55 0.57 0.52 0.44 0.43 0.41 0.42 0.43 0.42 0.47 0.49 0.51 0.47 0.43 0.41 0.46 0.49 0.48 0.47 0.45 0.44 0.40 0.38 0.38 0.33 0.30 0.21 0.29 0.28 0.28 0.41 0.45 0.47 0.51 0.49
0.65 0.69 0.63 0.56 0.56 0.49 0.43 0.37 0.33 0.44 0.59 0.58 0.57 0.54 0.44 0.36 0.42 0.41 0.44 0.45 0.42 0.43 0.41 0.49 0.51 0.46 0.53 0.61 0.58 0.54 0.51 0.48 0.48 0.45 0.46 0.38 0.36 0.34 0.22 0.26 0.24 0.46 0.54 0.53 0.49 0.51 0.55
0.68 0.70 0.64 0.55 0.56 0.52 0.46 0.39 0.37 0.34 0.50 0.57 0.63 0.56 0.45 0.37 0.44 0.43 0.44 0.44 0.46 0.47 0.44 0.45 0.50 0.57 0.64 0.58 0.43 0.37 0.37 0.39 0.43 0.47 0.44 0.45 0.40 0.28 0.23 0.28 0.37 0.47 0.51 0.49 0.46 0.44 0.54
0.67 0.68 0.68 0.54 0.56 0.53 0.47 0.41 0.38 0.34 0.38 0.56 0.63 0.70 0.57 0.42 0.41 0.52 0.44 0.45 0.37 0.38 0.38 0.44 0.55 0.63 0.58 0.47 0.40 0.29 0.26 0.32 0.32 0.38 0.49 0.47 0.45 0.33 0.34 0.28 0.27 0.45 0.51 0.59 0.58 0.37 0.57
0.67 0.66 0.68 0.56 0.56 0.52 0.48 0.41 0.37 0.37 0.35 0.50 0.61 0.72 0.62 0.48 0.55 0.54 0.42 0.42 0.47 0.43 0.39 0.45 0.50 0.50 0.58 0.41 0.32 0.30 0.31 0.40 0.30 0.28 0.31 0.36 0.35 0.32 0.33 0.32 0.37 0.46 0.54 0.62 0.37 0.41 0.59
0.72 0.71 0.68 0.56 0.55 0.51 0.47 0.40 0.37 0.38 0.35 0.46 0.60 0.73 0.62 0.53 0.58 0.62 0.60 0.50 0.49 0.47 0.39 0.49 0.48 0.50 0.46 0.37 0.34 0.34 0.33 0.37 0.36 0.39 0.37 0.36 0.33 0.34 0.37 0.33 0.29 0.54 0.55 0.46 0.55 0.60 0.61
0.76 0.68 0.66 0.58 0.53 0.52 0.45 0.40 0.39 0.39 0.33 0.50 0.57 0.72 0.75 0.60 0.61 0.70 0.71 0.72 0.64 0.61 0.54 0.56 0.53 0.51 0.52 0.44 0.42 0.42 0.37 0.41 0.39 0.30 0.48 0.36 0.41 0.38 0.40 0.39 0.50 0.55 0.57 0.64 0.65 0.59 0.60

GFSGBSN_prec_pwat_045.txt.gz
Precipitable_Water
0.79 0.77 0.77 0.76 0.68 0.64 0.70 0.72 0.71 0.68 0.66 0.66 0.66 0.66 0.65 0.66 0.70 0.73 0.73 0.69 0.66 0.61 0.54 0.56 0.77 0.99 1.04 0.68 0.58 0.89 0.94 0.87 0.90 0.87 0.74 0.64 0.54 0.51 0.38 0.40 0.42 0.38 0.41 0.41 0.40 0.40 0.40
0.77 0.77 0.83 0.69 0.68 0.67 0.72 0.70 0.67 0.66 0.63 0.65 0.66 0.65 0.65 0.65 0.66 0.69 0.70 0.68 0.67 0.62 0.59 0.56 0.70 0.93 0.80 0.49 0.85 0.76 0.90 0.92 0.87 0.84 0.75 0.66 0.56 0.58 0.47 0.42 0.38 0.43 0.41 0.42 0.42 0.39 0.39
0.80 0.84 0.72 0.72 0.65 0.71 0.71 0.66 0.64 0.60 0.60 0.60 0.61 0.63 0.62 0.65 0.67 0.67 0.67 0.67 0.68 0.63 0.63 0.54 0.73 0.89 0.73 0.70 0.86 0.75 0.94 0.95 0.95 0.96 0.75 0.73 0.70 0.59 0.54 0.41 0.51 0.44 0.36 0.37 0.35 0.36 0.37
0.81 0.76 0.74 0.71 0.71 0.71 0.69 0.62 0.60 0.62 0.62 0.60 0.63 0.62 0.58 0.63 0.63 0.69 0.68 0.67 0.67 0.61 0.59 0.54 0.73 0.85 0.58 0.92 0.98 0.77 0.87 0.94 1.06 1.09 0.96 0.88 0.84 0.65 0.54 0.54 0.46 0.39 0.37 0.27 0.36 0.36 0.39
0.82 0.78 0.75 0.68 0.70 0.68 0.64 0.63 0.63 0.61 0.63 0.62 0.60 0.61 0.57 0.61 0.66 0.65 0.66 0.65 0.62 0.62 0.60 0.57 0.61 0.70 0.54 0.81 0.81 0.79 0.79 0.76 0.92 1.09 1.11 0.99 0.89 0.69 0.58 0.42 0.34 0.37 0.24 0.26 0.28 0.39 0.38
0.77 0.78 0.73 0.71 0.69 0.69 0.65 0.65 0.65 0.63 0.62 0.62 0.59 0.58 0.59 0.62 0.61 0.64 0.68 0.67 0.62 0.60 0.58 0.55 0.56 0.57 0.58 0.60 0.81 0.75 0.77 0.77 0.76 0.84 0.93 0.90 0.79 0.61 0.55 0.43 0.22 0.26 0.24 0.25 0.25 0.32 0.36
0.80 0.72 0.71 0.73 0.72 0.69 0.63 0.64 0.61 0.66 0.64 0.64 0.60 0.58 0.59 0.57 0.61 0.68 0.70 0.60 0.44 0.42 0.46 0.28 0.36 0.51 0.59 0.78 0.80 0.66 0.74 0.70 0.78 0.73 0.57 0.71 0.57 0.44 0.48 0.49 0.45 0.40 0.34 0.30 0.34 0.39 0.33
0.82 0.73 0.69 0.73 0.69 0.65 0.61 0.63 0.64 0.65 0.62 0.66 0.63 0.53 0.58 0.59 0.67 0.69 0.66 0.47 0.48 0.47 0.29 0.33 0.52 0.58 0.76 0.75 0.64 0.60 0.74 0.58 0.63 0.51 0.61 0.57 0.46 0.63 0.64 0.61 0.51 0.46 0.38 0.34 0.36 0.38 0.35
0.77 0.69 0.68 0.68 0.69 0.64 0.56 0.65 0.67 0.63 0.56 0.55 0.53 0.54 0.58 0.63 0.66 0.60 0.58 0.54 0.59 0.56 0.29 0.29 0.53 0.61 0.69 0.71 0.62 0.54 0.66 0.65 0.55 0.54 0.55 0.44 0.53 0.68 0.63 0.59 0.54 0.49 0.41 0.37 0.33 0.37 0.37
0.74 0.67 0.67 0.67 0.66 0.61 0.53 0.66 0.66 0.63 0.66 0.63 0.61 0.63 0.59 0.62 0.55 0.64 0.56 0.67 0.60 0.59 0.16 0.24 0.43 0.64 0.72 0.65 0.55 0.68 0.70 0.65 0.59 0.53 0.55 0.49 0.54 0.60 0.56 0.53 0.52 0.39 0.47 0.40 0.36 0.32 0.24
0.72 0.66 0.64 0.63 0.65 0.54 0.61 0.63 0.65 0.68 0.68 0.73 0.75 0.77 0.67 0.64 0.61 0.57 0.62 0.69 0.61 0.51 0.05 0.34 0.46 0.81 0.70 0.55 0.52 0.57 0.76 0.63 0.48 0.47 0.51 0.46 0.46 0.48 0.45 0.47 0.50 0.41 0.45 0.39 0.36 0.30 0.27
0.71 0.67 0.65 0.67 0.61 0.49 0.63 0.63 0.64 0.68 0.76 0.69 0.73 0.74 0.74 0.69 0.68 0.66 0.71 0.65 0.53 0.21 0.13 0.33 0.49 0.54 0.51 0.54 0.50 0.61 0.61 0.66 0.63 0.49 0.50 0.46 0.53 0.49 0.46 0.51 0.50 0.48 0.41 0.39 0.37 0.30 0.17
0.70 0.66 0.66 0.63 0.56 0.55 0.64 0.61 0.63 0.70 0.72 0.69 0.69 0.69 0.70 0.70 0.53 0.71 0.65 0.51 0.23 0.18 0.39 0.36 0.43 0.52 0.50 0.46 0.48 0.53 0.47 0.47 0.43 0.35 0.35 0.41 0.43 0.49 0.50 0.42 0.47 0.44 0.37 0.22 0.16 0.15 0.12
0.70 0.66 0.61 0.57 0.55 0.56 0.56 0.60 0.61 0.67 0.70 0.64 0.64 0.64 0.66 0.65 0.70 0.64 0.55 0.36 0.19 0.28 0.35 0.50 0.48 0.47 0.41 0.46 0.45 0.48 0.43 0.36 0.46 0.45 0.38 0.30 0.27 0.41 0.50 0.44 0.38 0.37 0.34 0.18 0.11 0.11 0.14
0.73 0.66 0.58 0.56 0.47 0.51 0.57 0.56 0.58 0.62 0.65 0.63 0.61 0.53 0.53 0.60 0.68 0.64 0.43 0.25 0.25 0.31 0.42 0.40 0.42 0.36 0.37 0.43 0.44 0.42 0.39 0.37 0.41 0.41 0.31 0.29 0.28 0.44 0.45 0.46 0.42 0.35 0.27 0.31 0.20 0.21 0.16
0.80 0.67 0.58 0.54 0.47 0.54 0.59 0.55 0.57 0.60 0.62 0.63 0.47 0.46 0.46 0.65 0.70 0.60 0.40 0.32 0.36 0.42 0.45 0.47 0.33 0.39 0.32 0.37 0.39 0.38 0.36 0.41 0.38 0.43 0.42 0.33 0.25 0.38 0.41 0.44 0.41 0.34 0.35 0.22 0.21 0.11 0.09
0.77 0.71 0.58 0.54 0.46 0.44 0.53 0.54 0.56 0.62 0.63 0.60 0.47 0.36 0.50 0.69 0.65 0.49 0.34 0.36 0.44 0.51 0.52 0.42 0.37 0.35 0.36 0.35 0.39 0.34 0.33 0.38 0.42 0.41 0.43 0.36 0.30 0.32 0.37 0.31 0.29 0.29 0.26 0.27 0.26 0.21 0.12
0.74 0.73 0.60 0.55 0.49 0.43 0.43 0.51 0.54 0.61 0.66 0.63 0.47 0.33 0.59 0.66 0.40 0.45 0.37 0.42 0.51 0.48 0.50 0.44 0.44 0.41 0.38 0.38 0.33 0.31 0.31 0.35 0.44 0.42 0.33 0.37 0.30 0.24 0.28 0.38 0.40 0.37 0.30 0.28 0.18 0.15 0.21
0.70 0.72 0.60 0.55 0.53 0.44 0.40 0.45 0.52 0.59 0.66 0.59 0.41 0.43 0.66 0.66 0.35 0.37 0.43 0.44 0.48 0.45 0.45 0.42 0.41 0.43 0.43 0.36 0.31 0.34 0.34 0.41 0.41 0.38 0.34 0.35 0.26 0.19 0.22 0.31 0.35 0.30 0.32 0.31 0.28 0.25 0.19
0.69 0.72 0.66 0.53 0.55 0.46 0.40 0.39 0.48 0.55 0.66 0.62 0.45 0.34 0.49 0.58 0.56 0.45 0.40 0.41 0.41 0.51 0.45 0.43 0.40 0.43 0.39 0.38 0.40 0.35 0.33 0.38 0.41 0.39 0.42 0.38 0.28 0.22 0.18 0.23 0.28 0.25 0.28 0.29 0.28 0.21 0.23
0.68 0.71 0.71 0.57 0.56 0.51 0.43 0.38 0.40 0.52 0.64 0.58 0.44 0.39 0.46 0.37 0.43 0.45 0.47 0.43 0.37 0.36 0.45 0.45 0.39 0.40 0.40 0.37 0.38 0.34 0.33 0.36 0.39 0.44 0.40 0.36 0.26 0.30 0.31 0.33 0.33 0.31 0.27 0.28 0.25 0.30 0.29
0.65 0.67 0.69 0.66 0.58 0.52 0.47 0.41 0.36 0.45 0.61 0.50 0.38 0.39 0.48 0.44 0.48 0.45 0.44 0.40 0.38 0.40 0.40 0.36 0.38 0.43 0.43 0.39 0.39 0.33 0.34 0.37 0.34 0.42 0.39 0.40 0.31 0.33 0.27 0.31 0.31 0.28 0.30 0.28 0.35 0.38 0.40
0.62 0.65 0.73 0.73 0.62 0.56 0.50 0.45 0.39 0.36 0.55 0.48 0.53 0.57 0.50 0.42 0.42 0.38 0.39 0.42 0.41 0.46 0.49 0.49 0.48 0.45 0.44 0.46 0.50 0.48 0.48 0.47 0.44 0.40 0.38 0.38 0.34 0.29 0.22 0.30 0.28 0.22 0.25 0.34 0.40 0.45 0.45
0.66 0.64 0.72 0.74 0.64 0.58 0.55 0.49 0.44 0.38 0.42 0.55 0.55 0.51 0.45 0.35 0.40 0.40 0.43 0.44 0.42 0.45 0.44 0.52 0.53 0.46 0.55 0.65 0.60 0.54 0.49 0.48 0.46 0.44 0.46 0.37 0.35 0.33 0.25 0.26 0.15 0.33 0.51 0.51 0.48 0.49 0.52
0.66 0.63 0.69 0.76 0.66 0.59 0.58 0.54 0.48 0.44 0.38 0.41 0.58 0.52 0.45 0.38 0.44 0.42 0.43 0.41 0.44 0.47 0.45 0.47 0.54 0.60 0.66 0.56 0.43 0.39 0.38 0.39 0.42 0.46 0.44 0.44 0.38 0.30 0.23 0.20 0.28 0.42 0.51 0.49 0.47 0.47 0.55
0.66 0.64 0.64 0.75 0.68 0.58 0.59 0.54 0.49 0.46 0.41 0.37 0.51 0.65 0.52 0.42 0.41 0.52 0.46 0.45 0.37 0.38 0.40 0.45 0.55 0.64 0.61 0.49 0.40 0.28 0.25 0.32 0.32 0.38 0.48 0.45 0.44 0.34 0.27 0.20 0.24 0.45 0.54 0.60 0.60 0.39 0.58
0.68 0.65 0.66 0.75 0.69 0.59 0.58 0.54 0.47 0.44 0.41 0.34 0.44 0.63 0.56 0.42 0.54 0.57 0.45 0.43 0.46 0.43 0.37 0.43 0.46 0.48 0.56 0.41 0.34 0.31 0.30 0.38 0.29 0.29 0.31 0.35 0.36 0.28 0.26 0.29 0.34 0.50 0.54 0.63 0.37 0.42 0.59
0.70 0.64 0.68 0.70 0.74 0.59 0.59 0.53 0.47 0.42 0.39 0.34 0.41 0.63 0.59 0.50 0.56 0.62 0.63 0.52 0.50 0.45 0.36 0.45 0.44 0.48 0.46 0.37 0.34 0.34 0.33 0.37 0.35 0.39 0.36 0.31 0.31 0.29 0.33 0.31 0.28 0.54 0.58 0.45 0.55 0.62 0.60
0.71 0.70 0.70 0.69 0.69 0.56 0.58 0.50 0.45 0.46 0.40 0.36 0.37 0.61 0.70 0.58 0.59 0.72 0.69 0.69 0.68 0.61 0.51 0.51 0.49 0.48 0.50 0.43 0.42 0.42 0.35 0.40 0.39 0.31 0.45 0.33 0.40 0.36 0.39 0.38 0.52 0.59 0.56 0.62 0.64 0.62 0.61

GFSGBSN_prec_pwat_048.txt.gz
Precipitable_Water
0.81 0.83 0.89 0.76 0.78 0.74 0.77 0.77 0.76 0.69 0.66 0.61 0.61 0.63 0.62 0.63 0.65 0.66 0.67 0.66 0.74 0.73 0.69 0.65 0.55 0.71 0.82 0.71 0.68 0.91 0.96 0.95 0.75 0.84 0.76 0.73 0.60 0.55 0.42 0.45 0.46 0.41 0.42 0.43 0.43 0.43 0.43
0.85 0.83 0.78 0.77 0.77 0.76 0.76 0.74 0.73 0.63 0.63 0.64 0.65 0.62 0.64 0.62 0.61 0.65 0.67 0.68 0.70 0.72 0.71 0.66 0.63 0.68 0.69 0.48 0.83 0.94 0.83 0.92 0.74 0.80 0.74 0.80 0.65 0.63 0.50 0.43 0.40 0.44 0.42 0.41 0.41 0.40 0.39
0.81 0.82 0.79 0.79 0.76 0.74 0.74 0.73 0.69 0.67 0.64 0.62 0.67 0.62 0.63 0.60 0.58 0.61 0.67 0.69 0.72 0.71 0.70 0.65 0.65 0.69 0.65 0.57 0.89 0.98 0.86 0.92 0.85 0.84 0.70 0.81 0.77 0.60 0.55 0.43 0.50 0.47 0.36 0.38 0.36 0.39 0.37
0.85 0.81 0.82 0.76 0.75 0.76 0.77 0.73 0.71 0.67 0.66 0.65 0.65 0.63 0.61 0.63 0.60 0.65 0.67 0.65 0.64 0.67 0.65 0.63 0.63 0.68 0.50 0.84 1.00 0.89 0.80 0.97 1.01 0.96 0.87 0.90 0.78 0.65 0.55 0.55 0.48 0.39 0.38 0.27 0.36 0.36 0.36
0.76 0.82 0.79 0.74 0.79 0.75 0.75 0.69 0.65 0.66 0.66 0.69 0.68 0.64 0.63 0.58 0.62 0.64 0.64 0.68 0.66 0.65 0.63 0.64 0.55 0.49 0.42 0.79 0.78 0.87 0.80 0.86 0.95 0.97 0.99 0.93 0.74 0.59 0.57 0.41 0.35 0.37 0.24 0.25 0.28 0.39 0.36
0.77 0.82 0.75 0.72 0.74 0.74 0.73 0.63 0.67 0.69 0.67 0.68 0.67 0.68 0.64 0.59 0.61 0.60 0.66 0.69 0.64 0.62 0.59 0.59 0.53 0.46 0.60 0.50 0.81 0.83 0.84 0.94 0.87 0.92 0.88 0.83 0.71 0.53 0.47 0.37 0.21 0.26 0.26 0.27 0.24 0.31 0.33
0.79 0.77 0.74 0.70 0.70 0.72 0.68 0.61 0.66 0.70 0.68 0.64 0.57 0.63 0.55 0.55 0.60 0.65 0.66 0.57 0.42 0.40 0.49 0.34 0.35 0.46 0.62 0.71 0.84 0.75 0.79 0.82 0.85 0.83 0.64 0.72 0.56 0.42 0.43 0.42 0.38 0.35 0.30 0.26 0.30 0.37 0.32
0.74 0.72 0.71 0.70 0.69 0.68 0.60 0.61 0.67 0.65 0.66 0.71 0.71 0.61 0.62 0.56 0.62 0.69 0.64 0.46 0.48 0.49 0.30 0.39 0.38 0.53 0.66 0.73 0.58 0.69 0.76 0.63 0.65 0.57 0.68 0.63 0.52 0.62 0.61 0.54 0.47 0.41 0.35 0.31 0.36 0.38 0.33
0.72 0.67 0.68 0.69 0.69 0.65 0.54 0.63 0.62 0.65 0.72 0.75 0.77 0.76 0.67 0.62 0.62 0.59 0.56 0.54 0.65 0.57 0.31 0.33 0.40 0.55 0.62 0.66 0.60 0.59 0.66 0.66 0.56 0.53 0.55 0.50 0.59 0.69 0.64 0.54 0.46 0.45 0.39 0.37 0.33 0.37 0.36
0.69 0.67 0.70 0.71 0.68 0.55 0.63 0.64 0.62 0.67 0.73 0.73 0.69 0.73 0.77 0.70 0.53 0.61 0.53 0.67 0.66 0.59 0.18 0.27 0.37 0.53 0.65 0.71 0.56 0.69 0.70 0.67 0.59 0.49 0.53 0.50 0.60 0.58 0.60 0.57 0.55 0.40 0.52 0.46 0.37 0.32 0.23
0.68 0.69 0.72 0.69 0.63 0.55 0.62 0.57 0.64 0.66 0.71 0.66 0.66 0.69 0.74 0.72 0.59 0.54 0.58 0.66 0.60 0.45 0.06 0.29 0.42 0.77 0.66 0.56 0.59 0.56 0.74 0.67 0.52 0.54 0.53 0.45 0.50 0.53 0.54 0.57 0.60 0.47 0.50 0.45 0.39 0.32 0.28
0.66 0.69 0.68 0.61 0.59 0.54 0.55 0.61 0.61 0.64 0.67 0.62 0.65 0.67 0.67 0.64 0.64 0.66 0.68 0.60 0.49 0.20 0.13 0.27 0.49 0.51 0.50 0.52 0.58 0.60 0.63 0.69 0.65 0.55 0.57 0.52 0.58 0.56 0.56 0.59 0.58 0.56 0.47 0.43 0.39 0.31 0.19
0.66 0.73 0.65 0.59 0.52 0.56 0.61 0.60 0.60 0.61 0.63 0.62 0.62 0.65 0.66 0.63 0.47 0.63 0.60 0.47 0.22 0.17 0.32 0.33 0.40 0.50 0.48 0.43 0.50 0.50 0.50 0.48 0.43 0.37 0.39 0.47 0.47 0.51 0.54 0.47 0.51 0.48 0.39 0.25 0.17 0.17 0.15
0.64 0.70 0.65 0.57 0.52 0.49 0.57 0.57 0.60 0.60 0.61 0.59 0.60 0.66 0.68 0.68 0.70 0.66 0.55 0.33 0.19 0.30 0.33 0.43 0.46 0.47 0.41 0.46 0.46 0.49 0.48 0.39 0.50 0.44 0.36 0.31 0.28 0.42 0.48 0.42 0.38 0.37 0.36 0.24 0.13 0.13 0.15
0.63 0.70 0.71 0.55 0.50 0.46 0.52 0.54 0.58 0.63 0.62 0.60 0.58 0.57 0.62 0.65 0.69 0.65 0.42 0.24 0.28 0.33 0.39 0.41 0.46 0.37 0.38 0.44 0.43 0.47 0.43 0.41 0.46 0.46 0.32 0.29 0.29 0.46 0.48 0.49 0.46 0.37 0.32 0.37 0.24 0.23 0.16
0.63 0.68 0.75 0.57 0.50 0.45 0.46 0.54 0.55 0.62 0.67 0.62 0.47 0.49 0.53 0.71 0.72 0.55 0.34 0.29 0.36 0.46 0.50 0.49 0.35 0.41 0.33 0.39 0.38 0.42 0.39 0.43 0.43 0.49 0.49 0.38 0.28 0.41 0.44 0.47 0.46 0.39 0.41 0.26 0.24 0.13 0.10
0.62 0.65 0.76 0.63 0.52 0.47 0.44 0.48 0.54 0.59 0.68 0.68 0.50 0.40 0.55 0.72 0.67 0.44 0.27 0.31 0.40 0.51 0.51 0.41 0.37 0.36 0.38 0.37 0.36 0.34 0.33 0.40 0.44 0.44 0.43 0.39 0.32 0.34 0.40 0.36 0.33 0.33 0.29 0.28 0.26 0.20 0.12
0.59 0.62 0.71 0.71 0.57 0.48 0.44 0.42 0.48 0.57 0.66 0.65 0.48 0.35 0.65 0.72 0.41 0.42 0.35 0.38 0.44 0.43 0.50 0.43 0.41 0.39 0.36 0.38 0.38 0.35 0.31 0.36 0.46 0.46 0.35 0.38 0.33 0.27 0.29 0.39 0.41 0.35 0.30 0.28 0.19 0.18 0.21
0.58 0.59 0.70 0.75 0.61 0.51 0.46 0.40 0.40 0.52 0.64 0.60 0.41 0.45 0.66 0.68 0.33 0.33 0.42 0.42 0.44 0.40 0.41 0.37 0.37 0.40 0.42 0.37 0.31 0.34 0.34 0.43 0.45 0.41 0.36 0.37 0.28 0.21 0.25 0.32 0.37 0.31 0.33 0.33 0.29 0.26 0.18
0.60 0.61 0.68 0.78 0.65 0.55 0.48 0.41 0.38 0.44 0.62 0.60 0.41 0.33 0.47 0.56 0.54 0.44 0.37 0.37 0.36 0.45 0.39 0.42 0.41 0.42 0.39 0.36 0.37 0.31 0.33 0.40 0.43 0.43 0.44 0.40 0.29 0.23 0.17 0.22 0.29 0.27 0.29 0.31 0.29 0.21 0.19
0.60 0.64 0.65 0.75 0.73 0.64 0.52 0.45 0.37 0.37 0.58 0.58 0.42 0.37 0.45 0.36 0.41 0.45 0.44 0.40 0.36 0.34 0.42 0.43 0.39 0.38 0.37 0.35 0.37 0.33 0.36 0.37 0.40 0.43 0.41 0.37 0.25 0.27 0.29 0.31 0.32 0.31 0.28 0.29 0.26 0.25 0.20
0.61 0.64 0.67 0.73 0.73 0.74 0.59 0.50 0.43 0.36 0.49 0.51 0.36 0.37 0.48 0.44 0.46 0.43 0.42 0.37 0.35 0.39 0.40 0.37 0.36 0.41 0.42 0.37 0.40 0.33 0.33 0.33 0.31 0.38 0.37 0.38 0.26 0.30 0.27 0.31 0.31 0.28 0.31 0.32 0.28 0.29 0.34
0.64 0.63 0.63 0.73 0.70 0.72 0.65 0.54 0.48 0.42 0.43 0.41 0.52 0.53 0.49 0.42 0.42 0.39 0.40 0.41 0.40 0.43 0.46 0.48 0.47 0.43 0.42 0.46 0.51 0.47 0.44 0.44 0.41 0.39 0.35 0.34 0.32 0.29 0.22 0.30 0.28 0.21 0.27 0.27 0.30 0.39 0.41
0.64 0.65 0.61 0.68 0.71 0.70 0.70 0.59 0.52 0.49 0.45 0.40 0.47 0.52 0.42 0.35 0.39 0.39 0.42 0.45 0.43 0.44 0.42 0.49 0.52 0.47 0.54 0.63 0.59 0.52 0.49 0.47 0.45 0.44 0.45 0.37 0.35 0.32 0.25 0.27 0.15 0.28 0.41 0.42 0.42 0.46 0.49
0.64 0.62 0.60 0.64 0.72 0.69 0.68 0.64 0.58 0.53 0.51 0.42 0.43 0.48 0.43 0.36 0.42 0.42 0.43 0.43 0.45 0.49 0.47 0.49 0.54 0.60 0.66 0.57 0.43 0.37 0.37 0.39 0.41 0.45 0.44 0.43 0.37 0.29 0.24 0.22 0.24 0.31 0.44 0.47 0.45 0.48 0.57
0.66 0.64 0.62 0.63 0.72 0.72 0.65 0.64 0.60 0.56 0.56 0.47 0.48 0.52 0.50 0.39 0.41 0.51 0.45 0.44 0.38 0.40 0.41 0.46 0.58 0.66 0.61 0.48 0.41 0.30 0.27 0.32 0.31 0.37 0.47 0.44 0.42 0.32 0.28 0.20 0.16 0.35 0.52 0.61 0.60 0.42 0.59
0.70 0.68 0.66 0.65 0.69 0.70 0.70 0.65 0.58 0.54 0.54 0.48 0.40 0.54 0.47 0.39 0.50 0.58 0.48 0.44 0.47 0.43 0.39 0.44 0.45 0.48 0.57 0.42 0.35 0.30 0.29 0.39 0.30 0.29 0.31 0.34 0.34 0.28 0.27 0.22 0.26 0.45 0.56 0.62 0.40 0.43 0.60
0.69 0.69 0.68 0.69 0.69 0.68 0.67 0.61 0.57 0.54 0.54 0.42 0.32 0.45 0.44 0.40 0.52 0.64 0.67 0.56 0.51 0.47 0.36 0.43 0.41 0.45 0.44 0.36 0.34 0.34 0.33 0.36 0.35 0.38 0.34 0.31 0.28 0.28 0.29 0.23 0.23 0.52 0.60 0.49 0.56 0.61 0.61
0.70 0.69 0.70 0.71 0.68 0.74 0.69 0.59 0.54 0.53 0.51 0.42 0.28 0.40 0.56 0.47 0.51 0.71 0.74 0.74 0.68 0.64 0.53 0.50 0.47 0.46 0.47 0.41 0.40 0.40 0.34 0.40 0.37 0.29 0.46 0.33 0.37 0.33 0.33 0.33 0.49 0.58 0.58 0.65 0.65 0.60 0.61

GFSGBSN_prec_pwat_051.txt.gz
Precipitable_Water
0.74 0.75 0.81 0.83 0.86 0.79 0.82 0.81 0.78 0.76 0.73 0.70 0.66 0.65 0.68 0.65 0.68 0.65 0.61 0.64 0.65 0.67 0.71 0.73 0.72 0.68 0.58 0.57 0.60 0.95 0.93 0.97 0.89 0.72 0.73 0.69 0.57 0.57 0.49 0.54 0.52 0.45 0.47 0.49 0.51 0.52 0.51
0.72 0.77 0.76 0.83 0.77 0.80 0.82 0.80 0.78 0.74 0.69 0.71 0.70 0.69 0.67 0.67 0.65 0.60 0.61 0.62 0.68 0.68 0.69 0.72 0.74 0.72 0.51 0.39 0.78 0.94 0.89 0.84 0.83 0.70 0.74 0.79 0.59 0.62 0.56 0.54 0.47 0.50 0.48 0.45 0.44 0.43 0.46
0.75 0.73 0.80 0.73 0.73 0.80 0.79 0.78 0.74 0.69 0.70 0.70 0.69 0.71 0.70 0.69 0.65 0.65 0.65 0.67 0.64 0.65 0.69 0.71 0.71 0.67 0.46 0.44 0.78 0.83 0.83 0.84 0.95 0.75 0.70 0.87 0.78 0.58 0.56 0.49 0.54 0.50 0.39 0.42 0.39 0.42 0.39
0.73 0.74 0.79 0.71 0.71 0.75 0.77 0.75 0.70 0.67 0.70 0.70 0.70 0.71 0.71 0.69 0.65 0.62 0.66 0.64 0.66 0.67 0.66 0.66 0.67 0.60 0.37 0.68 0.88 0.88 0.95 0.81 0.93 0.88 0.86 0.92 0.88 0.69 0.56 0.58 0.50 0.42 0.41 0.28 0.36 0.38 0.39
0.73 0.70 0.72 0.71 0.73 0.76 0.74 0.71 0.62 0.64 0.68 0.69 0.69 0.68 0.63 0.71 0.62 0.63 0.61 0.62 0.67 0.68 0.67 0.66 0.55 0.50 0.36 0.75 0.72 0.86 0.92 0.78 0.83 0.95 0.93 0.94 0.86 0.65 0.58 0.42 0.37 0.40 0.26 0.27 0.31 0.42 0.38
0.71 0.69 0.71 0.68 0.67 0.69 0.71 0.58 0.64 0.66 0.65 0.69 0.73 0.73 0.65 0.55 0.53 0.60 0.63 0.66 0.63 0.63 0.64 0.66 0.56 0.43 0.49 0.53 0.74 0.85 0.84 0.92 0.77 0.80 0.78 0.78 0.72 0.53 0.49 0.39 0.21 0.26 0.27 0.28 0.24 0.31 0.35
0.71 0.72 0.67 0.65 0.70 0.70 0.60 0.64 0.68 0.63 0.70 0.74 0.73 0.74 0.74 0.65 0.57 0.61 0.66 0.55 0.40 0.41 0.49 0.36 0.37 0.38 0.45 0.69 0.82 0.75 0.79 0.88 0.84 0.73 0.57 0.70 0.53 0.36 0.37 0.42 0.39 0.33 0.28 0.26 0.29 0.35 0.33
0.68 0.70 0.72 0.67 0.62 0.62 0.59 0.67 0.60 0.68 0.70 0.69 0.68 0.73 0.73 0.74 0.61 0.63 0.62 0.42 0.46 0.51 0.31 0.42 0.39 0.47 0.60 0.67 0.60 0.67 0.77 0.70 0.67 0.58 0.66 0.59 0.44 0.53 0.52 0.47 0.39 0.36 0.31 0.29 0.35 0.37 0.33
0.68 0.68 0.73 0.66 0.60 0.56 0.59 0.60 0.64 0.62 0.68 0.65 0.68 0.71 0.72 0.76 0.66 0.56 0.51 0.52 0.67 0.60 0.32 0.35 0.47 0.52 0.59 0.70 0.55 0.59 0.72 0.71 0.63 0.58 0.56 0.50 0.55 0.63 0.55 0.48 0.41 0.40 0.34 0.33 0.32 0.36 0.36
0.65 0.68 0.74 0.60 0.60 0.50 0.60 0.64 0.63 0.61 0.64 0.65 0.65 0.67 0.70 0.71 0.58 0.57 0.50 0.63 0.65 0.57 0.21 0.24 0.41 0.55 0.66 0.64 0.55 0.72 0.73 0.70 0.63 0.55 0.57 0.55 0.65 0.61 0.59 0.50 0.50 0.37 0.49 0.45 0.38 0.33 0.23
0.65 0.67 0.72 0.64 0.55 0.50 0.61 0.62 0.64 0.60 0.62 0.65 0.64 0.67 0.67 0.66 0.59 0.54 0.56 0.60 0.55 0.46 0.09 0.30 0.43 0.72 0.65 0.53 0.56 0.61 0.72 0.71 0.54 0.56 0.56 0.48 0.57 0.54 0.53 0.57 0.60 0.47 0.54 0.46 0.40 0.34 0.29
0.66 0.67 0.69 0.67 0.55 0.50 0.50 0.57 0.62 0.60 0.62 0.67 0.66 0.66 0.67 0.58 0.55 0.58 0.60 0.54 0.50 0.20 0.12 0.29 0.46 0.48 0.51 0.52 0.53 0.61 0.60 0.71 0.71 0.55 0.53 0.51 0.64 0.60 0.59 0.64 0.64 0.59 0.49 0.44 0.41 0.35 0.21
0.64 0.66 0.69 0.70 0.56 0.51 0.45 0.57 0.60 0.62 0.60 0.65 0.66 0.67 0.60 0.63 0.48 0.68 0.67 0.50 0.23 0.15 0.33 0.31 0.36 0.46 0.48 0.45 0.47 0.51 0.52 0.50 0.45 0.39 0.41 0.49 0.51 0.55 0.64 0.53 0.57 0.51 0.45 0.30 0.23 0.22 0.19
0.61 0.65 0.69 0.69 0.65 0.51 0.46 0.52 0.57 0.62 0.64 0.64 0.65 0.62 0.61 0.60 0.69 0.68 0.57 0.32 0.17 0.30 0.34 0.45 0.44 0.45 0.39 0.47 0.47 0.46 0.48 0.41 0.49 0.48 0.40 0.36 0.33 0.45 0.53 0.49 0.45 0.44 0.43 0.30 0.17 0.15 0.15
0.61 0.63 0.66 0.65 0.72 0.51 0.47 0.45 0.54 0.59 0.67 0.68 0.60 0.53 0.54 0.62 0.67 0.65 0.43 0.22 0.26 0.32 0.41 0.43 0.46 0.36 0.36 0.45 0.42 0.45 0.44 0.41 0.46 0.48 0.35 0.34 0.35 0.50 0.49 0.49 0.47 0.39 0.35 0.39 0.25 0.23 0.16
0.61 0.60 0.64 0.63 0.68 0.59 0.47 0.44 0.46 0.56 0.64 0.69 0.55 0.47 0.52 0.67 0.69 0.54 0.35 0.28 0.34 0.43 0.44 0.48 0.33 0.38 0.31 0.37 0.38 0.42 0.41 0.45 0.42 0.48 0.45 0.36 0.29 0.42 0.44 0.48 0.46 0.39 0.42 0.28 0.27 0.15 0.12
0.59 0.60 0.64 0.66 0.67 0.66 0.49 0.43 0.41 0.49 0.62 0.68 0.51 0.39 0.56 0.70 0.61 0.42 0.29 0.34 0.42 0.52 0.50 0.42 0.37 0.35 0.39 0.35 0.40 0.37 0.37 0.44 0.45 0.46 0.46 0.41 0.34 0.35 0.41 0.36 0.34 0.36 0.33 0.32 0.29 0.22 0.13
0.57 0.61 0.62 0.71 0.71 0.70 0.50 0.46 0.41 0.42 0.59 0.61 0.45 0.36 0.62 0.68 0.40 0.39 0.33 0.39 0.46 0.45 0.51 0.45 0.44 0.41 0.38 0.38 0.37 0.38 0.35 0.37 0.48 0.47 0.39 0.41 0.36 0.27 0.32 0.40 0.44 0.39 0.34 0.31 0.20 0.17 0.20
0.59 0.59 0.62 0.68 0.71 0.72 0.61 0.48 0.43 0.39 0.56 0.55 0.37 0.41 0.62 0.64 0.30 0.35 0.39 0.37 0.43 0.42 0.41 0.38 0.36 0.39 0.42 0.38 0.34 0.37 0.36 0.43 0.44 0.42 0.37 0.37 0.30 0.23 0.26 0.32 0.38 0.33 0.34 0.32 0.28 0.25 0.18
0.59 0.59 0.61 0.64 0.71 0.69 0.71 0.58 0.46 0.38 0.49 0.56 0.38 0.29 0.42 0.53 0.50 0.40 0.37 0.36 0.34 0.45 0.39 0.40 0.38 0.41 0.39 0.36 0.37 0.33 0.34 0.41 0.45 0.45 0.46 0.41 0.31 0.25 0.18 0.23 0.30 0.27 0.30 0.32 0.29 0.23 0.20
0.56 0.59 0.62 0.63 0.69 0.68 0.69 0.66 0.51 0.42 0.46 0.52 0.41 0.33 0.43 0.32 0.40 0.40 0.41 0.40 0.33 0.32 0.41 0.43 0.38 0.39 0.36 0.33 0.33 0.31 0.35 0.38 0.43 0.46 0.41 0.37 0.26 0.28 0.28 0.31 0.31 0.30 0.30 0.30 0.27 0.27 0.19
0.56 0.60 0.61 0.59 0.68 0.63 0.67 0.66 0.63 0.45 0.47 0.42 0.37 0.35 0.44 0.40 0.43 0.40 0.40 0.38 0.36 0.38 0.39 0.36 0.36 0.39 0.40 0.35 0.38 0.32 0.35 0.35 0.33 0.39 0.37 0.38 0.27 0.28 0.24 0.29 0.31 0.28 0.32 0.32 0.29 0.28 0.25
0.58 0.62 0.64 0.62 0.63 0.62 0.65 0.66 0.64 0.52 0.45 0.40 0.44 0.52 0.44 0.41 0.39 0.38 0.38 0.39 0.38 0.43 0.47 0.46 0.43 0.40 0.39 0.43 0.50 0.48 0.44 0.42 0.39 0.34 0.33 0.33 0.29 0.25 0.21 0.29 0.29 0.22 0.26 0.28 0.31 0.30 0.33
0.62 0.64 0.66 0.64 0.62 0.63 0.66 0.69 0.65 0.61 0.50 0.43 0.44 0.47 0.41 0.32 0.38 0.38 0.41 0.44 0.43 0.45 0.41 0.48 0.51 0.44 0.51 0.61 0.57 0.53 0.46 0.44 0.43 0.42 0.42 0.32 0.31 0.31 0.25 0.27 0.16 0.28 0.39 0.37 0.30 0.37 0.45
0.65 0.66 0.67 0.66 0.64 0.64 0.68 0.70 0.63 0.60 0.60 0.44 0.47 0.44 0.41 0.33 0.41 0.42 0.44 0.44 0.47 0.49 0.47 0.48 0.53 0.58 0.64 0.56 0.43 0.37 0.36 0.37 0.39 0.43 0.42 0.42 0.36 0.29 0.24 0.22 0.24 0.30 0.39 0.41 0.41 0.44 0.54
0.63 0.68 0.66 0.68 0.69 0.64 0.68 0.69 0.67 0.63 0.59 0.53 0.52 0.57 0.47 0.35 0.39 0.49 0.46 0.47 0.41 0.42 0.44 0.49 0.60 0.67 0.62 0.49 0.41 0.29 0.26 0.31 0.30 0.35 0.46 0.43 0.41 0.31 0.27 0.20 0.16 0.31 0.47 0.56 0.57 0.41 0.61
0.65 0.66 0.66 0.68 0.70 0.68 0.69 0.70 0.64 0.59 0.56 0.57 0.50 0.59 0.50 0.38 0.44 0.55 0.47 0.44 0.49 0.45 0.40 0.45 0.48 0.51 0.59 0.42 0.35 0.32 0.30 0.38 0.28 0.28 0.30 0.33 0.34 0.28 0.26 0.23 0.25 0.38 0.46 0.59 0.39 0.44 0.63
0.66 0.65 0.66 0.67 0.70 0.67 0.68 0.72 0.66 0.57 0.55 0.60 0.49 0.49 0.41 0.35 0.40 0.58 0.63 0.57 0.52 0.49 0.38 0.45 0.42 0.43 0.44 0.38 0.35 0.34 0.33 0.36 0.34 0.37 0.33 0.31 0.29 0.27 0.29 0.23 0.19 0.43 0.55 0.48 0.58 0.64 0.64
0.68 0.67 0.66 0.66 0.69 0.67 0.74 0.71 0.62 0.55 0.58 0.59 0.39 0.39 0.39 0.32 0.34 0.62 0.69 0.74 0.69 0.65 0.53 0.49 0.46 0.44 0.46 0.41 0.39 0.39 0.34 0.40 0.37 0.29 0.44 0.32 0.36 0.32 0.32 0.30 0.42 0.48 0.56 0.66 0.68 0.64 0.63

GFSGBSN_prec_pwat_054.txt.gz
Precipitable_Water
0.73 0.74 0.69 0.77 0.73 0.67 0.76 0.83 0.76 0.76 0.68 0.71 0.73 0.72 0.71 0.71 0.69 0.69 0.66 0.64 0.64 0.65 0.67 0.68 0.68 0.71 0.67 0.44 0.33 0.90 0.89 0.92 1.03 0.91 0.68 0.63 0.58 0.65 0.53 0.59 0.62 0.52 0.58 0.58 0.60 0.59 0.57
0.74 0.74 0.75 0.73 0.66 0.67 0.71 0.79 0.73 0.71 0.64 0.71 0.74 0.73 0.71 0.70 0.71 0.70 0.68 0.64 0.67 0.68 0.65 0.66 0.67 0.69 0.57 0.35 0.55 0.89 0.99 0.92 0.89 0.84 0.69 0.71 0.61 0.68 0.61 0.57 0.55 0.58 0.57 0.54 0.57 0.57 0.56
0.71 0.75 0.68 0.69 0.67 0.67 0.72 0.70 0.67 0.62 0.64 0.70 0.72 0.73 0.74 0.71 0.69 0.68 0.68 0.66 0.67 0.64 0.64 0.66 0.69 0.67 0.50 0.40 0.64 0.86 0.93 0.89 0.94 0.83 0.61 0.77 0.76 0.66 0.63 0.53 0.62 0.58 0.48 0.49 0.49 0.50 0.47
0.71 0.70 0.68 0.69 0.65 0.68 0.74 0.62 0.60 0.66 0.68 0.70 0.74 0.75 0.76 0.75 0.63 0.68 0.64 0.63 0.62 0.66 0.70 0.65 0.67 0.63 0.39 0.58 0.65 0.73 0.90 0.85 0.92 0.81 0.75 0.86 0.86 0.68 0.61 0.63 0.52 0.46 0.47 0.36 0.38 0.44 0.48
0.71 0.71 0.70 0.67 0.70 0.66 0.66 0.63 0.67 0.64 0.70 0.73 0.76 0.75 0.77 0.77 0.61 0.56 0.59 0.61 0.64 0.66 0.67 0.68 0.60 0.49 0.35 0.65 0.61 0.75 0.89 0.76 0.83 0.76 0.84 0.96 0.87 0.61 0.57 0.45 0.39 0.41 0.29 0.33 0.35 0.42 0.39
0.69 0.69 0.70 0.72 0.70 0.62 0.63 0.65 0.61 0.67 0.69 0.72 0.67 0.70 0.72 0.74 0.67 0.56 0.61 0.64 0.65 0.61 0.63 0.65 0.59 0.41 0.40 0.45 0.63 0.78 0.91 0.82 0.78 0.67 0.75 0.82 0.77 0.59 0.52 0.41 0.23 0.27 0.30 0.34 0.29 0.37 0.39
0.68 0.71 0.71 0.72 0.61 0.58 0.60 0.61 0.68 0.65 0.67 0.70 0.66 0.68 0.70 0.74 0.73 0.58 0.61 0.54 0.41 0.41 0.49 0.37 0.37 0.39 0.49 0.63 0.80 0.71 0.77 0.73 0.80 0.60 0.54 0.67 0.57 0.43 0.44 0.41 0.40 0.37 0.34 0.30 0.31 0.38 0.33
0.67 0.69 0.72 0.67 0.63 0.56 0.64 0.66 0.66 0.63 0.66 0.71 0.68 0.68 0.68 0.74 0.72 0.60 0.60 0.42 0.44 0.51 0.33 0.41 0.42 0.45 0.56 0.69 0.60 0.75 0.87 0.72 0.56 0.46 0.61 0.55 0.47 0.56 0.56 0.50 0.41 0.36 0.30 0.29 0.35 0.38 0.35
0.66 0.67 0.70 0.66 0.61 0.58 0.55 0.62 0.62 0.62 0.66 0.68 0.70 0.66 0.67 0.71 0.66 0.55 0.50 0.52 0.64 0.60 0.33 0.36 0.44 0.43 0.53 0.68 0.59 0.63 0.75 0.72 0.55 0.52 0.54 0.49 0.55 0.61 0.51 0.44 0.38 0.36 0.31 0.31 0.31 0.35 0.36
0.66 0.66 0.69 0.68 0.65 0.58 0.49 0.60 0.62 0.61 0.67 0.68 0.65 0.67 0.63 0.66 0.56 0.55 0.49 0.57 0.61 0.57 0.26 0.30 0.43 0.56 0.64 0.68 0.54 0.75 0.82 0.72 0.64 0.51 0.55 0.54 0.64 0.55 0.50 0.41 0.41 0.32 0.45 0.41 0.35 0.31 0.24
0.66 0.65 0.69 0.66 0.66 0.57 0.49 0.59 0.62 0.61 0.66 0.63 0.61 0.60 0.61 0.61 0.50 0.43 0.48 0.58 0.61 0.50 0.17 0.39 0.47 0.73 0.70 0.55 0.54 0.59 0.76 0.75 0.55 0.54 0.56 0.49 0.55 0.54 0.46 0.45 0.47 0.41 0.49 0.44 0.40 0.33 0.31
0.64 0.64 0.68 0.62 0.62 0.66 0.52 0.50 0.58 0.63 0.63 0.61 0.64 0.62 0.61 0.59 0.59 0.58 0.62 0.61 0.53 0.25 0.18 0.36 0.49 0.48 0.46 0.54 0.51 0.59 0.65 0.75 0.72 0.56 0.58 0.56 0.69 0.63 0.58 0.62 0.57 0.53 0.46 0.45 0.41 0.36 0.25
0.61 0.64 0.65 0.65 0.61 0.64 0.56 0.47 0.53 0.60 0.65 0.62 0.61 0.63 0.61 0.64 0.49 0.66 0.62 0.48 0.24 0.18 0.36 0.33 0.40 0.46 0.43 0.45 0.47 0.52 0.51 0.51 0.46 0.39 0.40 0.50 0.51 0.62 0.65 0.54 0.59 0.52 0.42 0.30 0.27 0.26 0.23
0.58 0.61 0.63 0.67 0.63 0.64 0.59 0.48 0.47 0.54 0.63 0.67 0.62 0.58 0.64 0.65 0.68 0.65 0.53 0.32 0.17 0.28 0.32 0.45 0.45 0.46 0.37 0.44 0.48 0.48 0.46 0.41 0.49 0.50 0.42 0.37 0.33 0.51 0.62 0.54 0.48 0.49 0.45 0.31 0.20 0.20 0.21
0.55 0.58 0.62 0.66 0.64 0.65 0.57 0.51 0.45 0.46 0.58 0.69 0.62 0.54 0.57 0.63 0.69 0.63 0.42 0.24 0.25 0.30 0.39 0.40 0.45 0.37 0.37 0.42 0.43 0.47 0.46 0.42 0.48 0.52 0.39 0.37 0.37 0.52 0.54 0.55 0.53 0.44 0.40 0.43 0.27 0.26 0.21
0.57 0.59 0.62 0.62 0.68 0.68 0.63 0.51 0.45 0.42 0.53 0.66 0.55 0.48 0.49 0.64 0.69 0.53 0.33 0.27 0.34 0.45 0.47 0.44 0.30 0.35 0.31 0.36 0.35 0.41 0.41 0.46 0.44 0.50 0.50 0.42 0.34 0.47 0.48 0.51 0.49 0.45 0.46 0.33 0.33 0.20 0.16
0.59 0.60 0.61 0.61 0.68 0.68 0.71 0.59 0.49 0.42 0.47 0.62 0.49 0.42 0.57 0.69 0.60 0.47 0.28 0.32 0.38 0.50 0.49 0.40 0.35 0.33 0.36 0.34 0.38 0.35 0.37 0.44 0.47 0.45 0.47 0.42 0.37 0.38 0.44 0.39 0.36 0.37 0.34 0.34 0.32 0.23 0.15
0.56 0.60 0.60 0.59 0.67 0.63 0.64 0.66 0.56 0.47 0.44 0.55 0.45 0.33 0.59 0.67 0.36 0.38 0.33 0.39 0.46 0.46 0.50 0.44 0.43 0.40 0.36 0.37 0.35 0.36 0.35 0.41 0.49 0.47 0.39 0.42 0.37 0.29 0.33 0.41 0.44 0.39 0.35 0.32 0.24 0.21 0.21
0.56 0.58 0.58 0.58 0.65 0.64 0.62 0.64 0.58 0.53 0.50 0.50 0.35 0.38 0.58 0.62 0.28 0.30 0.39 0.41 0.45 0.41 0.41 0.40 0.38 0.42 0.42 0.36 0.34 0.38 0.39 0.47 0.47 0.44 0.40 0.40 0.32 0.24 0.27 0.35 0.38 0.33 0.35 0.34 0.30 0.27 0.19
0.56 0.57 0.56 0.60 0.65 0.64 0.59 0.59 0.59 0.55 0.54 0.47 0.38 0.27 0.41 0.50 0.48 0.37 0.31 0.33 0.35 0.45 0.40 0.40 0.38 0.41 0.38 0.36 0.40 0.36 0.36 0.43 0.45 0.45 0.46 0.41 0.31 0.25 0.20 0.24 0.32 0.28 0.31 0.33 0.30 0.21 0.19
0.55 0.55 0.57 0.61 0.62 0.67 0.61 0.58 0.57 0.54 0.54 0.53 0.39 0.33 0.40 0.31 0.39 0.37 0.38 0.36 0.33 0.33 0.41 0.42 0.37 0.38 0.36 0.31 0.32 0.31 0.38 0.38 0.42 0.45 0.43 0.38 0.27 0.29 0.29 0.31 0.32 0.31 0.30 0.30 0.26 0.27 0.22
0.53 0.55 0.59 0.62 0.62 0.67 0.67 0.60 0.59 0.56 0.48 0.49 0.35 0.35 0.43 0.38 0.42 0.40 0.37 0.34 0.32 0.35 0.37 0.35 0.36 0.39 0.39 0.35 0.36 0.30 0.34 0.34 0.33 0.40 0.38 0.39 0.28 0.30 0.25 0.29 0.30 0.28 0.31 0.32 0.30 0.30 0.28
0.55 0.57 0.60 0.62 0.62 0.66 0.68 0.63 0.62 0.60 0.49 0.42 0.46 0.49 0.44 0.40 0.38 0.37 0.37 0.38 0.38 0.42 0.44 0.45 0.42 0.39 0.37 0.41 0.49 0.48 0.45 0.42 0.40 0.35 0.33 0.33 0.30 0.26 0.20 0.27 0.28 0.22 0.27 0.29 0.31 0.32 0.28
0.55 0.59 0.60 0.62 0.63 0.62 0.66 0.65 0.64 0.60 0.57 0.48 0.45 0.44 0.39 0.33 0.38 0.38 0.42 0.44 0.42 0.43 0.40 0.48 0.49 0.43 0.47 0.57 0.55 0.54 0.48 0.45 0.43 0.40 0.39 0.32 0.30 0.28 0.22 0.27 0.17 0.27 0.38 0.36 0.31 0.32 0.33
0.56 0.60 0.62 0.61 0.63 0.67 0.66 0.69 0.68 0.64 0.57 0.54 0.50 0.47 0.38 0.31 0.41 0.42 0.44 0.43 0.48 0.50 0.47 0.48 0.53 0.56 0.61 0.54 0.44 0.39 0.38 0.36 0.38 0.43 0.40 0.39 0.33 0.26 0.24 0.22 0.25 0.28 0.37 0.35 0.30 0.30 0.45
0.60 0.64 0.63 0.62 0.62 0.66 0.67 0.67 0.70 0.68 0.61 0.52 0.51 0.55 0.50 0.34 0.32 0.49 0.46 0.48 0.42 0.43 0.45 0.50 0.61 0.66 0.60 0.49 0.41 0.30 0.26 0.31 0.29 0.34 0.45 0.41 0.40 0.32 0.27 0.21 0.16 0.30 0.44 0.51 0.51 0.36 0.56
0.64 0.66 0.63 0.62 0.62 0.66 0.66 0.65 0.71 0.70 0.64 0.57 0.54 0.58 0.49 0.44 0.40 0.50 0.47 0.47 0.51 0.46 0.43 0.48 0.51 0.53 0.58 0.43 0.36 0.32 0.30 0.37 0.28 0.28 0.29 0.33 0.34 0.28 0.27 0.23 0.25 0.38 0.45 0.57 0.35 0.40 0.61
0.68 0.66 0.65 0.63 0.62 0.65 0.66 0.70 0.71 0.66 0.59 0.58 0.54 0.61 0.51 0.43 0.43 0.49 0.56 0.54 0.55 0.51 0.41 0.48 0.45 0.47 0.47 0.39 0.37 0.37 0.35 0.36 0.33 0.36 0.32 0.30 0.28 0.27 0.28 0.23 0.20 0.39 0.46 0.39 0.53 0.63 0.65
0.69 0.64 0.64 0.62 0.62 0.65 0.66 0.67 0.72 0.65 0.56 0.57 0.48 0.57 0.51 0.30 0.23 0.39 0.59 0.67 0.65 0.66 0.56 0.52 0.46 0.44 0.45 0.40 0.40 0.41 0.35 0.39 0.36 0.28 0.42 0.30 0.35 0.31 0.32 0.30 0.40 0.49 0.51 0.59 0.64 0.64 0.67

GFSGBSN_prec_pwat_057.txt.gz
Precipitable_Water
0.75 0.72 0.70 0.70 0.67 0.65 0.67 0.73 0.73 0.64 0.62 0.65 0.70 0.73 0.75 0.74 0.72 0.70 0.69 0.67 0.67 0.66 0.68 0.70 0.69 0.70 0.65 0.49 0.38 0.63 0.87 0.89 0.95 0.92 0.68 0.65 0.55 0.57 0.55 0.60 0.62 0.59 0.61 0.60 0.62 0.61 0.56
0.74 0.72 0.70 0.73 0.70 0.65 0.72 0.72 0.62 0.65 0.68 0.69 0.74 0.76 0.77 0.76 0.74 0.71 0.69 0.67 0.65 0.69 0.69 0.67 0.68 0.68 0.52 0.34 0.55 0.55 0.82 0.85 0.98 0.88 0.69 0.65 0.57 0.63 0.62 0.64 0.55 0.64 0.67 0.65 0.63 0.63 0.62
0.76 0.71 0.70 0.73 0.70 0.66 0.68 0.63 0.66 0.67 0.67 0.71 0.76 0.77 0.77 0.78 0.78 0.74 0.68 0.67 0.67 0.69 0.66 0.66 0.69 0.64 0.48 0.38 0.58 0.77 0.79 0.80 0.89 0.93 0.71 0.66 0.70 0.64 0.65 0.63 0.69 0.64 0.56 0.63 0.60 0.61 0.58
0.74 0.67 0.70 0.72 0.73 0.61 0.63 0.65 0.62 0.65 0.70 0.71 0.74 0.76 0.69 0.75 0.79 0.72 0.60 0.62 0.64 0.63 0.67 0.70 0.66 0.60 0.41 0.57 0.60 0.58 0.83 0.85 0.86 0.93 0.82 0.75 0.80 0.68 0.65 0.69 0.64 0.54 0.54 0.47 0.54 0.56 0.57
0.73 0.68 0.69 0.72 0.65 0.61 0.62 0.67 0.67 0.67 0.69 0.70 0.73 0.67 0.70 0.72 0.76 0.67 0.56 0.58 0.60 0.64 0.65 0.66 0.59 0.53 0.35 0.59 0.44 0.55 0.86 0.84 0.87 0.96 0.84 0.76 0.82 0.64 0.62 0.50 0.46 0.48 0.36 0.38 0.43 0.49 0.50
0.73 0.67 0.70 0.70 0.64 0.57 0.59 0.67 0.65 0.66 0.68 0.70 0.66 0.66 0.68 0.72 0.75 0.65 0.54 0.59 0.62 0.61 0.61 0.63 0.62 0.44 0.40 0.38 0.52 0.58 0.77 0.86 0.82 0.82 0.68 0.62 0.65 0.59 0.54 0.46 0.29 0.29 0.32 0.34 0.35 0.46 0.43
0.73 0.65 0.68 0.69 0.65 0.59 0.55 0.60 0.63 0.66 0.66 0.67 0.64 0.62 0.70 0.71 0.73 0.61 0.58 0.54 0.44 0.43 0.50 0.40 0.41 0.36 0.47 0.56 0.68 0.62 0.80 0.78 0.85 0.67 0.43 0.59 0.51 0.45 0.43 0.40 0.37 0.36 0.35 0.32 0.37 0.49 0.42
0.70 0.63 0.68 0.68 0.62 0.62 0.56 0.60 0.63 0.64 0.66 0.65 0.64 0.65 0.68 0.67 0.65 0.57 0.58 0.43 0.45 0.51 0.35 0.42 0.39 0.40 0.49 0.64 0.51 0.62 0.76 0.59 0.66 0.44 0.48 0.54 0.41 0.58 0.54 0.47 0.41 0.38 0.36 0.34 0.41 0.44 0.42
0.68 0.62 0.67 0.66 0.61 0.63 0.59 0.55 0.63 0.63 0.63 0.67 0.67 0.63 0.63 0.65 0.60 0.58 0.51 0.46 0.60 0.59 0.36 0.37 0.44 0.45 0.49 0.63 0.55 0.60 0.72 0.63 0.54 0.40 0.44 0.40 0.53 0.62 0.59 0.47 0.39 0.37 0.37 0.35 0.34 0.40 0.41
0.66 0.62 0.65 0.63 0.61 0.64 0.65 0.51 0.58 0.63 0.60 0.64 0.68 0.66 0.62 0.59 0.56 0.55 0.45 0.57 0.63 0.62 0.31 0.30 0.40 0.53 0.60 0.64 0.49 0.70 0.76 0.68 0.60 0.41 0.49 0.47 0.61 0.58 0.57 0.48 0.43 0.33 0.40 0.39 0.37 0.32 0.23
0.67 0.61 0.61 0.63 0.62 0.65 0.67 0.54 0.50 0.62 0.63 0.63 0.64 0.68 0.64 0.62 0.51 0.44 0.52 0.61 0.68 0.58 0.19 0.40 0.46 0.67 0.65 0.57 0.56 0.58 0.77 0.70 0.45 0.42 0.48 0.43 0.52 0.55 0.48 0.50 0.48 0.39 0.47 0.42 0.37 0.35 0.33
0.64 0.60 0.58 0.63 0.62 0.66 0.64 0.55 0.46 0.53 0.60 0.64 0.65 0.65 0.66 0.62 0.58 0.56 0.61 0.64 0.57 0.32 0.21 0.38 0.50 0.51 0.52 0.58 0.59 0.67 0.66 0.71 0.60 0.51 0.55 0.53 0.66 0.64 0.58 0.56 0.52 0.56 0.43 0.40 0.39 0.36 0.24
0.66 0.60 0.60 0.62 0.62 0.67 0.66 0.54 0.46 0.45 0.54 0.62 0.67 0.64 0.64 0.63 0.46 0.63 0.64 0.53 0.31 0.24 0.41 0.37 0.40 0.51 0.47 0.47 0.53 0.56 0.54 0.52 0.46 0.40 0.40 0.48 0.51 0.62 0.64 0.51 0.55 0.49 0.38 0.28 0.26 0.25 0.26
0.63 0.60 0.60 0.59 0.63 0.64 0.69 0.64 0.48 0.43 0.47 0.60 0.65 0.63 0.62 0.63 0.66 0.65 0.55 0.35 0.18 0.31 0.32 0.47 0.44 0.43 0.40 0.47 0.49 0.50 0.50 0.44 0.53 0.50 0.43 0.38 0.34 0.51 0.61 0.54 0.45 0.45 0.41 0.29 0.20 0.22 0.26
0.61 0.61 0.59 0.58 0.61 0.63 0.63 0.68 0.61 0.43 0.41 0.57 0.66 0.60 0.58 0.65 0.69 0.66 0.43 0.21 0.22 0.31 0.41 0.38 0.39 0.34 0.34 0.41 0.42 0.45 0.46 0.44 0.47 0.50 0.39 0.38 0.37 0.56 0.60 0.62 0.59 0.47 0.38 0.42 0.26 0.26 0.25
0.62 0.60 0.58 0.58 0.59 0.59 0.60 0.63 0.66 0.54 0.39 0.53 0.52 0.53 0.54 0.65 0.68 0.55 0.37 0.27 0.33 0.41 0.44 0.43 0.30 0.35 0.28 0.35 0.37 0.41 0.41 0.46 0.45 0.51 0.53 0.46 0.36 0.49 0.54 0.60 0.57 0.53 0.53 0.35 0.31 0.19 0.17
0.62 0.58 0.58 0.58 0.58 0.61 0.58 0.58 0.60 0.58 0.49 0.50 0.47 0.40 0.58 0.69 0.68 0.47 0.26 0.31 0.39 0.47 0.46 0.39 0.34 0.35 0.35 0.33 0.37 0.37 0.37 0.44 0.47 0.46 0.49 0.46 0.42 0.42 0.47 0.44 0.42 0.43 0.40 0.41 0.40 0.29 0.20
0.60 0.57 0.57 0.58 0.59 0.63 0.60 0.60 0.57 0.55 0.56 0.47 0.44 0.33 0.59 0.68 0.38 0.40 0.31 0.38 0.45 0.43 0.49 0.44 0.42 0.38 0.36 0.37 0.35 0.35 0.36 0.42 0.50 0.48 0.40 0.44 0.39 0.33 0.37 0.45 0.48 0.43 0.39 0.38 0.29 0.27 0.26
0.57 0.57 0.56 0.55 0.57 0.63 0.62 0.60 0.55 0.51 0.56 0.53 0.32 0.37 0.58 0.63 0.30 0.33 0.38 0.39 0.43 0.40 0.41 0.40 0.38 0.40 0.41 0.35 0.32 0.37 0.39 0.46 0.48 0.45 0.41 0.42 0.34 0.25 0.28 0.35 0.40 0.36 0.37 0.37 0.34 0.31 0.25
0.57 0.57 0.55 0.56 0.57 0.63 0.63 0.62 0.60 0.49 0.50 0.56 0.42 0.28 0.41 0.51 0.48 0.38 0.34 0.34 0.35 0.44 0.40 0.41 0.39 0.42 0.38 0.35 0.39 0.36 0.38 0.45 0.46 0.45 0.45 0.43 0.33 0.29 0.24 0.28 0.33 0.28 0.31 0.34 0.32 0.25 0.24
0.57 0.57 0.56 0.57 0.59 0.60 0.64 0.62 0.62 0.51 0.47 0.55 0.47 0.34 0.40 0.31 0.38 0.39 0.37 0.34 0.32 0.32 0.39 0.40 0.36 0.36 0.36 0.33 0.34 0.35 0.39 0.41 0.44 0.42 0.44 0.40 0.28 0.28 0.29 0.31 0.32 0.31 0.30 0.32 0.29 0.29 0.23
0.59 0.56 0.56 0.58 0.61 0.59 0.61 0.61 0.63 0.53 0.47 0.45 0.37 0.39 0.40 0.38 0.41 0.39 0.38 0.34 0.33 0.35 0.35 0.33 0.34 0.38 0.38 0.34 0.34 0.32 0.35 0.37 0.35 0.40 0.39 0.41 0.30 0.30 0.26 0.29 0.29 0.27 0.31 0.33 0.32 0.31 0.28
0.57 0.56 0.56 0.58 0.60 0.60 0.60 0.61 0.64 0.58 0.50 0.41 0.44 0.51 0.44 0.38 0.38 0.37 0.38 0.39 0.37 0.40 0.40 0.41 0.40 0.39 0.37 0.41 0.46 0.46 0.44 0.42 0.41 0.37 0.36 0.36 0.32 0.28 0.24 0.28 0.27 0.21 0.26 0.29 0.31 0.33 0.31
0.59 0.59 0.61 0.61 0.60 0.59 0.62 0.63 0.63 0.63 0.56 0.50 0.48 0.47 0.39 0.32 0.37 0.37 0.41 0.44 0.41 0.42 0.40 0.44 0.46 0.41 0.46 0.53 0.51 0.51 0.49 0.44 0.41 0.39 0.41 0.33 0.32 0.30 0.24 0.25 0.16 0.29 0.36 0.35 0.31 0.33 0.34
0.62 0.62 0.64 0.63 0.61 0.60 0.64 0.62 0.65 0.67 0.62 0.53 0.53 0.47 0.42 0.30 0.36 0.40 0.43 0.44 0.48 0.50 0.46 0.46 0.50 0.52 0.57 0.51 0.41 0.37 0.38 0.38 0.40 0.42 0.39 0.38 0.32 0.27 0.22 0.21 0.25 0.27 0.32 0.34 0.30 0.29 0.36
0.66 0.67 0.67 0.63 0.61 0.59 0.63 0.60 0.63 0.68 0.66 0.58 0.53 0.53 0.48 0.37 0.36 0.42 0.45 0.48 0.43 0.43 0.46 0.51 0.60 0.62 0.57 0.48 0.40 0.30 0.27 0.32 0.30 0.34 0.43 0.38 0.38 0.30 0.26 0.20 0.18 0.33 0.42 0.46 0.43 0.29 0.41
0.66 0.70 0.69 0.63 0.63 0.59 0.62 0.61 0.67 0.69 0.67 0.58 0.53 0.54 0.46 0.40 0.41 0.44 0.43 0.48 0.55 0.49 0.45 0.50 0.52 0.52 0.55 0.42 0.35 0.32 0.30 0.38 0.29 0.27 0.29 0.31 0.33 0.27 0.26 0.24 0.26 0.34 0.47 0.54 0.31 0.37 0.56
0.66 0.71 0.68 0.65 0.61 0.59 0.63 0.62 0.64 0.68 0.68 0.60 0.50 0.58 0.49 0.42 0.41 0.48 0.46 0.52 0.56 0.55 0.44 0.52 0.48 0.50 0.47 0.38 0.36 0.36 0.34 0.36 0.33 0.34 0.31 0.29 0.27 0.27 0.28 0.24 0.20 0.38 0.44 0.37 0.51 0.59 0.61
0.68 0.67 0.66 0.64 0.59 0.60 0.65 0.60 0.59 0.66 0.57 0.55 0.46 0.56 0.57 0.45 0.39 0.45 0.50 0.57 0.67 0.66 0.58 0.57 0.51 0.48 0.49 0.43 0.42 0.42 0.36 0.40 0.35 0.28 0.39 0.29 0.33 0.30 0.30 0.30 0.40 0.46 0.49 0.55 0.59 0.59 0.63

GFSGBSN_prec_pwat_060.txt.gz
Precipitable_Water
0.78 0.73 0.69 0.71 0.72 0.75 0.63 0.67 0.64 0.64 0.64 0.72 0.73 0.74 0.77 0.79 0.79 0.79 0.78 0.74 0.70 0.66 0.65 0.67 0.71 0.71 0.65 0.50 0.47 0.69 0.76 0.65 0.94 0.98 0.79 0.67 0.50 0.56 0.50 0.52 0.58 0.58 0.60 0.55 0.59 0.63 0.61
0.76 0.71 0.68 0.70 0.74 0.66 0.61 0.64 0.61 0.63 0.72 0.70 0.69 0.71 0.73 0.74 0.74 0.77 0.81 0.73 0.69 0.66 0.70 0.72 0.69 0.68 0.56 0.34 0.60 0.65 0.70 0.85 0.81 0.89 0.77 0.72 0.53 0.64 0.59 0.59 0.54 0.59 0.64 0.65 0.61 0.61 0.59
0.73 0.70 0.68 0.70 0.71 0.65 0.56 0.66 0.69 0.70 0.65 0.66 0.68 0.69 0.68 0.69 0.74 0.77 0.81 0.67 0.67 0.68 0.69 0.66 0.66 0.63 0.48 0.38 0.60 0.73 0.66 0.74 0.90 0.91 0.73 0.73 0.67 0.57 0.62 0.62 0.69 0.62 0.56 0.65 0.63 0.61 0.58
0.71 0.69 0.67 0.71 0.68 0.63 0.60 0.61 0.64 0.65 0.64 0.67 0.71 0.65 0.66 0.72 0.74 0.76 0.72 0.57 0.63 0.64 0.64 0.66 0.70 0.59 0.37 0.53 0.58 0.56 0.63 0.73 0.88 0.98 0.90 0.78 0.73 0.61 0.63 0.68 0.65 0.55 0.54 0.48 0.60 0.64 0.64
0.71 0.68 0.66 0.69 0.66 0.64 0.62 0.57 0.65 0.64 0.65 0.67 0.69 0.65 0.67 0.70 0.74 0.71 0.58 0.54 0.59 0.59 0.61 0.64 0.57 0.52 0.37 0.54 0.44 0.50 0.55 0.59 0.77 0.88 0.94 0.85 0.73 0.57 0.60 0.53 0.50 0.53 0.38 0.43 0.49 0.62 0.60
0.71 0.68 0.65 0.68 0.65 0.65 0.68 0.52 0.63 0.62 0.65 0.66 0.67 0.64 0.67 0.68 0.68 0.63 0.51 0.56 0.59 0.59 0.63 0.60 0.60 0.47 0.45 0.39 0.51 0.50 0.55 0.67 0.74 0.79 0.76 0.73 0.62 0.48 0.48 0.48 0.31 0.35 0.37 0.38 0.40 0.50 0.57
0.67 0.66 0.64 0.66 0.65 0.66 0.70 0.53 0.59 0.61 0.62 0.66 0.64 0.66 0.62 0.61 0.57 0.52 0.59 0.57 0.46 0.45 0.52 0.41 0.43 0.40 0.45 0.51 0.57 0.53 0.64 0.62 0.69 0.70 0.58 0.58 0.47 0.33 0.32 0.41 0.43 0.40 0.39 0.39 0.42 0.50 0.48
0.67 0.64 0.62 0.64 0.63 0.66 0.68 0.58 0.51 0.61 0.61 0.63 0.63 0.67 0.60 0.60 0.59 0.62 0.60 0.42 0.45 0.49 0.32 0.44 0.39 0.39 0.45 0.51 0.41 0.52 0.76 0.60 0.55 0.50 0.52 0.49 0.35 0.44 0.49 0.49 0.46 0.42 0.36 0.32 0.41 0.48 0.46
0.66 0.61 0.61 0.64 0.66 0.67 0.65 0.60 0.50 0.55 0.60 0.64 0.63 0.63 0.64 0.58 0.62 0.63 0.54 0.50 0.61 0.60 0.38 0.38 0.44 0.40 0.44 0.50 0.46 0.52 0.74 0.66 0.58 0.51 0.45 0.37 0.39 0.50 0.49 0.46 0.42 0.39 0.34 0.33 0.37 0.44 0.47
0.66 0.63 0.62 0.64 0.65 0.66 0.68 0.55 0.49 0.50 0.55 0.60 0.64 0.62 0.64 0.61 0.56 0.54 0.51 0.63 0.68 0.67 0.33 0.36 0.44 0.51 0.55 0.53 0.44 0.73 0.77 0.67 0.61 0.47 0.48 0.49 0.53 0.47 0.49 0.46 0.44 0.36 0.40 0.40 0.39 0.38 0.30
0.65 0.62 0.61 0.62 0.63 0.64 0.69 0.61 0.50 0.47 0.51 0.55 0.63 0.63 0.63 0.63 0.53 0.47 0.56 0.66 0.71 0.64 0.18 0.39 0.46 0.67 0.63 0.52 0.53 0.61 0.81 0.66 0.53 0.48 0.46 0.42 0.48 0.46 0.48 0.48 0.51 0.40 0.41 0.41 0.42 0.36 0.39
0.64 0.60 0.61 0.60 0.61 0.65 0.67 0.66 0.59 0.47 0.47 0.54 0.62 0.65 0.62 0.59 0.58 0.61 0.68 0.71 0.64 0.33 0.22 0.40 0.50 0.49 0.50 0.52 0.54 0.58 0.60 0.71 0.66 0.48 0.48 0.46 0.62 0.58 0.56 0.62 0.58 0.53 0.45 0.41 0.41 0.38 0.28
0.64 0.61 0.61 0.59 0.59 0.62 0.63 0.64 0.66 0.55 0.42 0.48 0.63 0.66 0.61 0.61 0.48 0.65 0.67 0.57 0.29 0.22 0.44 0.38 0.44 0.50 0.48 0.43 0.45 0.50 0.48 0.49 0.42 0.31 0.31 0.44 0.46 0.59 0.66 0.54 0.58 0.52 0.41 0.26 0.24 0.25 0.23
0.63 0.62 0.58 0.58 0.59 0.60 0.60 0.61 0.61 0.64 0.46 0.40 0.60 0.66 0.64 0.62 0.68 0.66 0.58 0.39 0.19 0.31 0.35 0.48 0.49 0.49 0.40 0.49 0.51 0.53 0.49 0.43 0.49 0.40 0.35 0.31 0.30 0.50 0.61 0.54 0.47 0.47 0.39 0.26 0.17 0.19 0.22
0.62 0.62 0.56 0.58 0.59 0.60 0.60 0.62 0.61 0.54 0.58 0.39 0.56 0.61 0.60 0.63 0.67 0.64 0.46 0.22 0.25 0.32 0.41 0.41 0.45 0.36 0.41 0.45 0.45 0.50 0.46 0.43 0.51 0.54 0.41 0.36 0.35 0.53 0.59 0.62 0.56 0.46 0.36 0.43 0.29 0.30 0.25
0.63 0.62 0.56 0.58 0.57 0.58 0.58 0.60 0.62 0.55 0.52 0.53 0.44 0.49 0.53 0.64 0.71 0.54 0.35 0.27 0.32 0.43 0.45 0.45 0.33 0.39 0.32 0.36 0.37 0.44 0.42 0.47 0.46 0.52 0.56 0.47 0.35 0.50 0.55 0.62 0.59 0.51 0.52 0.32 0.31 0.20 0.20
0.64 0.58 0.58 0.57 0.55 0.57 0.58 0.60 0.61 0.58 0.47 0.56 0.47 0.37 0.58 0.69 0.67 0.45 0.25 0.29 0.37 0.48 0.47 0.39 0.34 0.33 0.35 0.35 0.38 0.38 0.38 0.44 0.48 0.47 0.53 0.51 0.44 0.43 0.53 0.47 0.44 0.47 0.44 0.42 0.37 0.29 0.21
0.63 0.57 0.58 0.55 0.55 0.58 0.60 0.59 0.59 0.58 0.48 0.48 0.51 0.30 0.57 0.69 0.37 0.39 0.30 0.36 0.43 0.40 0.48 0.44 0.41 0.37 0.35 0.36 0.35 0.36 0.36 0.41 0.49 0.49 0.42 0.47 0.44 0.36 0.40 0.50 0.54 0.54 0.46 0.46 0.33 0.28 0.27
0.60 0.57 0.58 0.56 0.56 0.58 0.60 0.57 0.57 0.55 0.52 0.46 0.37 0.38 0.59 0.65 0.30 0.31 0.36 0.38 0.41 0.38 0.39 0.38 0.36 0.39 0.39 0.35 0.31 0.35 0.38 0.47 0.49 0.46 0.42 0.43 0.35 0.29 0.32 0.39 0.45 0.42 0.45 0.45 0.42 0.39 0.32
0.59 0.57 0.57 0.56 0.58 0.56 0.60 0.56 0.57 0.51 0.55 0.51 0.43 0.34 0.39 0.52 0.46 0.38 0.33 0.33 0.37 0.43 0.40 0.41 0.38 0.40 0.36 0.32 0.37 0.33 0.36 0.44 0.47 0.45 0.47 0.45 0.35 0.31 0.24 0.31 0.36 0.31 0.36 0.38 0.35 0.27 0.27
0.59 0.57 0.56 0.56 0.59 0.58 0.57 0.57 0.58 0.51 0.53 0.52 0.38 0.39 0.46 0.30 0.38 0.38 0.37 0.35 0.32 0.33 0.41 0.41 0.37 0.37 0.37 0.32 0.33 0.33 0.39 0.40 0.44 0.42 0.41 0.40 0.29 0.30 0.31 0.32 0.32 0.31 0.31 0.33 0.31 0.32 0.26
0.59 0.57 0.57 0.58 0.60 0.59 0.61 0.58 0.59 0.54 0.48 0.46 0.35 0.31 0.42 0.40 0.40 0.38 0.38 0.33 0.31 0.35 0.36 0.34 0.34 0.37 0.38 0.34 0.37 0.34 0.36 0.35 0.36 0.39 0.36 0.41 0.30 0.31 0.26 0.30 0.29 0.25 0.30 0.32 0.31 0.32 0.31
0.61 0.60 0.63 0.62 0.61 0.60 0.61 0.59 0.58 0.56 0.51 0.41 0.45 0.46 0.40 0.40 0.39 0.36 0.38 0.38 0.38 0.40 0.42 0.41 0.39 0.37 0.36 0.42 0.44 0.45 0.46 0.43 0.41 0.37 0.34 0.35 0.31 0.27 0.24 0.29 0.27 0.20 0.24 0.27 0.31 0.33 0.31
0.62 0.63 0.65 0.65 0.62 0.60 0.61 0.58 0.58 0.61 0.56 0.50 0.46 0.49 0.38 0.29 0.39 0.36 0.39 0.42 0.40 0.42 0.38 0.44 0.42 0.39 0.47 0.53 0.50 0.48 0.47 0.45 0.41 0.38 0.41 0.34 0.32 0.30 0.24 0.25 0.15 0.28 0.34 0.33 0.30 0.33 0.35
0.64 0.63 0.64 0.64 0.63 0.62 0.59 0.59 0.58 0.61 0.60 0.53 0.51 0.45 0.42 0.31 0.32 0.35 0.40 0.41 0.45 0.48 0.45 0.46 0.48 0.49 0.54 0.48 0.39 0.35 0.35 0.38 0.41 0.42 0.37 0.40 0.34 0.27 0.22 0.21 0.24 0.28 0.31 0.33 0.30 0.29 0.36
0.63 0.62 0.67 0.65 0.63 0.61 0.58 0.61 0.63 0.63 0.62 0.56 0.53 0.52 0.45 0.36 0.38 0.39 0.38 0.45 0.41 0.43 0.46 0.48 0.56 0.59 0.56 0.45 0.39 0.29 0.25 0.31 0.32 0.36 0.44 0.40 0.37 0.28 0.26 0.20 0.17 0.32 0.41 0.44 0.42 0.29 0.38
0.62 0.62 0.64 0.63 0.62 0.59 0.59 0.61 0.59 0.64 0.64 0.58 0.52 0.56 0.46 0.36 0.37 0.41 0.36 0.42 0.53 0.49 0.46 0.49 0.50 0.50 0.55 0.41 0.33 0.29 0.28 0.36 0.30 0.30 0.30 0.31 0.30 0.26 0.25 0.23 0.25 0.37 0.44 0.51 0.29 0.34 0.47
0.62 0.62 0.63 0.62 0.61 0.58 0.62 0.62 0.58 0.57 0.64 0.52 0.44 0.53 0.45 0.37 0.36 0.40 0.43 0.38 0.51 0.54 0.46 0.54 0.48 0.49 0.46 0.37 0.35 0.35 0.31 0.34 0.34 0.36 0.33 0.30 0.27 0.26 0.28 0.24 0.19 0.42 0.42 0.37 0.49 0.57 0.59
0.63 0.62 0.63 0.62 0.60 0.58 0.62 0.61 0.63 0.60 0.56 0.56 0.42 0.49 0.53 0.40 0.33 0.43 0.47 0.50 0.48 0.60 0.57 0.59 0.54 0.51 0.49 0.42 0.42 0.41 0.35 0.38 0.35 0.30 0.41 0.29 0.33 0.29 0.30 0.29 0.41 0.44 0.44 0.53 0.57 0.57 0.60

GFSGBSN_prec_pwat_063.txt.gz
Precipitable_Water
0.73 0.72 0.72 0.71 0.74 0.67 0.62 0.62 0.66 0.71 0.64 0.64 0.67 0.71 0.66 0.67 0.68 0.73 0.76 0.79 0.78 0.75 0.70 0.64 0.63 0.67 0.63 0.48 0.40 0.74 0.74 0.79 0.67 0.78 0.81 0.73 0.49 0.50 0.48 0.58 0.58 0.56 0.61 0.66 0.65 0.68 0.74
0.74 0.73 0.72 0.71 0.69 0.65 0.67 0.57 0.64 0.63 0.64 0.66 0.69 0.68 0.64 0.68 0.71 0.74 0.75 0.80 0.74 0.70 0.66 0.71 0.72 0.69 0.53 0.35 0.55 0.68 0.70 0.70 0.70 0.84 0.81 0.83 0.63 0.56 0.55 0.60 0.55 0.56 0.60 0.65 0.68 0.61 0.63
0.74 0.71 0.69 0.69 0.70 0.66 0.68 0.56 0.64 0.62 0.64 0.66 0.67 0.66 0.64 0.66 0.70 0.72 0.74 0.73 0.63 0.67 0.68 0.68 0.65 0.62 0.49 0.39 0.62 0.72 0.72 0.70 0.82 0.90 0.84 0.83 0.77 0.54 0.54 0.55 0.63 0.60 0.52 0.65 0.63 0.62 0.58
0.72 0.68 0.68 0.66 0.68 0.67 0.68 0.63 0.59 0.64 0.64 0.66 0.65 0.66 0.65 0.67 0.66 0.64 0.58 0.51 0.59 0.61 0.62 0.64 0.69 0.59 0.35 0.53 0.58 0.62 0.70 0.66 0.78 0.99 1.00 0.92 0.83 0.63 0.61 0.65 0.63 0.53 0.50 0.48 0.57 0.62 0.60
0.71 0.69 0.66 0.65 0.67 0.68 0.69 0.67 0.56 0.62 0.62 0.64 0.65 0.67 0.63 0.64 0.62 0.56 0.50 0.51 0.54 0.57 0.58 0.63 0.55 0.48 0.34 0.56 0.48 0.52 0.59 0.59 0.73 0.90 0.96 0.94 0.82 0.61 0.57 0.49 0.47 0.54 0.37 0.40 0.48 0.61 0.60
0.70 0.67 0.63 0.66 0.68 0.66 0.66 0.65 0.55 0.55 0.63 0.62 0.64 0.65 0.60 0.61 0.59 0.56 0.58 0.59 0.57 0.57 0.61 0.62 0.58 0.44 0.47 0.40 0.49 0.53 0.55 0.66 0.65 0.77 0.78 0.75 0.66 0.50 0.47 0.42 0.25 0.34 0.36 0.36 0.38 0.51 0.55
0.67 0.64 0.63 0.66 0.70 0.64 0.66 0.60 0.52 0.54 0.58 0.62 0.64 0.64 0.63 0.60 0.62 0.65 0.60 0.52 0.41 0.41 0.50 0.38 0.39 0.38 0.43 0.51 0.53 0.48 0.54 0.59 0.67 0.67 0.56 0.65 0.48 0.34 0.30 0.42 0.42 0.46 0.42 0.39 0.42 0.49 0.50
0.64 0.64 0.63 0.67 0.67 0.63 0.70 0.60 0.52 0.54 0.54 0.59 0.63 0.62 0.63 0.60 0.62 0.65 0.59 0.45 0.47 0.49 0.29 0.39 0.41 0.40 0.46 0.47 0.34 0.45 0.59 0.44 0.55 0.50 0.63 0.55 0.37 0.45 0.44 0.46 0.43 0.40 0.39 0.38 0.43 0.47 0.46
0.63 0.63 0.61 0.66 0.63 0.63 0.66 0.63 0.58 0.56 0.52 0.55 0.59 0.65 0.62 0.62 0.60 0.55 0.54 0.52 0.64 0.65 0.41 0.44 0.46 0.42 0.43 0.47 0.37 0.42 0.49 0.53 0.52 0.49 0.53 0.42 0.44 0.51 0.44 0.42 0.37 0.36 0.33 0.35 0.38 0.44 0.47
0.63 0.62 0.60 0.64 0.62 0.65 0.65 0.66 0.63 0.58 0.51 0.52 0.57 0.65 0.63 0.64 0.53 0.54 0.50 0.66 0.68 0.70 0.34 0.39 0.44 0.47 0.50 0.52 0.41 0.55 0.52 0.56 0.51 0.49 0.54 0.50 0.54 0.46 0.44 0.36 0.37 0.32 0.41 0.40 0.40 0.37 0.30
0.64 0.62 0.61 0.63 0.59 0.62 0.63 0.61 0.64 0.65 0.54 0.47 0.56 0.66 0.64 0.67 0.54 0.50 0.57 0.68 0.70 0.66 0.20 0.43 0.47 0.67 0.59 0.52 0.52 0.58 0.79 0.62 0.42 0.49 0.49 0.42 0.44 0.41 0.40 0.42 0.46 0.37 0.45 0.43 0.41 0.36 0.35
0.65 0.61 0.62 0.59 0.59 0.60 0.63 0.63 0.62 0.60 0.61 0.44 0.51 0.65 0.67 0.61 0.61 0.61 0.69 0.67 0.64 0.33 0.23 0.40 0.50 0.48 0.47 0.52 0.57 0.64 0.64 0.74 0.69 0.54 0.51 0.47 0.59 0.52 0.47 0.51 0.52 0.55 0.46 0.44 0.42 0.38 0.27
0.64 0.62 0.62 0.57 0.59 0.58 0.60 0.61 0.62 0.62 0.58 0.53 0.43 0.64 0.66 0.64 0.49 0.65 0.68 0.55 0.26 0.21 0.43 0.40 0.43 0.48 0.45 0.43 0.46 0.53 0.53 0.49 0.42 0.35 0.37 0.46 0.45 0.54 0.58 0.45 0.55 0.51 0.41 0.29 0.26 0.26 0.21
0.63 0.62 0.60 0.58 0.57 0.56 0.59 0.60 0.61 0.60 0.56 0.54 0.44 0.62 0.65 0.63 0.66 0.64 0.59 0.34 0.17 0.30 0.35 0.50 0.48 0.45 0.40 0.48 0.46 0.49 0.47 0.42 0.47 0.39 0.34 0.32 0.31 0.47 0.55 0.51 0.47 0.48 0.40 0.26 0.17 0.18 0.19
0.63 0.64 0.59 0.58 0.56 0.54 0.59 0.58 0.58 0.58 0.56 0.49 0.53 0.54 0.60 0.64 0.70 0.62 0.44 0.19 0.23 0.32 0.40 0.41 0.41 0.36 0.36 0.48 0.50 0.48 0.46 0.43 0.47 0.45 0.27 0.28 0.29 0.49 0.56 0.61 0.59 0.47 0.37 0.43 0.30 0.29 0.21
0.64 0.63 0.59 0.56 0.55 0.55 0.59 0.59 0.56 0.57 0.53 0.47 0.51 0.48 0.51 0.69 0.72 0.56 0.32 0.25 0.32 0.41 0.43 0.44 0.34 0.38 0.31 0.39 0.41 0.42 0.40 0.47 0.44 0.51 0.53 0.40 0.28 0.44 0.53 0.62 0.61 0.53 0.52 0.34 0.36 0.22 0.20
0.65 0.60 0.58 0.57 0.54 0.56 0.58 0.57 0.54 0.54 0.52 0.48 0.50 0.41 0.56 0.72 0.69 0.46 0.25 0.30 0.37 0.45 0.45 0.40 0.37 0.35 0.38 0.38 0.39 0.38 0.37 0.42 0.46 0.49 0.54 0.49 0.40 0.38 0.49 0.45 0.45 0.47 0.42 0.40 0.37 0.32 0.23
0.63 0.60 0.59 0.57 0.55 0.56 0.58 0.54 0.54 0.51 0.55 0.49 0.39 0.31 0.59 0.71 0.40 0.40 0.31 0.38 0.43 0.42 0.47 0.43 0.43 0.40 0.37 0.38 0.35 0.36 0.35 0.40 0.50 0.51 0.46 0.51 0.43 0.36 0.39 0.53 0.59 0.52 0.46 0.42 0.30 0.27 0.28
0.62 0.61 0.59 0.58 0.58 0.57 0.57 0.54 0.53 0.48 0.54 0.48 0.39 0.39 0.64 0.65 0.30 0.32 0.38 0.39 0.44 0.40 0.39 0.38 0.37 0.40 0.42 0.37 0.31 0.37 0.37 0.47 0.50 0.47 0.42 0.46 0.41 0.31 0.35 0.43 0.50 0.46 0.48 0.48 0.44 0.39 0.30
0.61 0.60 0.59 0.58 0.60 0.59 0.58 0.55 0.52 0.45 0.50 0.49 0.41 0.29 0.42 0.50 0.48 0.37 0.34 0.34 0.38 0.44 0.40 0.41 0.38 0.40 0.36 0.34 0.38 0.33 0.36 0.44 0.48 0.46 0.49 0.47 0.37 0.33 0.25 0.30 0.38 0.36 0.44 0.45 0.44 0.36 0.34
0.61 0.59 0.60 0.61 0.61 0.59 0.58 0.56 0.53 0.47 0.48 0.42 0.35 0.34 0.41 0.31 0.36 0.37 0.39 0.36 0.32 0.34 0.41 0.42 0.37 0.37 0.35 0.31 0.32 0.33 0.38 0.40 0.44 0.43 0.43 0.42 0.30 0.33 0.35 0.36 0.36 0.35 0.36 0.40 0.37 0.37 0.31
0.62 0.61 0.63 0.63 0.61 0.59 0.58 0.55 0.55 0.51 0.45 0.33 0.31 0.32 0.36 0.36 0.41 0.39 0.37 0.35 0.33 0.35 0.36 0.34 0.33 0.35 0.36 0.33 0.34 0.32 0.35 0.34 0.34 0.40 0.36 0.40 0.30 0.31 0.26 0.30 0.30 0.27 0.31 0.34 0.34 0.34 0.33
0.62 0.62 0.63 0.64 0.61 0.58 0.57 0.55 0.54 0.54 0.48 0.34 0.37 0.43 0.41 0.36 0.39 0.37 0.38 0.36 0.38 0.40 0.41 0.42 0.40 0.36 0.34 0.38 0.42 0.44 0.45 0.43 0.40 0.38 0.34 0.33 0.30 0.27 0.23 0.29 0.27 0.20 0.23 0.26 0.29 0.32 0.31
0.61 0.62 0.62 0.63 0.62 0.60 0.56 0.57 0.57 0.58 0.53 0.45 0.40 0.39 0.34 0.29 0.34 0.35 0.38 0.41 0.39 0.42 0.38 0.45 0.43 0.38 0.43 0.52 0.49 0.46 0.45 0.45 0.43 0.40 0.41 0.32 0.30 0.29 0.24 0.26 0.15 0.24 0.34 0.33 0.28 0.30 0.34
0.62 0.62 0.61 0.64 0.61 0.59 0.55 0.57 0.57 0.59 0.58 0.49 0.49 0.39 0.33 0.28 0.34 0.30 0.37 0.39 0.43 0.46 0.45 0.44 0.47 0.47 0.53 0.46 0.36 0.32 0.33 0.35 0.38 0.41 0.40 0.40 0.33 0.26 0.21 0.20 0.22 0.28 0.31 0.31 0.29 0.28 0.35
0.60 0.60 0.62 0.65 0.61 0.59 0.56 0.59 0.57 0.60 0.58 0.50 0.44 0.43 0.36 0.31 0.35 0.42 0.34 0.35 0.39 0.42 0.46 0.49 0.56 0.58 0.53 0.43 0.36 0.26 0.22 0.27 0.28 0.35 0.44 0.41 0.39 0.29 0.26 0.19 0.16 0.32 0.39 0.44 0.41 0.26 0.41
0.62 0.62 0.63 0.66 0.63 0.58 0.58 0.60 0.56 0.57 0.57 0.49 0.43 0.47 0.36 0.27 0.32 0.39 0.34 0.34 0.48 0.48 0.44 0.52 0.51 0.49 0.55 0.40 0.33 0.29 0.26 0.32 0.26 0.28 0.30 0.32 0.33 0.26 0.24 0.21 0.24 0.37 0.42 0.46 0.28 0.30 0.41
0.62 0.62 0.64 0.65 0.62 0.58 0.58 0.60 0.59 0.60 0.54 0.53 0.46 0.50 0.39 0.28 0.30 0.36 0.39 0.37 0.37 0.46 0.42 0.54 0.50 0.49 0.45 0.37 0.35 0.34 0.31 0.31 0.31 0.34 0.32 0.30 0.27 0.26 0.27 0.23 0.18 0.43 0.42 0.36 0.48 0.56 0.52
0.63 0.61 0.63 0.62 0.60 0.59 0.57 0.59 0.59 0.59 0.57 0.58 0.45 0.54 0.54 0.39 0.32 0.38 0.41 0.45 0.46 0.46 0.49 0.56 0.55 0.55 0.54 0.42 0.41 0.42 0.35 0.37 0.33 0.27 0.39 0.29 0.33 0.29 0.29 0.28 0.39 0.44 0.42 0.52 0.57 0.56 0.59

GFSGBSN_prec_pwat_066.txt.gz
Precipitable_Water
0.74 0.73 0.71 0.70 0.69 0.68 0.70 0.67 0.60 0.63 0.64 0.66 0.64 0.67 0.64 0.67 0.68 0.70 0.70 0.74 0.79 0.78 0.73 0.70 0.66 0.65 0.61 0.44 0.39 0.66 0.72 0.71 0.74 0.76 0.78 0.79 0.47 0.44 0.45 0.55 0.66 0.64 0.66 0.72 0.76 0.78 0.82
0.72 0.74 0.70 0.69 0.67 0.67 0.70 0.71 0.55 0.64 0.64 0.65 0.65 0.66 0.64 0.66 0.66 0.68 0.68 0.70 0.71 0.65 0.66 0.67 0.71 0.67 0.51 0.34 0.55 0.63 0.76 0.70 0.69 0.69 0.78 0.84 0.60 0.55 0.52 0.55 0.60 0.68 0.68 0.70 0.77 0.70 0.77
0.71 0.72 0.69 0.70 0.68 0.68 0.70 0.72 0.57 0.59 0.64 0.64 0.64 0.64 0.62 0.63 0.64 0.62 0.63 0.61 0.59 0.61 0.64 0.66 0.64 0.58 0.46 0.38 0.61 0.64 0.70 0.71 0.76 0.71 0.73 0.86 0.80 0.57 0.50 0.49 0.67 0.68 0.56 0.66 0.66 0.68 0.67
0.71 0.71 0.68 0.69 0.69 0.68 0.71 0.68 0.55 0.57 0.62 0.65 0.64 0.64 0.63 0.59 0.62 0.56 0.55 0.55 0.59 0.59 0.60 0.62 0.65 0.56 0.34 0.57 0.63 0.64 0.70 0.69 0.73 0.78 0.79 0.93 0.94 0.57 0.54 0.63 0.57 0.60 0.54 0.47 0.58 0.64 0.67
0.71 0.68 0.67 0.67 0.69 0.65 0.71 0.62 0.52 0.56 0.57 0.63 0.65 0.63 0.62 0.58 0.61 0.63 0.63 0.60 0.56 0.55 0.56 0.59 0.51 0.45 0.31 0.58 0.52 0.62 0.66 0.58 0.65 0.78 0.90 1.01 0.93 0.59 0.57 0.47 0.43 0.54 0.40 0.42 0.49 0.62 0.61
0.70 0.66 0.64 0.66 0.68 0.65 0.69 0.65 0.59 0.57 0.56 0.58 0.62 0.63 0.63 0.60 0.60 0.68 0.69 0.65 0.59 0.59 0.59 0.59 0.54 0.39 0.43 0.38 0.47 0.54 0.59 0.64 0.62 0.73 0.77 0.80 0.73 0.51 0.48 0.40 0.25 0.30 0.34 0.39 0.40 0.51 0.56
0.69 0.66 0.63 0.66 0.64 0.65 0.65 0.71 0.62 0.61 0.59 0.55 0.59 0.64 0.64 0.59 0.60 0.66 0.64 0.59 0.46 0.42 0.46 0.36 0.37 0.35 0.40 0.47 0.49 0.49 0.57 0.56 0.61 0.63 0.55 0.69 0.52 0.35 0.34 0.42 0.42 0.40 0.38 0.38 0.43 0.51 0.48
0.67 0.65 0.63 0.65 0.63 0.64 0.63 0.63 0.67 0.65 0.61 0.53 0.56 0.63 0.64 0.63 0.61 0.63 0.58 0.49 0.52 0.52 0.32 0.39 0.39 0.42 0.44 0.48 0.34 0.47 0.58 0.42 0.49 0.46 0.59 0.56 0.39 0.47 0.49 0.47 0.43 0.42 0.36 0.37 0.44 0.48 0.46
0.67 0.63 0.62 0.63 0.62 0.64 0.63 0.63 0.63 0.64 0.62 0.53 0.52 0.63 0.66 0.64 0.65 0.60 0.53 0.53 0.67 0.68 0.42 0.43 0.48 0.40 0.42 0.46 0.37 0.43 0.52 0.49 0.47 0.47 0.51 0.46 0.45 0.53 0.45 0.42 0.37 0.38 0.36 0.37 0.38 0.45 0.48
0.64 0.63 0.61 0.62 0.61 0.63 0.62 0.61 0.62 0.65 0.63 0.59 0.46 0.59 0.67 0.67 0.57 0.58 0.54 0.65 0.71 0.69 0.36 0.39 0.44 0.43 0.47 0.48 0.37 0.55 0.57 0.50 0.48 0.45 0.52 0.50 0.54 0.47 0.43 0.39 0.42 0.32 0.43 0.41 0.39 0.38 0.31
0.62 0.63 0.61 0.60 0.60 0.61 0.57 0.58 0.61 0.62 0.63 0.58 0.45 0.55 0.66 0.68 0.56 0.51 0.60 0.71 0.72 0.65 0.21 0.45 0.48 0.68 0.57 0.45 0.43 0.45 0.58 0.53 0.44 0.46 0.51 0.47 0.46 0.43 0.40 0.38 0.47 0.38 0.43 0.37 0.36 0.35 0.35
0.63 0.63 0.62 0.59 0.59 0.59 0.57 0.60 0.60 0.58 0.61 0.55 0.53 0.54 0.64 0.62 0.63 0.63 0.70 0.72 0.64 0.30 0.21 0.39 0.50 0.46 0.44 0.47 0.47 0.55 0.58 0.65 0.63 0.55 0.58 0.52 0.62 0.54 0.49 0.49 0.50 0.49 0.41 0.39 0.40 0.37 0.26
0.63 0.62 0.63 0.59 0.59 0.57 0.57 0.60 0.57 0.55 0.57 0.52 0.51 0.56 0.63 0.64 0.49 0.66 0.68 0.55 0.26 0.19 0.42 0.36 0.42 0.49 0.49 0.44 0.46 0.52 0.48 0.46 0.42 0.38 0.39 0.48 0.49 0.56 0.57 0.44 0.49 0.46 0.35 0.26 0.25 0.26 0.21
0.63 0.63 0.63 0.59 0.59 0.56 0.57 0.57 0.56 0.54 0.53 0.51 0.50 0.60 0.61 0.64 0.67 0.67 0.57 0.34 0.17 0.30 0.35 0.50 0.50 0.51 0.39 0.48 0.49 0.51 0.47 0.40 0.46 0.47 0.37 0.31 0.30 0.45 0.52 0.45 0.39 0.39 0.34 0.24 0.19 0.20 0.24
0.64 0.63 0.61 0.59 0.57 0.55 0.56 0.57 0.55 0.54 0.50 0.53 0.54 0.57 0.54 0.62 0.68 0.64 0.41 0.19 0.22 0.29 0.40 0.41 0.43 0.40 0.41 0.45 0.47 0.47 0.45 0.41 0.44 0.45 0.33 0.29 0.31 0.49 0.51 0.52 0.50 0.40 0.33 0.40 0.29 0.29 0.23
0.62 0.64 0.60 0.60 0.57 0.55 0.57 0.55 0.53 0.52 0.50 0.52 0.49 0.51 0.48 0.66 0.68 0.55 0.29 0.22 0.29 0.39 0.44 0.44 0.33 0.39 0.36 0.41 0.41 0.39 0.40 0.46 0.43 0.49 0.49 0.38 0.28 0.45 0.50 0.55 0.55 0.49 0.51 0.34 0.34 0.21 0.19
0.63 0.62 0.62 0.61 0.58 0.57 0.58 0.55 0.53 0.49 0.49 0.51 0.50 0.39 0.56 0.71 0.68 0.40 0.22 0.26 0.34 0.42 0.44 0.39 0.35 0.35 0.38 0.37 0.41 0.37 0.36 0.41 0.47 0.46 0.46 0.38 0.31 0.34 0.45 0.40 0.39 0.44 0.41 0.40 0.37 0.31 0.22
0.63 0.62 0.62 0.62 0.60 0.61 0.59 0.54 0.52 0.48 0.51 0.47 0.42 0.30 0.63 0.72 0.36 0.36 0.28 0.33 0.40 0.40 0.46 0.42 0.44 0.39 0.36 0.37 0.36 0.36 0.37 0.40 0.49 0.48 0.42 0.49 0.40 0.28 0.32 0.49 0.56 0.53 0.45 0.41 0.31 0.27 0.29
0.63 0.61 0.61 0.63 0.63 0.60 0.58 0.54 0.53 0.49 0.50 0.43 0.35 0.40 0.65 0.65 0.30 0.31 0.36 0.36 0.40 0.38 0.38 0.37 0.36 0.39 0.41 0.35 0.30 0.36 0.39 0.49 0.52 0.50 0.47 0.51 0.38 0.29 0.30 0.38 0.49 0.44 0.47 0.46 0.42 0.38 0.28
0.62 0.60 0.64 0.65 0.63 0.59 0.57 0.53 0.53 0.48 0.49 0.45 0.35 0.26 0.43 0.49 0.48 0.39 0.36 0.33 0.34 0.42 0.39 0.40 0.36 0.39 0.35 0.33 0.36 0.32 0.35 0.44 0.50 0.48 0.51 0.49 0.42 0.34 0.27 0.31 0.37 0.37 0.43 0.46 0.43 0.33 0.31
0.59 0.61 0.66 0.65 0.62 0.60 0.57 0.55 0.52 0.48 0.44 0.43 0.32 0.26 0.35 0.31 0.37 0.39 0.41 0.39 0.33 0.33 0.41 0.42 0.36 0.36 0.33 0.27 0.30 0.31 0.36 0.39 0.44 0.45 0.46 0.42 0.31 0.38 0.37 0.39 0.40 0.40 0.41 0.43 0.39 0.41 0.34
0.60 0.64 0.67 0.66 0.62 0.60 0.57 0.55 0.55 0.49 0.42 0.32 0.28 0.27 0.30 0.28 0.43 0.41 0.40 0.39 0.37 0.37 0.37 0.36 0.34 0.37 0.37 0.32 0.33 0.31 0.35 0.35 0.34 0.40 0.38 0.41 0.30 0.32 0.30 0.34 0.33 0.30 0.35 0.41 0.41 0.42 0.41
0.60 0.65 0.67 0.65 0.63 0.61 0.58 0.58 0.58 0.54 0.45 0.31 0.35 0.39 0.35 0.32 0.36 0.39 0.38 0.38 0.40 0.42 0.42 0.44 0.42 0.38 0.35 0.39 0.43 0.43 0.44 0.42 0.39 0.35 0.34 0.32 0.29 0.27 0.22 0.29 0.27 0.21 0.25 0.28 0.32 0.37 0.38
0.62 0.65 0.65 0.66 0.62 0.60 0.59 0.60 0.58 0.56 0.50 0.42 0.38 0.33 0.26 0.24 0.30 0.33 0.39 0.41 0.40 0.43 0.38 0.44 0.45 0.40 0.44 0.51 0.50 0.47 0.45 0.44 0.43 0.39 0.41 0.32 0.29 0.28 0.24 0.27 0.16 0.23 0.34 0.32 0.27 0.29 0.34
0.64 0.64 0.64 0.67 0.64 0.61 0.60 0.61 0.60 0.59 0.52 0.41 0.39 0.27 0.21 0.18 0.27 0.30 0.35 0.37 0.41 0.44 0.43 0.43 0.48 0.49 0.55 0.46 0.36 0.32 0.32 0.33 0.36 0.41 0.39 0.39 0.33 0.25 0.21 0.20 0.22 0.24 0.30 0.29 0.28 0.26 0.33
0.64 0.65 0.65 0.67 0.64 0.61 0.61 0.63 0.59 0.56 0.54 0.46 0.43 0.41 0.28 0.17 0.18 0.34 0.35 0.39 0.35 0.41 0.43 0.49 0.60 0.60 0.52 0.40 0.34 0.24 0.21 0.26 0.27 0.32 0.42 0.42 0.38 0.28 0.26 0.19 0.15 0.29 0.36 0.41 0.39 0.22 0.37
0.63 0.64 0.63 0.65 0.62 0.60 0.59 0.61 0.61 0.58 0.55 0.51 0.44 0.48 0.35 0.22 0.22 0.25 0.29 0.33 0.37 0.43 0.41 0.50 0.52 0.49 0.54 0.40 0.31 0.28 0.25 0.32 0.25 0.26 0.28 0.32 0.33 0.26 0.25 0.22 0.23 0.30 0.41 0.44 0.24 0.28 0.44
0.64 0.61 0.61 0.63 0.60 0.59 0.58 0.60 0.59 0.57 0.58 0.54 0.45 0.52 0.41 0.33 0.31 0.30 0.27 0.33 0.40 0.39 0.38 0.49 0.51 0.51 0.46 0.38 0.35 0.33 0.30 0.32 0.29 0.32 0.30 0.29 0.28 0.28 0.27 0.22 0.17 0.40 0.40 0.32 0.44 0.54 0.48
0.62 0.62 0.61 0.60 0.59 0.57 0.58 0.58 0.60 0.56 0.56 0.57 0.43 0.55 0.56 0.42 0.38 0.46 0.44 0.40 0.40 0.43 0.43 0.48 0.51 0.51 0.55 0.43 0.42 0.42 0.35 0.37 0.32 0.26 0.39 0.28 0.31 0.29 0.30 0.27 0.37 0.45 0.42 0.50 0.54 0.55 0.56

GFSGBSN_prec_pwat_069.txt.gz
Precipitable_Water
0.75 0.73 0.68 0.69 0.68 0.69 0.71 0.74 0.64 0.57 0.63 0.66 0.65 0.66 0.61 0.62 0.65 0.67 0.67 0.67 0.69 0.72 0.72 0.70 0.66 0.65 0.58 0.42 0.38 0.71 0.71 0.81 0.85 0.78 0.72 0.74 0.54 0.44 0.42 0.53 0.60 0.63 0.73 0.80 0.86 0.91 0.90
0.75 0.72 0.68 0.68 0.68 0.68 0.71 0.66 0.62 0.55 0.60 0.65 0.66 0.65 0.65 0.58 0.61 0.62 0.66 0.68 0.65 0.63 0.63 0.63 0.67 0.65 0.48 0.30 0.55 0.63 0.68 0.70 0.71 0.74 0.67 0.78 0.59 0.52 0.49 0.52 0.51 0.61 0.66 0.72 0.77 0.81 0.83
0.75 0.72 0.68 0.68 0.68 0.67 0.69 0.67 0.55 0.53 0.57 0.63 0.66 0.64 0.63 0.60 0.57 0.57 0.57 0.59 0.61 0.63 0.65 0.65 0.62 0.56 0.43 0.36 0.56 0.61 0.61 0.64 0.70 0.70 0.64 0.80 0.80 0.50 0.55 0.47 0.63 0.62 0.54 0.65 0.70 0.75 0.78
0.74 0.71 0.68 0.65 0.70 0.64 0.68 0.71 0.63 0.58 0.55 0.58 0.63 0.66 0.63 0.63 0.58 0.62 0.63 0.57 0.59 0.60 0.63 0.66 0.66 0.54 0.32 0.55 0.61 0.56 0.62 0.67 0.69 0.79 0.74 0.91 0.94 0.55 0.54 0.59 0.54 0.53 0.56 0.45 0.62 0.70 0.77
0.73 0.70 0.67 0.65 0.66 0.67 0.65 0.67 0.68 0.63 0.62 0.55 0.60 0.64 0.65 0.61 0.62 0.64 0.67 0.67 0.58 0.58 0.57 0.60 0.52 0.46 0.31 0.58 0.50 0.57 0.65 0.61 0.70 0.77 0.78 0.93 0.92 0.57 0.54 0.41 0.35 0.46 0.36 0.41 0.52 0.67 0.66
0.73 0.69 0.67 0.64 0.66 0.63 0.66 0.64 0.66 0.68 0.66 0.59 0.52 0.64 0.66 0.66 0.63 0.66 0.67 0.66 0.62 0.61 0.61 0.61 0.55 0.39 0.44 0.40 0.48 0.53 0.63 0.68 0.63 0.60 0.69 0.72 0.74 0.49 0.47 0.38 0.16 0.21 0.30 0.39 0.41 0.54 0.60
0.72 0.67 0.66 0.64 0.65 0.63 0.67 0.63 0.63 0.66 0.68 0.65 0.50 0.55 0.67 0.67 0.66 0.66 0.62 0.60 0.51 0.45 0.47 0.33 0.37 0.36 0.42 0.50 0.51 0.51 0.61 0.62 0.57 0.56 0.48 0.63 0.52 0.36 0.33 0.39 0.36 0.33 0.36 0.38 0.45 0.53 0.52
0.72 0.64 0.65 0.64 0.64 0.61 0.62 0.59 0.59 0.64 0.67 0.64 0.59 0.51 0.64 0.67 0.68 0.67 0.58 0.46 0.50 0.52 0.35 0.44 0.39 0.40 0.46 0.48 0.35 0.47 0.62 0.44 0.44 0.41 0.55 0.54 0.43 0.51 0.50 0.48 0.39 0.36 0.37 0.37 0.44 0.53 0.52
0.72 0.64 0.65 0.63 0.63 0.60 0.61 0.59 0.59 0.62 0.63 0.66 0.64 0.48 0.63 0.66 0.68 0.62 0.55 0.51 0.65 0.68 0.43 0.45 0.47 0.39 0.39 0.43 0.36 0.41 0.51 0.45 0.41 0.42 0.45 0.44 0.52 0.53 0.49 0.44 0.37 0.37 0.32 0.37 0.37 0.48 0.52
0.71 0.65 0.64 0.63 0.61 0.59 0.59 0.56 0.60 0.60 0.61 0.64 0.60 0.50 0.62 0.66 0.57 0.59 0.55 0.64 0.69 0.66 0.35 0.39 0.42 0.40 0.45 0.43 0.33 0.53 0.57 0.50 0.45 0.39 0.47 0.51 0.59 0.49 0.47 0.41 0.41 0.32 0.45 0.43 0.41 0.40 0.33
0.71 0.66 0.65 0.64 0.59 0.58 0.58 0.57 0.59 0.59 0.59 0.62 0.57 0.55 0.63 0.66 0.54 0.50 0.60 0.68 0.71 0.62 0.20 0.45 0.45 0.64 0.52 0.41 0.40 0.44 0.57 0.51 0.41 0.47 0.51 0.47 0.49 0.45 0.41 0.42 0.45 0.36 0.46 0.45 0.42 0.39 0.38
0.69 0.66 0.66 0.65 0.59 0.59 0.56 0.57 0.57 0.58 0.58 0.58 0.53 0.59 0.62 0.63 0.63 0.62 0.68 0.70 0.64 0.29 0.21 0.40 0.49 0.45 0.41 0.44 0.43 0.44 0.49 0.59 0.60 0.52 0.56 0.54 0.61 0.55 0.48 0.50 0.48 0.48 0.42 0.41 0.41 0.37 0.25
0.68 0.66 0.65 0.63 0.61 0.59 0.56 0.58 0.58 0.56 0.56 0.55 0.52 0.61 0.63 0.66 0.50 0.67 0.67 0.53 0.27 0.21 0.41 0.39 0.42 0.46 0.41 0.39 0.41 0.45 0.40 0.39 0.40 0.37 0.39 0.48 0.49 0.55 0.55 0.41 0.49 0.45 0.36 0.24 0.23 0.23 0.19
0.67 0.65 0.65 0.61 0.61 0.59 0.56 0.58 0.56 0.55 0.53 0.54 0.52 0.61 0.66 0.64 0.70 0.66 0.56 0.32 0.18 0.30 0.34 0.50 0.49 0.48 0.38 0.44 0.44 0.44 0.36 0.37 0.51 0.49 0.41 0.35 0.32 0.48 0.54 0.42 0.37 0.40 0.35 0.23 0.15 0.16 0.19
0.66 0.64 0.63 0.62 0.61 0.60 0.58 0.58 0.55 0.55 0.50 0.53 0.56 0.57 0.59 0.62 0.70 0.65 0.40 0.18 0.22 0.29 0.40 0.40 0.45 0.38 0.39 0.47 0.47 0.44 0.43 0.39 0.40 0.49 0.36 0.35 0.34 0.53 0.54 0.53 0.45 0.38 0.32 0.37 0.25 0.26 0.23
0.67 0.64 0.62 0.63 0.62 0.62 0.59 0.57 0.54 0.55 0.49 0.52 0.50 0.51 0.52 0.69 0.70 0.55 0.31 0.22 0.28 0.39 0.43 0.43 0.33 0.40 0.33 0.38 0.41 0.41 0.41 0.48 0.43 0.53 0.51 0.39 0.30 0.46 0.50 0.52 0.51 0.44 0.45 0.29 0.28 0.17 0.16
0.66 0.64 0.61 0.63 0.63 0.64 0.58 0.56 0.54 0.54 0.51 0.53 0.49 0.41 0.60 0.73 0.67 0.41 0.23 0.26 0.32 0.43 0.44 0.38 0.37 0.37 0.39 0.37 0.39 0.36 0.37 0.44 0.48 0.47 0.49 0.41 0.34 0.35 0.44 0.36 0.34 0.38 0.34 0.35 0.35 0.28 0.19
0.65 0.62 0.60 0.64 0.67 0.62 0.59 0.53 0.54 0.52 0.52 0.46 0.42 0.28 0.65 0.71 0.35 0.36 0.27 0.33 0.41 0.40 0.46 0.43 0.45 0.40 0.37 0.39 0.37 0.35 0.34 0.40 0.51 0.51 0.40 0.43 0.34 0.28 0.34 0.46 0.49 0.46 0.38 0.39 0.28 0.25 0.27
0.65 0.60 0.61 0.67 0.66 0.62 0.59 0.53 0.54 0.52 0.50 0.42 0.33 0.36 0.59 0.62 0.27 0.29 0.36 0.35 0.39 0.38 0.39 0.39 0.37 0.40 0.41 0.36 0.32 0.39 0.39 0.47 0.49 0.46 0.41 0.43 0.34 0.25 0.27 0.36 0.45 0.40 0.42 0.44 0.40 0.36 0.26
0.65 0.59 0.64 0.67 0.65 0.61 0.58 0.54 0.55 0.52 0.47 0.46 0.33 0.25 0.37 0.44 0.44 0.36 0.32 0.34 0.33 0.42 0.39 0.40 0.38 0.41 0.37 0.33 0.37 0.32 0.38 0.47 0.51 0.49 0.53 0.52 0.41 0.33 0.24 0.24 0.31 0.32 0.40 0.45 0.42 0.31 0.29
0.64 0.61 0.64 0.66 0.63 0.59 0.58 0.56 0.56 0.52 0.44 0.43 0.31 0.23 0.32 0.26 0.33 0.37 0.38 0.36 0.32 0.32 0.41 0.42 0.36 0.36 0.34 0.28 0.31 0.31 0.37 0.40 0.47 0.49 0.48 0.46 0.35 0.40 0.40 0.39 0.39 0.36 0.36 0.42 0.38 0.39 0.32
0.62 0.62 0.65 0.65 0.62 0.58 0.58 0.60 0.57 0.53 0.43 0.35 0.25 0.25 0.29 0.26 0.36 0.36 0.38 0.36 0.34 0.36 0.37 0.36 0.35 0.38 0.37 0.32 0.31 0.30 0.36 0.37 0.37 0.42 0.40 0.44 0.33 0.35 0.34 0.38 0.36 0.34 0.37 0.41 0.43 0.43 0.42
0.61 0.61 0.67 0.64 0.60 0.57 0.61 0.59 0.58 0.53 0.45 0.32 0.32 0.34 0.30 0.29 0.32 0.34 0.35 0.38 0.39 0.43 0.42 0.44 0.43 0.38 0.35 0.38 0.43 0.44 0.44 0.43 0.40 0.36 0.36 0.35 0.31 0.29 0.24 0.31 0.31 0.23 0.27 0.32 0.38 0.41 0.39
0.60 0.64 0.66 0.65 0.60 0.58 0.62 0.59 0.59 0.55 0.46 0.40 0.36 0.29 0.19 0.18 0.25 0.30 0.35 0.39 0.42 0.43 0.38 0.43 0.45 0.39 0.45 0.52 0.49 0.47 0.44 0.43 0.43 0.40 0.41 0.33 0.30 0.27 0.22 0.27 0.18 0.25 0.34 0.31 0.27 0.29 0.34
0.61 0.64 0.68 0.65 0.61 0.58 0.62 0.57 0.57 0.55 0.55 0.46 0.42 0.31 0.21 0.13 0.18 0.23 0.31 0.37 0.43 0.45 0.41 0.43 0.47 0.51 0.55 0.46 0.35 0.31 0.32 0.33 0.36 0.41 0.40 0.39 0.33 0.25 0.20 0.20 0.23 0.23 0.28 0.29 0.27 0.25 0.32
0.64 0.66 0.68 0.66 0.61 0.57 0.60 0.58 0.60 0.58 0.56 0.49 0.46 0.46 0.34 0.19 0.15 0.20 0.23 0.33 0.37 0.39 0.38 0.46 0.57 0.60 0.52 0.41 0.33 0.22 0.21 0.26 0.26 0.31 0.41 0.41 0.39 0.29 0.25 0.18 0.14 0.26 0.35 0.39 0.38 0.22 0.38
0.66 0.66 0.67 0.64 0.60 0.57 0.58 0.57 0.57 0.55 0.58 0.53 0.47 0.50 0.39 0.26 0.29 0.24 0.17 0.21 0.34 0.39 0.37 0.45 0.50 0.51 0.54 0.38 0.29 0.25 0.23 0.30 0.23 0.24 0.27 0.30 0.32 0.28 0.27 0.22 0.23 0.31 0.38 0.42 0.23 0.25 0.45
0.66 0.67 0.64 0.61 0.58 0.57 0.57 0.56 0.58 0.54 0.57 0.54 0.46 0.54 0.44 0.33 0.34 0.36 0.32 0.20 0.24 0.36 0.36 0.47 0.48 0.51 0.46 0.36 0.34 0.31 0.29 0.30 0.29 0.32 0.29 0.28 0.27 0.27 0.29 0.24 0.19 0.39 0.41 0.29 0.40 0.51 0.47
0.69 0.64 0.62 0.60 0.56 0.56 0.55 0.57 0.59 0.53 0.54 0.54 0.39 0.52 0.56 0.41 0.38 0.46 0.45 0.43 0.37 0.32 0.39 0.44 0.46 0.49 0.51 0.44 0.42 0.41 0.35 0.37 0.33 0.26 0.38 0.27 0.31 0.28 0.29 0.28 0.37 0.43 0.44 0.47 0.50 0.50 0.53

GFSGBSN_prec_pwat_072.txt.gz
Precipitable_Water
0.76 0.76 0.72 0.69 0.70 0.69 0.67 0.68 0.57 0.53 0.54 0.63 0.66 0.65 0.64 0.65 0.57 0.58 0.64 0.65 0.65 0.63 0.60 0.61 0.66 0.68 0.60 0.41 0.37 0.69 0.73 0.84 0.90 0.89 0.69 0.74 0.64 0.49 0.41 0.52 0.55 0.49 0.68 0.79 0.84 0.87 0.86
0.76 0.76 0.72 0.67 0.70 0.66 0.68 0.67 0.67 0.59 0.54 0.55 0.64 0.68 0.65 0.65 0.60 0.59 0.59 0.61 0.61 0.60 0.59 0.60 0.64 0.66 0.49 0.31 0.55 0.64 0.70 0.73 0.78 0.76 0.69 0.77 0.67 0.58 0.49 0.51 0.51 0.57 0.58 0.68 0.86 0.83 0.85
0.78 0.75 0.72 0.67 0.67 0.69 0.66 0.65 0.67 0.67 0.66 0.57 0.56 0.65 0.68 0.65 0.64 0.64 0.64 0.58 0.63 0.62 0.63 0.61 0.59 0.53 0.41 0.36 0.56 0.60 0.64 0.69 0.75 0.72 0.70 0.76 0.83 0.58 0.54 0.48 0.64 0.60 0.51 0.66 0.73 0.81 0.79
0.79 0.76 0.72 0.67 0.67 0.64 0.67 0.65 0.66 0.66 0.70 0.68 0.58 0.58 0.68 0.69 0.65 0.66 0.68 0.69 0.58 0.60 0.62 0.63 0.62 0.48 0.29 0.55 0.62 0.56 0.61 0.62 0.71 0.80 0.75 0.83 0.93 0.65 0.54 0.59 0.54 0.52 0.49 0.44 0.66 0.73 0.77
0.79 0.75 0.71 0.67 0.65 0.65 0.64 0.66 0.63 0.64 0.67 0.71 0.66 0.53 0.63 0.69 0.67 0.69 0.70 0.68 0.63 0.58 0.59 0.60 0.48 0.40 0.28 0.58 0.50 0.55 0.58 0.51 0.62 0.74 0.77 0.83 0.86 0.62 0.55 0.41 0.38 0.47 0.33 0.36 0.49 0.66 0.66
0.79 0.74 0.70 0.67 0.65 0.65 0.63 0.63 0.60 0.62 0.66 0.68 0.67 0.58 0.57 0.69 0.69 0.69 0.71 0.70 0.68 0.62 0.61 0.60 0.52 0.34 0.41 0.38 0.47 0.52 0.62 0.61 0.60 0.64 0.63 0.68 0.69 0.51 0.44 0.34 0.19 0.28 0.33 0.35 0.37 0.51 0.56
0.79 0.74 0.69 0.67 0.66 0.64 0.62 0.64 0.65 0.64 0.65 0.66 0.67 0.65 0.52 0.67 0.69 0.70 0.65 0.63 0.51 0.46 0.49 0.35 0.35 0.34 0.40 0.47 0.50 0.50 0.61 0.60 0.59 0.62 0.44 0.57 0.50 0.38 0.32 0.35 0.36 0.33 0.32 0.33 0.43 0.53 0.50
0.81 0.76 0.68 0.68 0.66 0.64 0.62 0.62 0.59 0.64 0.63 0.63 0.67 0.66 0.51 0.66 0.67 0.71 0.59 0.48 0.49 0.52 0.36 0.46 0.41 0.38 0.44 0.45 0.33 0.49 0.64 0.46 0.48 0.40 0.50 0.50 0.43 0.52 0.48 0.41 0.34 0.33 0.29 0.29 0.42 0.52 0.51
0.81 0.76 0.69 0.69 0.67 0.64 0.61 0.60 0.61 0.62 0.63 0.61 0.65 0.63 0.51 0.66 0.66 0.62 0.54 0.52 0.66 0.67 0.41 0.43 0.44 0.38 0.39 0.41 0.34 0.43 0.55 0.51 0.43 0.38 0.43 0.43 0.50 0.57 0.46 0.42 0.32 0.32 0.27 0.30 0.36 0.48 0.52
0.81 0.76 0.69 0.70 0.68 0.64 0.61 0.58 0.60 0.61 0.61 0.60 0.62 0.59 0.55 0.66 0.58 0.57 0.53 0.65 0.69 0.66 0.35 0.37 0.40 0.39 0.43 0.44 0.32 0.54 0.58 0.49 0.41 0.38 0.44 0.47 0.58 0.53 0.45 0.41 0.40 0.28 0.38 0.37 0.38 0.37 0.31
0.80 0.75 0.69 0.69 0.68 0.63 0.62 0.58 0.60 0.61 0.58 0.58 0.59 0.57 0.62 0.65 0.54 0.48 0.58 0.67 0.71 0.61 0.20 0.44 0.43 0.61 0.47 0.39 0.38 0.41 0.58 0.47 0.35 0.42 0.44 0.43 0.48 0.50 0.46 0.44 0.47 0.36 0.43 0.38 0.39 0.39 0.37
0.80 0.74 0.68 0.69 0.68 0.63 0.61 0.59 0.60 0.59 0.57 0.55 0.57 0.55 0.65 0.62 0.62 0.60 0.67 0.68 0.63 0.30 0.21 0.38 0.49 0.42 0.36 0.37 0.38 0.42 0.46 0.58 0.54 0.44 0.46 0.50 0.62 0.58 0.51 0.54 0.50 0.48 0.44 0.41 0.41 0.38 0.28
0.78 0.70 0.67 0.69 0.66 0.63 0.61 0.61 0.60 0.58 0.55 0.53 0.55 0.58 0.63 0.64 0.51 0.67 0.67 0.54 0.26 0.21 0.41 0.35 0.40 0.44 0.40 0.34 0.36 0.40 0.36 0.33 0.31 0.29 0.31 0.46 0.50 0.59 0.57 0.47 0.50 0.43 0.36 0.25 0.24 0.24 0.22
0.77 0.68 0.68 0.69 0.66 0.64 0.62 0.62 0.58 0.57 0.54 0.52 0.54 0.63 0.63 0.64 0.70 0.65 0.56 0.32 0.17 0.30 0.34 0.46 0.44 0.44 0.37 0.40 0.39 0.40 0.35 0.33 0.48 0.47 0.39 0.36 0.33 0.50 0.54 0.46 0.40 0.39 0.35 0.24 0.15 0.17 0.20
0.77 0.68 0.68 0.67 0.64 0.65 0.65 0.61 0.57 0.56 0.52 0.53 0.57 0.59 0.59 0.64 0.70 0.64 0.39 0.19 0.21 0.29 0.39 0.40 0.41 0.36 0.36 0.39 0.39 0.40 0.38 0.38 0.49 0.53 0.38 0.36 0.35 0.55 0.54 0.53 0.46 0.39 0.32 0.38 0.25 0.25 0.19
0.75 0.69 0.67 0.65 0.63 0.67 0.64 0.60 0.57 0.55 0.51 0.54 0.49 0.50 0.54 0.70 0.71 0.55 0.31 0.22 0.28 0.38 0.43 0.43 0.32 0.38 0.33 0.36 0.35 0.37 0.37 0.44 0.44 0.57 0.53 0.42 0.32 0.47 0.50 0.52 0.49 0.43 0.44 0.30 0.28 0.16 0.13
0.72 0.69 0.66 0.63 0.65 0.66 0.62 0.59 0.57 0.55 0.51 0.52 0.49 0.39 0.58 0.74 0.67 0.42 0.24 0.26 0.33 0.43 0.44 0.39 0.37 0.36 0.37 0.38 0.38 0.33 0.35 0.44 0.47 0.47 0.49 0.44 0.37 0.38 0.47 0.40 0.36 0.37 0.34 0.35 0.33 0.26 0.16
0.72 0.68 0.63 0.63 0.66 0.65 0.60 0.57 0.56 0.53 0.49 0.47 0.42 0.29 0.63 0.71 0.36 0.35 0.28 0.32 0.40 0.40 0.47 0.44 0.44 0.40 0.38 0.38 0.34 0.32 0.33 0.38 0.51 0.49 0.40 0.45 0.38 0.31 0.35 0.46 0.49 0.45 0.36 0.34 0.24 0.21 0.24
0.71 0.67 0.63 0.65 0.65 0.63 0.58 0.57 0.56 0.52 0.48 0.43 0.34 0.38 0.58 0.61 0.26 0.29 0.36 0.36 0.40 0.38 0.40 0.40 0.39 0.40 0.41 0.37 0.33 0.37 0.38 0.47 0.51 0.48 0.43 0.44 0.34 0.25 0.29 0.36 0.43 0.36 0.39 0.39 0.36 0.32 0.23
0.71 0.66 0.64 0.65 0.64 0.61 0.58 0.55 0.57 0.52 0.47 0.45 0.34 0.28 0.38 0.44 0.43 0.35 0.33 0.34 0.34 0.44 0.40 0.42 0.40 0.41 0.36 0.35 0.39 0.35 0.37 0.44 0.48 0.48 0.51 0.48 0.36 0.29 0.22 0.25 0.33 0.31 0.34 0.38 0.36 0.26 0.26
0.69 0.65 0.66 0.66 0.65 0.60 0.57 0.58 0.56 0.51 0.45 0.40 0.32 0.26 0.34 0.26 0.31 0.34 0.37 0.37 0.34 0.34 0.41 0.43 0.37 0.37 0.35 0.30 0.31 0.32 0.40 0.44 0.48 0.50 0.47 0.43 0.32 0.37 0.38 0.38 0.36 0.34 0.32 0.36 0.33 0.34 0.29
0.68 0.65 0.69 0.69 0.64 0.60 0.58 0.60 0.57 0.50 0.39 0.32 0.25 0.24 0.28 0.23 0.34 0.34 0.34 0.35 0.36 0.37 0.38 0.37 0.36 0.39 0.37 0.31 0.32 0.30 0.37 0.38 0.38 0.46 0.44 0.46 0.34 0.37 0.37 0.42 0.39 0.34 0.36 0.39 0.37 0.38 0.38
0.70 0.65 0.70 0.70 0.63 0.61 0.61 0.60 0.57 0.46 0.40 0.31 0.32 0.33 0.27 0.26 0.27 0.30 0.30 0.35 0.38 0.43 0.45 0.45 0.44 0.40 0.37 0.39 0.43 0.44 0.44 0.43 0.42 0.38 0.37 0.36 0.33 0.31 0.26 0.33 0.33 0.27 0.30 0.31 0.36 0.41 0.40
0.70 0.67 0.70 0.70 0.64 0.62 0.61 0.59 0.58 0.49 0.46 0.38 0.35 0.28 0.19 0.16 0.23 0.26 0.30 0.37 0.38 0.43 0.39 0.44 0.46 0.39 0.45 0.54 0.49 0.47 0.45 0.43 0.42 0.40 0.40 0.32 0.31 0.29 0.23 0.26 0.17 0.27 0.35 0.35 0.30 0.32 0.37
0.69 0.68 0.71 0.70 0.63 0.60 0.61 0.61 0.59 0.53 0.50 0.43 0.42 0.34 0.23 0.15 0.18 0.20 0.24 0.30 0.40 0.45 0.46 0.43 0.49 0.53 0.56 0.45 0.36 0.31 0.32 0.34 0.36 0.41 0.40 0.40 0.33 0.26 0.21 0.20 0.21 0.24 0.30 0.30 0.29 0.27 0.34
0.70 0.67 0.73 0.68 0.60 0.59 0.60 0.60 0.60 0.55 0.54 0.47 0.46 0.46 0.33 0.20 0.18 0.20 0.18 0.23 0.27 0.36 0.41 0.46 0.55 0.62 0.54 0.39 0.32 0.23 0.20 0.26 0.27 0.32 0.41 0.41 0.40 0.30 0.26 0.19 0.14 0.23 0.36 0.39 0.38 0.23 0.42
0.66 0.70 0.72 0.67 0.61 0.61 0.61 0.60 0.60 0.54 0.55 0.49 0.47 0.51 0.39 0.25 0.29 0.27 0.17 0.16 0.23 0.30 0.36 0.43 0.45 0.47 0.55 0.37 0.27 0.24 0.23 0.29 0.22 0.24 0.26 0.29 0.31 0.27 0.27 0.24 0.25 0.31 0.34 0.39 0.22 0.24 0.44
0.71 0.68 0.69 0.66 0.61 0.61 0.60 0.61 0.60 0.55 0.54 0.48 0.45 0.53 0.43 0.32 0.34 0.36 0.34 0.26 0.21 0.21 0.24 0.40 0.43 0.48 0.46 0.36 0.32 0.30 0.27 0.27 0.26 0.29 0.28 0.27 0.25 0.25 0.28 0.24 0.21 0.39 0.41 0.29 0.36 0.44 0.46
0.70 0.68 0.67 0.65 0.59 0.58 0.58 0.59 0.57 0.54 0.53 0.48 0.41 0.53 0.55 0.40 0.37 0.46 0.46 0.44 0.39 0.36 0.25 0.32 0.43 0.47 0.48 0.41 0.42 0.41 0.33 0.35 0.31 0.24 0.37 0.27 0.31 0.27 0.29 0.27 0.37 0.42 0.44 0.47 0.49 0.46 0.49

GFSGBSN_prec_pwat_075.txt.gz
Precipitable_Water
0.84 0.76 0.76 0.72 0.68 0.73 0.66 0.69 0.68 0.70 0.70 0.63 0.56 0.63 0.66 0.67 0.66 0.59 0.58 0.65 0.63 0.63 0.62 0.62 0.62 0.64 0.58 0.41 0.38 0.63 0.70 0.80 0.90 0.91 0.75 0.73 0.70 0.51 0.41 0.49 0.57 0.55 0.63 0.74 0.81 0.82 0.82
0.83 0.77 0.76 0.73 0.71 0.68 0.68 0.69 0.67 0.65 0.68 0.72 0.68 0.56 0.62 0.67 0.68 0.62 0.66 0.59 0.65 0.63 0.63 0.64 0.64 0.63 0.47 0.30 0.55 0.61 0.66 0.78 0.81 0.84 0.69 0.76 0.75 0.63 0.49 0.49 0.49 0.56 0.61 0.68 0.79 0.84 0.84
0.85 0.76 0.76 0.72 0.72 0.70 0.64 0.69 0.64 0.63 0.67 0.69 0.72 0.62 0.53 0.66 0.69 0.68 0.67 0.72 0.62 0.64 0.64 0.62 0.59 0.51 0.38 0.36 0.56 0.60 0.65 0.70 0.76 0.77 0.65 0.75 0.85 0.64 0.58 0.48 0.63 0.57 0.45 0.58 0.67 0.76 0.79
0.87 0.78 0.74 0.73 0.72 0.70 0.68 0.66 0.66 0.64 0.65 0.67 0.67 0.69 0.55 0.60 0.69 0.67 0.70 0.68 0.69 0.61 0.62 0.63 0.60 0.46 0.29 0.54 0.60 0.55 0.61 0.65 0.80 0.80 0.75 0.81 0.85 0.70 0.59 0.61 0.57 0.47 0.49 0.35 0.53 0.64 0.80
0.92 0.81 0.75 0.72 0.72 0.72 0.69 0.64 0.65 0.63 0.65 0.66 0.66 0.68 0.63 0.54 0.68 0.67 0.72 0.69 0.69 0.62 0.60 0.61 0.46 0.38 0.28 0.57 0.45 0.52 0.58 0.53 0.69 0.74 0.77 0.82 0.83 0.64 0.58 0.42 0.41 0.45 0.30 0.33 0.43 0.63 0.65
0.96 0.85 0.76 0.73 0.72 0.72 0.70 0.63 0.65 0.60 0.65 0.66 0.65 0.68 0.66 0.52 0.66 0.68 0.74 0.69 0.70 0.65 0.61 0.58 0.51 0.31 0.41 0.38 0.46 0.48 0.59 0.58 0.60 0.64 0.63 0.64 0.63 0.55 0.48 0.37 0.20 0.27 0.33 0.36 0.33 0.50 0.56
1.00 0.88 0.78 0.75 0.71 0.72 0.70 0.64 0.61 0.63 0.64 0.65 0.64 0.66 0.65 0.53 0.66 0.68 0.68 0.60 0.49 0.46 0.50 0.33 0.33 0.33 0.37 0.48 0.52 0.48 0.56 0.52 0.54 0.56 0.45 0.56 0.47 0.40 0.40 0.40 0.36 0.36 0.35 0.36 0.40 0.51 0.51
1.05 0.88 0.80 0.77 0.72 0.71 0.70 0.64 0.63 0.62 0.62 0.62 0.63 0.64 0.62 0.53 0.66 0.68 0.60 0.47 0.49 0.52 0.36 0.45 0.42 0.37 0.42 0.46 0.35 0.47 0.59 0.43 0.43 0.39 0.51 0.47 0.41 0.52 0.53 0.44 0.37 0.36 0.33 0.35 0.44 0.48 0.48
1.07 0.90 0.83 0.77 0.72 0.71 0.69 0.64 0.61 0.62 0.62 0.60 0.61 0.61 0.60 0.60 0.65 0.61 0.52 0.50 0.64 0.64 0.40 0.45 0.46 0.37 0.38 0.42 0.37 0.47 0.56 0.48 0.44 0.41 0.46 0.40 0.46 0.57 0.50 0.43 0.35 0.34 0.30 0.33 0.32 0.43 0.51
1.04 0.92 0.83 0.75 0.71 0.70 0.68 0.64 0.61 0.62 0.59 0.59 0.58 0.59 0.58 0.63 0.57 0.55 0.50 0.61 0.67 0.65 0.33 0.37 0.40 0.39 0.41 0.44 0.37 0.60 0.61 0.48 0.46 0.40 0.46 0.46 0.57 0.52 0.49 0.40 0.36 0.26 0.36 0.33 0.31 0.33 0.27
1.03 0.92 0.83 0.74 0.70 0.70 0.66 0.63 0.63 0.63 0.59 0.58 0.56 0.59 0.58 0.64 0.54 0.46 0.54 0.64 0.68 0.58 0.18 0.43 0.44 0.57 0.45 0.39 0.40 0.46 0.63 0.50 0.42 0.42 0.47 0.44 0.46 0.48 0.43 0.41 0.45 0.33 0.39 0.36 0.35 0.33 0.33
1.06 0.92 0.82 0.72 0.70 0.69 0.65 0.64 0.65 0.62 0.58 0.56 0.55 0.58 0.62 0.62 0.61 0.59 0.63 0.66 0.61 0.29 0.19 0.37 0.48 0.36 0.30 0.34 0.36 0.43 0.48 0.58 0.52 0.42 0.49 0.50 0.62 0.58 0.47 0.53 0.48 0.44 0.38 0.37 0.37 0.33 0.22
1.04 0.92 0.79 0.72 0.70 0.67 0.65 0.65 0.64 0.62 0.58 0.55 0.56 0.62 0.63 0.66 0.49 0.66 0.63 0.52 0.25 0.21 0.39 0.35 0.37 0.41 0.34 0.31 0.32 0.36 0.36 0.35 0.31 0.30 0.35 0.45 0.47 0.59 0.59 0.48 0.51 0.44 0.34 0.23 0.20 0.21 0.20
1.02 0.90 0.77 0.71 0.69 0.66 0.66 0.65 0.63 0.61 0.57 0.55 0.58 0.65 0.65 0.65 0.68 0.66 0.54 0.31 0.17 0.31 0.33 0.47 0.43 0.42 0.33 0.35 0.35 0.34 0.32 0.29 0.39 0.40 0.36 0.33 0.31 0.49 0.56 0.51 0.40 0.41 0.36 0.22 0.14 0.16 0.19
1.03 0.86 0.73 0.69 0.67 0.66 0.66 0.64 0.62 0.60 0.56 0.56 0.60 0.61 0.61 0.65 0.69 0.64 0.39 0.19 0.21 0.29 0.41 0.41 0.42 0.34 0.34 0.38 0.36 0.38 0.34 0.33 0.37 0.42 0.31 0.32 0.35 0.55 0.56 0.56 0.49 0.39 0.33 0.36 0.25 0.25 0.20
1.07 0.83 0.70 0.68 0.65 0.66 0.66 0.62 0.59 0.58 0.55 0.56 0.51 0.52 0.55 0.71 0.72 0.55 0.32 0.23 0.28 0.39 0.44 0.45 0.33 0.38 0.31 0.33 0.33 0.34 0.32 0.43 0.47 0.52 0.51 0.41 0.33 0.50 0.53 0.55 0.53 0.44 0.42 0.28 0.26 0.15 0.13
1.11 0.82 0.68 0.66 0.64 0.66 0.65 0.60 0.57 0.55 0.53 0.55 0.50 0.40 0.59 0.73 0.68 0.43 0.24 0.27 0.34 0.42 0.44 0.41 0.38 0.36 0.38 0.37 0.38 0.35 0.36 0.43 0.55 0.54 0.53 0.45 0.41 0.41 0.49 0.41 0.37 0.39 0.35 0.35 0.31 0.25 0.16
1.15 0.82 0.67 0.63 0.64 0.67 0.62 0.60 0.56 0.55 0.51 0.51 0.47 0.30 0.62 0.69 0.36 0.36 0.29 0.33 0.40 0.40 0.46 0.44 0.45 0.42 0.38 0.38 0.35 0.34 0.34 0.39 0.52 0.51 0.41 0.49 0.42 0.35 0.38 0.47 0.50 0.45 0.36 0.35 0.24 0.21 0.24
1.19 0.82 0.66 0.62 0.64 0.65 0.62 0.60 0.57 0.55 0.49 0.44 0.37 0.39 0.60 0.60 0.26 0.29 0.36 0.36 0.40 0.37 0.39 0.40 0.38 0.40 0.42 0.39 0.32 0.37 0.38 0.48 0.50 0.49 0.42 0.45 0.37 0.28 0.32 0.39 0.45 0.39 0.41 0.38 0.35 0.31 0.22
1.20 0.83 0.66 0.63 0.63 0.65 0.62 0.60 0.58 0.53 0.50 0.46 0.35 0.27 0.38 0.46 0.42 0.35 0.32 0.33 0.33 0.42 0.40 0.42 0.41 0.41 0.37 0.34 0.39 0.36 0.37 0.46 0.51 0.51 0.52 0.49 0.37 0.30 0.23 0.26 0.33 0.31 0.35 0.39 0.35 0.25 0.24
1.20 0.85 0.67 0.65 0.65 0.64 0.61 0.62 0.57 0.50 0.47 0.39 0.31 0.26 0.34 0.26 0.31 0.34 0.36 0.36 0.33 0.32 0.41 0.42 0.36 0.38 0.35 0.31 0.32 0.32 0.40 0.42 0.47 0.51 0.49 0.44 0.32 0.34 0.34 0.35 0.35 0.35 0.34 0.34 0.30 0.32 0.25
1.20 0.87 0.69 0.67 0.65 0.62 0.63 0.62 0.58 0.47 0.40 0.32 0.24 0.24 0.26 0.23 0.32 0.33 0.33 0.33 0.35 0.38 0.38 0.34 0.34 0.37 0.37 0.32 0.33 0.31 0.37 0.39 0.40 0.46 0.43 0.45 0.31 0.33 0.30 0.38 0.38 0.34 0.37 0.36 0.36 0.35 0.31
1.20 0.88 0.73 0.70 0.66 0.62 0.64 0.62 0.57 0.46 0.40 0.31 0.34 0.35 0.27 0.25 0.25 0.28 0.28 0.33 0.37 0.42 0.45 0.44 0.42 0.39 0.36 0.38 0.42 0.43 0.45 0.43 0.42 0.39 0.39 0.38 0.34 0.31 0.25 0.32 0.32 0.27 0.31 0.32 0.34 0.36 0.36
1.17 0.89 0.73 0.73 0.67 0.65 0.62 0.62 0.58 0.48 0.43 0.38 0.37 0.30 0.22 0.19 0.24 0.25 0.28 0.32 0.37 0.41 0.39 0.45 0.47 0.41 0.48 0.56 0.51 0.46 0.44 0.42 0.41 0.40 0.41 0.33 0.31 0.30 0.24 0.27 0.18 0.26 0.34 0.34 0.32 0.32 0.36
1.14 0.89 0.76 0.73 0.66 0.65 0.63 0.62 0.60 0.50 0.50 0.43 0.44 0.33 0.22 0.19 0.21 0.22 0.25 0.28 0.33 0.41 0.43 0.46 0.50 0.54 0.58 0.46 0.36 0.31 0.30 0.32 0.35 0.40 0.39 0.39 0.32 0.24 0.20 0.21 0.23 0.24 0.29 0.28 0.28 0.29 0.36
1.08 0.88 0.77 0.70 0.66 0.63 0.62 0.62 0.60 0.54 0.52 0.48 0.45 0.44 0.31 0.21 0.19 0.21 0.18 0.21 0.21 0.29 0.35 0.44 0.56 0.59 0.54 0.41 0.32 0.22 0.20 0.25 0.25 0.31 0.42 0.41 0.39 0.30 0.26 0.20 0.15 0.22 0.34 0.39 0.38 0.23 0.44
1.02 0.79 0.75 0.70 0.65 0.63 0.61 0.61 0.59 0.54 0.53 0.47 0.45 0.49 0.35 0.27 0.30 0.28 0.20 0.17 0.22 0.23 0.26 0.37 0.42 0.48 0.52 0.38 0.29 0.23 0.21 0.29 0.21 0.22 0.25 0.29 0.31 0.25 0.25 0.23 0.25 0.32 0.36 0.40 0.21 0.24 0.42
0.96 0.88 0.74 0.71 0.64 0.61 0.61 0.61 0.59 0.53 0.54 0.47 0.47 0.53 0.40 0.31 0.33 0.36 0.35 0.29 0.26 0.20 0.17 0.29 0.34 0.41 0.43 0.34 0.32 0.30 0.25 0.27 0.25 0.28 0.26 0.24 0.25 0.25 0.27 0.24 0.19 0.38 0.41 0.31 0.36 0.42 0.45
0.95 0.79 0.78 0.67 0.62 0.60 0.61 0.59 0.56 0.54 0.54 0.49 0.43 0.53 0.52 0.39 0.37 0.45 0.45 0.43 0.37 0.33 0.28 0.24 0.33 0.39 0.44 0.41 0.41 0.40 0.33 0.34 0.29 0.22 0.35 0.25 0.30 0.27 0.29 0.27 0.36 0.39 0.42 0.47 0.49 0.46 0.47

GFSGBSN_prec_pwat_078.txt.gz
Precipitable_Water
0.91 0.87 0.77 0.77 0.73 0.72 0.71 0.70 0.71 0.66 0.66 0.67 0.74 0.70 0.57 0.62 0.69 0.70 0.65 0.59 0.67 0.66 0.60 0.59 0.57 0.58 0.51 0.41 0.41 0.62 0.68 0.71 0.84 0.84 0.78 0.80 0.70 0.54 0.44 0.54 0.60 0.57 0.63 0.73 0.74 0.74 0.75
0.99 0.92 0.82 0.77 0.74 0.72 0.71 0.67 0.71 0.68 0.64 0.67 0.69 0.70 0.66 0.54 0.68 0.71 0.64 0.72 0.65 0.67 0.66 0.63 0.59 0.55 0.42 0.29 0.53 0.60 0.61 0.68 0.81 0.84 0.76 0.83 0.76 0.62 0.51 0.51 0.54 0.61 0.63 0.69 0.72 0.70 0.72
1.08 0.97 0.88 0.79 0.74 0.74 0.71 0.70 0.68 0.66 0.65 0.67 0.68 0.68 0.68 0.58 0.63 0.69 0.69 0.70 0.71 0.66 0.67 0.65 0.56 0.46 0.35 0.34 0.57 0.61 0.61 0.65 0.81 0.85 0.72 0.83 0.87 0.66 0.54 0.48 0.63 0.62 0.50 0.63 0.65 0.70 0.71
1.14 1.01 0.92 0.82 0.77 0.74 0.73 0.72 0.67 0.65 0.66 0.67 0.68 0.67 0.69 0.64 0.58 0.69 0.68 0.76 0.73 0.62 0.65 0.67 0.60 0.44 0.27 0.50 0.59 0.57 0.60 0.63 0.77 0.84 0.80 0.84 0.90 0.73 0.57 0.60 0.55 0.48 0.48 0.46 0.62 0.72 0.75
1.20 1.07 0.98 0.85 0.79 0.75 0.74 0.72 0.66 0.66 0.62 0.68 0.68 0.67 0.67 0.66 0.54 0.68 0.69 0.72 0.71 0.63 0.64 0.63 0.49 0.39 0.28 0.55 0.44 0.53 0.61 0.56 0.64 0.75 0.76 0.83 0.84 0.68 0.58 0.43 0.40 0.44 0.30 0.33 0.48 0.66 0.69
1.24 1.10 1.03 0.86 0.80 0.76 0.75 0.73 0.68 0.63 0.64 0.64 0.66 0.64 0.66 0.65 0.55 0.67 0.70 0.70 0.72 0.68 0.65 0.59 0.50 0.32 0.39 0.37 0.45 0.48 0.62 0.62 0.59 0.64 0.60 0.67 0.65 0.55 0.49 0.40 0.26 0.30 0.36 0.39 0.36 0.51 0.56
1.21 1.09 1.04 0.91 0.81 0.76 0.74 0.72 0.66 0.64 0.63 0.64 0.63 0.63 0.62 0.64 0.58 0.68 0.67 0.59 0.48 0.49 0.54 0.36 0.34 0.31 0.36 0.45 0.50 0.46 0.57 0.55 0.58 0.58 0.43 0.56 0.45 0.38 0.40 0.40 0.40 0.43 0.41 0.40 0.42 0.48 0.44
1.20 1.17 1.06 0.93 0.82 0.75 0.73 0.73 0.66 0.64 0.65 0.65 0.61 0.61 0.60 0.60 0.65 0.67 0.60 0.45 0.47 0.51 0.39 0.49 0.45 0.38 0.40 0.43 0.32 0.44 0.55 0.43 0.44 0.41 0.51 0.48 0.40 0.50 0.51 0.46 0.40 0.40 0.39 0.37 0.44 0.47 0.44
1.23 1.19 1.06 0.92 0.82 0.73 0.72 0.72 0.66 0.66 0.66 0.63 0.61 0.58 0.60 0.63 0.64 0.63 0.49 0.48 0.62 0.61 0.41 0.46 0.47 0.38 0.38 0.42 0.36 0.43 0.51 0.47 0.41 0.40 0.44 0.41 0.48 0.55 0.49 0.43 0.35 0.36 0.34 0.36 0.36 0.45 0.47
1.29 1.19 1.07 0.90 0.81 0.71 0.71 0.70 0.66 0.67 0.66 0.62 0.59 0.59 0.59 0.64 0.56 0.55 0.48 0.59 0.65 0.62 0.34 0.37 0.38 0.37 0.44 0.46 0.39 0.60 0.58 0.48 0.44 0.40 0.46 0.45 0.56 0.52 0.48 0.40 0.38 0.29 0.39 0.37 0.35 0.34 0.26
1.33 1.20 1.05 0.90 0.79 0.70 0.70 0.67 0.67 0.68 0.64 0.60 0.57 0.59 0.59 0.64 0.53 0.47 0.53 0.63 0.65 0.55 0.18 0.42 0.40 0.53 0.46 0.41 0.44 0.50 0.64 0.52 0.39 0.44 0.46 0.42 0.47 0.47 0.42 0.44 0.44 0.31 0.38 0.35 0.33 0.30 0.31
1.34 1.24 1.04 0.91 0.77 0.69 0.68 0.66 0.66 0.65 0.62 0.59 0.56 0.59 0.63 0.60 0.60 0.58 0.61 0.64 0.59 0.28 0.18 0.35 0.44 0.33 0.31 0.35 0.41 0.47 0.52 0.62 0.60 0.47 0.50 0.50 0.61 0.56 0.49 0.53 0.47 0.40 0.36 0.36 0.36 0.33 0.21
1.37 1.27 1.05 0.91 0.76 0.67 0.66 0.65 0.66 0.62 0.60 0.58 0.58 0.63 0.64 0.64 0.47 0.63 0.63 0.51 0.27 0.20 0.38 0.33 0.35 0.38 0.32 0.28 0.34 0.40 0.42 0.39 0.37 0.33 0.36 0.46 0.47 0.57 0.57 0.47 0.48 0.40 0.31 0.22 0.20 0.20 0.17
1.35 1.27 1.08 0.89 0.73 0.67 0.65 0.65 0.66 0.60 0.59 0.59 0.64 0.65 0.65 0.65 0.67 0.64 0.54 0.32 0.18 0.30 0.33 0.43 0.41 0.38 0.31 0.33 0.34 0.36 0.36 0.32 0.44 0.42 0.35 0.33 0.30 0.48 0.55 0.47 0.39 0.38 0.30 0.22 0.14 0.15 0.19
1.35 1.28 1.11 0.88 0.70 0.66 0.64 0.65 0.62 0.59 0.57 0.60 0.66 0.61 0.60 0.64 0.69 0.62 0.39 0.20 0.21 0.30 0.41 0.39 0.39 0.33 0.32 0.36 0.35 0.33 0.32 0.32 0.40 0.45 0.36 0.33 0.33 0.54 0.54 0.55 0.50 0.39 0.31 0.33 0.23 0.24 0.19
1.36 1.29 1.13 0.85 0.69 0.65 0.64 0.63 0.60 0.58 0.55 0.59 0.55 0.53 0.55 0.70 0.70 0.54 0.31 0.22 0.29 0.39 0.46 0.45 0.31 0.36 0.27 0.32 0.34 0.34 0.31 0.37 0.38 0.46 0.50 0.40 0.31 0.48 0.52 0.58 0.54 0.47 0.44 0.28 0.27 0.16 0.13
1.38 1.29 1.14 0.84 0.68 0.64 0.64 0.63 0.60 0.58 0.54 0.60 0.52 0.41 0.59 0.72 0.67 0.42 0.24 0.27 0.34 0.42 0.46 0.42 0.37 0.37 0.34 0.33 0.35 0.35 0.36 0.42 0.50 0.48 0.50 0.44 0.40 0.41 0.47 0.43 0.40 0.40 0.36 0.37 0.34 0.27 0.17
1.38 1.30 1.15 0.83 0.68 0.64 0.63 0.63 0.59 0.58 0.54 0.58 0.48 0.31 0.62 0.69 0.36 0.35 0.28 0.32 0.40 0.41 0.47 0.46 0.47 0.42 0.39 0.40 0.35 0.35 0.36 0.42 0.60 0.55 0.43 0.45 0.40 0.35 0.39 0.50 0.52 0.47 0.39 0.37 0.26 0.24 0.25
1.37 1.32 1.20 0.81 0.67 0.64 0.63 0.62 0.60 0.56 0.51 0.49 0.39 0.39 0.62 0.61 0.27 0.29 0.35 0.36 0.40 0.38 0.40 0.42 0.40 0.42 0.44 0.39 0.34 0.38 0.39 0.49 0.54 0.50 0.45 0.47 0.37 0.30 0.33 0.41 0.45 0.39 0.41 0.39 0.37 0.33 0.23
1.36 1.32 1.22 0.81 0.66 0.65 0.63 0.63 0.61 0.54 0.51 0.47 0.36 0.28 0.39 0.47 0.42 0.34 0.31 0.32 0.32 0.43 0.41 0.42 0.41 0.41 0.37 0.35 0.41 0.36 0.38 0.46 0.51 0.52 0.53 0.50 0.39 0.33 0.27 0.30 0.36 0.32 0.35 0.38 0.34 0.26 0.25
1.35 1.30 1.20 0.88 0.66 0.65 0.65 0.64 0.59 0.52 0.52 0.43 0.31 0.28 0.35 0.26 0.31 0.33 0.35 0.35 0.32 0.32 0.41 0.43 0.37 0.37 0.35 0.29 0.31 0.33 0.40 0.42 0.47 0.52 0.49 0.46 0.34 0.35 0.34 0.34 0.36 0.34 0.33 0.35 0.31 0.31 0.25
1.32 1.30 1.19 0.96 0.67 0.65 0.65 0.64 0.59 0.50 0.50 0.36 0.26 0.25 0.30 0.28 0.32 0.31 0.32 0.32 0.33 0.36 0.37 0.34 0.33 0.35 0.35 0.30 0.31 0.30 0.37 0.41 0.40 0.45 0.44 0.45 0.33 0.37 0.32 0.37 0.36 0.32 0.34 0.35 0.36 0.35 0.31
1.35 1.27 1.18 1.01 0.66 0.64 0.63 0.63 0.56 0.51 0.43 0.33 0.36 0.34 0.28 0.25 0.26 0.27 0.27 0.29 0.34 0.40 0.43 0.43 0.40 0.37 0.35 0.37 0.41 0.42 0.44 0.44 0.43 0.41 0.41 0.40 0.35 0.31 0.25 0.32 0.31 0.24 0.30 0.34 0.35 0.38 0.34
1.30 1.25 1.16 1.01 0.71 0.63 0.63 0.63 0.56 0.51 0.45 0.38 0.35 0.31 0.25 0.20 0.24 0.24 0.27 0.30 0.32 0.39 0.36 0.44 0.47 0.39 0.47 0.56 0.51 0.46 0.44 0.41 0.40 0.40 0.42 0.36 0.34 0.32 0.26 0.28 0.18 0.26 0.33 0.33 0.32 0.33 0.35
1.28 1.22 1.15 0.99 0.76 0.71 0.69 0.64 0.57 0.52 0.49 0.42 0.40 0.29 0.24 0.20 0.24 0.24 0.26 0.27 0.31 0.37 0.40 0.43 0.51 0.55 0.57 0.48 0.37 0.30 0.31 0.33 0.35 0.38 0.38 0.38 0.33 0.27 0.22 0.21 0.23 0.24 0.29 0.28 0.26 0.26 0.35
1.24 1.22 1.12 0.98 0.76 0.71 0.68 0.62 0.60 0.53 0.52 0.46 0.43 0.38 0.27 0.21 0.18 0.22 0.21 0.23 0.22 0.26 0.32 0.40 0.53 0.58 0.56 0.42 0.35 0.24 0.21 0.25 0.25 0.30 0.40 0.39 0.38 0.30 0.26 0.20 0.16 0.22 0.34 0.38 0.36 0.23 0.40
1.24 1.21 1.09 0.95 0.73 0.68 0.68 0.64 0.61 0.54 0.52 0.48 0.47 0.44 0.33 0.25 0.27 0.25 0.19 0.18 0.21 0.22 0.24 0.33 0.37 0.46 0.54 0.40 0.31 0.26 0.22 0.28 0.21 0.22 0.25 0.29 0.31 0.26 0.25 0.21 0.22 0.31 0.36 0.39 0.22 0.26 0.40
1.24 1.17 1.06 0.84 0.68 0.66 0.64 0.62 0.59 0.54 0.53 0.49 0.49 0.50 0.37 0.30 0.32 0.35 0.33 0.26 0.25 0.20 0.17 0.26 0.31 0.38 0.40 0.34 0.33 0.31 0.27 0.27 0.24 0.26 0.25 0.24 0.23 0.22 0.26 0.22 0.17 0.36 0.37 0.29 0.35 0.43 0.44
1.19 1.13 0.93 0.83 0.71 0.68 0.65 0.61 0.58 0.56 0.52 0.52 0.44 0.52 0.51 0.38 0.36 0.44 0.43 0.41 0.34 0.32 0.27 0.24 0.30 0.34 0.39 0.34 0.37 0.39 0.33 0.34 0.29 0.23 0.34 0.25 0.29 0.26 0.27 0.26 0.35 0.38 0.38 0.44 0.45 0.44 0.46

GFSGBSN_prec_pwat_081.txt.gz
Precipitable_Water
1.14 1.02 1.01 0.88 0.82 0.76 0.75 0.73 0.69 0.72 0.67 0.67 0.68 0.71 0.68 0.66 0.59 0.69 0.72 0.71 0.66 0.66 0.64 0.63 0.59 0.57 0.51 0.38 0.40 0.62 0.66 0.71 0.74 0.78 0.77 0.72 0.67 0.62 0.48 0.53 0.56 0.54 0.61 0.67 0.77 0.81 0.75
1.22 1.14 1.05 0.97 0.86 0.80 0.75 0.74 0.72 0.69 0.66 0.65 0.70 0.70 0.68 0.68 0.59 0.66 0.70 0.69 0.71 0.66 0.68 0.62 0.58 0.52 0.42 0.30 0.50 0.61 0.60 0.68 0.72 0.78 0.77 0.75 0.72 0.71 0.53 0.51 0.52 0.56 0.62 0.66 0.72 0.70 0.73
1.27 1.22 1.14 1.06 0.92 0.82 0.76 0.74 0.73 0.71 0.67 0.66 0.71 0.67 0.68 0.69 0.63 0.62 0.70 0.73 0.72 0.64 0.68 0.66 0.57 0.49 0.36 0.33 0.51 0.59 0.62 0.62 0.72 0.83 0.71 0.78 0.82 0.75 0.59 0.49 0.61 0.65 0.55 0.64 0.69 0.69 0.69
1.39 1.25 1.14 1.08 0.94 0.86 0.78 0.74 0.74 0.71 0.66 0.68 0.69 0.68 0.67 0.69 0.66 0.58 0.71 0.72 0.77 0.67 0.65 0.66 0.59 0.47 0.32 0.47 0.55 0.55 0.58 0.60 0.70 0.80 0.86 0.85 0.87 0.77 0.61 0.59 0.59 0.54 0.55 0.47 0.67 0.66 0.74
1.43 1.34 1.22 1.07 0.95 0.93 0.79 0.75 0.75 0.71 0.68 0.67 0.67 0.67 0.64 0.68 0.66 0.57 0.69 0.70 0.68 0.67 0.64 0.63 0.53 0.42 0.31 0.52 0.45 0.50 0.57 0.52 0.61 0.69 0.81 0.85 0.80 0.69 0.62 0.49 0.46 0.52 0.37 0.42 0.53 0.70 0.66
1.51 1.40 1.26 1.07 1.00 0.95 0.80 0.76 0.74 0.70 0.68 0.67 0.67 0.64 0.63 0.64 0.62 0.60 0.69 0.71 0.70 0.66 0.65 0.58 0.51 0.34 0.38 0.39 0.45 0.45 0.55 0.57 0.56 0.60 0.64 0.66 0.63 0.55 0.54 0.43 0.30 0.35 0.36 0.42 0.46 0.60 0.63
1.55 1.43 1.31 1.12 1.02 0.96 0.81 0.75 0.74 0.70 0.68 0.67 0.65 0.62 0.62 0.61 0.60 0.68 0.65 0.59 0.50 0.51 0.54 0.41 0.38 0.33 0.35 0.43 0.49 0.49 0.53 0.52 0.56 0.56 0.46 0.56 0.46 0.41 0.43 0.42 0.36 0.36 0.36 0.37 0.42 0.58 0.54
1.55 1.46 1.33 1.12 1.01 0.95 0.82 0.74 0.73 0.69 0.68 0.67 0.62 0.61 0.59 0.60 0.65 0.68 0.63 0.47 0.49 0.53 0.40 0.48 0.43 0.39 0.39 0.41 0.31 0.45 0.53 0.44 0.44 0.41 0.51 0.47 0.40 0.54 0.51 0.46 0.46 0.41 0.39 0.39 0.45 0.52 0.47
1.57 1.47 1.36 1.17 1.05 0.94 0.81 0.72 0.72 0.67 0.68 0.66 0.61 0.59 0.60 0.60 0.65 0.62 0.53 0.49 0.60 0.56 0.41 0.45 0.42 0.40 0.40 0.44 0.37 0.35 0.50 0.46 0.44 0.41 0.44 0.40 0.46 0.57 0.51 0.43 0.43 0.41 0.36 0.40 0.38 0.45 0.46
1.55 1.47 1.37 1.21 1.06 0.93 0.80 0.71 0.70 0.67 0.67 0.63 0.59 0.59 0.58 0.62 0.57 0.56 0.49 0.58 0.64 0.63 0.34 0.36 0.35 0.42 0.46 0.46 0.44 0.55 0.55 0.49 0.45 0.40 0.44 0.44 0.54 0.48 0.46 0.39 0.38 0.37 0.44 0.42 0.41 0.39 0.26
1.55 1.47 1.39 1.27 1.07 0.93 0.81 0.70 0.69 0.67 0.64 0.61 0.59 0.58 0.59 0.63 0.56 0.49 0.54 0.64 0.63 0.55 0.17 0.41 0.38 0.50 0.47 0.43 0.46 0.48 0.61 0.51 0.42 0.43 0.46 0.41 0.46 0.45 0.42 0.40 0.43 0.38 0.43 0.41 0.40 0.37 0.34
1.57 1.46 1.42 1.30 1.07 0.93 0.78 0.69 0.68 0.66 0.61 0.59 0.58 0.59 0.62 0.59 0.62 0.59 0.62 0.64 0.58 0.31 0.17 0.33 0.40 0.32 0.33 0.41 0.42 0.48 0.53 0.62 0.58 0.50 0.51 0.48 0.60 0.55 0.52 0.49 0.50 0.45 0.38 0.37 0.36 0.33 0.24
1.58 1.45 1.41 1.32 1.10 0.91 0.75 0.69 0.67 0.65 0.59 0.57 0.62 0.62 0.64 0.64 0.50 0.62 0.64 0.54 0.29 0.21 0.37 0.30 0.30 0.34 0.29 0.33 0.37 0.43 0.44 0.44 0.38 0.33 0.35 0.44 0.48 0.56 0.60 0.45 0.46 0.40 0.31 0.22 0.21 0.22 0.19
1.52 1.45 1.41 1.30 1.15 0.89 0.71 0.69 0.66 0.63 0.58 0.59 0.65 0.65 0.65 0.63 0.66 0.63 0.56 0.35 0.20 0.30 0.32 0.41 0.37 0.35 0.26 0.33 0.35 0.36 0.36 0.36 0.46 0.46 0.38 0.33 0.30 0.49 0.57 0.48 0.40 0.37 0.32 0.22 0.17 0.17 0.18
1.52 1.43 1.37 1.31 1.17 0.85 0.69 0.68 0.65 0.62 0.57 0.62 0.65 0.63 0.60 0.62 0.69 0.63 0.42 0.23 0.23 0.32 0.40 0.37 0.36 0.31 0.29 0.30 0.32 0.32 0.34 0.38 0.45 0.48 0.36 0.34 0.34 0.53 0.56 0.57 0.48 0.39 0.31 0.38 0.28 0.28 0.23
1.51 1.41 1.35 1.32 1.16 0.82 0.68 0.67 0.64 0.62 0.57 0.64 0.58 0.55 0.54 0.68 0.69 0.54 0.34 0.25 0.30 0.40 0.44 0.43 0.31 0.34 0.27 0.26 0.26 0.30 0.33 0.38 0.39 0.47 0.51 0.43 0.32 0.48 0.52 0.55 0.50 0.46 0.46 0.26 0.26 0.17 0.14
1.50 1.40 1.36 1.31 1.15 0.79 0.66 0.66 0.64 0.61 0.56 0.64 0.56 0.44 0.58 0.70 0.67 0.42 0.26 0.29 0.35 0.42 0.46 0.39 0.37 0.30 0.30 0.32 0.29 0.28 0.31 0.39 0.44 0.44 0.47 0.45 0.41 0.40 0.47 0.42 0.40 0.39 0.36 0.35 0.33 0.26 0.19
1.47 1.41 1.36 1.30 1.11 0.79 0.65 0.65 0.63 0.61 0.57 0.60 0.51 0.33 0.61 0.67 0.36 0.36 0.31 0.35 0.40 0.40 0.46 0.44 0.44 0.39 0.36 0.35 0.35 0.36 0.34 0.42 0.55 0.49 0.39 0.44 0.41 0.33 0.38 0.50 0.53 0.50 0.41 0.39 0.27 0.24 0.25
1.46 1.40 1.33 1.32 1.07 0.79 0.64 0.65 0.62 0.61 0.60 0.54 0.43 0.40 0.62 0.59 0.27 0.30 0.35 0.36 0.40 0.39 0.40 0.41 0.38 0.41 0.41 0.37 0.33 0.36 0.39 0.48 0.54 0.51 0.45 0.44 0.37 0.29 0.33 0.41 0.47 0.40 0.42 0.41 0.39 0.37 0.28
1.42 1.41 1.33 1.30 1.11 0.79 0.63 0.63 0.63 0.60 0.53 0.56 0.43 0.29 0.40 0.45 0.43 0.35 0.32 0.33 0.32 0.43 0.40 0.42 0.39 0.40 0.37 0.34 0.40 0.36 0.37 0.46 0.53 0.52 0.54 0.51 0.40 0.34 0.28 0.32 0.38 0.35 0.37 0.39 0.37 0.28 0.27
1.39 1.40 1.35 1.29 1.12 0.81 0.63 0.63 0.62 0.58 0.52 0.51 0.36 0.33 0.37 0.27 0.30 0.33 0.35 0.35 0.32 0.31 0.40 0.42 0.38 0.38 0.35 0.30 0.32 0.34 0.40 0.42 0.47 0.53 0.50 0.47 0.35 0.36 0.36 0.36 0.37 0.35 0.34 0.35 0.34 0.34 0.27
1.38 1.37 1.32 1.26 1.15 0.83 0.65 0.66 0.61 0.56 0.56 0.42 0.30 0.27 0.32 0.30 0.32 0.31 0.32 0.32 0.33 0.35 0.36 0.35 0.35 0.37 0.37 0.32 0.33 0.31 0.37 0.41 0.39 0.47 0.46 0.47 0.36 0.39 0.33 0.38 0.37 0.32 0.34 0.34 0.34 0.35 0.35
1.34 1.34 1.30 1.26 1.17 0.86 0.66 0.71 0.62 0.54 0.50 0.38 0.36 0.35 0.29 0.27 0.28 0.27 0.27 0.31 0.34 0.40 0.42 0.43 0.40 0.37 0.35 0.38 0.40 0.42 0.44 0.44 0.45 0.44 0.41 0.40 0.37 0.32 0.27 0.33 0.31 0.24 0.28 0.30 0.32 0.36 0.36
1.31 1.31 1.28 1.23 1.13 0.85 0.67 0.68 0.63 0.52 0.47 0.41 0.37 0.33 0.28 0.20 0.24 0.26 0.26 0.29 0.31 0.37 0.37 0.43 0.45 0.39 0.44 0.53 0.50 0.45 0.42 0.40 0.39 0.39 0.43 0.37 0.36 0.34 0.27 0.28 0.17 0.26 0.32 0.30 0.28 0.34 0.38
1.31 1.28 1.25 1.22 1.08 0.88 0.69 0.72 0.64 0.51 0.50 0.43 0.39 0.31 0.28 0.22 0.25 0.24 0.25 0.27 0.31 0.37 0.38 0.40 0.48 0.51 0.56 0.46 0.36 0.31 0.30 0.30 0.32 0.35 0.35 0.37 0.33 0.28 0.23 0.22 0.23 0.23 0.26 0.25 0.24 0.23 0.32
1.27 1.28 1.25 1.19 1.06 0.87 0.85 0.85 0.62 0.52 0.51 0.46 0.42 0.37 0.30 0.23 0.21 0.26 0.24 0.26 0.25 0.30 0.33 0.37 0.48 0.54 0.54 0.42 0.34 0.24 0.21 0.26 0.25 0.29 0.38 0.37 0.37 0.29 0.26 0.20 0.17 0.24 0.33 0.37 0.34 0.20 0.37
1.27 1.24 1.22 1.18 1.06 0.84 0.83 0.82 0.68 0.53 0.52 0.49 0.44 0.42 0.35 0.23 0.25 0.25 0.20 0.21 0.25 0.28 0.28 0.33 0.36 0.42 0.50 0.37 0.32 0.27 0.24 0.30 0.22 0.23 0.26 0.28 0.31 0.26 0.26 0.24 0.24 0.31 0.35 0.38 0.22 0.27 0.41
1.25 1.22 1.18 1.15 1.08 0.91 0.79 0.79 0.68 0.56 0.53 0.51 0.47 0.50 0.42 0.29 0.30 0.31 0.29 0.24 0.23 0.23 0.21 0.29 0.31 0.36 0.37 0.31 0.31 0.32 0.29 0.30 0.27 0.27 0.25 0.24 0.23 0.24 0.25 0.22 0.17 0.35 0.34 0.26 0.36 0.42 0.41
1.21 1.20 1.18 1.15 1.01 0.82 0.73 0.71 0.60 0.59 0.54 0.54 0.44 0.52 0.53 0.38 0.35 0.42 0.40 0.38 0.34 0.32 0.25 0.28 0.31 0.32 0.36 0.33 0.35 0.37 0.32 0.33 0.28 0.24 0.35 0.25 0.28 0.25 0.27 0.27 0.37 0.37 0.36 0.42 0.43 0.40 0.43

GFSGBSN_prec_pwat_084.txt.gz
Precipitable_Water
1.39 1.36 1.23 1.14 1.04 0.97 0.88 0.78 0.76 0.75 0.71 0.69 0.69 0.74 0.72 0.68 0.67 0.60 0.68 0.72 0.70 0.63 0.65 0.66 0.63 0.59 0.53 0.41 0.44 0.54 0.65 0.67 0.71 0.67 0.63 0.71 0.59 0.66 0.53 0.50 0.56 0.60 0.67 0.74 0.79 0.88 0.79
1.46 1.43 1.36 1.26 1.10 1.02 0.93 0.84 0.79 0.76 0.73 0.72 0.68 0.74 0.70 0.68 0.69 0.62 0.64 0.69 0.74 0.68 0.64 0.67 0.60 0.54 0.47 0.32 0.52 0.55 0.60 0.66 0.66 0.65 0.65 0.72 0.67 0.68 0.61 0.53 0.53 0.61 0.63 0.70 0.74 0.81 0.93
1.48 1.46 1.42 1.35 1.17 1.07 0.95 0.90 0.79 0.78 0.75 0.71 0.72 0.71 0.70 0.67 0.68 0.65 0.59 0.70 0.74 0.74 0.63 0.66 0.64 0.55 0.38 0.39 0.50 0.54 0.62 0.65 0.65 0.73 0.63 0.74 0.82 0.69 0.72 0.54 0.59 0.61 0.51 0.65 0.72 0.73 0.80
1.53 1.54 1.46 1.41 1.29 1.13 0.98 0.94 0.82 0.78 0.77 0.71 0.70 0.68 0.67 0.65 0.67 0.65 0.57 0.68 0.71 0.74 0.64 0.63 0.61 0.49 0.32 0.51 0.49 0.50 0.60 0.65 0.65 0.71 0.78 0.81 0.84 0.73 0.67 0.65 0.53 0.56 0.55 0.43 0.60 0.74 0.78
1.56 1.58 1.53 1.48 1.38 1.20 1.01 0.97 0.84 0.78 0.76 0.71 0.70 0.67 0.64 0.63 0.65 0.62 0.59 0.67 0.69 0.68 0.62 0.60 0.50 0.46 0.36 0.53 0.46 0.47 0.56 0.49 0.57 0.62 0.74 0.83 0.75 0.65 0.65 0.51 0.46 0.49 0.41 0.41 0.49 0.69 0.66
1.52 1.54 1.57 1.51 1.42 1.22 1.06 0.97 0.84 0.77 0.76 0.70 0.69 0.65 0.62 0.63 0.61 0.59 0.66 0.66 0.67 0.64 0.66 0.64 0.54 0.38 0.46 0.39 0.44 0.44 0.56 0.53 0.54 0.54 0.59 0.62 0.60 0.52 0.52 0.47 0.32 0.36 0.42 0.43 0.42 0.55 0.65
1.45 1.47 1.56 1.53 1.44 1.26 1.05 1.00 0.83 0.76 0.75 0.69 0.67 0.62 0.62 0.61 0.60 0.63 0.65 0.58 0.52 0.52 0.53 0.41 0.38 0.34 0.37 0.44 0.43 0.44 0.50 0.48 0.56 0.51 0.43 0.54 0.44 0.38 0.47 0.41 0.44 0.42 0.38 0.39 0.45 0.57 0.60
1.44 1.47 1.60 1.54 1.46 1.31 1.11 1.00 0.82 0.75 0.74 0.70 0.66 0.62 0.60 0.61 0.61 0.65 0.63 0.49 0.51 0.55 0.41 0.47 0.42 0.40 0.41 0.41 0.31 0.44 0.51 0.42 0.45 0.40 0.49 0.46 0.40 0.53 0.55 0.50 0.43 0.43 0.38 0.42 0.50 0.58 0.54
1.41 1.43 1.54 1.53 1.49 1.31 1.13 0.99 0.83 0.74 0.73 0.69 0.63 0.60 0.60 0.61 0.62 0.60 0.55 0.50 0.62 0.55 0.42 0.44 0.42 0.40 0.40 0.48 0.42 0.38 0.46 0.47 0.44 0.41 0.46 0.41 0.48 0.57 0.51 0.47 0.44 0.41 0.38 0.47 0.46 0.56 0.57
1.33 1.44 1.49 1.54 1.48 1.32 1.17 0.96 0.83 0.72 0.73 0.68 0.60 0.60 0.59 0.62 0.56 0.57 0.48 0.59 0.61 0.63 0.33 0.35 0.36 0.40 0.48 0.51 0.42 0.54 0.57 0.51 0.46 0.41 0.47 0.46 0.56 0.50 0.49 0.43 0.44 0.37 0.45 0.44 0.45 0.39 0.29
1.30 1.43 1.46 1.55 1.45 1.35 1.22 0.95 0.81 0.71 0.71 0.64 0.59 0.59 0.61 0.65 0.56 0.48 0.55 0.61 0.61 0.58 0.15 0.39 0.37 0.49 0.51 0.45 0.47 0.46 0.61 0.55 0.42 0.42 0.47 0.42 0.47 0.49 0.45 0.46 0.50 0.44 0.48 0.45 0.41 0.39 0.38
1.35 1.35 1.46 1.53 1.45 1.37 1.24 0.93 0.76 0.70 0.69 0.61 0.58 0.61 0.64 0.61 0.61 0.58 0.62 0.60 0.58 0.31 0.15 0.29 0.37 0.34 0.37 0.40 0.44 0.49 0.53 0.63 0.60 0.48 0.51 0.50 0.58 0.51 0.47 0.51 0.51 0.57 0.49 0.44 0.41 0.37 0.27
1.41 1.32 1.47 1.50 1.43 1.37 1.25 0.93 0.72 0.70 0.66 0.59 0.62 0.65 0.66 0.65 0.49 0.61 0.64 0.54 0.29 0.19 0.35 0.28 0.27 0.34 0.33 0.36 0.42 0.45 0.43 0.42 0.40 0.33 0.34 0.41 0.42 0.50 0.54 0.43 0.46 0.45 0.37 0.27 0.23 0.21 0.20
1.41 1.31 1.47 1.47 1.42 1.36 1.23 0.91 0.68 0.69 0.63 0.60 0.65 0.67 0.66 0.65 0.64 0.63 0.57 0.35 0.18 0.28 0.28 0.38 0.32 0.31 0.29 0.35 0.35 0.38 0.39 0.36 0.44 0.42 0.36 0.32 0.29 0.45 0.53 0.47 0.38 0.38 0.32 0.23 0.16 0.17 0.18
1.43 1.34 1.45 1.45 1.41 1.33 1.22 0.85 0.67 0.67 0.62 0.65 0.69 0.66 0.61 0.63 0.66 0.64 0.43 0.21 0.23 0.31 0.37 0.34 0.33 0.25 0.25 0.29 0.31 0.34 0.35 0.36 0.42 0.46 0.35 0.33 0.33 0.53 0.54 0.56 0.48 0.35 0.31 0.39 0.29 0.28 0.23
1.41 1.35 1.42 1.43 1.38 1.31 1.21 0.78 0.67 0.65 0.61 0.67 0.61 0.57 0.56 0.68 0.67 0.56 0.33 0.23 0.29 0.41 0.43 0.38 0.28 0.31 0.19 0.23 0.28 0.32 0.35 0.39 0.39 0.47 0.52 0.41 0.31 0.48 0.53 0.57 0.52 0.45 0.46 0.29 0.29 0.19 0.17
1.28 1.38 1.40 1.39 1.35 1.30 1.18 0.72 0.67 0.64 0.61 0.69 0.59 0.45 0.60 0.69 0.66 0.43 0.25 0.28 0.34 0.43 0.45 0.38 0.32 0.30 0.26 0.24 0.29 0.31 0.34 0.40 0.43 0.41 0.47 0.45 0.39 0.39 0.50 0.43 0.39 0.43 0.40 0.39 0.33 0.28 0.21
1.28 1.37 1.39 1.37 1.34 1.29 1.08 0.70 0.66 0.62 0.61 0.65 0.53 0.34 0.62 0.67 0.35 0.36 0.29 0.33 0.39 0.39 0.46 0.42 0.41 0.35 0.33 0.31 0.30 0.32 0.31 0.40 0.51 0.45 0.36 0.44 0.40 0.32 0.37 0.49 0.51 0.45 0.41 0.39 0.27 0.24 0.24
1.33 1.35 1.37 1.37 1.33 1.28 0.95 0.73 0.65 0.60 0.64 0.59 0.44 0.43 0.62 0.58 0.26 0.28 0.35 0.34 0.39 0.38 0.41 0.40 0.37 0.39 0.40 0.35 0.32 0.34 0.36 0.48 0.52 0.47 0.40 0.43 0.35 0.27 0.31 0.39 0.44 0.41 0.42 0.43 0.40 0.36 0.26
1.17 1.31 1.37 1.34 1.33 1.25 0.88 0.78 0.64 0.61 0.67 0.63 0.46 0.30 0.41 0.45 0.43 0.35 0.30 0.31 0.32 0.43 0.40 0.42 0.38 0.39 0.36 0.34 0.38 0.33 0.35 0.43 0.50 0.50 0.52 0.48 0.37 0.31 0.27 0.32 0.39 0.35 0.37 0.40 0.39 0.31 0.30
1.25 1.33 1.34 1.33 1.31 1.19 0.89 0.81 0.63 0.62 0.65 0.61 0.45 0.37 0.37 0.25 0.30 0.34 0.36 0.34 0.31 0.30 0.41 0.42 0.36 0.35 0.33 0.27 0.30 0.33 0.38 0.41 0.46 0.50 0.48 0.47 0.34 0.36 0.36 0.37 0.38 0.38 0.35 0.37 0.35 0.34 0.28
1.13 1.20 1.31 1.32 1.29 1.14 0.93 0.78 0.61 0.61 0.59 0.51 0.35 0.33 0.38 0.34 0.34 0.31 0.33 0.31 0.30 0.34 0.36 0.35 0.34 0.35 0.35 0.31 0.32 0.30 0.35 0.37 0.35 0.45 0.44 0.45 0.36 0.38 0.32 0.36 0.36 0.32 0.34 0.34 0.34 0.34 0.35
1.17 1.24 1.29 1.30 1.27 1.12 1.03 0.70 0.62 0.62 0.55 0.44 0.44 0.40 0.34 0.29 0.29 0.28 0.28 0.30 0.33 0.38 0.40 0.44 0.41 0.36 0.33 0.36 0.39 0.42 0.43 0.43 0.44 0.42 0.39 0.39 0.35 0.31 0.26 0.34 0.32 0.25 0.29 0.31 0.32 0.34 0.33
1.16 1.25 1.29 1.29 1.25 1.10 1.02 0.70 0.68 0.64 0.54 0.48 0.40 0.35 0.31 0.22 0.26 0.28 0.31 0.33 0.33 0.36 0.34 0.41 0.45 0.40 0.44 0.49 0.47 0.44 0.42 0.40 0.41 0.41 0.43 0.36 0.35 0.34 0.26 0.28 0.17 0.27 0.34 0.33 0.30 0.31 0.34
1.07 1.14 1.21 1.26 1.23 1.10 1.01 0.74 0.67 0.62 0.55 0.45 0.42 0.36 0.32 0.23 0.26 0.27 0.29 0.30 0.32 0.36 0.36 0.40 0.46 0.50 0.54 0.46 0.34 0.29 0.29 0.30 0.33 0.36 0.36 0.39 0.34 0.28 0.23 0.23 0.25 0.26 0.29 0.28 0.25 0.22 0.28
1.09 1.18 1.21 1.23 1.19 1.09 0.98 0.84 0.71 0.64 0.55 0.46 0.41 0.41 0.35 0.27 0.24 0.28 0.27 0.29 0.26 0.29 0.33 0.37 0.48 0.53 0.51 0.41 0.34 0.24 0.21 0.26 0.27 0.28 0.36 0.37 0.37 0.29 0.26 0.19 0.16 0.26 0.34 0.38 0.33 0.20 0.37
1.10 1.18 1.20 1.21 1.18 1.08 0.97 0.90 0.97 0.60 0.52 0.48 0.41 0.43 0.36 0.26 0.29 0.30 0.24 0.25 0.29 0.30 0.28 0.35 0.37 0.41 0.49 0.35 0.27 0.25 0.25 0.32 0.23 0.22 0.25 0.28 0.29 0.24 0.25 0.23 0.25 0.33 0.36 0.38 0.21 0.25 0.42
1.16 1.18 1.19 1.19 1.14 1.03 0.90 0.96 0.90 0.60 0.53 0.51 0.44 0.49 0.41 0.30 0.29 0.31 0.30 0.25 0.27 0.28 0.24 0.31 0.32 0.37 0.36 0.29 0.28 0.28 0.27 0.29 0.28 0.27 0.27 0.28 0.26 0.24 0.26 0.21 0.17 0.37 0.35 0.26 0.36 0.44 0.44
1.10 1.14 1.18 1.16 1.12 0.98 0.93 1.00 0.87 0.65 0.54 0.53 0.40 0.52 0.51 0.37 0.34 0.41 0.40 0.38 0.33 0.32 0.28 0.32 0.32 0.34 0.38 0.33 0.34 0.34 0.29 0.30 0.27 0.22 0.35 0.27 0.30 0.27 0.30 0.30 0.41 0.43 0.39 0.41 0.43 0.42 0.43

GFSGBSN_prec_pwat_087.txt.gz
Precipitable_Water
1.48 1.49 1.48 1.44 1.38 1.32 1.18 1.04 0.94 0.89 0.77 0.78 0.77 0.75 0.81 0.71 0.68 0.68 0.62 0.69 0.70 0.70 0.62 0.66 0.63 0.59 0.52 0.40 0.39 0.56 0.59 0.62 0.68 0.69 0.61 0.57 0.58 0.59 0.46 0.46 0.56 0.61 0.73 0.78 0.85 0.88 0.86
1.42 1.53 1.52 1.51 1.44 1.39 1.30 1.13 1.04 0.93 0.81 0.78 0.78 0.78 0.77 0.74 0.67 0.68 0.65 0.63 0.70 0.76 0.66 0.67 0.65 0.58 0.43 0.26 0.52 0.53 0.53 0.65 0.67 0.64 0.63 0.61 0.63 0.66 0.59 0.53 0.50 0.54 0.71 0.71 0.80 0.81 0.82
1.33 1.41 1.54 1.54 1.52 1.45 1.38 1.26 1.07 0.96 0.82 0.79 0.79 0.76 0.75 0.70 0.66 0.67 0.66 0.58 0.71 0.74 0.72 0.63 0.65 0.54 0.37 0.34 0.53 0.51 0.58 0.68 0.68 0.59 0.62 0.72 0.72 0.66 0.69 0.58 0.54 0.57 0.54 0.67 0.74 0.74 0.76
1.29 1.33 1.42 1.54 1.56 1.50 1.44 1.34 1.09 0.99 0.86 0.79 0.77 0.76 0.74 0.68 0.63 0.66 0.62 0.58 0.68 0.70 0.71 0.60 0.60 0.51 0.30 0.53 0.53 0.48 0.54 0.62 0.68 0.63 0.64 0.74 0.84 0.70 0.66 0.70 0.52 0.49 0.54 0.48 0.68 0.73 0.77
1.22 1.31 1.36 1.42 1.56 1.53 1.48 1.38 1.14 1.00 0.88 0.77 0.77 0.75 0.72 0.65 0.64 0.62 0.57 0.66 0.67 0.66 0.64 0.58 0.49 0.48 0.34 0.56 0.47 0.47 0.53 0.49 0.56 0.61 0.67 0.75 0.73 0.60 0.65 0.51 0.42 0.47 0.37 0.43 0.54 0.70 0.72
1.18 1.27 1.32 1.37 1.47 1.52 1.47 1.39 1.23 1.03 0.87 0.76 0.76 0.74 0.68 0.64 0.62 0.61 0.61 0.65 0.63 0.63 0.67 0.65 0.57 0.40 0.43 0.40 0.44 0.46 0.55 0.55 0.51 0.54 0.51 0.59 0.56 0.47 0.53 0.49 0.31 0.34 0.38 0.46 0.43 0.58 0.64
1.16 1.19 1.29 1.34 1.38 1.52 1.49 1.43 1.27 1.04 0.89 0.74 0.75 0.73 0.66 0.62 0.62 0.62 0.62 0.59 0.49 0.49 0.53 0.40 0.35 0.36 0.38 0.45 0.42 0.44 0.49 0.47 0.53 0.50 0.39 0.50 0.41 0.36 0.46 0.49 0.50 0.44 0.39 0.43 0.49 0.58 0.63
1.11 1.17 1.20 1.31 1.36 1.54 1.50 1.43 1.29 1.04 0.89 0.72 0.74 0.70 0.64 0.61 0.62 0.64 0.62 0.47 0.49 0.53 0.40 0.49 0.41 0.42 0.46 0.49 0.41 0.43 0.49 0.40 0.44 0.39 0.46 0.42 0.36 0.48 0.54 0.53 0.49 0.43 0.41 0.42 0.50 0.59 0.55
1.06 1.12 1.22 1.25 1.34 1.52 1.49 1.43 1.30 1.05 0.88 0.71 0.73 0.67 0.62 0.61 0.63 0.59 0.52 0.52 0.61 0.56 0.40 0.43 0.43 0.40 0.46 0.50 0.41 0.37 0.45 0.47 0.44 0.42 0.44 0.37 0.45 0.55 0.53 0.47 0.43 0.43 0.41 0.41 0.44 0.57 0.60
0.97 1.13 1.21 1.27 1.27 1.49 1.47 1.42 1.30 1.07 0.85 0.70 0.70 0.64 0.61 0.65 0.56 0.56 0.48 0.59 0.59 0.59 0.30 0.32 0.36 0.44 0.53 0.57 0.37 0.53 0.57 0.54 0.49 0.43 0.47 0.42 0.53 0.51 0.47 0.42 0.42 0.37 0.47 0.44 0.44 0.43 0.38
0.97 1.12 1.19 1.30 1.23 1.45 1.46 1.41 1.30 1.07 0.80 0.69 0.65 0.62 0.61 0.67 0.56 0.47 0.54 0.59 0.58 0.57 0.11 0.35 0.35 0.55 0.53 0.43 0.44 0.44 0.64 0.55 0.45 0.47 0.49 0.43 0.48 0.47 0.43 0.44 0.49 0.39 0.48 0.46 0.54 0.46 0.44
0.89 1.05 1.15 1.30 1.24 1.42 1.44 1.40 1.30 1.06 0.75 0.68 0.62 0.63 0.66 0.62 0.60 0.57 0.60 0.57 0.56 0.27 0.13 0.24 0.36 0.37 0.40 0.46 0.47 0.54 0.56 0.63 0.63 0.50 0.52 0.49 0.60 0.54 0.52 0.54 0.52 0.53 0.48 0.49 0.50 0.44 0.28
0.85 1.04 1.16 1.32 1.27 1.38 1.40 1.36 1.28 1.04 0.70 0.66 0.63 0.66 0.66 0.66 0.48 0.59 0.61 0.52 0.25 0.15 0.34 0.22 0.27 0.35 0.35 0.38 0.44 0.44 0.44 0.43 0.39 0.32 0.36 0.43 0.48 0.56 0.57 0.45 0.54 0.55 0.42 0.32 0.29 0.27 0.23
0.86 0.97 1.12 1.36 1.32 1.34 1.39 1.35 1.23 0.99 0.68 0.62 0.69 0.70 0.69 0.65 0.62 0.62 0.56 0.33 0.15 0.24 0.25 0.32 0.30 0.31 0.28 0.35 0.37 0.41 0.42 0.36 0.44 0.41 0.33 0.28 0.26 0.44 0.53 0.49 0.45 0.47 0.38 0.26 0.18 0.19 0.23
0.91 1.03 1.16 1.36 1.30 1.35 1.37 1.32 1.19 0.91 0.65 0.66 0.71 0.66 0.61 0.61 0.63 0.63 0.41 0.18 0.21 0.27 0.33 0.27 0.28 0.23 0.24 0.30 0.32 0.35 0.35 0.34 0.40 0.46 0.31 0.29 0.28 0.46 0.51 0.52 0.50 0.41 0.33 0.39 0.28 0.28 0.21
0.97 1.08 1.20 1.39 1.31 1.33 1.34 1.28 1.16 0.77 0.66 0.70 0.62 0.59 0.55 0.65 0.64 0.54 0.32 0.20 0.29 0.40 0.38 0.34 0.23 0.26 0.18 0.24 0.27 0.30 0.30 0.37 0.36 0.47 0.50 0.38 0.29 0.42 0.46 0.48 0.48 0.42 0.44 0.28 0.30 0.20 0.17
0.98 1.08 1.23 1.37 1.32 1.34 1.31 1.25 1.11 0.69 0.65 0.75 0.60 0.45 0.59 0.67 0.63 0.42 0.22 0.25 0.33 0.43 0.42 0.33 0.29 0.24 0.22 0.26 0.30 0.29 0.31 0.35 0.39 0.39 0.49 0.44 0.36 0.37 0.45 0.37 0.35 0.34 0.34 0.35 0.34 0.30 0.21
1.00 1.08 1.19 1.33 1.30 1.32 1.29 1.22 1.00 0.66 0.67 0.71 0.54 0.35 0.63 0.66 0.33 0.34 0.27 0.31 0.38 0.38 0.43 0.39 0.39 0.34 0.28 0.28 0.30 0.31 0.30 0.38 0.47 0.42 0.36 0.44 0.38 0.30 0.35 0.47 0.51 0.47 0.40 0.38 0.26 0.22 0.26
1.02 1.06 1.22 1.31 1.30 1.31 1.27 1.18 0.81 0.66 0.66 0.63 0.45 0.44 0.63 0.60 0.24 0.26 0.34 0.33 0.37 0.36 0.37 0.37 0.35 0.38 0.38 0.34 0.29 0.32 0.38 0.47 0.49 0.43 0.37 0.41 0.34 0.26 0.31 0.39 0.44 0.38 0.41 0.44 0.40 0.35 0.26
1.01 1.06 1.17 1.29 1.29 1.29 1.24 1.09 0.71 0.68 0.68 0.66 0.45 0.32 0.44 0.47 0.44 0.32 0.28 0.30 0.31 0.43 0.39 0.40 0.36 0.39 0.36 0.33 0.38 0.32 0.35 0.43 0.50 0.49 0.48 0.43 0.34 0.29 0.23 0.29 0.37 0.32 0.36 0.40 0.39 0.29 0.27
1.00 1.03 1.17 1.24 1.26 1.27 1.22 0.94 0.77 0.65 0.71 0.67 0.47 0.36 0.37 0.25 0.31 0.32 0.32 0.31 0.29 0.29 0.39 0.39 0.34 0.35 0.33 0.28 0.32 0.31 0.36 0.40 0.45 0.48 0.46 0.44 0.31 0.33 0.35 0.38 0.38 0.39 0.36 0.38 0.36 0.36 0.29
0.96 1.04 1.08 1.16 1.24 1.25 1.16 0.90 0.89 0.64 0.73 0.59 0.39 0.39 0.40 0.33 0.35 0.32 0.32 0.29 0.29 0.33 0.34 0.31 0.31 0.34 0.34 0.29 0.31 0.28 0.34 0.36 0.35 0.44 0.42 0.45 0.35 0.38 0.33 0.37 0.37 0.33 0.36 0.36 0.36 0.35 0.35
0.94 1.04 1.04 1.12 1.14 1.22 1.07 0.91 0.90 0.66 0.67 0.52 0.47 0.46 0.39 0.34 0.31 0.29 0.28 0.31 0.30 0.36 0.39 0.41 0.37 0.34 0.32 0.36 0.41 0.42 0.42 0.42 0.41 0.40 0.40 0.40 0.36 0.32 0.25 0.33 0.33 0.26 0.30 0.32 0.34 0.36 0.36
0.96 0.98 1.15 1.15 1.17 1.18 1.04 0.94 0.82 0.62 0.64 0.49 0.46 0.43 0.34 0.25 0.29 0.27 0.30 0.32 0.32 0.36 0.33 0.39 0.42 0.36 0.43 0.49 0.46 0.43 0.41 0.40 0.40 0.40 0.42 0.35 0.33 0.31 0.24 0.27 0.16 0.26 0.34 0.34 0.32 0.33 0.35
0.95 0.99 1.05 1.11 1.15 1.15 1.06 1.03 0.68 0.66 0.61 0.49 0.48 0.42 0.35 0.26 0.29 0.30 0.32 0.32 0.35 0.38 0.36 0.39 0.43 0.49 0.52 0.44 0.33 0.28 0.28 0.29 0.31 0.35 0.36 0.37 0.31 0.24 0.19 0.19 0.22 0.23 0.29 0.29 0.27 0.25 0.32
0.93 0.98 1.04 1.12 1.10 1.10 1.08 0.91 0.69 0.74 0.60 0.49 0.49 0.48 0.40 0.28 0.26 0.31 0.31 0.32 0.28 0.30 0.33 0.37 0.47 0.52 0.49 0.39 0.32 0.22 0.19 0.25 0.25 0.29 0.37 0.35 0.34 0.27 0.25 0.19 0.14 0.25 0.34 0.39 0.36 0.21 0.38
0.93 1.00 1.05 1.11 1.10 1.08 1.07 0.89 0.82 0.70 0.62 0.49 0.42 0.47 0.38 0.28 0.32 0.32 0.27 0.27 0.31 0.31 0.29 0.35 0.37 0.41 0.47 0.33 0.26 0.23 0.23 0.30 0.23 0.23 0.25 0.26 0.27 0.23 0.24 0.23 0.25 0.33 0.36 0.39 0.21 0.23 0.41
0.91 1.00 1.10 1.10 1.09 1.07 1.02 0.95 0.94 0.72 0.59 0.49 0.43 0.50 0.37 0.31 0.33 0.35 0.33 0.29 0.29 0.30 0.25 0.32 0.33 0.36 0.35 0.28 0.26 0.25 0.25 0.27 0.25 0.27 0.26 0.24 0.23 0.23 0.26 0.23 0.20 0.41 0.39 0.30 0.35 0.42 0.42
0.93 1.09 1.10 1.11 1.09 1.04 1.01 1.03 1.07 0.85 0.58 0.51 0.43 0.50 0.48 0.35 0.35 0.42 0.40 0.39 0.38 0.38 0.34 0.35 0.32 0.34 0.35 0.29 0.31 0.32 0.28 0.30 0.26 0.19 0.31 0.23 0.27 0.24 0.27 0.27 0.38 0.42 0.40 0.46 0.49 0.46 0.47

GFSGBSN_prec_pwat_090.txt.gz
Precipitable_Water
1.19 1.21 1.26 1.35 1.43 1.46 1.49 1.45 1.36 1.26 1.12 0.99 0.81 0.76 0.79 0.80 0.82 0.71 0.70 0.64 0.71 0.70 0.73 0.61 0.66 0.62 0.53 0.36 0.34 0.52 0.53 0.49 0.57 0.61 0.57 0.58 0.48 0.46 0.42 0.42 0.50 0.50 0.65 0.77 0.86 0.82 0.83
1.15 1.21 1.24 1.28 1.37 1.44 1.46 1.48 1.44 1.33 1.21 1.02 0.86 0.75 0.76 0.79 0.77 0.69 0.69 0.67 0.62 0.73 0.79 0.64 0.67 0.64 0.44 0.22 0.49 0.52 0.50 0.52 0.64 0.60 0.59 0.59 0.48 0.52 0.52 0.46 0.46 0.49 0.60 0.73 0.86 0.84 0.83
1.07 1.13 1.23 1.26 1.30 1.39 1.43 1.44 1.45 1.37 1.26 1.07 0.89 0.74 0.76 0.77 0.74 0.66 0.69 0.66 0.60 0.72 0.76 0.70 0.65 0.58 0.38 0.32 0.53 0.52 0.51 0.58 0.66 0.62 0.53 0.68 0.65 0.58 0.58 0.43 0.53 0.54 0.50 0.62 0.69 0.81 0.78
0.98 1.04 1.12 1.23 1.29 1.35 1.39 1.41 1.45 1.41 1.29 1.17 0.93 0.73 0.74 0.77 0.70 0.66 0.65 0.60 0.66 0.69 0.72 0.68 0.63 0.52 0.29 0.53 0.54 0.50 0.48 0.57 0.64 0.67 0.59 0.70 0.73 0.60 0.60 0.61 0.52 0.47 0.53 0.48 0.67 0.76 0.82
0.92 1.06 1.02 1.12 1.24 1.31 1.34 1.38 1.41 1.41 1.31 1.21 0.95 0.75 0.73 0.73 0.66 0.64 0.60 0.64 0.67 0.66 0.65 0.62 0.52 0.47 0.30 0.55 0.48 0.49 0.48 0.48 0.57 0.65 0.64 0.69 0.70 0.58 0.57 0.46 0.40 0.44 0.37 0.46 0.57 0.75 0.74
0.65 0.83 1.01 1.04 1.13 1.30 1.31 1.36 1.40 1.41 1.34 1.22 0.97 0.75 0.73 0.68 0.64 0.62 0.65 0.65 0.61 0.63 0.68 0.67 0.57 0.38 0.41 0.38 0.46 0.45 0.51 0.51 0.51 0.52 0.55 0.56 0.56 0.46 0.45 0.40 0.29 0.32 0.38 0.43 0.48 0.66 0.67
0.52 0.58 0.78 0.98 1.00 1.15 1.33 1.29 1.38 1.39 1.36 1.23 0.97 0.74 0.73 0.65 0.61 0.62 0.63 0.57 0.47 0.45 0.54 0.41 0.34 0.33 0.38 0.46 0.47 0.40 0.51 0.46 0.53 0.50 0.37 0.50 0.38 0.32 0.42 0.51 0.46 0.40 0.39 0.39 0.49 0.61 0.58
0.49 0.49 0.53 0.78 1.02 1.08 1.23 1.31 1.42 1.40 1.36 1.25 0.96 0.74 0.69 0.63 0.62 0.64 0.62 0.45 0.48 0.52 0.39 0.45 0.42 0.43 0.51 0.51 0.39 0.44 0.52 0.41 0.48 0.37 0.44 0.40 0.33 0.46 0.51 0.53 0.47 0.43 0.36 0.39 0.49 0.57 0.53
0.49 0.49 0.53 0.63 0.90 1.05 1.20 1.25 1.41 1.38 1.33 1.24 0.95 0.73 0.65 0.61 0.63 0.58 0.51 0.50 0.60 0.57 0.36 0.37 0.44 0.43 0.47 0.52 0.38 0.39 0.51 0.52 0.46 0.40 0.40 0.33 0.40 0.51 0.52 0.47 0.43 0.42 0.35 0.37 0.45 0.59 0.59
0.47 0.51 0.54 0.56 0.81 1.03 1.14 1.27 1.34 1.36 1.33 1.21 0.94 0.71 0.62 0.65 0.54 0.54 0.47 0.59 0.60 0.57 0.23 0.25 0.35 0.44 0.50 0.51 0.37 0.56 0.62 0.58 0.49 0.40 0.44 0.41 0.50 0.45 0.51 0.44 0.43 0.36 0.45 0.42 0.45 0.47 0.39
0.50 0.51 0.54 0.57 0.81 0.99 1.18 1.26 1.34 1.35 1.31 1.17 0.93 0.68 0.61 0.65 0.54 0.46 0.52 0.60 0.57 0.51 0.08 0.27 0.34 0.55 0.54 0.44 0.45 0.47 0.68 0.61 0.45 0.42 0.43 0.43 0.46 0.45 0.43 0.45 0.48 0.41 0.51 0.46 0.48 0.45 0.47
0.52 0.58 0.57 0.61 0.79 1.01 1.12 1.27 1.25 1.33 1.29 1.13 0.90 0.63 0.64 0.62 0.57 0.56 0.60 0.56 0.54 0.20 0.09 0.24 0.35 0.37 0.39 0.45 0.46 0.54 0.58 0.68 0.61 0.47 0.49 0.48 0.61 0.54 0.50 0.52 0.51 0.54 0.49 0.50 0.48 0.46 0.33
0.56 0.57 0.61 0.66 0.79 0.95 1.04 1.26 1.26 1.31 1.26 1.09 0.83 0.65 0.67 0.64 0.45 0.59 0.57 0.49 0.20 0.11 0.27 0.21 0.26 0.35 0.35 0.36 0.43 0.48 0.46 0.46 0.41 0.31 0.33 0.42 0.45 0.54 0.55 0.43 0.51 0.47 0.42 0.32 0.29 0.30 0.26
0.61 0.62 0.62 0.68 0.81 0.97 1.11 1.25 1.23 1.28 1.21 1.02 0.77 0.68 0.71 0.66 0.60 0.60 0.53 0.33 0.11 0.17 0.21 0.31 0.29 0.30 0.27 0.35 0.37 0.42 0.40 0.40 0.46 0.42 0.36 0.34 0.29 0.45 0.55 0.49 0.44 0.42 0.42 0.30 0.23 0.23 0.25
0.66 0.71 0.72 0.77 0.91 1.01 1.18 1.24 1.25 1.24 1.13 0.97 0.75 0.67 0.64 0.62 0.61 0.61 0.40 0.19 0.15 0.17 0.25 0.24 0.27 0.22 0.22 0.30 0.34 0.34 0.35 0.37 0.43 0.46 0.31 0.30 0.31 0.51 0.54 0.57 0.56 0.41 0.34 0.41 0.31 0.30 0.25
0.70 0.74 0.75 0.79 0.93 1.05 1.19 1.24 1.25 1.21 1.07 0.97 0.59 0.60 0.54 0.63 0.63 0.53 0.31 0.21 0.25 0.31 0.28 0.28 0.20 0.23 0.18 0.24 0.27 0.29 0.29 0.37 0.39 0.45 0.46 0.33 0.25 0.42 0.48 0.55 0.53 0.46 0.46 0.28 0.28 0.19 0.16
0.71 0.74 0.80 0.89 1.00 1.10 1.26 1.24 1.24 1.13 1.05 0.86 0.55 0.47 0.58 0.66 0.61 0.41 0.21 0.25 0.31 0.37 0.32 0.27 0.26 0.22 0.23 0.25 0.28 0.28 0.31 0.35 0.40 0.42 0.47 0.40 0.32 0.32 0.40 0.36 0.37 0.38 0.33 0.34 0.32 0.28 0.19
0.66 0.76 0.80 0.95 1.02 1.14 1.24 1.23 1.20 1.09 1.00 0.72 0.54 0.36 0.61 0.64 0.33 0.34 0.25 0.31 0.38 0.35 0.39 0.33 0.34 0.29 0.26 0.28 0.27 0.28 0.28 0.35 0.45 0.43 0.38 0.44 0.36 0.29 0.33 0.43 0.46 0.42 0.38 0.36 0.24 0.23 0.26
0.63 0.76 0.87 0.99 1.12 1.20 1.22 1.21 1.14 1.08 0.88 0.61 0.48 0.45 0.63 0.59 0.23 0.25 0.33 0.33 0.37 0.33 0.33 0.32 0.30 0.34 0.34 0.31 0.26 0.32 0.35 0.45 0.46 0.39 0.38 0.41 0.33 0.26 0.29 0.37 0.43 0.37 0.39 0.39 0.37 0.34 0.26
0.67 0.84 0.96 1.04 1.09 1.21 1.22 1.19 1.11 1.03 0.79 0.58 0.47 0.33 0.43 0.47 0.43 0.32 0.27 0.28 0.30 0.41 0.36 0.37 0.33 0.36 0.32 0.30 0.33 0.29 0.32 0.40 0.47 0.45 0.45 0.43 0.34 0.28 0.23 0.28 0.36 0.31 0.35 0.39 0.39 0.30 0.27
0.71 0.87 0.96 1.10 1.11 1.20 1.20 1.17 1.07 0.83 0.79 0.60 0.47 0.34 0.37 0.26 0.30 0.32 0.32 0.30 0.28 0.28 0.38 0.39 0.33 0.33 0.31 0.27 0.29 0.29 0.34 0.38 0.43 0.46 0.43 0.40 0.28 0.31 0.34 0.36 0.37 0.36 0.36 0.34 0.33 0.34 0.29
0.75 0.87 0.96 1.02 1.12 1.17 1.18 1.12 0.94 0.78 0.76 0.57 0.41 0.36 0.38 0.31 0.35 0.32 0.31 0.27 0.27 0.31 0.32 0.31 0.31 0.34 0.33 0.28 0.30 0.28 0.34 0.34 0.32 0.40 0.37 0.41 0.30 0.32 0.28 0.33 0.33 0.30 0.34 0.36 0.37 0.37 0.37
0.78 0.88 0.96 1.02 1.06 1.08 1.13 1.04 0.80 0.86 0.74 0.55 0.50 0.50 0.39 0.33 0.33 0.30 0.28 0.28 0.29 0.33 0.38 0.38 0.36 0.33 0.31 0.33 0.39 0.40 0.41 0.40 0.39 0.36 0.36 0.35 0.31 0.27 0.21 0.29 0.28 0.23 0.30 0.32 0.34 0.36 0.35
0.83 0.89 0.94 1.02 1.11 1.07 1.06 1.01 0.97 0.79 0.72 0.58 0.48 0.45 0.35 0.27 0.32 0.30 0.32 0.33 0.31 0.33 0.32 0.40 0.41 0.35 0.41 0.48 0.46 0.44 0.41 0.39 0.39 0.38 0.40 0.32 0.31 0.28 0.21 0.24 0.14 0.25 0.34 0.33 0.30 0.32 0.33
0.83 0.89 0.96 1.00 1.09 1.10 1.05 1.03 1.03 0.84 0.72 0.58 0.51 0.43 0.35 0.28 0.33 0.32 0.33 0.34 0.36 0.38 0.37 0.39 0.42 0.47 0.50 0.41 0.31 0.26 0.27 0.28 0.30 0.34 0.35 0.37 0.31 0.23 0.18 0.18 0.21 0.23 0.27 0.27 0.25 0.25 0.34
0.81 0.90 0.98 1.01 1.05 1.07 1.05 1.02 0.96 0.79 0.73 0.56 0.51 0.50 0.43 0.32 0.30 0.35 0.33 0.35 0.29 0.32 0.34 0.40 0.48 0.54 0.48 0.36 0.29 0.19 0.17 0.22 0.22 0.27 0.36 0.35 0.35 0.27 0.22 0.17 0.13 0.23 0.32 0.36 0.32 0.18 0.35
0.81 0.88 0.96 0.97 1.05 1.07 1.05 1.00 0.86 0.73 0.75 0.53 0.51 0.57 0.44 0.32 0.35 0.37 0.32 0.32 0.37 0.34 0.31 0.37 0.39 0.41 0.46 0.31 0.24 0.21 0.20 0.28 0.20 0.21 0.23 0.25 0.26 0.20 0.21 0.19 0.22 0.31 0.35 0.38 0.21 0.22 0.37
0.76 0.88 0.95 0.98 1.03 1.05 1.05 1.01 0.78 0.80 0.65 0.50 0.48 0.63 0.45 0.34 0.36 0.39 0.38 0.35 0.32 0.34 0.27 0.34 0.35 0.37 0.35 0.27 0.25 0.24 0.23 0.25 0.24 0.27 0.25 0.22 0.19 0.19 0.22 0.18 0.14 0.35 0.34 0.25 0.31 0.39 0.41
0.83 0.91 1.01 1.01 1.03 1.04 1.04 0.92 0.86 0.85 0.62 0.56 0.46 0.50 0.50 0.38 0.38 0.45 0.45 0.46 0.41 0.40 0.36 0.37 0.33 0.35 0.36 0.29 0.29 0.29 0.25 0.28 0.24 0.18 0.29 0.21 0.25 0.21 0.24 0.23 0.35 0.39 0.36 0.42 0.43 0.40 0.41

GFSGBSN_prec_pwat_093.txt.gz
Precipitable_Water
0.95 0.98 1.04 1.10 1.24 1.25 1.27 1.35 1.36 1.39 1.38 1.32 1.27 1.20 1.04 0.74 0.75 0.79 0.75 0.77 0.68 0.71 0.76 0.73 0.62 0.65 0.54 0.39 0.31 0.49 0.55 0.51 0.52 0.54 0.47 0.45 0.41 0.46 0.38 0.41 0.41 0.39 0.46 0.57 0.81 0.82 0.88
0.87 0.86 0.90 0.99 1.07 1.20 1.28 1.27 1.39 1.30 1.38 1.33 1.29 1.21 1.12 0.81 0.75 0.76 0.75 0.74 0.69 0.65 0.75 0.75 0.66 0.66 0.46 0.23 0.46 0.51 0.50 0.48 0.53 0.56 0.53 0.52 0.46 0.51 0.46 0.43 0.38 0.40 0.46 0.57 0.69 0.81 0.86
0.71 0.77 0.82 0.88 0.94 1.07 1.19 1.27 1.31 1.35 1.33 1.34 1.29 1.23 1.13 0.87 0.76 0.74 0.70 0.72 0.64 0.63 0.73 0.78 0.65 0.61 0.40 0.27 0.51 0.52 0.51 0.48 0.56 0.60 0.53 0.57 0.64 0.52 0.46 0.40 0.48 0.44 0.42 0.52 0.64 0.76 0.82
0.54 0.54 0.67 0.72 0.86 0.91 1.06 1.18 1.27 1.38 1.37 1.34 1.31 1.25 1.13 0.92 0.75 0.70 0.70 0.64 0.63 0.68 0.70 0.72 0.65 0.54 0.29 0.51 0.56 0.50 0.53 0.49 0.61 0.64 0.61 0.64 0.69 0.58 0.49 0.53 0.47 0.36 0.45 0.37 0.62 0.70 0.77
0.52 0.50 0.49 0.54 0.62 0.83 0.91 1.07 1.25 1.28 1.26 1.31 1.31 1.26 1.13 0.92 0.73 0.66 0.67 0.64 0.66 0.67 0.65 0.65 0.51 0.48 0.31 0.54 0.46 0.52 0.50 0.42 0.54 0.63 0.65 0.68 0.63 0.49 0.48 0.41 0.36 0.34 0.30 0.34 0.49 0.69 0.68
0.53 0.52 0.51 0.49 0.50 0.60 0.81 0.92 1.10 1.35 1.30 1.32 1.29 1.27 1.14 0.91 0.71 0.63 0.68 0.66 0.61 0.64 0.66 0.62 0.55 0.40 0.40 0.35 0.46 0.45 0.49 0.50 0.46 0.52 0.54 0.55 0.53 0.42 0.41 0.38 0.25 0.23 0.33 0.40 0.43 0.62 0.65
0.46 0.46 0.50 0.53 0.47 0.50 0.58 0.83 0.94 1.25 1.32 1.29 1.32 1.25 1.13 0.89 0.66 0.62 0.65 0.53 0.42 0.43 0.51 0.32 0.35 0.35 0.40 0.47 0.50 0.40 0.46 0.45 0.48 0.49 0.38 0.47 0.37 0.33 0.39 0.41 0.41 0.30 0.35 0.37 0.49 0.64 0.59
0.47 0.45 0.45 0.45 0.58 0.49 0.51 0.67 0.90 1.07 1.31 1.29 1.30 1.23 1.12 0.88 0.63 0.67 0.62 0.44 0.46 0.47 0.30 0.43 0.42 0.43 0.48 0.52 0.33 0.41 0.52 0.40 0.44 0.36 0.42 0.39 0.34 0.42 0.48 0.50 0.39 0.34 0.34 0.37 0.52 0.61 0.56
0.52 0.47 0.47 0.45 0.47 0.49 0.50 0.57 0.86 1.00 1.25 1.31 1.27 1.23 1.08 0.84 0.64 0.61 0.51 0.48 0.59 0.52 0.31 0.36 0.42 0.40 0.43 0.48 0.41 0.45 0.56 0.51 0.43 0.37 0.38 0.34 0.39 0.45 0.41 0.41 0.35 0.34 0.34 0.36 0.41 0.56 0.58
0.55 0.52 0.52 0.48 0.47 0.53 0.50 0.54 0.77 0.98 1.19 1.26 1.25 1.19 1.03 0.80 0.54 0.57 0.46 0.58 0.59 0.52 0.19 0.23 0.33 0.42 0.49 0.50 0.39 0.59 0.65 0.54 0.46 0.39 0.43 0.42 0.50 0.47 0.44 0.40 0.39 0.29 0.44 0.41 0.41 0.43 0.36
0.60 0.57 0.54 0.51 0.53 0.48 0.51 0.55 0.74 0.94 1.20 1.23 1.23 1.15 1.00 0.77 0.54 0.46 0.50 0.59 0.55 0.45 0.06 0.23 0.33 0.55 0.53 0.47 0.50 0.53 0.69 0.58 0.42 0.44 0.45 0.40 0.46 0.46 0.44 0.44 0.46 0.36 0.46 0.42 0.43 0.42 0.44
0.65 0.55 0.56 0.57 0.54 0.52 0.53 0.53 0.75 0.95 1.16 1.25 1.21 1.12 0.94 0.70 0.60 0.56 0.59 0.56 0.47 0.16 0.07 0.20 0.33 0.35 0.39 0.48 0.52 0.58 0.55 0.61 0.57 0.50 0.52 0.48 0.60 0.56 0.52 0.52 0.49 0.51 0.45 0.45 0.44 0.40 0.31
0.66 0.61 0.68 0.67 0.61 0.60 0.59 0.57 0.79 1.02 1.15 1.21 1.17 1.08 0.89 0.66 0.48 0.60 0.56 0.44 0.18 0.08 0.22 0.20 0.26 0.33 0.37 0.39 0.43 0.48 0.44 0.43 0.39 0.32 0.35 0.44 0.45 0.55 0.58 0.44 0.51 0.50 0.41 0.30 0.27 0.28 0.26
0.69 0.65 0.69 0.72 0.65 0.66 0.62 0.64 0.82 1.08 1.15 1.17 1.12 1.06 0.89 0.65 0.64 0.58 0.48 0.32 0.10 0.14 0.17 0.28 0.29 0.32 0.29 0.36 0.39 0.41 0.38 0.35 0.45 0.39 0.34 0.31 0.28 0.45 0.54 0.49 0.45 0.45 0.40 0.29 0.22 0.22 0.26
0.71 0.66 0.70 0.72 0.69 0.67 0.67 0.81 0.94 1.14 1.14 1.13 1.11 0.99 0.78 0.64 0.62 0.56 0.36 0.19 0.11 0.15 0.21 0.22 0.26 0.23 0.25 0.32 0.36 0.36 0.36 0.37 0.45 0.48 0.33 0.31 0.32 0.51 0.54 0.54 0.52 0.41 0.35 0.43 0.31 0.32 0.26
0.69 0.67 0.65 0.67 0.71 0.73 0.77 0.93 1.05 1.12 1.10 1.10 0.98 0.88 0.61 0.69 0.63 0.50 0.30 0.21 0.20 0.25 0.26 0.24 0.18 0.23 0.20 0.25 0.28 0.30 0.31 0.40 0.40 0.46 0.47 0.37 0.30 0.46 0.50 0.57 0.54 0.44 0.46 0.32 0.33 0.23 0.18
0.67 0.64 0.62 0.68 0.74 0.76 0.93 0.92 1.08 1.09 1.08 1.09 0.91 0.68 0.61 0.67 0.60 0.39 0.21 0.24 0.25 0.30 0.29 0.23 0.21 0.22 0.25 0.25 0.28 0.27 0.28 0.36 0.41 0.41 0.44 0.38 0.31 0.35 0.43 0.40 0.40 0.38 0.33 0.33 0.33 0.29 0.21
0.65 0.57 0.62 0.69 0.74 0.80 0.88 1.01 1.07 1.08 1.09 1.01 0.81 0.47 0.63 0.64 0.32 0.32 0.24 0.31 0.35 0.28 0.34 0.30 0.30 0.27 0.26 0.28 0.26 0.27 0.27 0.33 0.42 0.44 0.34 0.39 0.34 0.27 0.32 0.44 0.49 0.45 0.39 0.35 0.24 0.23 0.25
0.62 0.56 0.60 0.77 0.78 0.84 0.98 1.06 1.09 1.10 1.08 0.93 0.72 0.46 0.65 0.58 0.22 0.23 0.30 0.33 0.35 0.30 0.30 0.30 0.27 0.32 0.33 0.28 0.24 0.31 0.32 0.42 0.43 0.39 0.35 0.38 0.30 0.23 0.26 0.32 0.38 0.33 0.36 0.38 0.35 0.32 0.24
0.59 0.58 0.68 0.79 0.82 0.88 1.02 1.09 1.10 1.10 1.08 0.87 0.57 0.35 0.44 0.46 0.41 0.29 0.27 0.30 0.30 0.38 0.33 0.34 0.29 0.33 0.30 0.28 0.32 0.29 0.31 0.40 0.44 0.41 0.42 0.41 0.31 0.24 0.19 0.25 0.33 0.30 0.34 0.38 0.34 0.25 0.25
0.57 0.60 0.74 0.80 0.87 1.01 1.07 1.09 1.10 1.10 1.06 0.81 0.44 0.37 0.36 0.24 0.28 0.32 0.33 0.32 0.28 0.27 0.36 0.35 0.28 0.29 0.26 0.25 0.26 0.27 0.33 0.35 0.40 0.43 0.40 0.36 0.24 0.29 0.31 0.34 0.34 0.33 0.33 0.34 0.30 0.33 0.28
0.58 0.70 0.82 0.90 1.04 1.10 1.11 1.10 1.09 1.07 1.04 0.67 0.40 0.34 0.36 0.30 0.32 0.32 0.32 0.29 0.28 0.31 0.31 0.27 0.27 0.32 0.31 0.27 0.28 0.25 0.30 0.31 0.29 0.37 0.35 0.38 0.27 0.28 0.25 0.31 0.31 0.27 0.31 0.33 0.33 0.34 0.33
0.60 0.83 0.89 0.96 1.03 1.05 1.05 1.06 1.06 1.07 0.91 0.54 0.53 0.47 0.35 0.31 0.30 0.30 0.28 0.30 0.32 0.35 0.36 0.36 0.34 0.32 0.30 0.32 0.36 0.38 0.38 0.38 0.36 0.33 0.33 0.33 0.29 0.25 0.20 0.28 0.26 0.20 0.25 0.28 0.30 0.34 0.33
0.67 0.83 0.90 0.95 1.01 0.99 0.99 1.01 1.04 0.96 0.79 0.59 0.51 0.46 0.33 0.25 0.29 0.29 0.32 0.34 0.34 0.35 0.31 0.37 0.38 0.33 0.40 0.48 0.45 0.41 0.38 0.37 0.38 0.37 0.39 0.31 0.29 0.26 0.19 0.21 0.10 0.21 0.29 0.29 0.26 0.27 0.30
0.73 0.84 0.91 0.97 1.04 1.02 0.98 0.97 0.97 0.96 0.74 0.60 0.55 0.43 0.35 0.28 0.33 0.33 0.34 0.34 0.38 0.40 0.37 0.38 0.41 0.45 0.49 0.41 0.31 0.25 0.24 0.26 0.29 0.34 0.34 0.35 0.28 0.20 0.15 0.15 0.18 0.20 0.24 0.24 0.22 0.21 0.29
0.74 0.85 0.90 0.95 0.99 1.01 1.00 0.97 0.99 0.94 0.75 0.63 0.51 0.51 0.40 0.33 0.31 0.37 0.35 0.37 0.32 0.32 0.36 0.40 0.48 0.53 0.47 0.36 0.28 0.18 0.15 0.20 0.19 0.25 0.34 0.33 0.33 0.24 0.21 0.14 0.10 0.20 0.31 0.34 0.30 0.16 0.32
0.73 0.82 0.89 0.94 1.01 1.01 1.00 0.98 0.96 0.92 0.77 0.66 0.49 0.52 0.41 0.32 0.37 0.39 0.33 0.34 0.40 0.36 0.33 0.38 0.41 0.40 0.45 0.30 0.23 0.20 0.19 0.26 0.19 0.19 0.21 0.24 0.25 0.20 0.21 0.17 0.18 0.28 0.32 0.34 0.17 0.18 0.35
0.72 0.83 0.91 0.94 0.99 1.01 1.01 0.99 0.97 0.86 0.74 0.66 0.51 0.55 0.44 0.35 0.38 0.41 0.41 0.38 0.38 0.37 0.29 0.37 0.36 0.37 0.35 0.27 0.24 0.24 0.22 0.24 0.22 0.25 0.24 0.21 0.19 0.18 0.20 0.16 0.12 0.33 0.30 0.22 0.30 0.36 0.37
0.76 0.87 0.95 0.95 0.98 1.01 1.01 0.99 0.87 0.80 0.75 0.61 0.52 0.58 0.55 0.41 0.40 0.49 0.49 0.51 0.46 0.45 0.38 0.39 0.34 0.36 0.37 0.29 0.28 0.28 0.23 0.26 0.23 0.18 0.29 0.20 0.23 0.20 0.22 0.20 0.32 0.37 0.35 0.41 0.41 0.38 0.39

GFSGBSN_prec_pwat_096.txt.gz
Precipitable_Water
0.71 0.72 0.74 0.76 0.80 0.84 0.90 0.98 1.13 1.22 1.29 1.33 1.27 1.28 1.29 1.21 1.12 1.07 0.85 0.72 0.73 0.74 0.78 0.80 0.73 0.66 0.52 0.41 0.35 0.52 0.58 0.54 0.51 0.50 0.45 0.40 0.33 0.34 0.26 0.34 0.41 0.36 0.35 0.42 0.45 0.60 0.69
0.57 0.59 0.58 0.62 0.66 0.70 0.79 0.86 0.95 1.11 1.25 1.35 1.29 1.21 1.26 1.23 1.14 1.06 0.80 0.72 0.77 0.72 0.71 0.77 0.72 0.69 0.47 0.27 0.44 0.50 0.50 0.49 0.47 0.49 0.47 0.48 0.43 0.43 0.37 0.33 0.39 0.40 0.36 0.40 0.46 0.53 0.72
0.57 0.57 0.56 0.54 0.52 0.57 0.64 0.71 0.83 0.95 1.13 1.22 1.34 1.29 1.26 1.23 1.15 1.08 0.83 0.73 0.72 0.66 0.68 0.77 0.77 0.62 0.40 0.28 0.48 0.52 0.52 0.49 0.51 0.51 0.46 0.54 0.56 0.49 0.43 0.36 0.43 0.45 0.37 0.35 0.42 0.50 0.65
0.57 0.56 0.56 0.56 0.57 0.52 0.51 0.57 0.69 0.83 0.98 1.18 1.22 1.21 1.23 1.20 1.15 1.06 0.81 0.73 0.66 0.70 0.70 0.75 0.72 0.52 0.27 0.45 0.54 0.51 0.54 0.50 0.53 0.60 0.59 0.63 0.63 0.57 0.49 0.48 0.44 0.37 0.41 0.26 0.37 0.54 0.67
0.58 0.56 0.56 0.55 0.54 0.52 0.54 0.51 0.49 0.69 0.86 1.05 1.22 1.27 1.24 1.19 1.14 1.01 0.77 0.70 0.70 0.70 0.68 0.65 0.50 0.43 0.29 0.52 0.43 0.52 0.54 0.43 0.47 0.55 0.63 0.67 0.60 0.50 0.47 0.37 0.33 0.36 0.23 0.25 0.32 0.51 0.63
0.53 0.52 0.51 0.50 0.49 0.50 0.48 0.53 0.51 0.50 0.77 0.94 1.19 1.28 1.24 1.20 1.12 0.99 0.79 0.71 0.67 0.62 0.61 0.58 0.52 0.38 0.39 0.35 0.43 0.47 0.47 0.43 0.41 0.48 0.50 0.54 0.49 0.39 0.38 0.33 0.20 0.26 0.23 0.25 0.30 0.49 0.59
0.54 0.51 0.50 0.49 0.46 0.45 0.48 0.49 0.51 0.50 0.59 0.87 1.09 1.19 1.22 1.18 1.09 0.94 0.74 0.56 0.43 0.42 0.46 0.30 0.32 0.34 0.39 0.50 0.52 0.45 0.47 0.40 0.43 0.45 0.36 0.47 0.36 0.29 0.28 0.34 0.36 0.36 0.27 0.25 0.36 0.53 0.51
0.59 0.59 0.58 0.53 0.50 0.48 0.46 0.47 0.50 0.49 0.52 0.82 0.99 1.08 1.19 1.16 1.09 0.90 0.66 0.47 0.45 0.41 0.27 0.40 0.43 0.43 0.49 0.53 0.42 0.48 0.55 0.39 0.40 0.32 0.40 0.37 0.31 0.39 0.43 0.41 0.38 0.36 0.29 0.31 0.44 0.52 0.54
0.65 0.65 0.64 0.60 0.57 0.54 0.50 0.46 0.51 0.47 0.53 0.75 0.94 1.06 1.18 1.14 1.07 0.83 0.55 0.52 0.60 0.48 0.29 0.34 0.43 0.44 0.49 0.53 0.45 0.47 0.57 0.48 0.39 0.34 0.36 0.33 0.39 0.45 0.42 0.39 0.38 0.31 0.31 0.34 0.36 0.48 0.58
0.71 0.71 0.69 0.67 0.66 0.58 0.54 0.50 0.50 0.50 0.51 0.69 0.90 1.04 1.14 1.12 0.92 0.72 0.50 0.60 0.59 0.49 0.19 0.21 0.32 0.44 0.53 0.55 0.41 0.58 0.61 0.52 0.44 0.38 0.43 0.42 0.47 0.42 0.43 0.37 0.39 0.24 0.37 0.38 0.40 0.46 0.34
0.72 0.72 0.69 0.62 0.63 0.59 0.58 0.57 0.55 0.53 0.49 0.71 0.91 1.01 1.12 1.07 0.86 0.57 0.53 0.61 0.54 0.39 0.06 0.22 0.32 0.57 0.57 0.49 0.50 0.50 0.67 0.58 0.43 0.45 0.47 0.41 0.43 0.39 0.39 0.39 0.43 0.31 0.44 0.39 0.42 0.38 0.40
0.73 0.69 0.70 0.68 0.65 0.67 0.64 0.63 0.56 0.57 0.50 0.73 0.94 1.08 1.10 1.02 0.84 0.65 0.62 0.57 0.42 0.15 0.06 0.18 0.33 0.37 0.41 0.45 0.47 0.52 0.53 0.65 0.64 0.50 0.53 0.50 0.57 0.52 0.47 0.47 0.45 0.47 0.42 0.43 0.43 0.36 0.25
0.73 0.71 0.69 0.69 0.70 0.68 0.72 0.63 0.60 0.57 0.55 0.77 0.97 1.06 1.05 0.99 0.69 0.66 0.59 0.41 0.18 0.08 0.20 0.19 0.27 0.36 0.37 0.37 0.39 0.44 0.42 0.44 0.41 0.31 0.32 0.44 0.47 0.55 0.56 0.43 0.47 0.42 0.35 0.26 0.24 0.24 0.24
0.72 0.72 0.71 0.73 0.69 0.69 0.66 0.64 0.65 0.57 0.64 0.79 1.00 1.04 1.02 0.97 0.83 0.63 0.45 0.28 0.11 0.14 0.17 0.28 0.31 0.33 0.31 0.36 0.36 0.38 0.38 0.35 0.45 0.39 0.33 0.29 0.29 0.46 0.54 0.47 0.43 0.40 0.34 0.24 0.18 0.20 0.24
0.73 0.71 0.73 0.71 0.69 0.67 0.69 0.71 0.68 0.62 0.75 0.94 1.01 0.97 0.92 0.91 0.81 0.57 0.34 0.18 0.13 0.14 0.21 0.23 0.27 0.24 0.27 0.33 0.34 0.35 0.37 0.38 0.44 0.44 0.30 0.31 0.33 0.51 0.54 0.56 0.53 0.42 0.32 0.37 0.29 0.32 0.27
0.67 0.72 0.73 0.66 0.64 0.68 0.72 0.72 0.68 0.77 0.85 0.97 0.89 0.85 0.83 0.91 0.77 0.47 0.27 0.21 0.20 0.23 0.25 0.25 0.18 0.24 0.22 0.27 0.28 0.30 0.31 0.40 0.40 0.45 0.46 0.38 0.30 0.46 0.52 0.54 0.52 0.45 0.45 0.31 0.30 0.21 0.18
0.70 0.69 0.65 0.59 0.66 0.69 0.73 0.75 0.74 0.87 1.01 1.01 0.86 0.69 0.85 0.88 0.65 0.37 0.20 0.23 0.24 0.29 0.29 0.23 0.21 0.22 0.24 0.24 0.28 0.27 0.28 0.36 0.43 0.41 0.45 0.38 0.34 0.38 0.44 0.44 0.38 0.38 0.34 0.34 0.33 0.28 0.21
0.68 0.63 0.61 0.60 0.70 0.73 0.80 0.79 0.87 0.93 1.00 0.95 0.79 0.58 0.88 0.79 0.33 0.31 0.23 0.29 0.32 0.27 0.34 0.30 0.29 0.26 0.25 0.26 0.25 0.26 0.26 0.33 0.47 0.45 0.35 0.40 0.35 0.28 0.36 0.49 0.51 0.44 0.36 0.31 0.22 0.22 0.25
0.65 0.60 0.57 0.71 0.78 0.75 0.79 0.85 0.88 1.00 1.01 0.87 0.69 0.68 0.87 0.65 0.22 0.23 0.30 0.31 0.32 0.26 0.28 0.28 0.27 0.30 0.31 0.26 0.22 0.28 0.31 0.41 0.43 0.41 0.36 0.38 0.30 0.22 0.25 0.33 0.38 0.33 0.37 0.36 0.33 0.29 0.22
0.57 0.57 0.68 0.76 0.81 0.80 0.77 0.83 0.93 0.99 1.00 0.89 0.71 0.54 0.57 0.46 0.39 0.27 0.26 0.27 0.27 0.33 0.29 0.33 0.30 0.32 0.30 0.27 0.31 0.27 0.30 0.38 0.41 0.40 0.44 0.41 0.30 0.23 0.18 0.25 0.31 0.27 0.31 0.34 0.30 0.22 0.23
0.53 0.64 0.76 0.79 0.84 0.82 0.89 0.95 1.02 1.04 1.00 0.89 0.72 0.57 0.46 0.24 0.27 0.30 0.31 0.30 0.26 0.24 0.33 0.34 0.28 0.28 0.26 0.22 0.24 0.24 0.31 0.34 0.39 0.41 0.37 0.34 0.26 0.29 0.30 0.32 0.31 0.31 0.30 0.30 0.27 0.29 0.24
0.61 0.72 0.81 0.85 0.93 0.94 0.99 1.02 1.05 1.04 1.01 0.82 0.60 0.43 0.36 0.29 0.32 0.30 0.31 0.28 0.27 0.28 0.29 0.26 0.25 0.29 0.30 0.26 0.26 0.23 0.29 0.29 0.28 0.35 0.33 0.36 0.24 0.26 0.24 0.29 0.29 0.25 0.28 0.29 0.30 0.31 0.31
0.61 0.78 0.82 0.87 0.95 0.96 1.03 1.05 1.05 1.03 0.97 0.78 0.68 0.48 0.34 0.30 0.28 0.28 0.27 0.29 0.30 0.33 0.35 0.34 0.32 0.31 0.29 0.32 0.36 0.37 0.38 0.38 0.36 0.32 0.30 0.30 0.26 0.23 0.18 0.25 0.23 0.18 0.24 0.26 0.28 0.31 0.29
0.67 0.82 0.86 0.89 0.96 0.98 1.02 1.02 1.04 0.99 0.90 0.76 0.56 0.44 0.31 0.23 0.27 0.29 0.31 0.32 0.32 0.34 0.31 0.36 0.37 0.32 0.38 0.46 0.42 0.39 0.37 0.36 0.36 0.35 0.37 0.28 0.26 0.23 0.17 0.18 0.08 0.19 0.27 0.26 0.24 0.25 0.27
0.73 0.81 0.85 0.96 0.99 0.97 1.00 1.00 1.01 0.96 0.84 0.65 0.53 0.41 0.36 0.24 0.31 0.32 0.33 0.32 0.36 0.39 0.36 0.37 0.40 0.45 0.48 0.40 0.29 0.24 0.23 0.25 0.28 0.32 0.32 0.34 0.26 0.18 0.13 0.12 0.16 0.19 0.24 0.23 0.21 0.21 0.28
0.73 0.81 0.87 0.92 0.99 0.97 0.98 0.99 1.01 0.96 0.81 0.59 0.53 0.49 0.42 0.31 0.31 0.36 0.33 0.34 0.30 0.32 0.35 0.38 0.48 0.51 0.45 0.34 0.26 0.16 0.13 0.18 0.18 0.23 0.33 0.31 0.31 0.21 0.18 0.12 0.08 0.17 0.29 0.33 0.29 0.15 0.33
0.70 0.77 0.86 0.91 0.99 0.98 0.97 0.98 1.00 0.94 0.83 0.60 0.48 0.48 0.41 0.34 0.38 0.39 0.33 0.33 0.39 0.36 0.33 0.38 0.41 0.40 0.44 0.29 0.22 0.18 0.17 0.24 0.17 0.17 0.20 0.22 0.23 0.19 0.18 0.15 0.17 0.26 0.31 0.33 0.15 0.16 0.33
0.70 0.80 0.87 0.93 0.99 0.99 0.97 0.96 0.96 0.91 0.81 0.65 0.49 0.50 0.40 0.34 0.39 0.43 0.43 0.39 0.39 0.38 0.30 0.38 0.37 0.38 0.35 0.26 0.23 0.22 0.20 0.22 0.21 0.24 0.22 0.19 0.18 0.17 0.20 0.15 0.11 0.31 0.28 0.20 0.27 0.34 0.34
0.73 0.84 0.92 0.95 0.98 0.99 0.99 0.95 0.95 0.88 0.80 0.66 0.48 0.51 0.51 0.40 0.41 0.50 0.50 0.53 0.50 0.47 0.40 0.41 0.36 0.36 0.37 0.29 0.27 0.27 0.22 0.23 0.21 0.16 0.29 0.20 0.22 0.19 0.20 0.18 0.30 0.34 0.33 0.37 0.37 0.32 0.32

GFSGBSN_prec_pwat_099.txt.gz
Precipitable_Water
0.65 0.61 0.60 0.62 0.60 0.59 0.59 0.62 0.65 0.70 0.84 0.89 1.07 1.20 1.23 1.19 1.19 1.16 1.10 1.09 0.93 0.77 0.80 0.87 0.85 0.81 0.59 0.39 0.33 0.54 0.63 0.58 0.53 0.46 0.39 0.36 0.31 0.30 0.22 0.27 0.32 0.33 0.36 0.40 0.41 0.45 0.51
0.67 0.65 0.62 0.59 0.59 0.58 0.55 0.55 0.55 0.59 0.69 0.82 0.93 1.10 1.20 1.24 1.24 1.16 1.12 1.05 0.88 0.84 0.79 0.82 0.83 0.78 0.48 0.25 0.40 0.50 0.48 0.49 0.46 0.44 0.41 0.42 0.37 0.39 0.32 0.28 0.29 0.30 0.34 0.36 0.43 0.42 0.48
0.64 0.66 0.66 0.65 0.64 0.62 0.57 0.52 0.53 0.53 0.52 0.65 0.78 0.98 1.16 1.16 1.17 1.13 1.13 1.05 0.84 0.83 0.75 0.83 0.83 0.66 0.39 0.26 0.43 0.50 0.49 0.47 0.49 0.44 0.39 0.49 0.49 0.45 0.44 0.33 0.33 0.32 0.32 0.40 0.35 0.41 0.45
0.65 0.62 0.61 0.63 0.62 0.61 0.57 0.54 0.49 0.50 0.52 0.53 0.66 0.92 1.06 1.10 1.13 1.11 1.08 1.03 0.83 0.79 0.79 0.80 0.76 0.53 0.26 0.43 0.50 0.48 0.51 0.48 0.50 0.52 0.49 0.54 0.61 0.53 0.46 0.48 0.35 0.28 0.34 0.29 0.30 0.37 0.48
0.67 0.66 0.65 0.61 0.59 0.55 0.52 0.52 0.50 0.48 0.49 0.51 0.56 0.79 1.01 1.07 1.10 1.13 1.07 0.95 0.82 0.83 0.79 0.74 0.52 0.39 0.27 0.51 0.41 0.47 0.50 0.42 0.47 0.49 0.54 0.61 0.59 0.49 0.49 0.37 0.26 0.30 0.22 0.29 0.30 0.34 0.44
0.67 0.67 0.64 0.63 0.62 0.58 0.54 0.51 0.51 0.48 0.46 0.47 0.58 0.74 0.91 1.02 1.10 1.10 1.04 0.93 0.81 0.76 0.68 0.59 0.50 0.37 0.38 0.36 0.44 0.45 0.48 0.44 0.37 0.39 0.43 0.49 0.48 0.39 0.39 0.32 0.17 0.25 0.24 0.29 0.31 0.35 0.39
0.69 0.69 0.68 0.67 0.65 0.63 0.60 0.56 0.53 0.50 0.49 0.44 0.55 0.77 0.93 0.93 1.05 1.08 1.02 0.75 0.53 0.51 0.49 0.30 0.33 0.36 0.39 0.48 0.54 0.45 0.49 0.43 0.38 0.37 0.31 0.43 0.35 0.29 0.32 0.31 0.33 0.37 0.28 0.27 0.33 0.45 0.39
0.67 0.67 0.67 0.69 0.69 0.69 0.67 0.65 0.57 0.55 0.51 0.46 0.52 0.70 0.86 0.91 1.00 1.04 0.99 0.56 0.52 0.49 0.29 0.42 0.42 0.44 0.50 0.50 0.39 0.47 0.57 0.40 0.38 0.29 0.39 0.36 0.30 0.38 0.38 0.34 0.33 0.36 0.28 0.29 0.36 0.48 0.42
0.68 0.69 0.69 0.70 0.74 0.74 0.69 0.69 0.63 0.57 0.57 0.49 0.53 0.73 0.85 0.84 0.95 1.02 0.86 0.58 0.69 0.55 0.28 0.33 0.42 0.43 0.48 0.50 0.41 0.44 0.55 0.50 0.41 0.36 0.38 0.34 0.38 0.46 0.41 0.32 0.34 0.33 0.28 0.34 0.32 0.44 0.48
0.71 0.75 0.78 0.75 0.73 0.67 0.70 0.63 0.63 0.59 0.59 0.51 0.52 0.71 0.82 0.82 0.89 0.93 0.72 0.67 0.68 0.53 0.17 0.21 0.32 0.44 0.52 0.54 0.39 0.57 0.63 0.55 0.47 0.40 0.42 0.39 0.47 0.42 0.38 0.33 0.38 0.27 0.39 0.37 0.35 0.34 0.30
0.72 0.76 0.76 0.78 0.72 0.69 0.69 0.67 0.62 0.61 0.59 0.52 0.56 0.71 0.83 0.79 0.84 0.82 0.68 0.72 0.63 0.41 0.06 0.22 0.32 0.56 0.53 0.45 0.48 0.50 0.68 0.58 0.46 0.46 0.46 0.38 0.42 0.38 0.36 0.36 0.41 0.32 0.46 0.42 0.44 0.35 0.38
0.74 0.76 0.77 0.74 0.70 0.70 0.70 0.68 0.66 0.62 0.57 0.52 0.56 0.74 0.80 0.78 0.94 0.90 0.75 0.66 0.45 0.15 0.06 0.19 0.33 0.38 0.38 0.41 0.44 0.53 0.57 0.65 0.63 0.51 0.49 0.45 0.54 0.48 0.44 0.45 0.44 0.42 0.43 0.44 0.45 0.36 0.25
0.76 0.78 0.74 0.75 0.73 0.74 0.73 0.71 0.69 0.65 0.62 0.56 0.59 0.80 0.80 0.87 0.79 0.89 0.72 0.48 0.17 0.08 0.19 0.20 0.27 0.37 0.36 0.33 0.38 0.44 0.44 0.44 0.40 0.35 0.35 0.44 0.43 0.52 0.55 0.44 0.49 0.43 0.34 0.26 0.22 0.23 0.23
0.76 0.76 0.75 0.71 0.73 0.75 0.73 0.70 0.68 0.67 0.64 0.58 0.72 0.80 0.83 0.93 0.96 0.84 0.58 0.30 0.11 0.13 0.17 0.28 0.32 0.35 0.30 0.35 0.37 0.41 0.40 0.38 0.46 0.42 0.36 0.32 0.30 0.46 0.54 0.46 0.41 0.39 0.34 0.23 0.16 0.20 0.25
0.75 0.73 0.70 0.72 0.74 0.71 0.68 0.70 0.69 0.71 0.61 0.61 0.80 0.76 0.79 0.93 0.94 0.78 0.42 0.18 0.14 0.14 0.22 0.25 0.29 0.26 0.27 0.34 0.36 0.36 0.38 0.38 0.42 0.45 0.33 0.31 0.32 0.53 0.54 0.54 0.49 0.36 0.27 0.35 0.26 0.30 0.26
0.66 0.63 0.68 0.70 0.68 0.65 0.69 0.73 0.71 0.68 0.63 0.73 0.70 0.70 0.76 0.94 0.90 0.63 0.31 0.20 0.23 0.23 0.27 0.27 0.19 0.27 0.23 0.27 0.28 0.30 0.31 0.42 0.39 0.46 0.49 0.40 0.33 0.47 0.51 0.57 0.50 0.42 0.41 0.27 0.29 0.19 0.19
0.57 0.63 0.68 0.68 0.62 0.68 0.73 0.77 0.73 0.77 0.74 0.81 0.68 0.59 0.81 0.92 0.81 0.46 0.21 0.23 0.25 0.28 0.30 0.25 0.20 0.23 0.26 0.25 0.28 0.28 0.30 0.39 0.45 0.44 0.43 0.41 0.38 0.38 0.46 0.43 0.39 0.39 0.33 0.31 0.30 0.25 0.19
0.59 0.65 0.64 0.66 0.72 0.76 0.77 0.80 0.79 0.75 0.82 0.76 0.69 0.53 0.83 0.87 0.49 0.34 0.23 0.29 0.32 0.26 0.34 0.29 0.28 0.27 0.26 0.27 0.26 0.27 0.27 0.35 0.47 0.45 0.34 0.40 0.36 0.31 0.36 0.47 0.49 0.43 0.35 0.31 0.22 0.20 0.23
0.62 0.65 0.72 0.75 0.80 0.82 0.81 0.83 0.76 0.78 0.82 0.72 0.63 0.62 0.83 0.76 0.33 0.23 0.31 0.31 0.30 0.26 0.27 0.25 0.25 0.30 0.31 0.27 0.23 0.29 0.31 0.41 0.43 0.40 0.35 0.36 0.30 0.22 0.26 0.34 0.41 0.35 0.37 0.34 0.30 0.28 0.21
0.67 0.75 0.78 0.83 0.85 0.81 0.81 0.81 0.82 0.88 0.92 0.83 0.65 0.48 0.59 0.62 0.43 0.28 0.27 0.27 0.24 0.32 0.29 0.29 0.27 0.31 0.29 0.26 0.31 0.26 0.29 0.36 0.40 0.39 0.43 0.39 0.28 0.22 0.18 0.22 0.29 0.25 0.29 0.32 0.27 0.19 0.21
0.74 0.80 0.83 0.87 0.82 0.72 0.77 0.84 0.91 0.89 0.95 0.86 0.69 0.55 0.58 0.37 0.28 0.30 0.31 0.29 0.25 0.21 0.30 0.30 0.25 0.27 0.27 0.21 0.23 0.24 0.30 0.32 0.37 0.37 0.35 0.34 0.25 0.28 0.29 0.31 0.30 0.29 0.28 0.28 0.25 0.27 0.20
0.79 0.84 0.89 0.88 0.89 0.80 0.82 0.91 0.90 0.97 0.98 0.81 0.64 0.58 0.56 0.35 0.32 0.29 0.30 0.27 0.26 0.26 0.26 0.23 0.22 0.27 0.29 0.25 0.26 0.22 0.27 0.28 0.27 0.33 0.31 0.33 0.22 0.25 0.23 0.28 0.27 0.25 0.28 0.28 0.28 0.28 0.28
0.78 0.85 0.92 0.87 0.90 0.90 0.93 0.99 0.97 0.97 0.94 0.76 0.72 0.58 0.42 0.30 0.28 0.27 0.26 0.29 0.29 0.31 0.32 0.31 0.28 0.28 0.28 0.32 0.36 0.37 0.37 0.36 0.34 0.30 0.30 0.29 0.24 0.21 0.16 0.23 0.21 0.16 0.22 0.23 0.26 0.28 0.27
0.76 0.81 0.90 0.88 0.92 0.96 0.98 0.96 0.92 0.91 0.87 0.77 0.67 0.50 0.30 0.23 0.26 0.27 0.31 0.33 0.32 0.32 0.28 0.32 0.34 0.32 0.38 0.44 0.42 0.39 0.36 0.34 0.34 0.33 0.35 0.26 0.23 0.22 0.16 0.16 0.07 0.19 0.26 0.25 0.22 0.23 0.25
0.71 0.77 0.82 0.91 0.96 0.99 1.00 0.95 0.88 0.83 0.76 0.68 0.63 0.42 0.33 0.22 0.28 0.32 0.33 0.34 0.36 0.37 0.34 0.34 0.38 0.44 0.48 0.39 0.29 0.23 0.23 0.24 0.26 0.30 0.30 0.31 0.23 0.16 0.11 0.11 0.15 0.18 0.23 0.23 0.20 0.20 0.28
0.65 0.72 0.78 0.90 0.92 0.94 0.98 0.96 0.92 0.88 0.77 0.67 0.52 0.48 0.39 0.27 0.27 0.36 0.34 0.36 0.30 0.31 0.33 0.37 0.47 0.51 0.45 0.33 0.24 0.15 0.12 0.17 0.17 0.21 0.31 0.30 0.28 0.18 0.15 0.10 0.07 0.17 0.27 0.32 0.28 0.14 0.30
0.66 0.77 0.84 0.87 0.90 0.92 0.95 0.98 0.93 0.91 0.81 0.67 0.46 0.47 0.39 0.31 0.36 0.39 0.33 0.33 0.39 0.36 0.32 0.37 0.39 0.39 0.43 0.29 0.21 0.17 0.15 0.22 0.15 0.16 0.18 0.20 0.21 0.17 0.16 0.13 0.15 0.24 0.29 0.31 0.14 0.14 0.30
0.68 0.81 0.84 0.88 0.91 0.94 0.95 0.97 0.95 0.90 0.83 0.63 0.47 0.48 0.38 0.33 0.38 0.42 0.42 0.39 0.39 0.38 0.30 0.37 0.35 0.36 0.34 0.25 0.23 0.21 0.19 0.21 0.20 0.22 0.20 0.18 0.16 0.16 0.19 0.14 0.09 0.29 0.27 0.18 0.25 0.31 0.31
0.71 0.82 0.88 0.88 0.91 0.92 0.93 0.95 0.93 0.86 0.80 0.65 0.45 0.47 0.50 0.39 0.39 0.49 0.50 0.53 0.49 0.47 0.41 0.41 0.36 0.36 0.37 0.29 0.27 0.27 0.22 0.23 0.21 0.15 0.27 0.18 0.21 0.17 0.18 0.16 0.26 0.32 0.30 0.35 0.34 0.30 0.30

GFSGBSN_prec_pwat_102.txt.gz
Precipitable_Water
0.76 0.75 0.73 0.73 0.71 0.70 0.65 0.60 0.58 0.57 0.57 0.56 0.61 0.75 0.93 1.04 1.11 1.10 1.10 1.08 1.06 1.07 0.91 0.87 0.92 0.87 0.68 0.46 0.38 0.57 0.67 0.63 0.58 0.47 0.37 0.35 0.29 0.27 0.21 0.25 0.30 0.29 0.30 0.35 0.41 0.40 0.40
0.79 0.76 0.71 0.69 0.69 0.70 0.69 0.63 0.60 0.56 0.54 0.55 0.56 0.64 0.83 0.92 1.05 1.04 1.04 1.10 0.99 1.03 0.91 0.83 0.87 0.83 0.57 0.32 0.43 0.51 0.52 0.50 0.48 0.43 0.40 0.40 0.35 0.38 0.30 0.28 0.26 0.25 0.27 0.29 0.40 0.39 0.39
0.74 0.78 0.74 0.72 0.69 0.69 0.69 0.65 0.59 0.55 0.54 0.51 0.56 0.57 0.73 0.85 1.01 0.98 0.98 1.04 1.02 1.00 0.85 0.79 0.89 0.72 0.49 0.35 0.45 0.50 0.48 0.46 0.49 0.45 0.36 0.43 0.46 0.39 0.40 0.33 0.38 0.30 0.23 0.29 0.32 0.32 0.36
0.80 0.77 0.76 0.76 0.75 0.71 0.69 0.66 0.61 0.57 0.53 0.47 0.51 0.54 0.68 0.81 0.99 0.95 0.98 0.96 1.02 0.86 0.84 0.81 0.84 0.65 0.37 0.45 0.49 0.46 0.49 0.48 0.52 0.51 0.47 0.50 0.51 0.46 0.44 0.45 0.39 0.32 0.27 0.19 0.28 0.37 0.39
0.79 0.79 0.79 0.77 0.76 0.74 0.72 0.67 0.64 0.59 0.55 0.50 0.47 0.52 0.64 0.73 0.91 0.91 0.92 0.94 0.98 0.85 0.87 0.82 0.66 0.51 0.32 0.52 0.42 0.48 0.50 0.41 0.47 0.50 0.50 0.51 0.49 0.42 0.44 0.34 0.30 0.29 0.19 0.18 0.23 0.37 0.36
0.79 0.76 0.74 0.72 0.73 0.72 0.70 0.66 0.64 0.62 0.57 0.55 0.47 0.50 0.61 0.78 0.84 0.89 0.89 0.98 0.91 0.85 0.77 0.67 0.54 0.40 0.43 0.35 0.45 0.47 0.49 0.45 0.39 0.40 0.39 0.42 0.43 0.37 0.38 0.32 0.20 0.20 0.22 0.22 0.23 0.33 0.36
0.77 0.76 0.76 0.73 0.69 0.69 0.68 0.70 0.72 0.70 0.63 0.59 0.51 0.50 0.81 0.93 0.87 0.87 0.85 0.90 0.64 0.53 0.52 0.35 0.35 0.37 0.39 0.47 0.53 0.49 0.52 0.45 0.42 0.34 0.25 0.37 0.32 0.28 0.33 0.36 0.35 0.28 0.26 0.24 0.32 0.35 0.33
0.75 0.76 0.75 0.73 0.72 0.74 0.76 0.74 0.74 0.69 0.70 0.63 0.54 0.52 0.65 0.81 0.91 0.85 0.82 0.72 0.57 0.57 0.36 0.44 0.44 0.45 0.51 0.52 0.40 0.49 0.61 0.44 0.42 0.33 0.38 0.37 0.30 0.38 0.39 0.36 0.33 0.32 0.27 0.28 0.39 0.40 0.34
0.72 0.71 0.71 0.73 0.75 0.78 0.76 0.72 0.69 0.65 0.67 0.63 0.57 0.55 0.69 0.77 0.81 0.75 0.74 0.74 0.75 0.60 0.35 0.34 0.43 0.46 0.49 0.51 0.42 0.48 0.55 0.53 0.44 0.38 0.39 0.34 0.37 0.44 0.37 0.31 0.31 0.31 0.30 0.31 0.36 0.42 0.43
0.70 0.71 0.74 0.76 0.77 0.78 0.75 0.73 0.70 0.68 0.63 0.62 0.58 0.65 0.86 0.80 0.73 0.74 0.73 0.77 0.72 0.61 0.22 0.22 0.35 0.45 0.51 0.53 0.43 0.60 0.62 0.57 0.49 0.40 0.43 0.38 0.44 0.39 0.36 0.30 0.33 0.26 0.37 0.36 0.33 0.31 0.26
0.70 0.73 0.77 0.77 0.79 0.76 0.73 0.72 0.71 0.69 0.64 0.63 0.58 0.69 0.83 0.79 0.64 0.66 0.82 0.73 0.68 0.48 0.09 0.22 0.35 0.56 0.51 0.43 0.48 0.53 0.70 0.62 0.46 0.43 0.42 0.34 0.37 0.34 0.34 0.35 0.39 0.35 0.41 0.41 0.37 0.35 0.36
0.73 0.72 0.74 0.78 0.77 0.79 0.74 0.75 0.74 0.71 0.62 0.61 0.58 0.67 0.82 0.69 0.72 0.78 0.84 0.71 0.52 0.19 0.08 0.20 0.36 0.38 0.36 0.43 0.48 0.56 0.60 0.67 0.63 0.47 0.44 0.42 0.52 0.47 0.43 0.44 0.47 0.51 0.46 0.46 0.43 0.38 0.29
0.72 0.75 0.74 0.77 0.75 0.75 0.75 0.78 0.73 0.72 0.69 0.66 0.57 0.61 0.72 0.71 0.59 0.90 0.81 0.55 0.20 0.11 0.19 0.21 0.29 0.36 0.34 0.37 0.41 0.48 0.47 0.45 0.41 0.35 0.34 0.41 0.43 0.48 0.50 0.41 0.49 0.49 0.43 0.27 0.26 0.26 0.26
0.69 0.70 0.65 0.68 0.70 0.75 0.76 0.76 0.70 0.70 0.72 0.62 0.58 0.75 0.78 0.76 0.84 0.88 0.66 0.34 0.12 0.15 0.19 0.30 0.33 0.33 0.30 0.37 0.39 0.42 0.42 0.39 0.47 0.45 0.36 0.32 0.28 0.48 0.54 0.44 0.38 0.42 0.38 0.27 0.20 0.22 0.27
0.63 0.60 0.60 0.65 0.71 0.74 0.72 0.72 0.72 0.72 0.66 0.57 0.68 0.71 0.68 0.75 0.92 0.81 0.51 0.19 0.17 0.16 0.25 0.27 0.30 0.26 0.29 0.34 0.36 0.37 0.36 0.39 0.43 0.44 0.34 0.33 0.32 0.52 0.53 0.53 0.51 0.38 0.33 0.38 0.29 0.33 0.28
0.66 0.64 0.66 0.69 0.71 0.72 0.68 0.75 0.71 0.67 0.62 0.65 0.66 0.60 0.61 0.85 0.90 0.70 0.38 0.22 0.24 0.25 0.30 0.30 0.21 0.27 0.23 0.28 0.30 0.32 0.33 0.42 0.42 0.49 0.50 0.42 0.33 0.47 0.50 0.51 0.48 0.40 0.42 0.30 0.30 0.21 0.21
0.70 0.70 0.71 0.71 0.73 0.71 0.73 0.72 0.72 0.68 0.65 0.73 0.62 0.47 0.67 0.87 0.82 0.53 0.22 0.24 0.27 0.31 0.33 0.26 0.22 0.24 0.24 0.26 0.29 0.30 0.33 0.40 0.45 0.43 0.48 0.44 0.40 0.41 0.45 0.39 0.36 0.37 0.32 0.32 0.29 0.27 0.20
0.79 0.78 0.78 0.78 0.79 0.78 0.75 0.74 0.77 0.72 0.70 0.71 0.56 0.42 0.81 0.86 0.49 0.42 0.24 0.30 0.32 0.28 0.36 0.29 0.30 0.27 0.25 0.27 0.27 0.28 0.30 0.38 0.46 0.45 0.38 0.44 0.41 0.34 0.38 0.49 0.47 0.41 0.33 0.31 0.24 0.21 0.24
0.79 0.86 0.87 0.84 0.80 0.73 0.76 0.72 0.75 0.81 0.71 0.61 0.57 0.61 0.81 0.74 0.37 0.24 0.30 0.32 0.30 0.27 0.29 0.26 0.26 0.30 0.30 0.27 0.23 0.29 0.31 0.42 0.45 0.41 0.37 0.40 0.33 0.26 0.29 0.37 0.41 0.36 0.36 0.33 0.29 0.27 0.20
0.85 0.88 0.79 0.73 0.73 0.74 0.66 0.67 0.67 0.72 0.76 0.77 0.64 0.48 0.57 0.58 0.45 0.27 0.27 0.28 0.23 0.33 0.30 0.30 0.28 0.32 0.28 0.26 0.30 0.26 0.28 0.35 0.41 0.41 0.42 0.39 0.30 0.24 0.20 0.25 0.30 0.27 0.28 0.29 0.25 0.20 0.20
0.82 0.88 0.79 0.76 0.78 0.76 0.80 0.84 0.84 0.87 0.81 0.77 0.65 0.51 0.53 0.38 0.29 0.28 0.32 0.30 0.22 0.21 0.30 0.29 0.25 0.28 0.26 0.20 0.23 0.24 0.29 0.30 0.35 0.36 0.37 0.35 0.26 0.29 0.29 0.30 0.31 0.28 0.27 0.27 0.23 0.24 0.22
0.78 0.84 0.82 0.79 0.76 0.77 0.79 0.82 0.86 0.89 0.90 0.78 0.62 0.52 0.47 0.34 0.31 0.29 0.32 0.27 0.24 0.24 0.25 0.22 0.22 0.27 0.28 0.24 0.25 0.22 0.27 0.27 0.26 0.32 0.30 0.33 0.24 0.27 0.24 0.28 0.27 0.23 0.26 0.27 0.27 0.27 0.25
0.74 0.80 0.82 0.81 0.83 0.82 0.85 0.89 0.91 0.93 0.94 0.74 0.66 0.60 0.49 0.29 0.27 0.27 0.27 0.29 0.27 0.30 0.29 0.30 0.28 0.27 0.26 0.31 0.35 0.36 0.36 0.34 0.33 0.30 0.28 0.26 0.23 0.20 0.15 0.22 0.20 0.16 0.21 0.23 0.24 0.26 0.24
0.72 0.76 0.85 0.87 0.86 0.86 0.84 0.85 0.86 0.87 0.86 0.74 0.59 0.41 0.28 0.22 0.26 0.26 0.29 0.33 0.31 0.31 0.27 0.31 0.33 0.29 0.37 0.44 0.41 0.37 0.35 0.33 0.32 0.30 0.32 0.24 0.22 0.20 0.14 0.15 0.08 0.18 0.25 0.24 0.21 0.22 0.24
0.67 0.77 0.84 0.90 0.88 0.83 0.82 0.81 0.80 0.74 0.71 0.66 0.60 0.40 0.29 0.21 0.26 0.28 0.31 0.33 0.35 0.36 0.32 0.32 0.37 0.42 0.45 0.38 0.28 0.22 0.21 0.22 0.24 0.28 0.28 0.28 0.21 0.14 0.11 0.10 0.13 0.17 0.21 0.21 0.19 0.19 0.28
0.61 0.71 0.79 0.84 0.88 0.86 0.85 0.83 0.82 0.77 0.70 0.61 0.51 0.47 0.36 0.25 0.24 0.33 0.32 0.35 0.31 0.31 0.32 0.36 0.45 0.49 0.43 0.32 0.24 0.15 0.12 0.16 0.15 0.20 0.29 0.27 0.25 0.17 0.14 0.09 0.07 0.15 0.25 0.30 0.26 0.14 0.28
0.63 0.71 0.78 0.82 0.85 0.89 0.88 0.85 0.84 0.80 0.74 0.61 0.47 0.47 0.39 0.28 0.34 0.37 0.32 0.31 0.38 0.35 0.31 0.36 0.38 0.38 0.42 0.28 0.21 0.17 0.15 0.21 0.14 0.14 0.17 0.19 0.19 0.15 0.14 0.12 0.13 0.21 0.27 0.30 0.12 0.13 0.27
0.65 0.72 0.79 0.82 0.83 0.88 0.91 0.88 0.87 0.82 0.73 0.61 0.46 0.48 0.38 0.32 0.36 0.41 0.41 0.37 0.37 0.37 0.30 0.37 0.35 0.36 0.33 0.25 0.23 0.21 0.19 0.20 0.19 0.21 0.19 0.17 0.16 0.15 0.17 0.13 0.09 0.26 0.26 0.16 0.21 0.27 0.27
0.64 0.74 0.80 0.81 0.82 0.86 0.92 0.92 0.87 0.81 0.75 0.67 0.42 0.46 0.49 0.37 0.37 0.48 0.48 0.50 0.47 0.46 0.41 0.40 0.35 0.35 0.36 0.29 0.28 0.27 0.22 0.23 0.21 0.16 0.26 0.17 0.21 0.18 0.18 0.15 0.24 0.29 0.26 0.31 0.31 0.27 0.29

GFSGBSN_prec_pwat_105.txt.gz
Precipitable_Water
0.78 0.81 0.83 0.82 0.80 0.76 0.75 0.76 0.71 0.62 0.62 0.56 0.57 0.60 0.61 0.77 0.86 1.07 1.03 1.00 1.02 0.98 0.96 0.91 0.86 0.89 0.70 0.53 0.44 0.60 0.65 0.68 0.64 0.51 0.41 0.39 0.34 0.30 0.24 0.25 0.27 0.28 0.31 0.36 0.39 0.41 0.43
0.81 0.88 0.89 0.88 0.86 0.84 0.82 0.80 0.75 0.67 0.59 0.60 0.55 0.54 0.56 0.70 0.79 0.96 0.99 0.94 0.95 0.93 0.96 0.88 0.84 0.83 0.61 0.38 0.47 0.54 0.56 0.53 0.47 0.46 0.42 0.40 0.34 0.34 0.28 0.26 0.25 0.26 0.25 0.27 0.31 0.35 0.42
0.87 0.91 0.91 0.88 0.86 0.87 0.84 0.81 0.78 0.71 0.64 0.59 0.55 0.52 0.53 0.70 0.74 0.87 0.94 0.95 0.90 0.97 0.88 0.81 0.82 0.76 0.52 0.43 0.47 0.49 0.47 0.46 0.51 0.46 0.39 0.42 0.42 0.36 0.35 0.29 0.35 0.32 0.27 0.25 0.25 0.31 0.35
0.88 0.91 0.88 0.88 0.85 0.83 0.81 0.81 0.80 0.73 0.67 0.61 0.58 0.51 0.50 0.64 0.89 0.92 0.92 0.99 0.92 0.86 0.76 0.72 0.84 0.67 0.43 0.51 0.48 0.45 0.46 0.46 0.53 0.53 0.48 0.50 0.49 0.40 0.37 0.41 0.36 0.31 0.31 0.24 0.22 0.24 0.31
0.89 0.88 0.86 0.87 0.87 0.86 0.83 0.79 0.75 0.75 0.74 0.65 0.59 0.50 0.47 0.55 0.67 0.85 0.98 0.85 0.81 0.85 0.76 0.80 0.70 0.55 0.37 0.53 0.40 0.44 0.47 0.45 0.50 0.53 0.52 0.52 0.48 0.41 0.42 0.31 0.27 0.30 0.21 0.24 0.24 0.24 0.31
0.82 0.85 0.84 0.84 0.85 0.84 0.80 0.77 0.77 0.74 0.75 0.68 0.60 0.47 0.57 0.58 0.68 0.77 0.83 0.93 0.88 0.81 0.79 0.73 0.59 0.39 0.43 0.37 0.47 0.49 0.54 0.50 0.42 0.43 0.42 0.40 0.40 0.34 0.35 0.31 0.19 0.25 0.26 0.23 0.22 0.21 0.31
0.77 0.76 0.77 0.79 0.78 0.78 0.76 0.77 0.77 0.76 0.75 0.69 0.64 0.51 0.69 0.95 0.77 0.81 0.85 0.79 0.61 0.54 0.59 0.39 0.37 0.39 0.40 0.47 0.54 0.51 0.57 0.53 0.48 0.42 0.32 0.40 0.33 0.25 0.31 0.35 0.35 0.31 0.26 0.23 0.28 0.22 0.35
0.71 0.72 0.75 0.78 0.81 0.80 0.79 0.79 0.80 0.77 0.73 0.66 0.65 0.56 0.69 0.81 0.91 0.89 0.89 0.58 0.60 0.61 0.40 0.45 0.42 0.45 0.51 0.54 0.43 0.51 0.61 0.48 0.45 0.37 0.43 0.39 0.30 0.36 0.41 0.38 0.34 0.33 0.24 0.23 0.27 0.35 0.33
0.76 0.76 0.75 0.77 0.74 0.81 0.79 0.81 0.76 0.76 0.67 0.63 0.59 0.54 0.60 0.69 0.80 0.88 0.74 0.67 0.66 0.63 0.37 0.36 0.42 0.47 0.51 0.55 0.46 0.49 0.58 0.54 0.46 0.42 0.41 0.34 0.36 0.43 0.39 0.31 0.26 0.27 0.25 0.29 0.35 0.34 0.38
0.72 0.71 0.72 0.73 0.74 0.75 0.77 0.76 0.77 0.73 0.68 0.61 0.56 0.60 0.68 0.75 0.62 0.68 0.65 0.84 0.69 0.63 0.25 0.25 0.36 0.47 0.52 0.54 0.47 0.64 0.65 0.57 0.47 0.37 0.40 0.36 0.42 0.37 0.33 0.28 0.29 0.24 0.34 0.38 0.37 0.30 0.24
0.68 0.66 0.70 0.73 0.76 0.78 0.78 0.77 0.73 0.71 0.65 0.58 0.55 0.68 0.88 0.75 0.73 0.62 0.79 0.81 0.72 0.52 0.12 0.27 0.38 0.57 0.54 0.50 0.53 0.57 0.71 0.59 0.40 0.38 0.38 0.32 0.34 0.33 0.32 0.31 0.34 0.31 0.40 0.38 0.43 0.37 0.34
0.68 0.66 0.71 0.71 0.73 0.74 0.76 0.76 0.74 0.72 0.66 0.57 0.56 0.70 0.89 0.68 0.75 0.80 0.83 0.72 0.55 0.20 0.11 0.23 0.40 0.40 0.42 0.49 0.51 0.59 0.60 0.63 0.55 0.41 0.42 0.37 0.47 0.44 0.41 0.43 0.42 0.45 0.42 0.45 0.47 0.41 0.25
0.70 0.65 0.62 0.62 0.67 0.69 0.75 0.77 0.75 0.73 0.66 0.62 0.57 0.69 0.77 0.73 0.64 0.84 0.80 0.55 0.21 0.13 0.21 0.25 0.33 0.38 0.40 0.39 0.43 0.48 0.48 0.47 0.39 0.31 0.29 0.37 0.39 0.47 0.52 0.42 0.49 0.47 0.41 0.29 0.27 0.28 0.22
0.74 0.68 0.63 0.61 0.67 0.72 0.74 0.73 0.70 0.72 0.68 0.62 0.54 0.66 0.71 0.75 0.90 0.84 0.67 0.33 0.14 0.18 0.22 0.34 0.36 0.36 0.34 0.39 0.39 0.42 0.44 0.42 0.49 0.42 0.36 0.29 0.27 0.40 0.51 0.49 0.44 0.44 0.41 0.30 0.23 0.24 0.26
0.79 0.77 0.73 0.70 0.71 0.75 0.73 0.73 0.72 0.69 0.67 0.59 0.63 0.68 0.67 0.79 0.88 0.83 0.48 0.22 0.19 0.21 0.29 0.32 0.33 0.30 0.31 0.35 0.35 0.37 0.39 0.41 0.45 0.47 0.37 0.35 0.31 0.49 0.53 0.54 0.51 0.43 0.34 0.41 0.35 0.34 0.29
0.84 0.83 0.77 0.74 0.70 0.71 0.71 0.69 0.65 0.62 0.58 0.60 0.65 0.63 0.63 0.87 0.90 0.71 0.35 0.25 0.24 0.30 0.36 0.33 0.24 0.29 0.25 0.29 0.31 0.33 0.36 0.46 0.45 0.50 0.54 0.42 0.29 0.43 0.47 0.53 0.53 0.43 0.43 0.33 0.34 0.23 0.23
0.80 0.83 0.82 0.73 0.67 0.67 0.68 0.64 0.61 0.58 0.60 0.69 0.59 0.47 0.70 0.89 0.81 0.52 0.26 0.26 0.27 0.35 0.38 0.30 0.26 0.24 0.26 0.27 0.31 0.31 0.33 0.43 0.47 0.48 0.52 0.48 0.39 0.35 0.43 0.40 0.38 0.38 0.33 0.31 0.31 0.27 0.21
0.78 0.71 0.75 0.68 0.67 0.64 0.62 0.61 0.62 0.61 0.69 0.67 0.52 0.34 0.73 0.84 0.49 0.36 0.26 0.30 0.33 0.33 0.37 0.32 0.31 0.28 0.27 0.29 0.28 0.30 0.32 0.38 0.49 0.51 0.42 0.47 0.41 0.31 0.34 0.44 0.44 0.43 0.35 0.32 0.27 0.21 0.24
0.80 0.66 0.65 0.64 0.60 0.57 0.56 0.56 0.61 0.65 0.67 0.57 0.50 0.55 0.79 0.74 0.34 0.26 0.30 0.30 0.32 0.30 0.29 0.29 0.28 0.29 0.32 0.28 0.26 0.30 0.31 0.43 0.47 0.45 0.42 0.45 0.37 0.28 0.28 0.34 0.37 0.32 0.32 0.32 0.31 0.32 0.23
0.79 0.81 0.75 0.73 0.64 0.59 0.61 0.63 0.67 0.75 0.85 0.78 0.61 0.45 0.54 0.50 0.39 0.29 0.26 0.25 0.23 0.34 0.30 0.30 0.29 0.31 0.28 0.25 0.30 0.26 0.29 0.35 0.42 0.41 0.42 0.43 0.35 0.32 0.26 0.28 0.31 0.27 0.28 0.28 0.28 0.24 0.23
0.86 0.80 0.76 0.77 0.80 0.80 0.80 0.80 0.81 0.85 0.87 0.77 0.59 0.45 0.46 0.30 0.28 0.28 0.31 0.28 0.22 0.22 0.30 0.30 0.26 0.28 0.26 0.21 0.24 0.23 0.27 0.30 0.35 0.38 0.38 0.38 0.26 0.29 0.30 0.31 0.31 0.27 0.26 0.27 0.24 0.27 0.24
0.79 0.83 0.81 0.77 0.77 0.84 0.88 0.87 0.85 0.85 0.84 0.73 0.54 0.42 0.38 0.34 0.30 0.27 0.29 0.27 0.22 0.25 0.27 0.23 0.23 0.28 0.28 0.24 0.25 0.23 0.26 0.27 0.27 0.32 0.31 0.35 0.25 0.27 0.22 0.26 0.26 0.22 0.25 0.26 0.25 0.27 0.27
0.77 0.81 0.83 0.82 0.82 0.83 0.84 0.86 0.85 0.84 0.87 0.70 0.64 0.55 0.40 0.29 0.26 0.24 0.26 0.29 0.26 0.28 0.29 0.30 0.29 0.28 0.26 0.29 0.34 0.34 0.34 0.34 0.33 0.29 0.25 0.24 0.23 0.21 0.16 0.21 0.19 0.16 0.20 0.21 0.23 0.25 0.25
0.73 0.82 0.84 0.82 0.79 0.78 0.78 0.80 0.82 0.83 0.83 0.62 0.48 0.41 0.27 0.20 0.23 0.24 0.28 0.31 0.29 0.29 0.26 0.29 0.32 0.29 0.36 0.42 0.38 0.36 0.33 0.32 0.31 0.30 0.32 0.23 0.21 0.20 0.14 0.15 0.08 0.18 0.24 0.23 0.20 0.22 0.25
0.69 0.76 0.82 0.80 0.77 0.76 0.76 0.73 0.69 0.68 0.68 0.59 0.48 0.38 0.28 0.20 0.25 0.26 0.28 0.31 0.33 0.33 0.30 0.30 0.34 0.41 0.44 0.36 0.28 0.22 0.22 0.23 0.23 0.27 0.27 0.28 0.21 0.15 0.13 0.11 0.13 0.15 0.18 0.19 0.17 0.17 0.23
0.62 0.69 0.75 0.78 0.78 0.79 0.80 0.77 0.73 0.67 0.61 0.57 0.48 0.47 0.35 0.23 0.23 0.30 0.30 0.34 0.29 0.29 0.30 0.33 0.42 0.47 0.42 0.31 0.24 0.16 0.13 0.15 0.15 0.19 0.26 0.25 0.24 0.18 0.14 0.10 0.08 0.16 0.22 0.27 0.25 0.14 0.25
0.58 0.67 0.73 0.77 0.78 0.84 0.84 0.83 0.76 0.74 0.65 0.56 0.49 0.50 0.38 0.27 0.30 0.34 0.31 0.31 0.38 0.34 0.31 0.33 0.35 0.37 0.41 0.28 0.21 0.18 0.16 0.20 0.15 0.14 0.16 0.18 0.18 0.15 0.14 0.12 0.13 0.21 0.25 0.28 0.12 0.15 0.24
0.55 0.65 0.73 0.77 0.77 0.81 0.84 0.82 0.82 0.76 0.67 0.58 0.48 0.50 0.41 0.30 0.32 0.39 0.40 0.36 0.37 0.36 0.29 0.35 0.34 0.36 0.33 0.26 0.23 0.22 0.19 0.21 0.18 0.20 0.18 0.17 0.15 0.15 0.16 0.13 0.10 0.25 0.24 0.16 0.22 0.25 0.26
0.54 0.66 0.78 0.76 0.78 0.80 0.85 0.83 0.82 0.77 0.72 0.66 0.46 0.51 0.51 0.37 0.35 0.45 0.46 0.49 0.46 0.45 0.40 0.39 0.37 0.35 0.39 0.30 0.27 0.26 0.21 0.22 0.20 0.15 0.25 0.17 0.20 0.18 0.18 0.18 0.24 0.26 0.26 0.30 0.30 0.27 0.28

GFSGBSN_prec_pwat_108.txt.gz
Precipitable_Water
0.97 0.97 0.93 1.00 1.00 1.00 0.98 0.95 0.93 0.89 0.83 0.73 0.69 0.67 0.62 0.59 0.69 0.86 1.03 1.00 0.98 0.96 0.99 0.94 0.85 0.87 0.66 0.46 0.42 0.67 0.69 0.70 0.67 0.53 0.40 0.35 0.31 0.30 0.25 0.26 0.26 0.27 0.32 0.37 0.39 0.42 0.42
0.99 0.93 0.93 0.98 0.98 0.97 0.95 0.94 0.92 0.87 0.83 0.77 0.68 0.63 0.59 0.59 0.70 0.81 0.98 0.95 0.95 0.93 0.88 0.88 0.87 0.76 0.55 0.35 0.50 0.61 0.61 0.58 0.51 0.45 0.38 0.37 0.34 0.36 0.29 0.26 0.25 0.27 0.27 0.29 0.30 0.31 0.35
0.93 0.94 0.89 0.93 0.93 0.90 0.91 0.90 0.89 0.88 0.84 0.76 0.71 0.63 0.56 0.61 0.69 0.74 0.83 0.97 0.91 0.88 0.87 0.86 0.82 0.68 0.49 0.39 0.50 0.52 0.50 0.45 0.48 0.45 0.36 0.41 0.39 0.33 0.35 0.30 0.36 0.34 0.27 0.29 0.25 0.24 0.24
0.64 0.62 0.73 0.77 0.83 0.85 0.87 0.88 0.84 0.82 0.83 0.77 0.73 0.65 0.54 0.56 0.75 0.96 0.86 0.92 0.89 0.88 0.90 0.79 0.75 0.64 0.41 0.54 0.54 0.47 0.46 0.43 0.49 0.47 0.42 0.44 0.46 0.38 0.34 0.37 0.32 0.28 0.27 0.20 0.23 0.29 0.27
0.60 0.62 0.71 0.77 0.79 0.83 0.84 0.85 0.84 0.80 0.79 0.77 0.75 0.66 0.53 0.48 0.71 0.86 1.03 0.94 0.90 0.83 0.77 0.77 0.69 0.56 0.35 0.53 0.39 0.43 0.45 0.41 0.46 0.47 0.49 0.48 0.46 0.38 0.37 0.29 0.25 0.27 0.18 0.21 0.22 0.32 0.28
0.67 0.69 0.72 0.72 0.75 0.77 0.81 0.83 0.80 0.78 0.79 0.77 0.74 0.65 0.55 0.58 0.60 0.76 0.85 0.91 0.86 0.86 0.79 0.76 0.59 0.40 0.43 0.41 0.44 0.47 0.52 0.50 0.43 0.45 0.43 0.47 0.42 0.37 0.35 0.29 0.16 0.20 0.22 0.29 0.25 0.28 0.29
0.76 0.74 0.73 0.72 0.79 0.73 0.77 0.84 0.79 0.77 0.79 0.74 0.70 0.64 0.64 0.80 0.71 0.70 0.72 0.82 0.70 0.61 0.61 0.42 0.37 0.39 0.41 0.48 0.51 0.49 0.55 0.52 0.51 0.44 0.34 0.41 0.35 0.27 0.30 0.31 0.30 0.29 0.28 0.24 0.27 0.29 0.28
0.78 0.75 0.72 0.71 0.75 0.75 0.75 0.76 0.78 0.77 0.78 0.72 0.64 0.63 0.70 0.91 0.86 0.80 0.83 0.68 0.56 0.59 0.40 0.49 0.44 0.46 0.50 0.52 0.42 0.50 0.58 0.47 0.45 0.37 0.43 0.38 0.30 0.35 0.36 0.36 0.32 0.30 0.26 0.25 0.28 0.30 0.27
0.77 0.72 0.70 0.71 0.75 0.76 0.76 0.73 0.75 0.77 0.77 0.66 0.60 0.60 0.68 0.85 0.90 0.84 0.76 0.73 0.71 0.65 0.40 0.39 0.43 0.47 0.49 0.54 0.46 0.49 0.57 0.53 0.44 0.38 0.38 0.32 0.34 0.41 0.37 0.32 0.27 0.29 0.25 0.25 0.27 0.34 0.30
0.77 0.73 0.64 0.69 0.74 0.75 0.75 0.77 0.73 0.72 0.68 0.62 0.58 0.55 0.58 0.77 0.71 0.82 0.73 0.79 0.77 0.65 0.29 0.28 0.38 0.47 0.53 0.54 0.47 0.61 0.64 0.53 0.45 0.35 0.37 0.34 0.40 0.37 0.33 0.28 0.31 0.26 0.36 0.32 0.31 0.32 0.25
0.78 0.73 0.63 0.63 0.69 0.73 0.74 0.74 0.74 0.67 0.64 0.58 0.56 0.73 0.71 0.73 0.67 0.66 0.80 0.86 0.69 0.54 0.14 0.31 0.40 0.58 0.58 0.50 0.53 0.54 0.64 0.54 0.39 0.37 0.37 0.32 0.35 0.32 0.29 0.31 0.37 0.29 0.42 0.41 0.36 0.33 0.34
0.78 0.73 0.66 0.60 0.65 0.67 0.69 0.70 0.67 0.66 0.61 0.57 0.58 0.76 0.76 0.78 0.79 0.81 0.87 0.80 0.59 0.23 0.12 0.26 0.41 0.43 0.44 0.49 0.51 0.58 0.57 0.61 0.55 0.42 0.41 0.39 0.48 0.42 0.38 0.45 0.47 0.46 0.43 0.43 0.42 0.39 0.29
0.86 0.75 0.62 0.62 0.66 0.69 0.70 0.67 0.68 0.65 0.60 0.59 0.65 0.75 0.80 0.78 0.67 0.85 0.76 0.52 0.23 0.17 0.26 0.27 0.33 0.41 0.42 0.41 0.44 0.49 0.48 0.44 0.36 0.27 0.27 0.36 0.37 0.46 0.51 0.43 0.49 0.45 0.40 0.29 0.27 0.27 0.27
0.90 0.82 0.63 0.62 0.68 0.67 0.64 0.65 0.67 0.63 0.61 0.61 0.64 0.69 0.76 0.85 0.89 0.83 0.63 0.35 0.16 0.21 0.27 0.37 0.38 0.40 0.37 0.41 0.40 0.44 0.45 0.38 0.46 0.41 0.34 0.28 0.28 0.40 0.52 0.49 0.45 0.45 0.43 0.31 0.22 0.25 0.29
0.87 0.81 0.68 0.65 0.67 0.66 0.65 0.63 0.64 0.59 0.58 0.57 0.63 0.66 0.72 0.82 0.90 0.69 0.45 0.23 0.21 0.26 0.33 0.34 0.36 0.33 0.33 0.37 0.38 0.40 0.40 0.39 0.43 0.44 0.34 0.33 0.30 0.47 0.53 0.56 0.55 0.45 0.39 0.49 0.37 0.37 0.30
0.79 0.73 0.66 0.62 0.64 0.60 0.59 0.57 0.54 0.53 0.55 0.56 0.53 0.63 0.71 0.87 0.82 0.59 0.36 0.24 0.26 0.35 0.38 0.35 0.26 0.32 0.28 0.31 0.34 0.36 0.38 0.42 0.41 0.48 0.50 0.38 0.30 0.45 0.50 0.57 0.56 0.49 0.49 0.36 0.39 0.27 0.24
0.74 0.65 0.60 0.58 0.61 0.57 0.54 0.53 0.53 0.51 0.59 0.66 0.63 0.57 0.76 0.85 0.67 0.43 0.25 0.26 0.32 0.38 0.36 0.33 0.29 0.28 0.29 0.30 0.34 0.33 0.35 0.42 0.46 0.47 0.50 0.44 0.41 0.37 0.47 0.39 0.37 0.39 0.35 0.36 0.36 0.30 0.24
0.78 0.69 0.63 0.60 0.60 0.58 0.58 0.56 0.51 0.54 0.63 0.63 0.59 0.46 0.73 0.69 0.34 0.33 0.27 0.30 0.37 0.33 0.38 0.36 0.34 0.31 0.30 0.32 0.30 0.31 0.32 0.39 0.51 0.50 0.39 0.44 0.40 0.31 0.32 0.42 0.44 0.41 0.33 0.35 0.26 0.25 0.28
0.81 0.79 0.68 0.67 0.66 0.67 0.70 0.73 0.74 0.76 0.77 0.66 0.51 0.52 0.68 0.60 0.24 0.25 0.29 0.29 0.34 0.31 0.32 0.33 0.30 0.32 0.33 0.28 0.28 0.30 0.33 0.43 0.48 0.45 0.38 0.41 0.34 0.27 0.28 0.37 0.37 0.32 0.32 0.33 0.34 0.34 0.24
0.77 0.81 0.80 0.69 0.68 0.72 0.76 0.78 0.81 0.83 0.79 0.69 0.51 0.34 0.40 0.44 0.37 0.28 0.25 0.25 0.23 0.32 0.31 0.33 0.30 0.33 0.28 0.26 0.29 0.28 0.30 0.36 0.41 0.40 0.45 0.47 0.36 0.32 0.24 0.26 0.33 0.28 0.29 0.32 0.30 0.23 0.24
0.78 0.76 0.78 0.81 0.77 0.73 0.75 0.78 0.83 0.82 0.77 0.70 0.47 0.33 0.37 0.24 0.25 0.27 0.29 0.26 0.21 0.22 0.28 0.30 0.27 0.27 0.25 0.21 0.24 0.23 0.27 0.32 0.36 0.39 0.40 0.38 0.27 0.30 0.30 0.32 0.30 0.28 0.27 0.29 0.26 0.27 0.22
0.80 0.76 0.74 0.78 0.81 0.81 0.79 0.80 0.83 0.84 0.81 0.67 0.45 0.38 0.37 0.30 0.27 0.26 0.27 0.24 0.21 0.23 0.27 0.22 0.24 0.27 0.26 0.22 0.25 0.22 0.26 0.26 0.27 0.34 0.32 0.36 0.25 0.28 0.22 0.25 0.25 0.21 0.24 0.26 0.27 0.27 0.26
0.75 0.78 0.78 0.77 0.77 0.80 0.82 0.82 0.83 0.81 0.76 0.59 0.51 0.47 0.37 0.28 0.25 0.23 0.24 0.25 0.23 0.27 0.28 0.29 0.29 0.29 0.25 0.28 0.31 0.31 0.33 0.33 0.31 0.27 0.25 0.25 0.22 0.21 0.15 0.19 0.19 0.17 0.19 0.21 0.22 0.27 0.26
0.71 0.76 0.75 0.74 0.73 0.75 0.75 0.76 0.77 0.77 0.72 0.62 0.49 0.43 0.29 0.20 0.23 0.24 0.27 0.30 0.26 0.27 0.26 0.27 0.30 0.28 0.33 0.39 0.36 0.33 0.30 0.30 0.29 0.28 0.29 0.22 0.20 0.19 0.13 0.13 0.07 0.17 0.23 0.22 0.20 0.22 0.25
0.64 0.72 0.80 0.76 0.73 0.76 0.75 0.70 0.70 0.64 0.63 0.54 0.49 0.40 0.31 0.21 0.24 0.24 0.26 0.29 0.31 0.30 0.28 0.28 0.32 0.38 0.41 0.34 0.26 0.20 0.21 0.21 0.20 0.22 0.24 0.25 0.20 0.14 0.11 0.10 0.12 0.14 0.17 0.18 0.17 0.17 0.24
0.51 0.63 0.73 0.79 0.75 0.73 0.76 0.76 0.74 0.68 0.60 0.53 0.48 0.48 0.39 0.25 0.22 0.29 0.25 0.31 0.26 0.27 0.27 0.30 0.39 0.44 0.40 0.29 0.23 0.15 0.13 0.14 0.15 0.17 0.24 0.22 0.22 0.17 0.14 0.10 0.08 0.15 0.20 0.25 0.21 0.13 0.25
0.42 0.55 0.66 0.69 0.75 0.77 0.76 0.79 0.80 0.70 0.64 0.54 0.49 0.53 0.42 0.28 0.31 0.32 0.27 0.28 0.35 0.32 0.30 0.31 0.33 0.33 0.38 0.27 0.21 0.18 0.16 0.20 0.15 0.14 0.16 0.18 0.18 0.14 0.16 0.12 0.15 0.22 0.23 0.25 0.11 0.15 0.22
0.43 0.54 0.62 0.71 0.73 0.81 0.80 0.79 0.79 0.80 0.72 0.59 0.49 0.52 0.45 0.34 0.32 0.36 0.38 0.35 0.36 0.35 0.27 0.34 0.31 0.33 0.31 0.23 0.23 0.23 0.19 0.21 0.17 0.20 0.17 0.16 0.15 0.15 0.16 0.13 0.10 0.26 0.24 0.15 0.23 0.25 0.24
0.49 0.57 0.62 0.70 0.73 0.80 0.82 0.81 0.79 0.82 0.77 0.68 0.49 0.51 0.52 0.42 0.37 0.44 0.46 0.48 0.46 0.45 0.40 0.38 0.35 0.34 0.37 0.30 0.29 0.27 0.23 0.24 0.21 0.15 0.26 0.16 0.19 0.19 0.18 0.18 0.26 0.26 0.25 0.29 0.29 0.25 0.26

GFSGBSN_prec_pwat_111.txt.gz
Precipitable_Water
0.82 0.77 0.73 0.77 0.79 0.87 0.91 0.95 0.96 0.95 0.91 0.91 0.90 0.82 0.74 0.69 0.66 0.72 0.93 1.03 1.08 1.03 0.98 0.92 0.90 0.87 0.69 0.44 0.43 0.71 0.70 0.72 0.58 0.45 0.36 0.32 0.29 0.29 0.23 0.25 0.27 0.25 0.27 0.32 0.36 0.37 0.38
0.82 0.76 0.69 0.66 0.75 0.79 0.83 0.90 0.91 0.92 0.90 0.88 0.84 0.81 0.73 0.65 0.64 0.72 0.86 0.97 1.09 1.01 0.93 0.89 0.89 0.81 0.58 0.33 0.62 0.64 0.61 0.58 0.51 0.39 0.36 0.34 0.31 0.33 0.26 0.25 0.24 0.26 0.26 0.25 0.26 0.27 0.29
0.77 0.72 0.72 0.70 0.72 0.80 0.80 0.83 0.85 0.88 0.86 0.85 0.81 0.79 0.71 0.62 0.74 0.73 0.82 0.94 1.09 0.97 0.91 0.89 0.83 0.74 0.50 0.35 0.51 0.58 0.57 0.47 0.46 0.42 0.36 0.41 0.38 0.31 0.31 0.24 0.32 0.28 0.21 0.23 0.22 0.22 0.21
0.70 0.76 0.78 0.77 0.74 0.74 0.78 0.77 0.84 0.85 0.88 0.83 0.78 0.79 0.70 0.62 0.73 0.87 0.92 0.96 0.98 0.95 0.87 0.89 0.85 0.65 0.39 0.56 0.57 0.48 0.46 0.44 0.49 0.47 0.40 0.42 0.42 0.33 0.28 0.32 0.26 0.22 0.23 0.15 0.20 0.25 0.25
0.78 0.80 0.80 0.76 0.73 0.73 0.75 0.80 0.81 0.82 0.82 0.80 0.79 0.76 0.69 0.56 0.79 0.95 0.99 0.90 0.97 0.94 0.85 0.85 0.69 0.57 0.35 0.50 0.41 0.45 0.47 0.43 0.49 0.48 0.47 0.45 0.40 0.30 0.31 0.25 0.23 0.25 0.17 0.21 0.23 0.32 0.31
0.82 0.81 0.78 0.72 0.71 0.73 0.71 0.76 0.82 0.82 0.80 0.79 0.78 0.74 0.64 0.56 0.72 0.96 0.98 0.92 0.84 0.83 0.81 0.78 0.64 0.41 0.42 0.40 0.43 0.45 0.50 0.52 0.48 0.47 0.43 0.41 0.38 0.32 0.34 0.31 0.18 0.20 0.22 0.24 0.23 0.26 0.30
0.82 0.81 0.73 0.68 0.72 0.75 0.78 0.70 0.69 0.74 0.74 0.76 0.73 0.68 0.69 0.75 0.63 0.80 0.92 0.84 0.72 0.60 0.63 0.44 0.39 0.37 0.40 0.48 0.51 0.49 0.55 0.53 0.51 0.44 0.33 0.41 0.32 0.26 0.29 0.30 0.29 0.26 0.24 0.23 0.25 0.29 0.29
0.80 0.78 0.65 0.67 0.73 0.74 0.72 0.72 0.72 0.70 0.73 0.75 0.67 0.63 0.73 0.89 0.72 0.68 0.73 0.63 0.65 0.63 0.41 0.47 0.46 0.49 0.52 0.54 0.44 0.52 0.58 0.46 0.45 0.34 0.38 0.33 0.25 0.31 0.35 0.34 0.31 0.28 0.24 0.22 0.25 0.29 0.31
0.78 0.66 0.64 0.65 0.72 0.72 0.72 0.70 0.71 0.72 0.73 0.64 0.61 0.60 0.77 0.94 0.77 0.68 0.73 0.75 0.76 0.64 0.37 0.39 0.45 0.50 0.50 0.56 0.48 0.50 0.56 0.49 0.39 0.33 0.32 0.26 0.30 0.39 0.36 0.32 0.28 0.27 0.23 0.24 0.24 0.28 0.31
0.85 0.61 0.59 0.61 0.65 0.69 0.70 0.67 0.67 0.69 0.64 0.57 0.61 0.57 0.75 0.85 0.75 0.76 0.72 0.74 0.73 0.68 0.27 0.30 0.41 0.49 0.54 0.56 0.48 0.58 0.59 0.49 0.41 0.31 0.34 0.31 0.37 0.33 0.31 0.28 0.31 0.23 0.32 0.35 0.33 0.29 0.20
0.88 0.64 0.54 0.57 0.60 0.64 0.67 0.66 0.65 0.60 0.55 0.56 0.67 0.68 0.76 0.80 0.70 0.70 0.79 0.80 0.73 0.56 0.12 0.36 0.42 0.64 0.59 0.51 0.52 0.52 0.65 0.54 0.37 0.35 0.36 0.30 0.34 0.33 0.29 0.31 0.37 0.30 0.37 0.37 0.38 0.35 0.30
0.85 0.62 0.50 0.59 0.58 0.60 0.62 0.64 0.59 0.56 0.54 0.60 0.72 0.70 0.72 0.74 0.79 0.81 0.88 0.71 0.53 0.26 0.13 0.30 0.45 0.44 0.46 0.50 0.50 0.54 0.54 0.59 0.54 0.41 0.42 0.38 0.48 0.43 0.40 0.44 0.47 0.49 0.41 0.42 0.41 0.36 0.25
0.76 0.54 0.54 0.61 0.65 0.63 0.63 0.63 0.58 0.55 0.55 0.62 0.70 0.78 0.79 0.82 0.64 0.86 0.75 0.55 0.25 0.15 0.31 0.29 0.35 0.43 0.41 0.41 0.44 0.46 0.44 0.39 0.33 0.26 0.28 0.38 0.37 0.49 0.51 0.43 0.50 0.49 0.39 0.27 0.25 0.25 0.26
0.73 0.55 0.56 0.60 0.60 0.62 0.65 0.63 0.59 0.57 0.54 0.62 0.73 0.76 0.78 0.84 0.78 0.68 0.57 0.34 0.16 0.27 0.31 0.41 0.41 0.40 0.34 0.38 0.39 0.42 0.41 0.35 0.42 0.40 0.33 0.27 0.26 0.41 0.54 0.50 0.45 0.46 0.42 0.31 0.22 0.23 0.28
0.73 0.61 0.63 0.61 0.60 0.61 0.66 0.67 0.63 0.59 0.61 0.64 0.68 0.74 0.75 0.83 0.71 0.62 0.41 0.20 0.24 0.30 0.37 0.37 0.37 0.32 0.31 0.35 0.37 0.38 0.38 0.35 0.40 0.43 0.32 0.31 0.32 0.50 0.55 0.57 0.56 0.46 0.39 0.49 0.37 0.37 0.29
0.71 0.67 0.70 0.65 0.63 0.61 0.61 0.60 0.61 0.66 0.67 0.73 0.62 0.67 0.62 0.69 0.69 0.52 0.32 0.24 0.28 0.39 0.39 0.37 0.28 0.31 0.26 0.30 0.32 0.35 0.36 0.41 0.38 0.47 0.50 0.42 0.33 0.45 0.51 0.54 0.54 0.49 0.51 0.36 0.38 0.26 0.23
0.65 0.66 0.71 0.70 0.62 0.60 0.59 0.56 0.55 0.67 0.75 0.77 0.61 0.50 0.59 0.66 0.60 0.41 0.25 0.28 0.33 0.38 0.38 0.34 0.31 0.28 0.29 0.30 0.33 0.32 0.33 0.42 0.46 0.45 0.51 0.46 0.42 0.38 0.43 0.36 0.35 0.38 0.38 0.38 0.39 0.36 0.28
0.66 0.63 0.62 0.67 0.65 0.60 0.57 0.55 0.62 0.72 0.75 0.68 0.58 0.33 0.58 0.62 0.31 0.34 0.26 0.30 0.34 0.32 0.39 0.37 0.35 0.32 0.30 0.31 0.30 0.31 0.32 0.37 0.49 0.49 0.41 0.43 0.38 0.28 0.32 0.40 0.41 0.39 0.36 0.36 0.28 0.26 0.29
0.72 0.64 0.62 0.62 0.63 0.62 0.60 0.62 0.71 0.72 0.72 0.56 0.41 0.38 0.55 0.53 0.21 0.24 0.30 0.28 0.30 0.30 0.31 0.31 0.29 0.33 0.34 0.30 0.27 0.30 0.32 0.42 0.44 0.42 0.37 0.40 0.32 0.25 0.27 0.29 0.32 0.31 0.33 0.35 0.36 0.34 0.26
0.71 0.72 0.68 0.63 0.64 0.63 0.65 0.67 0.70 0.75 0.79 0.65 0.41 0.25 0.34 0.39 0.36 0.27 0.25 0.22 0.20 0.31 0.31 0.33 0.31 0.31 0.29 0.26 0.30 0.27 0.29 0.38 0.41 0.40 0.44 0.44 0.33 0.27 0.19 0.25 0.31 0.26 0.29 0.28 0.25 0.22 0.24
0.79 0.72 0.70 0.71 0.68 0.66 0.68 0.73 0.74 0.76 0.78 0.65 0.44 0.30 0.33 0.20 0.23 0.26 0.27 0.24 0.20 0.19 0.29 0.32 0.27 0.26 0.25 0.20 0.24 0.22 0.28 0.32 0.37 0.40 0.39 0.36 0.25 0.28 0.29 0.29 0.27 0.26 0.25 0.25 0.22 0.24 0.18
0.76 0.79 0.75 0.77 0.74 0.70 0.70 0.73 0.74 0.74 0.75 0.59 0.41 0.35 0.36 0.28 0.27 0.24 0.24 0.22 0.21 0.22 0.24 0.23 0.24 0.25 0.24 0.19 0.22 0.20 0.26 0.26 0.27 0.33 0.31 0.34 0.22 0.27 0.20 0.23 0.23 0.20 0.24 0.24 0.22 0.23 0.24
0.69 0.79 0.78 0.76 0.78 0.77 0.76 0.77 0.73 0.70 0.65 0.50 0.52 0.50 0.39 0.27 0.25 0.23 0.23 0.23 0.22 0.26 0.26 0.28 0.28 0.26 0.22 0.24 0.27 0.29 0.32 0.31 0.30 0.25 0.25 0.24 0.22 0.19 0.14 0.19 0.19 0.15 0.18 0.21 0.22 0.24 0.22
0.59 0.72 0.78 0.78 0.74 0.73 0.73 0.74 0.72 0.64 0.59 0.52 0.49 0.47 0.33 0.23 0.24 0.24 0.27 0.28 0.24 0.25 0.24 0.25 0.28 0.26 0.30 0.36 0.34 0.32 0.29 0.26 0.27 0.25 0.28 0.21 0.19 0.17 0.12 0.12 0.07 0.15 0.22 0.22 0.21 0.23 0.26
0.45 0.57 0.70 0.79 0.75 0.76 0.73 0.71 0.71 0.65 0.58 0.48 0.49 0.42 0.35 0.24 0.26 0.25 0.27 0.29 0.30 0.29 0.27 0.26 0.29 0.36 0.40 0.33 0.23 0.18 0.18 0.18 0.20 0.22 0.21 0.24 0.19 0.13 0.09 0.10 0.13 0.16 0.17 0.18 0.16 0.15 0.23
0.43 0.46 0.56 0.67 0.73 0.72 0.75 0.76 0.75 0.70 0.63 0.52 0.44 0.47 0.38 0.28 0.23 0.30 0.27 0.31 0.27 0.25 0.25 0.27 0.36 0.41 0.38 0.28 0.21 0.13 0.11 0.13 0.13 0.15 0.24 0.21 0.22 0.15 0.14 0.08 0.06 0.14 0.20 0.24 0.23 0.10 0.24
0.44 0.47 0.49 0.58 0.68 0.72 0.75 0.79 0.79 0.79 0.68 0.55 0.46 0.49 0.40 0.29 0.33 0.34 0.28 0.29 0.37 0.33 0.28 0.30 0.31 0.31 0.37 0.26 0.20 0.17 0.15 0.20 0.13 0.13 0.14 0.15 0.17 0.12 0.13 0.12 0.14 0.22 0.24 0.26 0.11 0.13 0.22
0.45 0.50 0.55 0.56 0.64 0.70 0.76 0.78 0.79 0.81 0.78 0.66 0.51 0.50 0.40 0.32 0.33 0.36 0.39 0.36 0.38 0.38 0.29 0.35 0.30 0.32 0.31 0.23 0.23 0.22 0.19 0.21 0.19 0.19 0.18 0.15 0.15 0.14 0.16 0.14 0.10 0.25 0.23 0.15 0.19 0.24 0.24
0.49 0.55 0.62 0.63 0.65 0.72 0.75 0.79 0.77 0.81 0.80 0.75 0.53 0.55 0.51 0.37 0.34 0.42 0.42 0.48 0.49 0.48 0.43 0.42 0.34 0.36 0.36 0.30 0.29 0.28 0.22 0.24 0.22 0.16 0.27 0.17 0.19 0.17 0.19 0.16 0.26 0.28 0.23 0.26 0.27 0.24 0.26

GFSGBSN_prec_pwat_114.txt.gz
Precipitable_Water
0.91 0.81 0.82 0.81 0.76 0.74 0.78 0.85 0.86 0.91 0.95 0.93 0.92 0.88 0.88 0.77 0.67 0.66 0.80 0.96 1.06 1.14 1.07 1.00 0.91 0.90 0.74 0.49 0.47 0.68 0.75 0.68 0.56 0.44 0.34 0.29 0.26 0.25 0.20 0.23 0.25 0.23 0.24 0.28 0.31 0.31 0.31
0.78 0.83 0.82 0.82 0.80 0.76 0.74 0.83 0.79 0.86 0.90 0.90 0.89 0.84 0.81 0.75 0.70 0.67 0.77 0.95 1.06 1.07 1.05 0.97 0.92 0.86 0.62 0.36 0.72 0.75 0.65 0.55 0.46 0.39 0.33 0.31 0.29 0.30 0.24 0.23 0.21 0.24 0.23 0.22 0.23 0.23 0.27
0.82 0.85 0.86 0.84 0.82 0.77 0.76 0.77 0.75 0.80 0.84 0.86 0.85 0.81 0.76 0.70 0.79 0.75 0.83 0.98 1.03 1.05 1.01 0.91 0.87 0.74 0.49 0.44 0.64 0.65 0.58 0.51 0.46 0.40 0.33 0.37 0.37 0.29 0.28 0.22 0.29 0.25 0.18 0.18 0.17 0.18 0.18
0.81 0.81 0.82 0.77 0.73 0.71 0.74 0.73 0.75 0.77 0.81 0.86 0.81 0.77 0.71 0.74 0.78 0.77 0.95 1.01 1.05 1.08 1.03 0.87 0.83 0.69 0.44 0.54 0.60 0.56 0.53 0.45 0.46 0.44 0.41 0.42 0.40 0.32 0.27 0.29 0.24 0.19 0.21 0.14 0.19 0.24 0.25
0.75 0.74 0.72 0.67 0.70 0.76 0.73 0.71 0.79 0.82 0.84 0.83 0.78 0.76 0.66 0.67 0.78 0.89 1.04 1.02 0.97 0.99 0.88 0.87 0.72 0.57 0.38 0.55 0.46 0.49 0.47 0.41 0.46 0.47 0.46 0.45 0.42 0.33 0.31 0.23 0.20 0.23 0.16 0.17 0.19 0.29 0.30
0.67 0.66 0.65 0.64 0.73 0.75 0.73 0.74 0.79 0.82 0.80 0.79 0.73 0.69 0.59 0.73 0.85 0.98 0.88 0.94 0.93 0.89 0.85 0.79 0.66 0.40 0.43 0.38 0.44 0.45 0.49 0.50 0.48 0.49 0.45 0.44 0.41 0.32 0.31 0.27 0.16 0.19 0.18 0.18 0.17 0.22 0.28
0.76 0.58 0.66 0.66 0.74 0.74 0.72 0.69 0.74 0.75 0.75 0.73 0.68 0.67 0.76 0.70 0.89 0.97 0.85 0.82 0.66 0.58 0.61 0.45 0.42 0.39 0.41 0.48 0.51 0.46 0.52 0.50 0.51 0.47 0.34 0.41 0.31 0.24 0.27 0.30 0.27 0.24 0.20 0.18 0.20 0.26 0.27
0.83 0.58 0.62 0.66 0.72 0.71 0.71 0.72 0.71 0.71 0.74 0.68 0.62 0.87 0.82 0.68 0.91 0.99 0.88 0.67 0.67 0.59 0.40 0.49 0.48 0.47 0.51 0.53 0.43 0.49 0.57 0.45 0.41 0.32 0.36 0.31 0.24 0.30 0.33 0.30 0.27 0.26 0.22 0.20 0.24 0.30 0.30
0.74 0.55 0.62 0.68 0.68 0.68 0.70 0.72 0.74 0.74 0.66 0.61 0.60 0.89 0.86 0.72 0.71 0.81 0.76 0.72 0.79 0.61 0.35 0.40 0.51 0.51 0.51 0.55 0.48 0.47 0.50 0.44 0.38 0.31 0.31 0.25 0.27 0.35 0.32 0.29 0.25 0.26 0.25 0.25 0.25 0.33 0.36
0.62 0.52 0.62 0.65 0.65 0.63 0.63 0.65 0.64 0.57 0.57 0.64 0.59 0.86 0.84 0.69 0.55 0.62 0.66 0.72 0.68 0.63 0.25 0.35 0.42 0.48 0.55 0.56 0.43 0.55 0.57 0.49 0.40 0.31 0.34 0.30 0.35 0.32 0.30 0.28 0.30 0.24 0.33 0.33 0.32 0.31 0.23
0.59 0.53 0.63 0.64 0.65 0.63 0.59 0.57 0.52 0.56 0.60 0.61 0.61 0.74 0.76 0.79 0.68 0.68 0.74 0.72 0.69 0.54 0.12 0.39 0.47 0.64 0.58 0.49 0.48 0.51 0.65 0.51 0.37 0.37 0.38 0.31 0.35 0.34 0.32 0.33 0.38 0.32 0.41 0.39 0.38 0.35 0.31
0.53 0.62 0.64 0.66 0.63 0.62 0.60 0.55 0.55 0.61 0.68 0.65 0.66 0.69 0.74 0.72 0.77 0.78 0.80 0.70 0.54 0.21 0.16 0.33 0.47 0.45 0.46 0.48 0.48 0.55 0.54 0.60 0.54 0.42 0.43 0.40 0.50 0.45 0.41 0.45 0.47 0.48 0.45 0.42 0.40 0.35 0.25
0.59 0.63 0.63 0.64 0.66 0.63 0.59 0.58 0.56 0.64 0.69 0.75 0.81 0.81 0.80 0.81 0.64 0.79 0.66 0.47 0.21 0.17 0.32 0.32 0.36 0.44 0.43 0.40 0.42 0.46 0.42 0.39 0.33 0.27 0.29 0.36 0.39 0.48 0.53 0.46 0.53 0.50 0.40 0.26 0.25 0.25 0.24
0.61 0.60 0.62 0.61 0.67 0.65 0.61 0.60 0.56 0.62 0.72 0.79 0.84 0.81 0.78 0.76 0.73 0.64 0.53 0.30 0.17 0.27 0.30 0.41 0.40 0.39 0.33 0.38 0.39 0.41 0.41 0.36 0.44 0.40 0.32 0.28 0.27 0.43 0.53 0.51 0.45 0.45 0.42 0.30 0.21 0.22 0.27
0.59 0.61 0.61 0.62 0.66 0.66 0.62 0.61 0.62 0.68 0.71 0.77 0.78 0.70 0.59 0.64 0.68 0.61 0.38 0.22 0.25 0.31 0.37 0.36 0.37 0.31 0.31 0.35 0.36 0.37 0.37 0.34 0.40 0.44 0.32 0.32 0.33 0.47 0.51 0.55 0.55 0.46 0.39 0.48 0.35 0.37 0.29
0.58 0.59 0.56 0.57 0.63 0.61 0.62 0.64 0.68 0.72 0.73 0.72 0.63 0.56 0.50 0.63 0.64 0.51 0.31 0.24 0.31 0.39 0.40 0.38 0.28 0.31 0.26 0.30 0.31 0.33 0.34 0.41 0.39 0.47 0.51 0.42 0.33 0.43 0.45 0.51 0.53 0.51 0.53 0.37 0.38 0.24 0.22
0.60 0.56 0.55 0.54 0.52 0.55 0.56 0.58 0.69 0.71 0.73 0.68 0.54 0.38 0.52 0.61 0.59 0.39 0.24 0.26 0.32 0.39 0.41 0.34 0.31 0.29 0.30 0.29 0.31 0.32 0.31 0.41 0.45 0.46 0.50 0.45 0.40 0.34 0.42 0.35 0.36 0.41 0.38 0.41 0.41 0.35 0.26
0.60 0.59 0.54 0.52 0.54 0.53 0.54 0.62 0.70 0.76 0.75 0.62 0.48 0.26 0.52 0.60 0.32 0.33 0.25 0.28 0.34 0.35 0.41 0.36 0.36 0.33 0.29 0.30 0.28 0.28 0.29 0.35 0.46 0.44 0.36 0.41 0.36 0.27 0.28 0.39 0.42 0.40 0.38 0.38 0.29 0.29 0.33
0.71 0.65 0.62 0.54 0.50 0.52 0.58 0.68 0.70 0.72 0.74 0.56 0.39 0.34 0.52 0.51 0.21 0.22 0.27 0.26 0.30 0.29 0.31 0.30 0.30 0.33 0.33 0.29 0.24 0.28 0.31 0.39 0.42 0.39 0.36 0.39 0.30 0.20 0.19 0.25 0.31 0.29 0.30 0.32 0.34 0.35 0.31
0.72 0.74 0.70 0.66 0.60 0.54 0.61 0.67 0.72 0.74 0.74 0.58 0.37 0.24 0.33 0.38 0.37 0.26 0.21 0.19 0.20 0.33 0.31 0.32 0.29 0.31 0.27 0.25 0.29 0.26 0.28 0.36 0.40 0.38 0.42 0.40 0.29 0.23 0.17 0.21 0.27 0.22 0.24 0.27 0.27 0.23 0.25
0.74 0.76 0.75 0.73 0.66 0.64 0.65 0.68 0.70 0.69 0.70 0.59 0.38 0.29 0.34 0.21 0.25 0.28 0.26 0.22 0.18 0.17 0.28 0.31 0.24 0.26 0.24 0.20 0.23 0.21 0.27 0.30 0.35 0.37 0.37 0.34 0.22 0.23 0.23 0.24 0.24 0.23 0.21 0.22 0.20 0.21 0.17
0.69 0.73 0.77 0.79 0.72 0.68 0.68 0.68 0.67 0.67 0.63 0.50 0.35 0.33 0.36 0.29 0.29 0.26 0.25 0.21 0.19 0.21 0.23 0.22 0.22 0.25 0.24 0.20 0.22 0.20 0.25 0.26 0.24 0.30 0.29 0.31 0.19 0.23 0.17 0.20 0.20 0.18 0.22 0.21 0.21 0.22 0.21
0.55 0.70 0.73 0.77 0.78 0.76 0.74 0.72 0.65 0.61 0.57 0.43 0.47 0.46 0.37 0.27 0.25 0.23 0.24 0.24 0.22 0.24 0.26 0.27 0.26 0.25 0.21 0.22 0.28 0.30 0.32 0.31 0.29 0.25 0.23 0.23 0.20 0.16 0.12 0.17 0.15 0.13 0.16 0.19 0.21 0.23 0.21
0.47 0.57 0.68 0.69 0.73 0.73 0.73 0.72 0.68 0.61 0.52 0.43 0.41 0.41 0.29 0.22 0.25 0.24 0.26 0.30 0.26 0.26 0.24 0.27 0.27 0.25 0.30 0.37 0.35 0.32 0.31 0.27 0.27 0.25 0.27 0.21 0.18 0.16 0.11 0.12 0.06 0.13 0.21 0.21 0.20 0.23 0.24
0.48 0.51 0.57 0.65 0.67 0.69 0.71 0.72 0.72 0.68 0.62 0.48 0.46 0.39 0.30 0.20 0.25 0.25 0.27 0.27 0.30 0.31 0.26 0.26 0.28 0.35 0.40 0.32 0.21 0.17 0.17 0.18 0.20 0.23 0.22 0.24 0.19 0.13 0.08 0.09 0.11 0.13 0.16 0.15 0.15 0.13 0.23
0.53 0.48 0.52 0.58 0.66 0.67 0.69 0.73 0.74 0.74 0.67 0.55 0.45 0.46 0.35 0.23 0.21 0.26 0.25 0.29 0.26 0.26 0.26 0.28 0.36 0.40 0.37 0.28 0.21 0.12 0.10 0.13 0.12 0.14 0.26 0.23 0.22 0.15 0.13 0.08 0.06 0.12 0.18 0.23 0.22 0.09 0.18
0.63 0.51 0.49 0.54 0.60 0.65 0.69 0.70 0.75 0.80 0.74 0.63 0.51 0.48 0.38 0.26 0.30 0.30 0.22 0.23 0.34 0.32 0.27 0.33 0.31 0.32 0.39 0.26 0.20 0.17 0.16 0.22 0.15 0.15 0.16 0.18 0.18 0.13 0.13 0.11 0.13 0.18 0.23 0.25 0.11 0.10 0.20
0.73 0.57 0.51 0.54 0.59 0.63 0.67 0.71 0.72 0.76 0.79 0.73 0.61 0.56 0.42 0.30 0.31 0.33 0.32 0.29 0.30 0.32 0.28 0.35 0.30 0.31 0.31 0.24 0.23 0.23 0.22 0.21 0.21 0.21 0.18 0.16 0.15 0.15 0.17 0.14 0.10 0.26 0.25 0.16 0.16 0.23 0.23
0.80 0.66 0.58 0.62 0.64 0.66 0.69 0.72 0.72 0.72 0.76 0.77 0.63 0.64 0.57 0.41 0.34 0.40 0.39 0.41 0.40 0.41 0.36 0.38 0.35 0.35 0.35 0.29 0.31 0.30 0.24 0.24 0.22 0.16 0.26 0.18 0.21 0.17 0.19 0.16 0.22 0.27 0.22 0.25 0.27 0.23 0.23

GFSGBSN_prec_pwat_117.txt.gz
Precipitable_Water
0.76 0.80 0.83 0.87 0.84 0.85 0.82 0.76 0.81 0.83 0.85 0.86 0.95 0.90 0.89 0.87 0.83 0.69 0.73 0.94 0.97 1.12 1.13 1.05 1.04 0.94 0.71 0.54 0.51 0.73 0.78 0.68 0.54 0.45 0.36 0.31 0.26 0.25 0.19 0.23 0.23 0.21 0.21 0.24 0.27 0.27 0.28
0.74 0.77 0.78 0.79 0.76 0.76 0.78 0.79 0.78 0.78 0.84 0.89 0.91 0.89 0.86 0.81 0.79 0.69 0.74 0.90 0.98 1.23 1.11 1.04 1.01 0.87 0.61 0.45 0.78 0.82 0.65 0.53 0.45 0.40 0.35 0.32 0.28 0.28 0.22 0.21 0.19 0.23 0.22 0.21 0.22 0.21 0.22
0.80 0.69 0.74 0.71 0.71 0.72 0.73 0.74 0.76 0.74 0.82 0.86 0.86 0.84 0.81 0.70 0.79 0.73 0.76 0.98 1.05 1.05 1.05 1.01 0.93 0.75 0.55 0.54 0.75 0.69 0.63 0.50 0.48 0.42 0.33 0.36 0.35 0.28 0.26 0.20 0.27 0.24 0.16 0.17 0.16 0.18 0.18
0.81 0.71 0.70 0.70 0.75 0.78 0.71 0.74 0.77 0.76 0.80 0.81 0.81 0.76 0.71 0.69 0.81 0.78 0.90 1.03 1.08 1.01 1.03 0.99 0.84 0.64 0.43 0.62 0.70 0.57 0.53 0.48 0.48 0.44 0.40 0.41 0.40 0.32 0.27 0.28 0.22 0.17 0.18 0.12 0.19 0.23 0.23
0.87 0.64 0.70 0.74 0.76 0.72 0.75 0.78 0.79 0.77 0.79 0.81 0.79 0.74 0.63 0.70 0.77 0.95 1.05 1.06 1.04 1.02 1.03 0.90 0.67 0.54 0.41 0.59 0.50 0.54 0.52 0.42 0.45 0.46 0.47 0.47 0.41 0.32 0.31 0.22 0.18 0.21 0.15 0.18 0.21 0.29 0.27
0.65 0.58 0.67 0.72 0.72 0.71 0.70 0.79 0.84 0.81 0.81 0.76 0.71 0.67 0.62 0.86 0.88 1.07 1.01 1.04 1.00 0.93 0.82 0.74 0.65 0.40 0.45 0.38 0.47 0.48 0.51 0.50 0.46 0.47 0.44 0.43 0.39 0.31 0.30 0.25 0.15 0.18 0.18 0.19 0.17 0.22 0.23
0.52 0.60 0.70 0.68 0.70 0.67 0.66 0.70 0.70 0.74 0.72 0.66 0.66 0.72 0.77 0.89 0.98 0.95 0.92 0.80 0.66 0.60 0.60 0.47 0.43 0.40 0.41 0.47 0.51 0.44 0.51 0.48 0.49 0.45 0.34 0.40 0.29 0.21 0.24 0.28 0.26 0.24 0.21 0.19 0.21 0.25 0.25
0.52 0.58 0.65 0.65 0.65 0.67 0.65 0.67 0.71 0.71 0.63 0.81 0.89 0.81 0.73 0.96 0.96 0.91 0.88 0.68 0.66 0.61 0.41 0.50 0.46 0.45 0.49 0.51 0.42 0.48 0.54 0.40 0.37 0.28 0.33 0.28 0.20 0.27 0.31 0.30 0.27 0.26 0.22 0.22 0.26 0.30 0.31
0.57 0.58 0.61 0.62 0.62 0.66 0.69 0.67 0.62 0.62 0.63 0.88 0.91 0.79 0.77 0.85 0.93 0.85 0.75 0.68 0.74 0.59 0.39 0.46 0.53 0.49 0.49 0.55 0.45 0.43 0.47 0.42 0.34 0.28 0.28 0.23 0.25 0.33 0.31 0.28 0.25 0.27 0.25 0.27 0.27 0.32 0.34
0.59 0.59 0.59 0.62 0.59 0.60 0.57 0.57 0.60 0.63 0.64 0.81 0.91 0.81 0.76 0.82 0.80 0.78 0.66 0.71 0.68 0.60 0.29 0.36 0.41 0.49 0.54 0.53 0.42 0.55 0.56 0.47 0.38 0.31 0.34 0.31 0.37 0.35 0.33 0.31 0.34 0.26 0.36 0.36 0.35 0.32 0.24
0.60 0.61 0.59 0.59 0.58 0.58 0.56 0.61 0.68 0.63 0.66 0.75 0.79 0.77 0.77 0.73 0.62 0.67 0.67 0.68 0.66 0.51 0.15 0.40 0.45 0.62 0.56 0.47 0.47 0.49 0.61 0.49 0.37 0.37 0.39 0.32 0.36 0.36 0.34 0.37 0.40 0.35 0.43 0.41 0.41 0.35 0.34
0.55 0.61 0.60 0.60 0.57 0.56 0.59 0.70 0.69 0.69 0.70 0.72 0.71 0.71 0.76 0.76 0.76 0.73 0.68 0.65 0.49 0.22 0.18 0.35 0.46 0.44 0.44 0.46 0.47 0.51 0.51 0.57 0.54 0.42 0.42 0.39 0.49 0.46 0.44 0.48 0.48 0.48 0.44 0.44 0.42 0.37 0.25
0.51 0.56 0.63 0.61 0.59 0.59 0.61 0.66 0.74 0.79 0.81 0.80 0.79 0.81 0.77 0.78 0.61 0.78 0.66 0.47 0.22 0.18 0.34 0.33 0.37 0.44 0.40 0.37 0.40 0.43 0.42 0.40 0.34 0.27 0.27 0.36 0.39 0.48 0.51 0.44 0.52 0.49 0.40 0.26 0.24 0.25 0.24
0.52 0.52 0.58 0.59 0.57 0.57 0.58 0.63 0.77 0.79 0.80 0.80 0.79 0.75 0.74 0.70 0.71 0.63 0.49 0.30 0.18 0.27 0.29 0.39 0.38 0.38 0.32 0.38 0.37 0.40 0.40 0.34 0.43 0.41 0.34 0.29 0.25 0.39 0.50 0.48 0.45 0.45 0.41 0.29 0.20 0.23 0.27
0.49 0.52 0.53 0.57 0.57 0.54 0.57 0.63 0.66 0.73 0.75 0.75 0.72 0.65 0.58 0.60 0.62 0.59 0.38 0.23 0.25 0.30 0.37 0.34 0.35 0.29 0.29 0.34 0.35 0.37 0.38 0.35 0.39 0.44 0.32 0.31 0.28 0.42 0.46 0.54 0.54 0.45 0.38 0.49 0.35 0.37 0.29
0.58 0.48 0.49 0.51 0.55 0.56 0.59 0.64 0.67 0.70 0.71 0.66 0.53 0.52 0.50 0.61 0.62 0.50 0.33 0.26 0.32 0.39 0.39 0.37 0.26 0.30 0.24 0.28 0.30 0.32 0.34 0.42 0.40 0.46 0.49 0.39 0.27 0.38 0.43 0.51 0.53 0.49 0.55 0.36 0.38 0.25 0.23
0.61 0.58 0.49 0.48 0.46 0.48 0.60 0.68 0.71 0.70 0.68 0.60 0.46 0.33 0.48 0.60 0.59 0.39 0.25 0.27 0.34 0.41 0.42 0.34 0.30 0.28 0.29 0.29 0.33 0.34 0.32 0.39 0.44 0.43 0.48 0.43 0.36 0.29 0.36 0.34 0.37 0.39 0.37 0.40 0.40 0.36 0.26
0.62 0.61 0.58 0.51 0.48 0.48 0.58 0.70 0.71 0.72 0.66 0.54 0.39 0.24 0.50 0.57 0.30 0.32 0.24 0.29 0.36 0.35 0.41 0.36 0.35 0.32 0.29 0.31 0.28 0.29 0.29 0.33 0.44 0.42 0.35 0.40 0.32 0.22 0.24 0.36 0.41 0.38 0.33 0.38 0.30 0.30 0.35
0.72 0.67 0.64 0.60 0.52 0.53 0.62 0.64 0.68 0.70 0.69 0.48 0.33 0.32 0.48 0.46 0.21 0.21 0.27 0.27 0.31 0.29 0.31 0.31 0.30 0.32 0.34 0.30 0.25 0.29 0.30 0.39 0.42 0.39 0.35 0.37 0.27 0.16 0.15 0.21 0.28 0.28 0.34 0.38 0.40 0.39 0.32
0.70 0.77 0.67 0.65 0.63 0.64 0.64 0.67 0.66 0.65 0.67 0.50 0.31 0.22 0.32 0.36 0.34 0.24 0.21 0.21 0.22 0.33 0.31 0.31 0.29 0.31 0.27 0.25 0.29 0.24 0.26 0.34 0.40 0.38 0.41 0.39 0.26 0.20 0.13 0.17 0.22 0.19 0.25 0.31 0.32 0.25 0.26
0.63 0.70 0.78 0.70 0.64 0.65 0.69 0.68 0.65 0.63 0.61 0.52 0.33 0.26 0.31 0.21 0.23 0.24 0.24 0.22 0.20 0.19 0.30 0.30 0.24 0.26 0.24 0.20 0.22 0.21 0.25 0.27 0.32 0.35 0.35 0.32 0.19 0.21 0.20 0.21 0.21 0.18 0.19 0.21 0.20 0.21 0.16
0.59 0.61 0.69 0.78 0.71 0.66 0.67 0.68 0.65 0.62 0.59 0.45 0.31 0.28 0.31 0.26 0.29 0.24 0.22 0.18 0.19 0.20 0.23 0.22 0.22 0.25 0.24 0.19 0.20 0.18 0.23 0.23 0.22 0.27 0.26 0.29 0.17 0.19 0.15 0.18 0.18 0.15 0.18 0.20 0.21 0.22 0.21
0.64 0.59 0.60 0.64 0.72 0.73 0.72 0.70 0.67 0.63 0.56 0.39 0.43 0.44 0.33 0.24 0.23 0.22 0.22 0.23 0.21 0.24 0.26 0.26 0.25 0.24 0.23 0.23 0.28 0.28 0.29 0.29 0.28 0.23 0.21 0.21 0.18 0.15 0.09 0.16 0.13 0.09 0.13 0.16 0.18 0.22 0.21
0.64 0.61 0.62 0.61 0.59 0.63 0.69 0.68 0.68 0.64 0.57 0.43 0.39 0.38 0.28 0.18 0.20 0.20 0.23 0.26 0.26 0.27 0.22 0.26 0.28 0.23 0.31 0.37 0.34 0.32 0.29 0.28 0.27 0.26 0.27 0.20 0.19 0.16 0.10 0.11 0.05 0.10 0.18 0.18 0.16 0.18 0.22
0.70 0.64 0.62 0.61 0.60 0.59 0.64 0.67 0.70 0.69 0.64 0.54 0.46 0.36 0.28 0.19 0.23 0.22 0.22 0.23 0.26 0.29 0.27 0.26 0.29 0.32 0.39 0.33 0.22 0.17 0.17 0.19 0.21 0.25 0.25 0.25 0.20 0.14 0.10 0.09 0.09 0.11 0.15 0.15 0.13 0.11 0.19
0.83 0.68 0.64 0.62 0.61 0.61 0.61 0.65 0.67 0.74 0.70 0.57 0.51 0.49 0.34 0.22 0.19 0.25 0.22 0.24 0.21 0.22 0.23 0.27 0.37 0.41 0.37 0.28 0.21 0.13 0.10 0.14 0.13 0.16 0.27 0.26 0.24 0.17 0.14 0.09 0.07 0.10 0.18 0.23 0.21 0.10 0.16
1.00 0.81 0.67 0.63 0.62 0.62 0.64 0.64 0.67 0.73 0.76 0.67 0.56 0.56 0.42 0.25 0.28 0.28 0.22 0.22 0.29 0.27 0.23 0.27 0.29 0.29 0.37 0.24 0.19 0.17 0.16 0.22 0.15 0.15 0.17 0.20 0.20 0.15 0.15 0.12 0.12 0.18 0.23 0.24 0.10 0.09 0.19
1.13 0.93 0.79 0.65 0.60 0.60 0.62 0.64 0.67 0.70 0.75 0.71 0.67 0.66 0.49 0.36 0.32 0.32 0.32 0.26 0.28 0.29 0.22 0.31 0.28 0.28 0.26 0.20 0.21 0.21 0.20 0.22 0.20 0.22 0.20 0.18 0.16 0.15 0.17 0.14 0.10 0.24 0.24 0.15 0.16 0.20 0.22
1.18 1.09 0.88 0.74 0.68 0.67 0.65 0.64 0.68 0.71 0.71 0.73 0.62 0.71 0.67 0.47 0.39 0.47 0.43 0.40 0.37 0.38 0.33 0.35 0.29 0.31 0.31 0.25 0.26 0.25 0.21 0.23 0.21 0.15 0.24 0.17 0.21 0.18 0.20 0.16 0.23 0.27 0.24 0.25 0.25 0.23 0.22